<?xml version="1.0" encoding="UTF-8" standalone="no" ?>
<gpx xmlns="http://www.topografix.com/GPX/1/1" xmlns:xsi="http://www.w3.org/2001/XMLSchema-instance" xsi:schemaLocation="http://www.topografix.com/GPX/1/1 http://www.topografix.com/GPX/1/1/gpx.xsd" version="1.1" creator="VisuGPX - https://www.visugpx.com">
  <metadata>
    <name>MB. Sortie du 29/09/2019</name>
    <desc><![CDATA[Sortie VTT du dimanche 29 septembre 2019]]></desc>
  </metadata>
  <trk>
    <name><![CDATA[Pornichet Cyclisme]]></name>
    <trkseg>
      <trkpt lat="47.26419" lon="-2.31552">
        <ele>18</ele>
        <time>2019-09-29T07:00:54.000Z</time>
      </trkpt>
      <trkpt lat="47.26417" lon="-2.31553">
        <ele>18.200000762939</ele>
        <time>2019-09-29T07:00:59.000Z</time>
      </trkpt>
      <trkpt lat="47.26417" lon="-2.31553">
        <ele>18.200000762939</ele>
        <time>2019-09-29T07:01:01.000Z</time>
      </trkpt>
      <trkpt lat="47.26415" lon="-2.31553">
        <ele>18.200000762939</ele>
        <time>2019-09-29T07:01:06.000Z</time>
      </trkpt>
      <trkpt lat="47.26413" lon="-2.31553">
        <ele>18.200000762939</ele>
        <time>2019-09-29T07:01:07.000Z</time>
      </trkpt>
      <trkpt lat="47.26408" lon="-2.31556">
        <ele>18.200000762939</ele>
        <time>2019-09-29T07:01:09.000Z</time>
      </trkpt>
      <trkpt lat="47.26407" lon="-2.31561">
        <ele>18.200000762939</ele>
        <time>2019-09-29T07:01:10.000Z</time>
      </trkpt>
      <trkpt lat="47.26406" lon="-2.31599">
        <ele>18.200000762939</ele>
        <time>2019-09-29T07:01:15.000Z</time>
      </trkpt>
      <trkpt lat="47.26405" lon="-2.31638">
        <ele>18.200000762939</ele>
        <time>2019-09-29T07:01:22.000Z</time>
      </trkpt>
      <trkpt lat="47.26406" lon="-2.31651">
        <ele>18.200000762939</ele>
        <time>2019-09-29T07:01:24.000Z</time>
      </trkpt>
      <trkpt lat="47.26403" lon="-2.31665">
        <ele>18.200000762939</ele>
        <time>2019-09-29T07:01:27.000Z</time>
      </trkpt>
      <trkpt lat="47.26393" lon="-2.31673">
        <ele>18.200000762939</ele>
        <time>2019-09-29T07:01:29.000Z</time>
      </trkpt>
      <trkpt lat="47.26376" lon="-2.31685">
        <ele>17.799999237061</ele>
        <time>2019-09-29T07:01:34.000Z</time>
      </trkpt>
      <trkpt lat="47.26371" lon="-2.31687">
        <ele>17.200000762939</ele>
        <time>2019-09-29T07:01:35.000Z</time>
      </trkpt>
      <trkpt lat="47.26366" lon="-2.31689">
        <ele>16.799999237061</ele>
        <time>2019-09-29T07:01:36.000Z</time>
      </trkpt>
      <trkpt lat="47.26361" lon="-2.31692">
        <ele>16.39999961853</ele>
        <time>2019-09-29T07:01:37.000Z</time>
      </trkpt>
      <trkpt lat="47.26357" lon="-2.31695">
        <ele>15.800000190735</ele>
        <time>2019-09-29T07:01:38.000Z</time>
      </trkpt>
      <trkpt lat="47.26341" lon="-2.31705">
        <ele>15.800000190735</ele>
        <time>2019-09-29T07:01:41.000Z</time>
      </trkpt>
      <trkpt lat="47.26311" lon="-2.31722">
        <ele>15.800000190735</ele>
        <time>2019-09-29T07:01:47.000Z</time>
      </trkpt>
      <trkpt lat="47.26304" lon="-2.31734">
        <ele>15.39999961853</ele>
        <time>2019-09-29T07:01:50.000Z</time>
      </trkpt>
      <trkpt lat="47.26303" lon="-2.31739">
        <ele>14.800000190735</ele>
        <time>2019-09-29T07:01:51.000Z</time>
      </trkpt>
      <trkpt lat="47.26303" lon="-2.31744">
        <ele>14</ele>
        <time>2019-09-29T07:01:52.000Z</time>
      </trkpt>
      <trkpt lat="47.26306" lon="-2.3176">
        <ele>13.39999961853</ele>
        <time>2019-09-29T07:01:53.000Z</time>
      </trkpt>
      <trkpt lat="47.26308" lon="-2.31778">
        <ele>13.39999961853</ele>
        <time>2019-09-29T07:01:58.000Z</time>
      </trkpt>
      <trkpt lat="47.26307" lon="-2.31817">
        <ele>13.39999961853</ele>
        <time>2019-09-29T07:02:04.000Z</time>
      </trkpt>
      <trkpt lat="47.26305" lon="-2.3184">
        <ele>13.39999961853</ele>
        <time>2019-09-29T07:02:07.000Z</time>
      </trkpt>
      <trkpt lat="47.26303" lon="-2.31863">
        <ele>13.39999961853</ele>
        <time>2019-09-29T07:02:10.000Z</time>
      </trkpt>
      <trkpt lat="47.26299" lon="-2.31883">
        <ele>13.39999961853</ele>
        <time>2019-09-29T07:02:14.000Z</time>
      </trkpt>
      <trkpt lat="47.26284" lon="-2.31897">
        <ele>13.39999961853</ele>
        <time>2019-09-29T07:02:19.000Z</time>
      </trkpt>
      <trkpt lat="47.26268" lon="-2.3192">
        <ele>13.39999961853</ele>
        <time>2019-09-29T07:02:25.000Z</time>
      </trkpt>
      <trkpt lat="47.26258" lon="-2.31942">
        <ele>13.39999961853</ele>
        <time>2019-09-29T07:02:29.000Z</time>
      </trkpt>
      <trkpt lat="47.26244" lon="-2.3197">
        <ele>13.39999961853</ele>
        <time>2019-09-29T07:02:34.000Z</time>
      </trkpt>
      <trkpt lat="47.2624" lon="-2.31971">
        <ele>13.39999961853</ele>
        <time>2019-09-29T07:02:35.000Z</time>
      </trkpt>
      <trkpt lat="47.2623" lon="-2.31976">
        <ele>13.39999961853</ele>
        <time>2019-09-29T07:02:39.000Z</time>
      </trkpt>
      <trkpt lat="47.26223" lon="-2.31984">
        <ele>13.39999961853</ele>
        <time>2019-09-29T07:02:43.000Z</time>
      </trkpt>
      <trkpt lat="47.2621" lon="-2.31995">
        <ele>13.39999961853</ele>
        <time>2019-09-29T07:02:46.000Z</time>
      </trkpt>
      <trkpt lat="47.26206" lon="-2.32001">
        <ele>13.39999961853</ele>
        <time>2019-09-29T07:02:50.000Z</time>
      </trkpt>
      <trkpt lat="47.26205" lon="-2.32005">
        <ele>13</ele>
        <time>2019-09-29T07:02:51.000Z</time>
      </trkpt>
      <trkpt lat="47.26204" lon="-2.32009">
        <ele>12.60000038147</ele>
        <time>2019-09-29T07:02:52.000Z</time>
      </trkpt>
      <trkpt lat="47.26201" lon="-2.32013">
        <ele>12.199999809265</ele>
        <time>2019-09-29T07:02:53.000Z</time>
      </trkpt>
      <trkpt lat="47.26198" lon="-2.32015">
        <ele>11.800000190735</ele>
        <time>2019-09-29T07:02:54.000Z</time>
      </trkpt>
      <trkpt lat="47.26196" lon="-2.32017">
        <ele>11.39999961853</ele>
        <time>2019-09-29T07:02:55.000Z</time>
      </trkpt>
      <trkpt lat="47.26194" lon="-2.32018">
        <ele>11.39999961853</ele>
        <time>2019-09-29T07:02:56.000Z</time>
      </trkpt>
      <trkpt lat="47.26183" lon="-2.32019">
        <ele>11.39999961853</ele>
        <time>2019-09-29T07:03:00.000Z</time>
      </trkpt>
      <trkpt lat="47.2618" lon="-2.32018">
        <ele>11.39999961853</ele>
        <time>2019-09-29T07:03:01.000Z</time>
      </trkpt>
      <trkpt lat="47.26169" lon="-2.32025">
        <ele>11.39999961853</ele>
        <time>2019-09-29T07:03:05.000Z</time>
      </trkpt>
      <trkpt lat="47.26158" lon="-2.32041">
        <ele>11.39999961853</ele>
        <time>2019-09-29T07:03:09.000Z</time>
      </trkpt>
      <trkpt lat="47.26141" lon="-2.32097">
        <ele>11.39999961853</ele>
        <time>2019-09-29T07:03:14.000Z</time>
      </trkpt>
      <trkpt lat="47.26126" lon="-2.32146">
        <ele>11.39999961853</ele>
        <time>2019-09-29T07:03:23.000Z</time>
      </trkpt>
      <trkpt lat="47.26122" lon="-2.3216">
        <ele>11.39999961853</ele>
        <time>2019-09-29T07:03:25.000Z</time>
      </trkpt>
      <trkpt lat="47.26117" lon="-2.32174">
        <ele>11.39999961853</ele>
        <time>2019-09-29T07:03:27.000Z</time>
      </trkpt>
      <trkpt lat="47.261" lon="-2.32212">
        <ele>11.39999961853</ele>
        <time>2019-09-29T07:03:33.000Z</time>
      </trkpt>
      <trkpt lat="47.26096" lon="-2.32218">
        <ele>11.39999961853</ele>
        <time>2019-09-29T07:03:34.000Z</time>
      </trkpt>
      <trkpt lat="47.26073" lon="-2.3225">
        <ele>11.39999961853</ele>
        <time>2019-09-29T07:03:40.000Z</time>
      </trkpt>
      <trkpt lat="47.26065" lon="-2.32259">
        <ele>11.800000190735</ele>
        <time>2019-09-29T07:03:42.000Z</time>
      </trkpt>
      <trkpt lat="47.26061" lon="-2.32263">
        <ele>12.199999809265</ele>
        <time>2019-09-29T07:03:43.000Z</time>
      </trkpt>
      <trkpt lat="47.26056" lon="-2.32268">
        <ele>12.60000038147</ele>
        <time>2019-09-29T07:03:44.000Z</time>
      </trkpt>
      <trkpt lat="47.26051" lon="-2.32272">
        <ele>13</ele>
        <time>2019-09-29T07:03:45.000Z</time>
      </trkpt>
      <trkpt lat="47.26046" lon="-2.32276">
        <ele>13.60000038147</ele>
        <time>2019-09-29T07:03:46.000Z</time>
      </trkpt>
      <trkpt lat="47.26037" lon="-2.32286">
        <ele>13.60000038147</ele>
        <time>2019-09-29T07:03:48.000Z</time>
      </trkpt>
      <trkpt lat="47.26021" lon="-2.32304">
        <ele>13.60000038147</ele>
        <time>2019-09-29T07:03:52.000Z</time>
      </trkpt>
      <trkpt lat="47.25982" lon="-2.32356">
        <ele>13.60000038147</ele>
        <time>2019-09-29T07:04:00.000Z</time>
      </trkpt>
      <trkpt lat="47.25947" lon="-2.32403">
        <ele>13.60000038147</ele>
        <time>2019-09-29T07:04:12.000Z</time>
      </trkpt>
      <trkpt lat="47.25939" lon="-2.32414">
        <ele>13.60000038147</ele>
        <time>2019-09-29T07:04:14.000Z</time>
      </trkpt>
      <trkpt lat="47.25928" lon="-2.32427">
        <ele>13.60000038147</ele>
        <time>2019-09-29T07:04:17.000Z</time>
      </trkpt>
      <trkpt lat="47.2591" lon="-2.32448">
        <ele>13.60000038147</ele>
        <time>2019-09-29T07:04:22.000Z</time>
      </trkpt>
      <trkpt lat="47.25907" lon="-2.32453">
        <ele>13.60000038147</ele>
        <time>2019-09-29T07:04:23.000Z</time>
      </trkpt>
      <trkpt lat="47.25901" lon="-2.32462">
        <ele>13.60000038147</ele>
        <time>2019-09-29T07:04:25.000Z</time>
      </trkpt>
      <trkpt lat="47.2589" lon="-2.32471">
        <ele>13.60000038147</ele>
        <time>2019-09-29T07:04:28.000Z</time>
      </trkpt>
      <trkpt lat="47.25877" lon="-2.32478">
        <ele>13.60000038147</ele>
        <time>2019-09-29T07:04:31.000Z</time>
      </trkpt>
      <trkpt lat="47.25867" lon="-2.32479">
        <ele>13.60000038147</ele>
        <time>2019-09-29T07:04:33.000Z</time>
      </trkpt>
      <trkpt lat="47.25835" lon="-2.32474">
        <ele>13.60000038147</ele>
        <time>2019-09-29T07:04:39.000Z</time>
      </trkpt>
      <trkpt lat="47.25806" lon="-2.32459">
        <ele>13.60000038147</ele>
        <time>2019-09-29T07:04:45.000Z</time>
      </trkpt>
      <trkpt lat="47.25802" lon="-2.32459">
        <ele>13.60000038147</ele>
        <time>2019-09-29T07:04:46.000Z</time>
      </trkpt>
      <trkpt lat="47.25776" lon="-2.32455">
        <ele>13.60000038147</ele>
        <time>2019-09-29T07:04:50.000Z</time>
      </trkpt>
      <trkpt lat="47.25773" lon="-2.32451">
        <ele>13.60000038147</ele>
        <time>2019-09-29T07:04:53.000Z</time>
      </trkpt>
      <trkpt lat="47.25768" lon="-2.3244">
        <ele>13.60000038147</ele>
        <time>2019-09-29T07:04:55.000Z</time>
      </trkpt>
      <trkpt lat="47.25757" lon="-2.3243">
        <ele>13.60000038147</ele>
        <time>2019-09-29T07:04:58.000Z</time>
      </trkpt>
      <trkpt lat="47.25752" lon="-2.32429">
        <ele>13.60000038147</ele>
        <time>2019-09-29T07:04:59.000Z</time>
      </trkpt>
      <trkpt lat="47.25747" lon="-2.32428">
        <ele>13.60000038147</ele>
        <time>2019-09-29T07:05:00.000Z</time>
      </trkpt>
      <trkpt lat="47.25711" lon="-2.32425">
        <ele>13.60000038147</ele>
        <time>2019-09-29T07:05:07.000Z</time>
      </trkpt>
      <trkpt lat="47.25678" lon="-2.32422">
        <ele>13.60000038147</ele>
        <time>2019-09-29T07:05:14.000Z</time>
      </trkpt>
      <trkpt lat="47.2567" lon="-2.32422">
        <ele>13.60000038147</ele>
        <time>2019-09-29T07:05:16.000Z</time>
      </trkpt>
      <trkpt lat="47.2566" lon="-2.3243">
        <ele>13.60000038147</ele>
        <time>2019-09-29T07:05:19.000Z</time>
      </trkpt>
      <trkpt lat="47.25661" lon="-2.3245">
        <ele>13.60000038147</ele>
        <time>2019-09-29T07:05:22.000Z</time>
      </trkpt>
      <trkpt lat="47.25668" lon="-2.32475">
        <ele>13.60000038147</ele>
        <time>2019-09-29T07:05:26.000Z</time>
      </trkpt>
      <trkpt lat="47.25675" lon="-2.32498">
        <ele>14</ele>
        <time>2019-09-29T07:05:30.000Z</time>
      </trkpt>
      <trkpt lat="47.25677" lon="-2.32504">
        <ele>14.39999961853</ele>
        <time>2019-09-29T07:05:31.000Z</time>
      </trkpt>
      <trkpt lat="47.25679" lon="-2.32509">
        <ele>14.800000190735</ele>
        <time>2019-09-29T07:05:32.000Z</time>
      </trkpt>
      <trkpt lat="47.25681" lon="-2.32515">
        <ele>15.199999809265</ele>
        <time>2019-09-29T07:05:33.000Z</time>
      </trkpt>
      <trkpt lat="47.25683" lon="-2.32521">
        <ele>15.60000038147</ele>
        <time>2019-09-29T07:05:34.000Z</time>
      </trkpt>
      <trkpt lat="47.25694" lon="-2.32554">
        <ele>15.60000038147</ele>
        <time>2019-09-29T07:05:40.000Z</time>
      </trkpt>
      <trkpt lat="47.25704" lon="-2.32586">
        <ele>16.799999237061</ele>
        <time>2019-09-29T07:05:44.000Z</time>
      </trkpt>
      <trkpt lat="47.25705" lon="-2.32592">
        <ele>17.200000762939</ele>
        <time>2019-09-29T07:05:47.000Z</time>
      </trkpt>
      <trkpt lat="47.25707" lon="-2.32597">
        <ele>17.60000038147</ele>
        <time>2019-09-29T07:05:48.000Z</time>
      </trkpt>
      <trkpt lat="47.25709" lon="-2.32608">
        <ele>17.60000038147</ele>
        <time>2019-09-29T07:05:50.000Z</time>
      </trkpt>
      <trkpt lat="47.25703" lon="-2.32623">
        <ele>17.60000038147</ele>
        <time>2019-09-29T07:05:53.000Z</time>
      </trkpt>
      <trkpt lat="47.257" lon="-2.32627">
        <ele>17.60000038147</ele>
        <time>2019-09-29T07:05:54.000Z</time>
      </trkpt>
      <trkpt lat="47.25696" lon="-2.32629">
        <ele>18</ele>
        <time>2019-09-29T07:05:55.000Z</time>
      </trkpt>
      <trkpt lat="47.25692" lon="-2.32631">
        <ele>18.39999961853</ele>
        <time>2019-09-29T07:05:56.000Z</time>
      </trkpt>
      <trkpt lat="47.25688" lon="-2.32633">
        <ele>18.799999237061</ele>
        <time>2019-09-29T07:05:57.000Z</time>
      </trkpt>
      <trkpt lat="47.25683" lon="-2.32634">
        <ele>19.200000762939</ele>
        <time>2019-09-29T07:05:58.000Z</time>
      </trkpt>
      <trkpt lat="47.25679" lon="-2.32635">
        <ele>19.799999237061</ele>
        <time>2019-09-29T07:05:59.000Z</time>
      </trkpt>
      <trkpt lat="47.25658" lon="-2.32645">
        <ele>20.200000762939</ele>
        <time>2019-09-29T07:06:02.000Z</time>
      </trkpt>
      <trkpt lat="47.25654" lon="-2.32648">
        <ele>20.60000038147</ele>
        <time>2019-09-29T07:06:05.000Z</time>
      </trkpt>
      <trkpt lat="47.2565" lon="-2.3265">
        <ele>21</ele>
        <time>2019-09-29T07:06:06.000Z</time>
      </trkpt>
      <trkpt lat="47.25646" lon="-2.32652">
        <ele>21.39999961853</ele>
        <time>2019-09-29T07:06:07.000Z</time>
      </trkpt>
      <trkpt lat="47.25642" lon="-2.32654">
        <ele>21.799999237061</ele>
        <time>2019-09-29T07:06:08.000Z</time>
      </trkpt>
      <trkpt lat="47.25613" lon="-2.32665">
        <ele>21.799999237061</ele>
        <time>2019-09-29T07:06:15.000Z</time>
      </trkpt>
      <trkpt lat="47.2559" lon="-2.32673">
        <ele>21.799999237061</ele>
        <time>2019-09-29T07:06:21.000Z</time>
      </trkpt>
      <trkpt lat="47.25577" lon="-2.32678">
        <ele>22.200000762939</ele>
        <time>2019-09-29T07:06:24.000Z</time>
      </trkpt>
      <trkpt lat="47.25573" lon="-2.3268">
        <ele>22.60000038147</ele>
        <time>2019-09-29T07:06:25.000Z</time>
      </trkpt>
      <trkpt lat="47.25569" lon="-2.32681">
        <ele>23</ele>
        <time>2019-09-29T07:06:26.000Z</time>
      </trkpt>
      <trkpt lat="47.25564" lon="-2.32683">
        <ele>23.39999961853</ele>
        <time>2019-09-29T07:06:27.000Z</time>
      </trkpt>
      <trkpt lat="47.2556" lon="-2.32685">
        <ele>23.799999237061</ele>
        <time>2019-09-29T07:06:28.000Z</time>
      </trkpt>
      <trkpt lat="47.25556" lon="-2.32686">
        <ele>23.799999237061</ele>
        <time>2019-09-29T07:06:29.000Z</time>
      </trkpt>
      <trkpt lat="47.2553" lon="-2.32697">
        <ele>23.799999237061</ele>
        <time>2019-09-29T07:06:35.000Z</time>
      </trkpt>
      <trkpt lat="47.25525" lon="-2.32698">
        <ele>23.799999237061</ele>
        <time>2019-09-29T07:06:36.000Z</time>
      </trkpt>
      <trkpt lat="47.25493" lon="-2.32703">
        <ele>23.39999961853</ele>
        <time>2019-09-29T07:06:43.000Z</time>
      </trkpt>
      <trkpt lat="47.25489" lon="-2.32704">
        <ele>22.60000038147</ele>
        <time>2019-09-29T07:06:44.000Z</time>
      </trkpt>
      <trkpt lat="47.25485" lon="-2.32706">
        <ele>22.200000762939</ele>
        <time>2019-09-29T07:06:45.000Z</time>
      </trkpt>
      <trkpt lat="47.25482" lon="-2.32709">
        <ele>21.799999237061</ele>
        <time>2019-09-29T07:06:46.000Z</time>
      </trkpt>
      <trkpt lat="47.25474" lon="-2.32717">
        <ele>21.799999237061</ele>
        <time>2019-09-29T07:06:48.000Z</time>
      </trkpt>
      <trkpt lat="47.25451" lon="-2.32749">
        <ele>21.799999237061</ele>
        <time>2019-09-29T07:06:55.000Z</time>
      </trkpt>
      <trkpt lat="47.25439" lon="-2.32768">
        <ele>21.799999237061</ele>
        <time>2019-09-29T07:06:59.000Z</time>
      </trkpt>
      <trkpt lat="47.25435" lon="-2.32779">
        <ele>21.799999237061</ele>
        <time>2019-09-29T07:07:01.000Z</time>
      </trkpt>
      <trkpt lat="47.2542" lon="-2.32803">
        <ele>21.799999237061</ele>
        <time>2019-09-29T07:07:06.000Z</time>
      </trkpt>
      <trkpt lat="47.25394" lon="-2.3284">
        <ele>21.799999237061</ele>
        <time>2019-09-29T07:07:14.000Z</time>
      </trkpt>
      <trkpt lat="47.2538" lon="-2.32855">
        <ele>21.39999961853</ele>
        <time>2019-09-29T07:07:18.000Z</time>
      </trkpt>
      <trkpt lat="47.25377" lon="-2.32858">
        <ele>21</ele>
        <time>2019-09-29T07:07:19.000Z</time>
      </trkpt>
      <trkpt lat="47.25373" lon="-2.32862">
        <ele>20.60000038147</ele>
        <time>2019-09-29T07:07:20.000Z</time>
      </trkpt>
      <trkpt lat="47.2537" lon="-2.32866">
        <ele>20</ele>
        <time>2019-09-29T07:07:21.000Z</time>
      </trkpt>
      <trkpt lat="47.25366" lon="-2.3287">
        <ele>19.60000038147</ele>
        <time>2019-09-29T07:07:22.000Z</time>
      </trkpt>
      <trkpt lat="47.25337" lon="-2.32898">
        <ele>19.60000038147</ele>
        <time>2019-09-29T07:07:30.000Z</time>
      </trkpt>
      <trkpt lat="47.25311" lon="-2.32928">
        <ele>19.60000038147</ele>
        <time>2019-09-29T07:07:38.000Z</time>
      </trkpt>
      <trkpt lat="47.2531" lon="-2.32933">
        <ele>19.60000038147</ele>
        <time>2019-09-29T07:07:39.000Z</time>
      </trkpt>
      <trkpt lat="47.25309" lon="-2.32944">
        <ele>19.60000038147</ele>
        <time>2019-09-29T07:07:41.000Z</time>
      </trkpt>
      <trkpt lat="47.25315" lon="-2.32966">
        <ele>19.60000038147</ele>
        <time>2019-09-29T07:07:45.000Z</time>
      </trkpt>
      <trkpt lat="47.25324" lon="-2.32988">
        <ele>19.200000762939</ele>
        <time>2019-09-29T07:07:49.000Z</time>
      </trkpt>
      <trkpt lat="47.25325" lon="-2.32995">
        <ele>18.799999237061</ele>
        <time>2019-09-29T07:07:50.000Z</time>
      </trkpt>
      <trkpt lat="47.25327" lon="-2.33001">
        <ele>18.39999961853</ele>
        <time>2019-09-29T07:07:51.000Z</time>
      </trkpt>
      <trkpt lat="47.2533" lon="-2.33006">
        <ele>18</ele>
        <time>2019-09-29T07:07:52.000Z</time>
      </trkpt>
      <trkpt lat="47.25332" lon="-2.33012">
        <ele>17.60000038147</ele>
        <time>2019-09-29T07:07:53.000Z</time>
      </trkpt>
      <trkpt lat="47.25345" lon="-2.33048">
        <ele>17.60000038147</ele>
        <time>2019-09-29T07:08:00.000Z</time>
      </trkpt>
      <trkpt lat="47.25362" lon="-2.33089">
        <ele>17.60000038147</ele>
        <time>2019-09-29T07:08:09.000Z</time>
      </trkpt>
      <trkpt lat="47.25372" lon="-2.33118">
        <ele>17.60000038147</ele>
        <time>2019-09-29T07:08:16.000Z</time>
      </trkpt>
      <trkpt lat="47.25375" lon="-2.33126">
        <ele>17.60000038147</ele>
        <time>2019-09-29T07:08:21.000Z</time>
      </trkpt>
      <trkpt lat="47.25377" lon="-2.33128">
        <ele>15.60000038147</ele>
        <time>2019-09-29T07:10:48.000Z</time>
      </trkpt>
      <trkpt lat="47.25378" lon="-2.33138">
        <ele>15.60000038147</ele>
        <time>2019-09-29T07:10:49.000Z</time>
      </trkpt>
      <trkpt lat="47.25377" lon="-2.33154">
        <ele>15.60000038147</ele>
        <time>2019-09-29T07:10:52.000Z</time>
      </trkpt>
      <trkpt lat="47.25361" lon="-2.33181">
        <ele>15.60000038147</ele>
        <time>2019-09-29T07:11:02.000Z</time>
      </trkpt>
      <trkpt lat="47.25327" lon="-2.33223">
        <ele>15.60000038147</ele>
        <time>2019-09-29T07:11:15.000Z</time>
      </trkpt>
      <trkpt lat="47.25313" lon="-2.33226">
        <ele>15.60000038147</ele>
        <time>2019-09-29T07:11:19.000Z</time>
      </trkpt>
      <trkpt lat="47.25301" lon="-2.33209">
        <ele>15.60000038147</ele>
        <time>2019-09-29T07:11:23.000Z</time>
      </trkpt>
      <trkpt lat="47.25298" lon="-2.33203">
        <ele>15.60000038147</ele>
        <time>2019-09-29T07:11:24.000Z</time>
      </trkpt>
      <trkpt lat="47.25271" lon="-2.33153">
        <ele>15.60000038147</ele>
        <time>2019-09-29T07:11:33.000Z</time>
      </trkpt>
      <trkpt lat="47.25253" lon="-2.33123">
        <ele>15.60000038147</ele>
        <time>2019-09-29T07:11:39.000Z</time>
      </trkpt>
      <trkpt lat="47.25231" lon="-2.33082">
        <ele>15.60000038147</ele>
        <time>2019-09-29T07:11:47.000Z</time>
      </trkpt>
      <trkpt lat="47.25211" lon="-2.33041">
        <ele>15.60000038147</ele>
        <time>2019-09-29T07:11:55.000Z</time>
      </trkpt>
      <trkpt lat="47.25204" lon="-2.33031">
        <ele>15.60000038147</ele>
        <time>2019-09-29T07:11:59.000Z</time>
      </trkpt>
      <trkpt lat="47.25202" lon="-2.33031">
        <ele>15.60000038147</ele>
        <time>2019-09-29T07:12:00.000Z</time>
      </trkpt>
      <trkpt lat="47.25192" lon="-2.33038">
        <ele>15.60000038147</ele>
        <time>2019-09-29T07:12:03.000Z</time>
      </trkpt>
      <trkpt lat="47.25188" lon="-2.33042">
        <ele>15.60000038147</ele>
        <time>2019-09-29T07:12:04.000Z</time>
      </trkpt>
      <trkpt lat="47.25165" lon="-2.33065">
        <ele>15.60000038147</ele>
        <time>2019-09-29T07:12:10.000Z</time>
      </trkpt>
      <trkpt lat="47.25157" lon="-2.33072">
        <ele>15.60000038147</ele>
        <time>2019-09-29T07:12:12.000Z</time>
      </trkpt>
      <trkpt lat="47.25139" lon="-2.33083">
        <ele>15.60000038147</ele>
        <time>2019-09-29T07:12:16.000Z</time>
      </trkpt>
      <trkpt lat="47.25135" lon="-2.33085">
        <ele>15.60000038147</ele>
        <time>2019-09-29T07:12:17.000Z</time>
      </trkpt>
      <trkpt lat="47.25118" lon="-2.3309">
        <ele>15.60000038147</ele>
        <time>2019-09-29T07:12:22.000Z</time>
      </trkpt>
      <trkpt lat="47.25115" lon="-2.33089">
        <ele>15.60000038147</ele>
        <time>2019-09-29T07:12:23.000Z</time>
      </trkpt>
      <trkpt lat="47.25113" lon="-2.3308">
        <ele>16.39999961853</ele>
        <time>2019-09-29T07:12:24.000Z</time>
      </trkpt>
      <trkpt lat="47.25115" lon="-2.33069">
        <ele>17.799999237061</ele>
        <time>2019-09-29T07:12:27.000Z</time>
      </trkpt>
      <trkpt lat="47.25115" lon="-2.33069">
        <ele>17.799999237061</ele>
        <time>2019-09-29T07:12:30.000Z</time>
      </trkpt>
      <trkpt lat="47.25125" lon="-2.3304">
        <ele>17.799999237061</ele>
        <time>2019-09-29T07:12:35.000Z</time>
      </trkpt>
      <trkpt lat="47.25129" lon="-2.33026">
        <ele>17.39999961853</ele>
        <time>2019-09-29T07:12:37.000Z</time>
      </trkpt>
      <trkpt lat="47.25131" lon="-2.33019">
        <ele>17</ele>
        <time>2019-09-29T07:12:38.000Z</time>
      </trkpt>
      <trkpt lat="47.25132" lon="-2.33011">
        <ele>16.60000038147</ele>
        <time>2019-09-29T07:12:39.000Z</time>
      </trkpt>
      <trkpt lat="47.25131" lon="-2.33003">
        <ele>16</ele>
        <time>2019-09-29T07:12:40.000Z</time>
      </trkpt>
      <trkpt lat="47.25129" lon="-2.32997">
        <ele>15.60000038147</ele>
        <time>2019-09-29T07:12:41.000Z</time>
      </trkpt>
      <trkpt lat="47.25127" lon="-2.32993">
        <ele>15.60000038147</ele>
        <time>2019-09-29T07:12:42.000Z</time>
      </trkpt>
      <trkpt lat="47.25123" lon="-2.32988">
        <ele>15.60000038147</ele>
        <time>2019-09-29T07:12:43.000Z</time>
      </trkpt>
      <trkpt lat="47.25105" lon="-2.3296">
        <ele>15.60000038147</ele>
        <time>2019-09-29T07:12:49.000Z</time>
      </trkpt>
      <trkpt lat="47.25088" lon="-2.32936">
        <ele>15.60000038147</ele>
        <time>2019-09-29T07:12:55.000Z</time>
      </trkpt>
      <trkpt lat="47.25085" lon="-2.32923">
        <ele>15.60000038147</ele>
        <time>2019-09-29T07:12:58.000Z</time>
      </trkpt>
      <trkpt lat="47.25085" lon="-2.32912">
        <ele>15.60000038147</ele>
        <time>2019-09-29T07:13:03.000Z</time>
      </trkpt>
      <trkpt lat="47.25083" lon="-2.32906">
        <ele>15.60000038147</ele>
        <time>2019-09-29T07:13:09.000Z</time>
      </trkpt>
      <trkpt lat="47.2508" lon="-2.32894">
        <ele>15.60000038147</ele>
        <time>2019-09-29T07:13:12.000Z</time>
      </trkpt>
      <trkpt lat="47.25077" lon="-2.3288">
        <ele>15.60000038147</ele>
        <time>2019-09-29T07:13:14.000Z</time>
      </trkpt>
      <trkpt lat="47.25076" lon="-2.32861">
        <ele>15.60000038147</ele>
        <time>2019-09-29T07:13:18.000Z</time>
      </trkpt>
      <trkpt lat="47.25076" lon="-2.3285">
        <ele>15.60000038147</ele>
        <time>2019-09-29T07:13:21.000Z</time>
      </trkpt>
      <trkpt lat="47.25071" lon="-2.32842">
        <ele>15.60000038147</ele>
        <time>2019-09-29T07:13:23.000Z</time>
      </trkpt>
      <trkpt lat="47.25056" lon="-2.32831">
        <ele>15.60000038147</ele>
        <time>2019-09-29T07:13:27.000Z</time>
      </trkpt>
      <trkpt lat="47.25052" lon="-2.32826">
        <ele>15.60000038147</ele>
        <time>2019-09-29T07:13:28.000Z</time>
      </trkpt>
      <trkpt lat="47.25045" lon="-2.32807">
        <ele>15.60000038147</ele>
        <time>2019-09-29T07:13:31.000Z</time>
      </trkpt>
      <trkpt lat="47.25038" lon="-2.32777">
        <ele>15.60000038147</ele>
        <time>2019-09-29T07:13:36.000Z</time>
      </trkpt>
      <trkpt lat="47.25027" lon="-2.32761">
        <ele>15.60000038147</ele>
        <time>2019-09-29T07:13:40.000Z</time>
      </trkpt>
      <trkpt lat="47.25025" lon="-2.32755">
        <ele>16</ele>
        <time>2019-09-29T07:13:42.000Z</time>
      </trkpt>
      <trkpt lat="47.25026" lon="-2.32751">
        <ele>16.60000038147</ele>
        <time>2019-09-29T07:13:43.000Z</time>
      </trkpt>
      <trkpt lat="47.25032" lon="-2.32739">
        <ele>17.799999237061</ele>
        <time>2019-09-29T07:13:44.000Z</time>
      </trkpt>
      <trkpt lat="47.25047" lon="-2.32725">
        <ele>17.799999237061</ele>
        <time>2019-09-29T07:13:50.000Z</time>
      </trkpt>
      <trkpt lat="47.25073" lon="-2.32702">
        <ele>17.799999237061</ele>
        <time>2019-09-29T07:13:57.000Z</time>
      </trkpt>
      <trkpt lat="47.25083" lon="-2.32687">
        <ele>17.799999237061</ele>
        <time>2019-09-29T07:14:01.000Z</time>
      </trkpt>
      <trkpt lat="47.25083" lon="-2.32673">
        <ele>17.799999237061</ele>
        <time>2019-09-29T07:14:02.000Z</time>
      </trkpt>
      <trkpt lat="47.25081" lon="-2.32658">
        <ele>17.799999237061</ele>
        <time>2019-09-29T07:14:06.000Z</time>
      </trkpt>
      <trkpt lat="47.2507" lon="-2.32642">
        <ele>17.799999237061</ele>
        <time>2019-09-29T07:14:09.000Z</time>
      </trkpt>
      <trkpt lat="47.2506" lon="-2.32626">
        <ele>17.799999237061</ele>
        <time>2019-09-29T07:14:10.000Z</time>
      </trkpt>
      <trkpt lat="47.25046" lon="-2.326">
        <ele>18.200000762939</ele>
        <time>2019-09-29T07:14:18.000Z</time>
      </trkpt>
      <trkpt lat="47.25044" lon="-2.32595">
        <ele>18.799999237061</ele>
        <time>2019-09-29T07:14:19.000Z</time>
      </trkpt>
      <trkpt lat="47.25041" lon="-2.3259">
        <ele>19.200000762939</ele>
        <time>2019-09-29T07:14:20.000Z</time>
      </trkpt>
      <trkpt lat="47.25039" lon="-2.32585">
        <ele>19.799999237061</ele>
        <time>2019-09-29T07:14:21.000Z</time>
      </trkpt>
      <trkpt lat="47.25037" lon="-2.3258">
        <ele>20.200000762939</ele>
        <time>2019-09-29T07:14:22.000Z</time>
      </trkpt>
      <trkpt lat="47.25029" lon="-2.32566">
        <ele>20.200000762939</ele>
        <time>2019-09-29T07:14:25.000Z</time>
      </trkpt>
      <trkpt lat="47.25028" lon="-2.32538">
        <ele>20.200000762939</ele>
        <time>2019-09-29T07:14:30.000Z</time>
      </trkpt>
      <trkpt lat="47.2504" lon="-2.32513">
        <ele>20.60000038147</ele>
        <time>2019-09-29T07:14:35.000Z</time>
      </trkpt>
      <trkpt lat="47.25044" lon="-2.3251">
        <ele>21</ele>
        <time>2019-09-29T07:14:36.000Z</time>
      </trkpt>
      <trkpt lat="47.25047" lon="-2.32507">
        <ele>21.60000038147</ele>
        <time>2019-09-29T07:14:37.000Z</time>
      </trkpt>
      <trkpt lat="47.25059" lon="-2.325">
        <ele>22.39999961853</ele>
        <time>2019-09-29T07:14:38.000Z</time>
      </trkpt>
      <trkpt lat="47.25063" lon="-2.32499">
        <ele>22.39999961853</ele>
        <time>2019-09-29T07:14:42.000Z</time>
      </trkpt>
      <trkpt lat="47.25086" lon="-2.32488">
        <ele>22.799999237061</ele>
        <time>2019-09-29T07:14:48.000Z</time>
      </trkpt>
      <trkpt lat="47.2509" lon="-2.32485">
        <ele>23.200000762939</ele>
        <time>2019-09-29T07:14:49.000Z</time>
      </trkpt>
      <trkpt lat="47.25094" lon="-2.32482">
        <ele>23.60000038147</ele>
        <time>2019-09-29T07:14:50.000Z</time>
      </trkpt>
      <trkpt lat="47.25098" lon="-2.32478">
        <ele>24</ele>
        <time>2019-09-29T07:14:51.000Z</time>
      </trkpt>
      <trkpt lat="47.25101" lon="-2.32474">
        <ele>24.39999961853</ele>
        <time>2019-09-29T07:14:52.000Z</time>
      </trkpt>
      <trkpt lat="47.25107" lon="-2.32458">
        <ele>24.39999961853</ele>
        <time>2019-09-29T07:14:55.000Z</time>
      </trkpt>
      <trkpt lat="47.25109" lon="-2.32452">
        <ele>24.39999961853</ele>
        <time>2019-09-29T07:14:56.000Z</time>
      </trkpt>
      <trkpt lat="47.25109" lon="-2.32446">
        <ele>24.39999961853</ele>
        <time>2019-09-29T07:14:57.000Z</time>
      </trkpt>
      <trkpt lat="47.25108" lon="-2.32428">
        <ele>24.39999961853</ele>
        <time>2019-09-29T07:15:00.000Z</time>
      </trkpt>
      <trkpt lat="47.25105" lon="-2.32376">
        <ele>24.39999961853</ele>
        <time>2019-09-29T07:15:08.000Z</time>
      </trkpt>
      <trkpt lat="47.25106" lon="-2.32364">
        <ele>24.39999961853</ele>
        <time>2019-09-29T07:15:10.000Z</time>
      </trkpt>
      <trkpt lat="47.25107" lon="-2.32358">
        <ele>24.799999237061</ele>
        <time>2019-09-29T07:15:11.000Z</time>
      </trkpt>
      <trkpt lat="47.25109" lon="-2.32352">
        <ele>25.39999961853</ele>
        <time>2019-09-29T07:15:12.000Z</time>
      </trkpt>
      <trkpt lat="47.25111" lon="-2.32346">
        <ele>25.799999237061</ele>
        <time>2019-09-29T07:15:13.000Z</time>
      </trkpt>
      <trkpt lat="47.25112" lon="-2.32341">
        <ele>26.200000762939</ele>
        <time>2019-09-29T07:15:14.000Z</time>
      </trkpt>
      <trkpt lat="47.25114" lon="-2.32335">
        <ele>26.60000038147</ele>
        <time>2019-09-29T07:15:15.000Z</time>
      </trkpt>
      <trkpt lat="47.25123" lon="-2.32314">
        <ele>27.200000762939</ele>
        <time>2019-09-29T07:15:19.000Z</time>
      </trkpt>
      <trkpt lat="47.25126" lon="-2.3231">
        <ele>27.60000038147</ele>
        <time>2019-09-29T07:15:20.000Z</time>
      </trkpt>
      <trkpt lat="47.25129" lon="-2.32305">
        <ele>28</ele>
        <time>2019-09-29T07:15:21.000Z</time>
      </trkpt>
      <trkpt lat="47.25132" lon="-2.323">
        <ele>28.39999961853</ele>
        <time>2019-09-29T07:15:22.000Z</time>
      </trkpt>
      <trkpt lat="47.25133" lon="-2.32294">
        <ele>28.799999237061</ele>
        <time>2019-09-29T07:15:23.000Z</time>
      </trkpt>
      <trkpt lat="47.25134" lon="-2.32288">
        <ele>28.799999237061</ele>
        <time>2019-09-29T07:15:24.000Z</time>
      </trkpt>
      <trkpt lat="47.25133" lon="-2.32269">
        <ele>28.799999237061</ele>
        <time>2019-09-29T07:15:27.000Z</time>
      </trkpt>
      <trkpt lat="47.25131" lon="-2.3225">
        <ele>28.799999237061</ele>
        <time>2019-09-29T07:15:30.000Z</time>
      </trkpt>
      <trkpt lat="47.25131" lon="-2.32236">
        <ele>29.200000762939</ele>
        <time>2019-09-29T07:15:32.000Z</time>
      </trkpt>
      <trkpt lat="47.25131" lon="-2.32229">
        <ele>29.799999237061</ele>
        <time>2019-09-29T07:15:33.000Z</time>
      </trkpt>
      <trkpt lat="47.25131" lon="-2.32223">
        <ele>30.200000762939</ele>
        <time>2019-09-29T07:15:34.000Z</time>
      </trkpt>
      <trkpt lat="47.2513" lon="-2.32216">
        <ele>30.60000038147</ele>
        <time>2019-09-29T07:15:35.000Z</time>
      </trkpt>
      <trkpt lat="47.25129" lon="-2.32209">
        <ele>31</ele>
        <time>2019-09-29T07:15:36.000Z</time>
      </trkpt>
      <trkpt lat="47.25128" lon="-2.32187">
        <ele>31</ele>
        <time>2019-09-29T07:15:39.000Z</time>
      </trkpt>
      <trkpt lat="47.25124" lon="-2.3214">
        <ele>31</ele>
        <time>2019-09-29T07:15:46.000Z</time>
      </trkpt>
      <trkpt lat="47.25119" lon="-2.3208">
        <ele>31</ele>
        <time>2019-09-29T07:15:55.000Z</time>
      </trkpt>
      <trkpt lat="47.25115" lon="-2.32015">
        <ele>31</ele>
        <time>2019-09-29T07:16:03.000Z</time>
      </trkpt>
      <trkpt lat="47.25112" lon="-2.31991">
        <ele>31</ele>
        <time>2019-09-29T07:16:06.000Z</time>
      </trkpt>
      <trkpt lat="47.25107" lon="-2.3197">
        <ele>31</ele>
        <time>2019-09-29T07:16:09.000Z</time>
      </trkpt>
      <trkpt lat="47.25106" lon="-2.31963">
        <ele>31</ele>
        <time>2019-09-29T07:16:10.000Z</time>
      </trkpt>
      <trkpt lat="47.25104" lon="-2.31932">
        <ele>31</ele>
        <time>2019-09-29T07:16:14.000Z</time>
      </trkpt>
      <trkpt lat="47.25099" lon="-2.31899">
        <ele>31</ele>
        <time>2019-09-29T07:16:19.000Z</time>
      </trkpt>
      <trkpt lat="47.25097" lon="-2.31885">
        <ele>31</ele>
        <time>2019-09-29T07:16:21.000Z</time>
      </trkpt>
      <trkpt lat="47.25086" lon="-2.31815">
        <ele>31</ele>
        <time>2019-09-29T07:16:31.000Z</time>
      </trkpt>
      <trkpt lat="47.25079" lon="-2.31783">
        <ele>31</ele>
        <time>2019-09-29T07:16:36.000Z</time>
      </trkpt>
      <trkpt lat="47.25078" lon="-2.31776">
        <ele>31.60000038147</ele>
        <time>2019-09-29T07:16:37.000Z</time>
      </trkpt>
      <trkpt lat="47.25076" lon="-2.3177">
        <ele>32</ele>
        <time>2019-09-29T07:16:38.000Z</time>
      </trkpt>
      <trkpt lat="47.25075" lon="-2.31763">
        <ele>32.400001525879</ele>
        <time>2019-09-29T07:16:39.000Z</time>
      </trkpt>
      <trkpt lat="47.25073" lon="-2.31756">
        <ele>32.799999237061</ele>
        <time>2019-09-29T07:16:40.000Z</time>
      </trkpt>
      <trkpt lat="47.25071" lon="-2.31749">
        <ele>33.200000762939</ele>
        <time>2019-09-29T07:16:41.000Z</time>
      </trkpt>
      <trkpt lat="47.25067" lon="-2.31734">
        <ele>33.200000762939</ele>
        <time>2019-09-29T07:16:43.000Z</time>
      </trkpt>
      <trkpt lat="47.25061" lon="-2.31709">
        <ele>33.200000762939</ele>
        <time>2019-09-29T07:16:47.000Z</time>
      </trkpt>
      <trkpt lat="47.25058" lon="-2.31699">
        <ele>33.200000762939</ele>
        <time>2019-09-29T07:16:49.000Z</time>
      </trkpt>
      <trkpt lat="47.25053" lon="-2.31675">
        <ele>33.200000762939</ele>
        <time>2019-09-29T07:16:55.000Z</time>
      </trkpt>
      <trkpt lat="47.25046" lon="-2.31652">
        <ele>33.200000762939</ele>
        <time>2019-09-29T07:17:02.000Z</time>
      </trkpt>
      <trkpt lat="47.25044" lon="-2.3165">
        <ele>33.200000762939</ele>
        <time>2019-09-29T07:17:05.000Z</time>
      </trkpt>
      <trkpt lat="47.25044" lon="-2.3165">
        <ele>33.200000762939</ele>
        <time>2019-09-29T07:17:07.000Z</time>
      </trkpt>
      <trkpt lat="47.2504" lon="-2.31648">
        <ele>33.200000762939</ele>
        <time>2019-09-29T07:17:09.000Z</time>
      </trkpt>
      <trkpt lat="47.25031" lon="-2.31634">
        <ele>33.200000762939</ele>
        <time>2019-09-29T07:17:12.000Z</time>
      </trkpt>
      <trkpt lat="47.25" lon="-2.31594">
        <ele>33.200000762939</ele>
        <time>2019-09-29T07:17:20.000Z</time>
      </trkpt>
      <trkpt lat="47.25" lon="-2.31594">
        <ele>33.200000762939</ele>
        <time>2019-09-29T07:17:22.000Z</time>
      </trkpt>
      <trkpt lat="47.24984" lon="-2.31578">
        <ele>34.400001525879</ele>
        <time>2019-09-29T07:17:23.000Z</time>
      </trkpt>
      <trkpt lat="47.2498" lon="-2.31574">
        <ele>34.799999237061</ele>
        <time>2019-09-29T07:17:26.000Z</time>
      </trkpt>
      <trkpt lat="47.24977" lon="-2.31569">
        <ele>35.200000762939</ele>
        <time>2019-09-29T07:17:27.000Z</time>
      </trkpt>
      <trkpt lat="47.24972" lon="-2.31557">
        <ele>35.200000762939</ele>
        <time>2019-09-29T07:17:29.000Z</time>
      </trkpt>
      <trkpt lat="47.24968" lon="-2.31531">
        <ele>35.200000762939</ele>
        <time>2019-09-29T07:17:31.000Z</time>
      </trkpt>
      <trkpt lat="47.24966" lon="-2.31518">
        <ele>35.200000762939</ele>
        <time>2019-09-29T07:17:36.000Z</time>
      </trkpt>
      <trkpt lat="47.24964" lon="-2.315">
        <ele>35.200000762939</ele>
        <time>2019-09-29T07:17:39.000Z</time>
      </trkpt>
      <trkpt lat="47.24962" lon="-2.3148">
        <ele>35.200000762939</ele>
        <time>2019-09-29T07:17:42.000Z</time>
      </trkpt>
      <trkpt lat="47.24959" lon="-2.31439">
        <ele>35.200000762939</ele>
        <time>2019-09-29T07:17:48.000Z</time>
      </trkpt>
      <trkpt lat="47.24958" lon="-2.31432">
        <ele>35.200000762939</ele>
        <time>2019-09-29T07:17:49.000Z</time>
      </trkpt>
      <trkpt lat="47.24948" lon="-2.31394">
        <ele>35.200000762939</ele>
        <time>2019-09-29T07:17:55.000Z</time>
      </trkpt>
      <trkpt lat="47.24933" lon="-2.31343">
        <ele>35.200000762939</ele>
        <time>2019-09-29T07:18:03.000Z</time>
      </trkpt>
      <trkpt lat="47.24932" lon="-2.31337">
        <ele>35.200000762939</ele>
        <time>2019-09-29T07:18:04.000Z</time>
      </trkpt>
      <trkpt lat="47.24928" lon="-2.31325">
        <ele>35.200000762939</ele>
        <time>2019-09-29T07:18:06.000Z</time>
      </trkpt>
      <trkpt lat="47.24925" lon="-2.31315">
        <ele>35.200000762939</ele>
        <time>2019-09-29T07:18:08.000Z</time>
      </trkpt>
      <trkpt lat="47.24922" lon="-2.31303">
        <ele>35.200000762939</ele>
        <time>2019-09-29T07:18:12.000Z</time>
      </trkpt>
      <trkpt lat="47.24917" lon="-2.31285">
        <ele>35.200000762939</ele>
        <time>2019-09-29T07:18:17.000Z</time>
      </trkpt>
      <trkpt lat="47.24908" lon="-2.31251">
        <ele>35.200000762939</ele>
        <time>2019-09-29T07:18:22.000Z</time>
      </trkpt>
      <trkpt lat="47.24899" lon="-2.31217">
        <ele>35.599998474121</ele>
        <time>2019-09-29T07:18:27.000Z</time>
      </trkpt>
      <trkpt lat="47.24897" lon="-2.3121">
        <ele>36</ele>
        <time>2019-09-29T07:18:28.000Z</time>
      </trkpt>
      <trkpt lat="47.24895" lon="-2.31203">
        <ele>36.400001525879</ele>
        <time>2019-09-29T07:18:29.000Z</time>
      </trkpt>
      <trkpt lat="47.24893" lon="-2.31197">
        <ele>36.799999237061</ele>
        <time>2019-09-29T07:18:30.000Z</time>
      </trkpt>
      <trkpt lat="47.24891" lon="-2.31191">
        <ele>37.200000762939</ele>
        <time>2019-09-29T07:18:31.000Z</time>
      </trkpt>
      <trkpt lat="47.24876" lon="-2.31139">
        <ele>37.200000762939</ele>
        <time>2019-09-29T07:18:37.000Z</time>
      </trkpt>
      <trkpt lat="47.24862" lon="-2.31092">
        <ele>37.200000762939</ele>
        <time>2019-09-29T07:18:45.000Z</time>
      </trkpt>
      <trkpt lat="47.24843" lon="-2.31041">
        <ele>37.200000762939</ele>
        <time>2019-09-29T07:18:53.000Z</time>
      </trkpt>
      <trkpt lat="47.24825" lon="-2.30994">
        <ele>37.200000762939</ele>
        <time>2019-09-29T07:19:01.000Z</time>
      </trkpt>
      <trkpt lat="47.24808" lon="-2.30966">
        <ele>37.200000762939</ele>
        <time>2019-09-29T07:19:07.000Z</time>
      </trkpt>
      <trkpt lat="47.24801" lon="-2.30967">
        <ele>37.200000762939</ele>
        <time>2019-09-29T07:19:12.000Z</time>
      </trkpt>
      <trkpt lat="47.24797" lon="-2.30971">
        <ele>37.200000762939</ele>
        <time>2019-09-29T07:19:13.000Z</time>
      </trkpt>
      <trkpt lat="47.24783" lon="-2.30979">
        <ele>37.200000762939</ele>
        <time>2019-09-29T07:19:16.000Z</time>
      </trkpt>
      <trkpt lat="47.24757" lon="-2.30992">
        <ele>37.200000762939</ele>
        <time>2019-09-29T07:19:21.000Z</time>
      </trkpt>
      <trkpt lat="47.24742" lon="-2.31001">
        <ele>37.200000762939</ele>
        <time>2019-09-29T07:19:24.000Z</time>
      </trkpt>
      <trkpt lat="47.24728" lon="-2.31016">
        <ele>37.200000762939</ele>
        <time>2019-09-29T07:19:27.000Z</time>
      </trkpt>
      <trkpt lat="47.24711" lon="-2.31043">
        <ele>37.200000762939</ele>
        <time>2019-09-29T07:19:31.000Z</time>
      </trkpt>
      <trkpt lat="47.24683" lon="-2.31094">
        <ele>37.200000762939</ele>
        <time>2019-09-29T07:19:37.000Z</time>
      </trkpt>
      <trkpt lat="47.24658" lon="-2.31144">
        <ele>37.200000762939</ele>
        <time>2019-09-29T07:19:47.000Z</time>
      </trkpt>
      <trkpt lat="47.24654" lon="-2.31149">
        <ele>37.200000762939</ele>
        <time>2019-09-29T07:19:48.000Z</time>
      </trkpt>
      <trkpt lat="47.24636" lon="-2.31172">
        <ele>37.200000762939</ele>
        <time>2019-09-29T07:19:53.000Z</time>
      </trkpt>
      <trkpt lat="47.24602" lon="-2.31207">
        <ele>37.200000762939</ele>
        <time>2019-09-29T07:20:00.000Z</time>
      </trkpt>
      <trkpt lat="47.24581" lon="-2.31232">
        <ele>37.200000762939</ele>
        <time>2019-09-29T07:20:07.000Z</time>
      </trkpt>
      <trkpt lat="47.24558" lon="-2.31256">
        <ele>37.200000762939</ele>
        <time>2019-09-29T07:20:13.000Z</time>
      </trkpt>
      <trkpt lat="47.24526" lon="-2.31286">
        <ele>37.200000762939</ele>
        <time>2019-09-29T07:20:20.000Z</time>
      </trkpt>
      <trkpt lat="47.24493" lon="-2.31314">
        <ele>37.200000762939</ele>
        <time>2019-09-29T07:20:27.000Z</time>
      </trkpt>
      <trkpt lat="47.24488" lon="-2.31317">
        <ele>37.200000762939</ele>
        <time>2019-09-29T07:20:28.000Z</time>
      </trkpt>
      <trkpt lat="47.24481" lon="-2.31315">
        <ele>37.200000762939</ele>
        <time>2019-09-29T07:20:30.000Z</time>
      </trkpt>
      <trkpt lat="47.24464" lon="-2.31277">
        <ele>37.200000762939</ele>
        <time>2019-09-29T07:20:34.000Z</time>
      </trkpt>
      <trkpt lat="47.24449" lon="-2.31237">
        <ele>37.200000762939</ele>
        <time>2019-09-29T07:20:42.000Z</time>
      </trkpt>
      <trkpt lat="47.24446" lon="-2.31231">
        <ele>37.200000762939</ele>
        <time>2019-09-29T07:20:43.000Z</time>
      </trkpt>
      <trkpt lat="47.24438" lon="-2.31225">
        <ele>37.200000762939</ele>
        <time>2019-09-29T07:20:46.000Z</time>
      </trkpt>
      <trkpt lat="47.24433" lon="-2.31226">
        <ele>37.200000762939</ele>
        <time>2019-09-29T07:20:48.000Z</time>
      </trkpt>
      <trkpt lat="47.24427" lon="-2.31227">
        <ele>37.200000762939</ele>
        <time>2019-09-29T07:20:50.000Z</time>
      </trkpt>
      <trkpt lat="47.2442" lon="-2.31213">
        <ele>37.200000762939</ele>
        <time>2019-09-29T07:20:52.000Z</time>
      </trkpt>
      <trkpt lat="47.2442" lon="-2.31213">
        <ele>37.200000762939</ele>
        <time>2019-09-29T07:20:55.000Z</time>
      </trkpt>
      <trkpt lat="47.24416" lon="-2.312">
        <ele>37.200000762939</ele>
        <time>2019-09-29T07:20:58.000Z</time>
      </trkpt>
      <trkpt lat="47.24415" lon="-2.31194">
        <ele>37.200000762939</ele>
        <time>2019-09-29T07:21:00.000Z</time>
      </trkpt>
      <trkpt lat="47.24409" lon="-2.31183">
        <ele>37.200000762939</ele>
        <time>2019-09-29T07:21:04.000Z</time>
      </trkpt>
      <trkpt lat="47.24402" lon="-2.31176">
        <ele>37.200000762939</ele>
        <time>2019-09-29T07:21:06.000Z</time>
      </trkpt>
      <trkpt lat="47.2439" lon="-2.31166">
        <ele>37.200000762939</ele>
        <time>2019-09-29T07:21:09.000Z</time>
      </trkpt>
      <trkpt lat="47.24371" lon="-2.31144">
        <ele>37.200000762939</ele>
        <time>2019-09-29T07:21:15.000Z</time>
      </trkpt>
      <trkpt lat="47.24358" lon="-2.31118">
        <ele>37.200000762939</ele>
        <time>2019-09-29T07:21:22.000Z</time>
      </trkpt>
      <trkpt lat="47.2435" lon="-2.31097">
        <ele>37.200000762939</ele>
        <time>2019-09-29T07:21:28.000Z</time>
      </trkpt>
      <trkpt lat="47.2434" lon="-2.31063">
        <ele>37.200000762939</ele>
        <time>2019-09-29T07:21:35.000Z</time>
      </trkpt>
      <trkpt lat="47.24328" lon="-2.31046">
        <ele>37.200000762939</ele>
        <time>2019-09-29T07:21:40.000Z</time>
      </trkpt>
      <trkpt lat="47.24313" lon="-2.3104">
        <ele>37.200000762939</ele>
        <time>2019-09-29T07:21:44.000Z</time>
      </trkpt>
      <trkpt lat="47.24294" lon="-2.31037">
        <ele>36.799999237061</ele>
        <time>2019-09-29T07:21:48.000Z</time>
      </trkpt>
      <trkpt lat="47.24289" lon="-2.31038">
        <ele>36.400001525879</ele>
        <time>2019-09-29T07:21:49.000Z</time>
      </trkpt>
      <trkpt lat="47.24285" lon="-2.31037">
        <ele>36</ele>
        <time>2019-09-29T07:21:50.000Z</time>
      </trkpt>
      <trkpt lat="47.24282" lon="-2.31035">
        <ele>35.599998474121</ele>
        <time>2019-09-29T07:21:51.000Z</time>
      </trkpt>
      <trkpt lat="47.24276" lon="-2.31025">
        <ele>35.200000762939</ele>
        <time>2019-09-29T07:21:52.000Z</time>
      </trkpt>
      <trkpt lat="47.24275" lon="-2.31017">
        <ele>35.200000762939</ele>
        <time>2019-09-29T07:21:55.000Z</time>
      </trkpt>
      <trkpt lat="47.24276" lon="-2.31004">
        <ele>35.200000762939</ele>
        <time>2019-09-29T07:21:57.000Z</time>
      </trkpt>
      <trkpt lat="47.24281" lon="-2.30985">
        <ele>35.200000762939</ele>
        <time>2019-09-29T07:22:00.000Z</time>
      </trkpt>
      <trkpt lat="47.24282" lon="-2.30978">
        <ele>35.200000762939</ele>
        <time>2019-09-29T07:22:01.000Z</time>
      </trkpt>
      <trkpt lat="47.24287" lon="-2.3095">
        <ele>35.200000762939</ele>
        <time>2019-09-29T07:22:06.000Z</time>
      </trkpt>
      <trkpt lat="47.24289" lon="-2.30929">
        <ele>35.200000762939</ele>
        <time>2019-09-29T07:22:10.000Z</time>
      </trkpt>
      <trkpt lat="47.24288" lon="-2.30905">
        <ele>35.200000762939</ele>
        <time>2019-09-29T07:22:15.000Z</time>
      </trkpt>
      <trkpt lat="47.24285" lon="-2.30872">
        <ele>35.200000762939</ele>
        <time>2019-09-29T07:22:21.000Z</time>
      </trkpt>
      <trkpt lat="47.2429" lon="-2.30839">
        <ele>35.200000762939</ele>
        <time>2019-09-29T07:22:27.000Z</time>
      </trkpt>
      <trkpt lat="47.24301" lon="-2.30817">
        <ele>35.200000762939</ele>
        <time>2019-09-29T07:22:32.000Z</time>
      </trkpt>
      <trkpt lat="47.24321" lon="-2.30802">
        <ele>35.200000762939</ele>
        <time>2019-09-29T07:22:38.000Z</time>
      </trkpt>
      <trkpt lat="47.24345" lon="-2.30794">
        <ele>35.200000762939</ele>
        <time>2019-09-29T07:22:44.000Z</time>
      </trkpt>
      <trkpt lat="47.24364" lon="-2.30784">
        <ele>35.200000762939</ele>
        <time>2019-09-29T07:22:49.000Z</time>
      </trkpt>
      <trkpt lat="47.24377" lon="-2.30767">
        <ele>35.200000762939</ele>
        <time>2019-09-29T07:22:54.000Z</time>
      </trkpt>
      <trkpt lat="47.2439" lon="-2.30749">
        <ele>35.200000762939</ele>
        <time>2019-09-29T07:23:00.000Z</time>
      </trkpt>
      <trkpt lat="47.24399" lon="-2.30732">
        <ele>35.200000762939</ele>
        <time>2019-09-29T07:23:05.000Z</time>
      </trkpt>
      <trkpt lat="47.24401" lon="-2.3071">
        <ele>35.200000762939</ele>
        <time>2019-09-29T07:23:10.000Z</time>
      </trkpt>
      <trkpt lat="47.24408" lon="-2.30677">
        <ele>35.200000762939</ele>
        <time>2019-09-29T07:23:16.000Z</time>
      </trkpt>
      <trkpt lat="47.24412" lon="-2.3066">
        <ele>35.200000762939</ele>
        <time>2019-09-29T07:23:19.000Z</time>
      </trkpt>
      <trkpt lat="47.24416" lon="-2.3065">
        <ele>35.200000762939</ele>
        <time>2019-09-29T07:23:21.000Z</time>
      </trkpt>
      <trkpt lat="47.24425" lon="-2.3063">
        <ele>35.200000762939</ele>
        <time>2019-09-29T07:23:26.000Z</time>
      </trkpt>
      <trkpt lat="47.24441" lon="-2.30607">
        <ele>35.200000762939</ele>
        <time>2019-09-29T07:23:33.000Z</time>
      </trkpt>
      <trkpt lat="47.24457" lon="-2.30582">
        <ele>35.200000762939</ele>
        <time>2019-09-29T07:23:38.000Z</time>
      </trkpt>
      <trkpt lat="47.24467" lon="-2.30558">
        <ele>35.200000762939</ele>
        <time>2019-09-29T07:23:43.000Z</time>
      </trkpt>
      <trkpt lat="47.2446" lon="-2.30556">
        <ele>35.200000762939</ele>
        <time>2019-09-29T07:23:46.000Z</time>
      </trkpt>
      <trkpt lat="47.24458" lon="-2.30558">
        <ele>35.200000762939</ele>
        <time>2019-09-29T07:23:47.000Z</time>
      </trkpt>
      <trkpt lat="47.24448" lon="-2.30565">
        <ele>35.200000762939</ele>
        <time>2019-09-29T07:23:50.000Z</time>
      </trkpt>
      <trkpt lat="47.24415" lon="-2.30585">
        <ele>35.200000762939</ele>
        <time>2019-09-29T07:23:57.000Z</time>
      </trkpt>
      <trkpt lat="47.24402" lon="-2.30585">
        <ele>35.200000762939</ele>
        <time>2019-09-29T07:24:00.000Z</time>
      </trkpt>
      <trkpt lat="47.24398" lon="-2.30584">
        <ele>35.200000762939</ele>
        <time>2019-09-29T07:24:01.000Z</time>
      </trkpt>
      <trkpt lat="47.24393" lon="-2.30582">
        <ele>35.200000762939</ele>
        <time>2019-09-29T07:24:02.000Z</time>
      </trkpt>
      <trkpt lat="47.24384" lon="-2.30572">
        <ele>35.200000762939</ele>
        <time>2019-09-29T07:24:04.000Z</time>
      </trkpt>
      <trkpt lat="47.24372" lon="-2.30547">
        <ele>35.200000762939</ele>
        <time>2019-09-29T07:24:08.000Z</time>
      </trkpt>
      <trkpt lat="47.24369" lon="-2.30527">
        <ele>35.200000762939</ele>
        <time>2019-09-29T07:24:11.000Z</time>
      </trkpt>
      <trkpt lat="47.24369" lon="-2.30521">
        <ele>35.200000762939</ele>
        <time>2019-09-29T07:24:12.000Z</time>
      </trkpt>
      <trkpt lat="47.24372" lon="-2.30502">
        <ele>35.200000762939</ele>
        <time>2019-09-29T07:24:16.000Z</time>
      </trkpt>
      <trkpt lat="47.2438" lon="-2.30472">
        <ele>35.200000762939</ele>
        <time>2019-09-29T07:24:22.000Z</time>
      </trkpt>
      <trkpt lat="47.2438" lon="-2.30453">
        <ele>35.200000762939</ele>
        <time>2019-09-29T07:24:26.000Z</time>
      </trkpt>
      <trkpt lat="47.24379" lon="-2.30451">
        <ele>35.200000762939</ele>
        <time>2019-09-29T07:24:27.000Z</time>
      </trkpt>
      <trkpt lat="47.24366" lon="-2.30451">
        <ele>35.200000762939</ele>
        <time>2019-09-29T07:24:31.000Z</time>
      </trkpt>
      <trkpt lat="47.24348" lon="-2.30445">
        <ele>35.200000762939</ele>
        <time>2019-09-29T07:24:36.000Z</time>
      </trkpt>
      <trkpt lat="47.24321" lon="-2.3043">
        <ele>35.200000762939</ele>
        <time>2019-09-29T07:24:43.000Z</time>
      </trkpt>
      <trkpt lat="47.24303" lon="-2.30422">
        <ele>35.200000762939</ele>
        <time>2019-09-29T07:24:48.000Z</time>
      </trkpt>
      <trkpt lat="47.2428" lon="-2.30409">
        <ele>35.200000762939</ele>
        <time>2019-09-29T07:24:54.000Z</time>
      </trkpt>
      <trkpt lat="47.24266" lon="-2.30392">
        <ele>35.200000762939</ele>
        <time>2019-09-29T07:24:58.000Z</time>
      </trkpt>
      <trkpt lat="47.24262" lon="-2.30384">
        <ele>35.200000762939</ele>
        <time>2019-09-29T07:24:59.000Z</time>
      </trkpt>
      <trkpt lat="47.24249" lon="-2.30359">
        <ele>35.200000762939</ele>
        <time>2019-09-29T07:25:05.000Z</time>
      </trkpt>
      <trkpt lat="47.24238" lon="-2.30334">
        <ele>35.200000762939</ele>
        <time>2019-09-29T07:25:11.000Z</time>
      </trkpt>
      <trkpt lat="47.2423" lon="-2.30328">
        <ele>35.200000762939</ele>
        <time>2019-09-29T07:25:14.000Z</time>
      </trkpt>
      <trkpt lat="47.24228" lon="-2.3033">
        <ele>35.200000762939</ele>
        <time>2019-09-29T07:25:15.000Z</time>
      </trkpt>
      <trkpt lat="47.24218" lon="-2.30332">
        <ele>35.200000762939</ele>
        <time>2019-09-29T07:25:18.000Z</time>
      </trkpt>
      <trkpt lat="47.24214" lon="-2.30333">
        <ele>35.200000762939</ele>
        <time>2019-09-29T07:25:19.000Z</time>
      </trkpt>
      <trkpt lat="47.24202" lon="-2.30328">
        <ele>35.200000762939</ele>
        <time>2019-09-29T07:25:23.000Z</time>
      </trkpt>
      <trkpt lat="47.24197" lon="-2.30306">
        <ele>35.200000762939</ele>
        <time>2019-09-29T07:25:27.000Z</time>
      </trkpt>
      <trkpt lat="47.24196" lon="-2.30298">
        <ele>35.200000762939</ele>
        <time>2019-09-29T07:25:28.000Z</time>
      </trkpt>
      <trkpt lat="47.2419" lon="-2.30256">
        <ele>35.200000762939</ele>
        <time>2019-09-29T07:25:35.000Z</time>
      </trkpt>
      <trkpt lat="47.24184" lon="-2.30239">
        <ele>35.200000762939</ele>
        <time>2019-09-29T07:25:39.000Z</time>
      </trkpt>
      <trkpt lat="47.24176" lon="-2.30244">
        <ele>35.200000762939</ele>
        <time>2019-09-29T07:25:42.000Z</time>
      </trkpt>
      <trkpt lat="47.24173" lon="-2.30244">
        <ele>35.200000762939</ele>
        <time>2019-09-29T07:25:43.000Z</time>
      </trkpt>
      <trkpt lat="47.24161" lon="-2.30241">
        <ele>35.200000762939</ele>
        <time>2019-09-29T07:25:47.000Z</time>
      </trkpt>
      <trkpt lat="47.2415" lon="-2.30231">
        <ele>35.200000762939</ele>
        <time>2019-09-29T07:25:52.000Z</time>
      </trkpt>
      <trkpt lat="47.2414" lon="-2.30204">
        <ele>35.200000762939</ele>
        <time>2019-09-29T07:25:58.000Z</time>
      </trkpt>
      <trkpt lat="47.24132" lon="-2.3018">
        <ele>35.200000762939</ele>
        <time>2019-09-29T07:26:05.000Z</time>
      </trkpt>
      <trkpt lat="47.24127" lon="-2.30175">
        <ele>35.200000762939</ele>
        <time>2019-09-29T07:26:10.000Z</time>
      </trkpt>
      <trkpt lat="47.24126" lon="-2.30174">
        <ele>35.200000762939</ele>
        <time>2019-09-29T07:26:11.000Z</time>
      </trkpt>
      <trkpt lat="47.24125" lon="-2.30174">
        <ele>31.200000762939</ele>
        <time>2019-09-29T07:27:37.000Z</time>
      </trkpt>
      <trkpt lat="47.2412" lon="-2.30175">
        <ele>31.200000762939</ele>
        <time>2019-09-29T07:27:39.000Z</time>
      </trkpt>
      <trkpt lat="47.24117" lon="-2.30174">
        <ele>31.200000762939</ele>
        <time>2019-09-29T07:27:40.000Z</time>
      </trkpt>
      <trkpt lat="47.2411" lon="-2.3017">
        <ele>31.200000762939</ele>
        <time>2019-09-29T07:27:44.000Z</time>
      </trkpt>
      <trkpt lat="47.24097" lon="-2.30166">
        <ele>31.200000762939</ele>
        <time>2019-09-29T07:27:51.000Z</time>
      </trkpt>
      <trkpt lat="47.24085" lon="-2.30171">
        <ele>31.200000762939</ele>
        <time>2019-09-29T07:27:56.000Z</time>
      </trkpt>
      <trkpt lat="47.2406" lon="-2.30184">
        <ele>31.200000762939</ele>
        <time>2019-09-29T07:28:01.000Z</time>
      </trkpt>
      <trkpt lat="47.24033" lon="-2.30189">
        <ele>31.200000762939</ele>
        <time>2019-09-29T07:28:07.000Z</time>
      </trkpt>
      <trkpt lat="47.24015" lon="-2.30176">
        <ele>31.200000762939</ele>
        <time>2019-09-29T07:28:15.000Z</time>
      </trkpt>
      <trkpt lat="47.24002" lon="-2.30162">
        <ele>31.200000762939</ele>
        <time>2019-09-29T07:28:20.000Z</time>
      </trkpt>
      <trkpt lat="47.23987" lon="-2.30156">
        <ele>31.200000762939</ele>
        <time>2019-09-29T07:28:25.000Z</time>
      </trkpt>
      <trkpt lat="47.23977" lon="-2.3015">
        <ele>31.200000762939</ele>
        <time>2019-09-29T07:28:28.000Z</time>
      </trkpt>
      <trkpt lat="47.23972" lon="-2.30142">
        <ele>31.200000762939</ele>
        <time>2019-09-29T07:28:30.000Z</time>
      </trkpt>
      <trkpt lat="47.23969" lon="-2.30133">
        <ele>31.200000762939</ele>
        <time>2019-09-29T07:28:34.000Z</time>
      </trkpt>
      <trkpt lat="47.23972" lon="-2.30126">
        <ele>31.200000762939</ele>
        <time>2019-09-29T07:28:36.000Z</time>
      </trkpt>
      <trkpt lat="47.23976" lon="-2.30113">
        <ele>31.200000762939</ele>
        <time>2019-09-29T07:28:39.000Z</time>
      </trkpt>
      <trkpt lat="47.23986" lon="-2.30087">
        <ele>31.200000762939</ele>
        <time>2019-09-29T07:28:45.000Z</time>
      </trkpt>
      <trkpt lat="47.23996" lon="-2.30061">
        <ele>31.200000762939</ele>
        <time>2019-09-29T07:28:51.000Z</time>
      </trkpt>
      <trkpt lat="47.24003" lon="-2.30034">
        <ele>31.200000762939</ele>
        <time>2019-09-29T07:28:57.000Z</time>
      </trkpt>
      <trkpt lat="47.24013" lon="-2.30015">
        <ele>31.200000762939</ele>
        <time>2019-09-29T07:29:02.000Z</time>
      </trkpt>
      <trkpt lat="47.24022" lon="-2.30017">
        <ele>31.200000762939</ele>
        <time>2019-09-29T07:29:06.000Z</time>
      </trkpt>
      <trkpt lat="47.24029" lon="-2.30016">
        <ele>31.200000762939</ele>
        <time>2019-09-29T07:29:09.000Z</time>
      </trkpt>
      <trkpt lat="47.24041" lon="-2.30016">
        <ele>31.60000038147</ele>
        <time>2019-09-29T07:29:13.000Z</time>
      </trkpt>
      <trkpt lat="47.24044" lon="-2.30016">
        <ele>32</ele>
        <time>2019-09-29T07:29:14.000Z</time>
      </trkpt>
      <trkpt lat="47.24047" lon="-2.30015">
        <ele>32.400001525879</ele>
        <time>2019-09-29T07:29:15.000Z</time>
      </trkpt>
      <trkpt lat="47.24049" lon="-2.30012">
        <ele>32.799999237061</ele>
        <time>2019-09-29T07:29:16.000Z</time>
      </trkpt>
      <trkpt lat="47.24052" lon="-2.30008">
        <ele>33.200000762939</ele>
        <time>2019-09-29T07:29:17.000Z</time>
      </trkpt>
      <trkpt lat="47.24055" lon="-2.29994">
        <ele>33.200000762939</ele>
        <time>2019-09-29T07:29:20.000Z</time>
      </trkpt>
      <trkpt lat="47.24057" lon="-2.29988">
        <ele>33.200000762939</ele>
        <time>2019-09-29T07:29:22.000Z</time>
      </trkpt>
      <trkpt lat="47.24067" lon="-2.29984">
        <ele>33.200000762939</ele>
        <time>2019-09-29T07:29:27.000Z</time>
      </trkpt>
      <trkpt lat="47.24078" lon="-2.29984">
        <ele>33.200000762939</ele>
        <time>2019-09-29T07:29:31.000Z</time>
      </trkpt>
      <trkpt lat="47.24091" lon="-2.29983">
        <ele>33.200000762939</ele>
        <time>2019-09-29T07:29:36.000Z</time>
      </trkpt>
      <trkpt lat="47.24094" lon="-2.29983">
        <ele>33.200000762939</ele>
        <time>2019-09-29T07:29:37.000Z</time>
      </trkpt>
      <trkpt lat="47.24113" lon="-2.29986">
        <ele>33.200000762939</ele>
        <time>2019-09-29T07:29:42.000Z</time>
      </trkpt>
      <trkpt lat="47.24136" lon="-2.29991">
        <ele>33.200000762939</ele>
        <time>2019-09-29T07:29:50.000Z</time>
      </trkpt>
      <trkpt lat="47.24139" lon="-2.29988">
        <ele>33.200000762939</ele>
        <time>2019-09-29T07:29:51.000Z</time>
      </trkpt>
      <trkpt lat="47.2415" lon="-2.29984">
        <ele>33.200000762939</ele>
        <time>2019-09-29T07:29:54.000Z</time>
      </trkpt>
      <trkpt lat="47.24154" lon="-2.29985">
        <ele>33.200000762939</ele>
        <time>2019-09-29T07:29:55.000Z</time>
      </trkpt>
      <trkpt lat="47.24161" lon="-2.29988">
        <ele>33.200000762939</ele>
        <time>2019-09-29T07:29:59.000Z</time>
      </trkpt>
      <trkpt lat="47.2417" lon="-2.29999">
        <ele>33.200000762939</ele>
        <time>2019-09-29T07:30:05.000Z</time>
      </trkpt>
      <trkpt lat="47.24165" lon="-2.3">
        <ele>33.200000762939</ele>
        <time>2019-09-29T07:30:07.000Z</time>
      </trkpt>
      <trkpt lat="47.24161" lon="-2.29999">
        <ele>33.200000762939</ele>
        <time>2019-09-29T07:30:09.000Z</time>
      </trkpt>
      <trkpt lat="47.24159" lon="-2.29998">
        <ele>33.599998474121</ele>
        <time>2019-09-29T07:30:11.000Z</time>
      </trkpt>
      <trkpt lat="47.24158" lon="-2.29996">
        <ele>34</ele>
        <time>2019-09-29T07:30:12.000Z</time>
      </trkpt>
      <trkpt lat="47.24158" lon="-2.29992">
        <ele>34.799999237061</ele>
        <time>2019-09-29T07:30:13.000Z</time>
      </trkpt>
      <trkpt lat="47.24158" lon="-2.29988">
        <ele>35.200000762939</ele>
        <time>2019-09-29T07:30:14.000Z</time>
      </trkpt>
      <trkpt lat="47.24157" lon="-2.29974">
        <ele>35.200000762939</ele>
        <time>2019-09-29T07:30:17.000Z</time>
      </trkpt>
      <trkpt lat="47.2416" lon="-2.29951">
        <ele>35.200000762939</ele>
        <time>2019-09-29T07:30:22.000Z</time>
      </trkpt>
      <trkpt lat="47.24167" lon="-2.29927">
        <ele>35.200000762939</ele>
        <time>2019-09-29T07:30:28.000Z</time>
      </trkpt>
      <trkpt lat="47.24179" lon="-2.29902">
        <ele>35.200000762939</ele>
        <time>2019-09-29T07:30:34.000Z</time>
      </trkpt>
      <trkpt lat="47.24177" lon="-2.29889">
        <ele>35.200000762939</ele>
        <time>2019-09-29T07:30:38.000Z</time>
      </trkpt>
      <trkpt lat="47.24177" lon="-2.29882">
        <ele>35.200000762939</ele>
        <time>2019-09-29T07:30:40.000Z</time>
      </trkpt>
      <trkpt lat="47.24176" lon="-2.29873">
        <ele>35.200000762939</ele>
        <time>2019-09-29T07:30:42.000Z</time>
      </trkpt>
      <trkpt lat="47.24176" lon="-2.2986">
        <ele>35.200000762939</ele>
        <time>2019-09-29T07:30:46.000Z</time>
      </trkpt>
      <trkpt lat="47.24175" lon="-2.29855">
        <ele>35.200000762939</ele>
        <time>2019-09-29T07:30:48.000Z</time>
      </trkpt>
      <trkpt lat="47.24174" lon="-2.29844">
        <ele>35.200000762939</ele>
        <time>2019-09-29T07:30:50.000Z</time>
      </trkpt>
      <trkpt lat="47.2417" lon="-2.29841">
        <ele>35.200000762939</ele>
        <time>2019-09-29T07:30:52.000Z</time>
      </trkpt>
      <trkpt lat="47.24163" lon="-2.29838">
        <ele>35.200000762939</ele>
        <time>2019-09-29T07:30:54.000Z</time>
      </trkpt>
      <trkpt lat="47.24134" lon="-2.29843">
        <ele>35.200000762939</ele>
        <time>2019-09-29T07:31:02.000Z</time>
      </trkpt>
      <trkpt lat="47.24108" lon="-2.29847">
        <ele>35.200000762939</ele>
        <time>2019-09-29T07:31:09.000Z</time>
      </trkpt>
      <trkpt lat="47.24083" lon="-2.29829">
        <ele>35.200000762939</ele>
        <time>2019-09-29T07:31:16.000Z</time>
      </trkpt>
      <trkpt lat="47.24078" lon="-2.29795">
        <ele>35.200000762939</ele>
        <time>2019-09-29T07:31:25.000Z</time>
      </trkpt>
      <trkpt lat="47.24077" lon="-2.2978">
        <ele>36</ele>
        <time>2019-09-29T07:31:27.000Z</time>
      </trkpt>
      <trkpt lat="47.24076" lon="-2.29775">
        <ele>36.400001525879</ele>
        <time>2019-09-29T07:31:28.000Z</time>
      </trkpt>
      <trkpt lat="47.24074" lon="-2.29768">
        <ele>36.799999237061</ele>
        <time>2019-09-29T07:31:29.000Z</time>
      </trkpt>
      <trkpt lat="47.24074" lon="-2.29761">
        <ele>37.200000762939</ele>
        <time>2019-09-29T07:31:30.000Z</time>
      </trkpt>
      <trkpt lat="47.24063" lon="-2.29718">
        <ele>37.200000762939</ele>
        <time>2019-09-29T07:31:37.000Z</time>
      </trkpt>
      <trkpt lat="47.24053" lon="-2.29682">
        <ele>37.200000762939</ele>
        <time>2019-09-29T07:31:42.000Z</time>
      </trkpt>
      <trkpt lat="47.24051" lon="-2.29667">
        <ele>37.200000762939</ele>
        <time>2019-09-29T07:31:44.000Z</time>
      </trkpt>
      <trkpt lat="47.24051" lon="-2.29633">
        <ele>37.200000762939</ele>
        <time>2019-09-29T07:31:49.000Z</time>
      </trkpt>
      <trkpt lat="47.2406" lon="-2.29622">
        <ele>37.200000762939</ele>
        <time>2019-09-29T07:31:51.000Z</time>
      </trkpt>
      <trkpt lat="47.24064" lon="-2.29618">
        <ele>37.200000762939</ele>
        <time>2019-09-29T07:31:52.000Z</time>
      </trkpt>
      <trkpt lat="47.24069" lon="-2.29615">
        <ele>37.200000762939</ele>
        <time>2019-09-29T07:31:53.000Z</time>
      </trkpt>
      <trkpt lat="47.24088" lon="-2.29603">
        <ele>37.200000762939</ele>
        <time>2019-09-29T07:31:57.000Z</time>
      </trkpt>
      <trkpt lat="47.24114" lon="-2.2958">
        <ele>37.200000762939</ele>
        <time>2019-09-29T07:32:03.000Z</time>
      </trkpt>
      <trkpt lat="47.24117" lon="-2.29559">
        <ele>37.200000762939</ele>
        <time>2019-09-29T07:32:06.000Z</time>
      </trkpt>
      <trkpt lat="47.2411" lon="-2.29529">
        <ele>37.200000762939</ele>
        <time>2019-09-29T07:32:10.000Z</time>
      </trkpt>
      <trkpt lat="47.24101" lon="-2.29499">
        <ele>37.200000762939</ele>
        <time>2019-09-29T07:32:14.000Z</time>
      </trkpt>
      <trkpt lat="47.24102" lon="-2.29485">
        <ele>37.200000762939</ele>
        <time>2019-09-29T07:32:16.000Z</time>
      </trkpt>
      <trkpt lat="47.24113" lon="-2.29471">
        <ele>37.200000762939</ele>
        <time>2019-09-29T07:32:19.000Z</time>
      </trkpt>
      <trkpt lat="47.24122" lon="-2.29465">
        <ele>37.200000762939</ele>
        <time>2019-09-29T07:32:21.000Z</time>
      </trkpt>
      <trkpt lat="47.24131" lon="-2.29459">
        <ele>37.200000762939</ele>
        <time>2019-09-29T07:32:23.000Z</time>
      </trkpt>
      <trkpt lat="47.2415" lon="-2.29447">
        <ele>37.200000762939</ele>
        <time>2019-09-29T07:32:27.000Z</time>
      </trkpt>
      <trkpt lat="47.24161" lon="-2.29444">
        <ele>37.200000762939</ele>
        <time>2019-09-29T07:32:29.000Z</time>
      </trkpt>
      <trkpt lat="47.24172" lon="-2.29443">
        <ele>37.200000762939</ele>
        <time>2019-09-29T07:32:31.000Z</time>
      </trkpt>
      <trkpt lat="47.2419" lon="-2.29445">
        <ele>37.200000762939</ele>
        <time>2019-09-29T07:32:34.000Z</time>
      </trkpt>
      <trkpt lat="47.24212" lon="-2.29453">
        <ele>37.200000762939</ele>
        <time>2019-09-29T07:32:38.000Z</time>
      </trkpt>
      <trkpt lat="47.24217" lon="-2.29455">
        <ele>37.200000762939</ele>
        <time>2019-09-29T07:32:39.000Z</time>
      </trkpt>
      <trkpt lat="47.24241" lon="-2.29464">
        <ele>37.200000762939</ele>
        <time>2019-09-29T07:32:44.000Z</time>
      </trkpt>
      <trkpt lat="47.24246" lon="-2.29463">
        <ele>37.200000762939</ele>
        <time>2019-09-29T07:32:45.000Z</time>
      </trkpt>
      <trkpt lat="47.24262" lon="-2.29452">
        <ele>37.200000762939</ele>
        <time>2019-09-29T07:32:48.000Z</time>
      </trkpt>
      <trkpt lat="47.24267" lon="-2.29449">
        <ele>37.200000762939</ele>
        <time>2019-09-29T07:32:49.000Z</time>
      </trkpt>
      <trkpt lat="47.24299" lon="-2.29431">
        <ele>37.200000762939</ele>
        <time>2019-09-29T07:32:55.000Z</time>
      </trkpt>
      <trkpt lat="47.24327" lon="-2.29439">
        <ele>37.200000762939</ele>
        <time>2019-09-29T07:33:00.000Z</time>
      </trkpt>
      <trkpt lat="47.24342" lon="-2.2945">
        <ele>37.200000762939</ele>
        <time>2019-09-29T07:33:03.000Z</time>
      </trkpt>
      <trkpt lat="47.24351" lon="-2.29459">
        <ele>37.200000762939</ele>
        <time>2019-09-29T07:33:05.000Z</time>
      </trkpt>
      <trkpt lat="47.24367" lon="-2.29463">
        <ele>37.200000762939</ele>
        <time>2019-09-29T07:33:09.000Z</time>
      </trkpt>
      <trkpt lat="47.24377" lon="-2.29453">
        <ele>37.200000762939</ele>
        <time>2019-09-29T07:33:12.000Z</time>
      </trkpt>
      <trkpt lat="47.24397" lon="-2.29438">
        <ele>37.200000762939</ele>
        <time>2019-09-29T07:33:16.000Z</time>
      </trkpt>
      <trkpt lat="47.24419" lon="-2.29433">
        <ele>37.200000762939</ele>
        <time>2019-09-29T07:33:18.000Z</time>
      </trkpt>
      <trkpt lat="47.24419" lon="-2.29433">
        <ele>37.200000762939</ele>
        <time>2019-09-29T07:33:20.000Z</time>
      </trkpt>
      <trkpt lat="47.24448" lon="-2.2943">
        <ele>37.200000762939</ele>
        <time>2019-09-29T07:33:26.000Z</time>
      </trkpt>
      <trkpt lat="47.24467" lon="-2.29429">
        <ele>37.200000762939</ele>
        <time>2019-09-29T07:33:30.000Z</time>
      </trkpt>
      <trkpt lat="47.24478" lon="-2.29427">
        <ele>37.200000762939</ele>
        <time>2019-09-29T07:33:32.000Z</time>
      </trkpt>
      <trkpt lat="47.24512" lon="-2.29421">
        <ele>37.200000762939</ele>
        <time>2019-09-29T07:33:39.000Z</time>
      </trkpt>
      <trkpt lat="47.2452" lon="-2.29403">
        <ele>37.200000762939</ele>
        <time>2019-09-29T07:33:42.000Z</time>
      </trkpt>
      <trkpt lat="47.24519" lon="-2.29375">
        <ele>37.200000762939</ele>
        <time>2019-09-29T07:33:46.000Z</time>
      </trkpt>
      <trkpt lat="47.24515" lon="-2.2933">
        <ele>37.200000762939</ele>
        <time>2019-09-29T07:33:51.000Z</time>
      </trkpt>
      <trkpt lat="47.24513" lon="-2.29291">
        <ele>37.200000762939</ele>
        <time>2019-09-29T07:33:55.000Z</time>
      </trkpt>
      <trkpt lat="47.24513" lon="-2.29281">
        <ele>37.200000762939</ele>
        <time>2019-09-29T07:33:56.000Z</time>
      </trkpt>
      <trkpt lat="47.24514" lon="-2.29224">
        <ele>37.200000762939</ele>
        <time>2019-09-29T07:34:02.000Z</time>
      </trkpt>
      <trkpt lat="47.24517" lon="-2.29206">
        <ele>37.200000762939</ele>
        <time>2019-09-29T07:34:04.000Z</time>
      </trkpt>
      <trkpt lat="47.24523" lon="-2.29178">
        <ele>37.200000762939</ele>
        <time>2019-09-29T07:34:07.000Z</time>
      </trkpt>
      <trkpt lat="47.24541" lon="-2.29106">
        <ele>37.200000762939</ele>
        <time>2019-09-29T07:34:14.000Z</time>
      </trkpt>
      <trkpt lat="47.24555" lon="-2.29029">
        <ele>37.200000762939</ele>
        <time>2019-09-29T07:34:21.000Z</time>
      </trkpt>
      <trkpt lat="47.24555" lon="-2.29007">
        <ele>37.200000762939</ele>
        <time>2019-09-29T07:34:23.000Z</time>
      </trkpt>
      <trkpt lat="47.24552" lon="-2.28984">
        <ele>37.200000762939</ele>
        <time>2019-09-29T07:34:25.000Z</time>
      </trkpt>
      <trkpt lat="47.24547" lon="-2.28964">
        <ele>37.200000762939</ele>
        <time>2019-09-29T07:34:27.000Z</time>
      </trkpt>
      <trkpt lat="47.24541" lon="-2.28944">
        <ele>37.200000762939</ele>
        <time>2019-09-29T07:34:29.000Z</time>
      </trkpt>
      <trkpt lat="47.24521" lon="-2.28879">
        <ele>37.200000762939</ele>
        <time>2019-09-29T07:34:34.000Z</time>
      </trkpt>
      <trkpt lat="47.24522" lon="-2.28872">
        <ele>37.200000762939</ele>
        <time>2019-09-29T07:34:37.000Z</time>
      </trkpt>
      <trkpt lat="47.24528" lon="-2.28858">
        <ele>37.200000762939</ele>
        <time>2019-09-29T07:34:39.000Z</time>
      </trkpt>
      <trkpt lat="47.24554" lon="-2.28831">
        <ele>37.200000762939</ele>
        <time>2019-09-29T07:34:42.000Z</time>
      </trkpt>
      <trkpt lat="47.24554" lon="-2.28831">
        <ele>37.200000762939</ele>
        <time>2019-09-29T07:34:44.000Z</time>
      </trkpt>
      <trkpt lat="47.24582" lon="-2.28805">
        <ele>37.200000762939</ele>
        <time>2019-09-29T07:34:49.000Z</time>
      </trkpt>
      <trkpt lat="47.24595" lon="-2.28795">
        <ele>37.200000762939</ele>
        <time>2019-09-29T07:34:51.000Z</time>
      </trkpt>
      <trkpt lat="47.24614" lon="-2.28778">
        <ele>37.200000762939</ele>
        <time>2019-09-29T07:34:54.000Z</time>
      </trkpt>
      <trkpt lat="47.24624" lon="-2.28763">
        <ele>37.200000762939</ele>
        <time>2019-09-29T07:34:56.000Z</time>
      </trkpt>
      <trkpt lat="47.24634" lon="-2.28747">
        <ele>37.200000762939</ele>
        <time>2019-09-29T07:34:58.000Z</time>
      </trkpt>
      <trkpt lat="47.24654" lon="-2.28717">
        <ele>37.200000762939</ele>
        <time>2019-09-29T07:35:02.000Z</time>
      </trkpt>
      <trkpt lat="47.2466" lon="-2.28711">
        <ele>37.200000762939</ele>
        <time>2019-09-29T07:35:03.000Z</time>
      </trkpt>
      <trkpt lat="47.24677" lon="-2.28694">
        <ele>37.200000762939</ele>
        <time>2019-09-29T07:35:06.000Z</time>
      </trkpt>
      <trkpt lat="47.24687" lon="-2.28679">
        <ele>37.200000762939</ele>
        <time>2019-09-29T07:35:08.000Z</time>
      </trkpt>
      <trkpt lat="47.24701" lon="-2.28659">
        <ele>37.200000762939</ele>
        <time>2019-09-29T07:35:11.000Z</time>
      </trkpt>
      <trkpt lat="47.24729" lon="-2.28629">
        <ele>37.200000762939</ele>
        <time>2019-09-29T07:35:16.000Z</time>
      </trkpt>
      <trkpt lat="47.24748" lon="-2.28594">
        <ele>37.200000762939</ele>
        <time>2019-09-29T07:35:20.000Z</time>
      </trkpt>
      <trkpt lat="47.24751" lon="-2.28584">
        <ele>37.200000762939</ele>
        <time>2019-09-29T07:35:21.000Z</time>
      </trkpt>
      <trkpt lat="47.24757" lon="-2.28567">
        <ele>37.200000762939</ele>
        <time>2019-09-29T07:35:23.000Z</time>
      </trkpt>
      <trkpt lat="47.24761" lon="-2.2856">
        <ele>37.200000762939</ele>
        <time>2019-09-29T07:35:24.000Z</time>
      </trkpt>
      <trkpt lat="47.24782" lon="-2.28535">
        <ele>37.200000762939</ele>
        <time>2019-09-29T07:35:28.000Z</time>
      </trkpt>
      <trkpt lat="47.24816" lon="-2.28501">
        <ele>37.200000762939</ele>
        <time>2019-09-29T07:35:34.000Z</time>
      </trkpt>
      <trkpt lat="47.24868" lon="-2.28456">
        <ele>37.200000762939</ele>
        <time>2019-09-29T07:35:42.000Z</time>
      </trkpt>
      <trkpt lat="47.24886" lon="-2.28433">
        <ele>37.200000762939</ele>
        <time>2019-09-29T07:35:45.000Z</time>
      </trkpt>
      <trkpt lat="47.24893" lon="-2.28428">
        <ele>37.200000762939</ele>
        <time>2019-09-29T07:35:46.000Z</time>
      </trkpt>
      <trkpt lat="47.24926" lon="-2.28412">
        <ele>37.200000762939</ele>
        <time>2019-09-29T07:35:50.000Z</time>
      </trkpt>
      <trkpt lat="47.24968" lon="-2.28397">
        <ele>37.200000762939</ele>
        <time>2019-09-29T07:35:55.000Z</time>
      </trkpt>
      <trkpt lat="47.24977" lon="-2.28392">
        <ele>37.200000762939</ele>
        <time>2019-09-29T07:35:56.000Z</time>
      </trkpt>
      <trkpt lat="47.24995" lon="-2.28365">
        <ele>37.200000762939</ele>
        <time>2019-09-29T07:35:59.000Z</time>
      </trkpt>
      <trkpt lat="47.25001" lon="-2.28345">
        <ele>37.200000762939</ele>
        <time>2019-09-29T07:36:01.000Z</time>
      </trkpt>
      <trkpt lat="47.25006" lon="-2.28338">
        <ele>37.200000762939</ele>
        <time>2019-09-29T07:36:02.000Z</time>
      </trkpt>
      <trkpt lat="47.25026" lon="-2.28317">
        <ele>37.200000762939</ele>
        <time>2019-09-29T07:36:06.000Z</time>
      </trkpt>
      <trkpt lat="47.2503" lon="-2.283">
        <ele>37.200000762939</ele>
        <time>2019-09-29T07:36:09.000Z</time>
      </trkpt>
      <trkpt lat="47.2503" lon="-2.28293">
        <ele>37.200000762939</ele>
        <time>2019-09-29T07:36:10.000Z</time>
      </trkpt>
      <trkpt lat="47.25031" lon="-2.28268">
        <ele>37.200000762939</ele>
        <time>2019-09-29T07:36:14.000Z</time>
      </trkpt>
      <trkpt lat="47.25035" lon="-2.28254">
        <ele>37.200000762939</ele>
        <time>2019-09-29T07:36:16.000Z</time>
      </trkpt>
      <trkpt lat="47.25036" lon="-2.28247">
        <ele>37.200000762939</ele>
        <time>2019-09-29T07:36:17.000Z</time>
      </trkpt>
      <trkpt lat="47.25041" lon="-2.28213">
        <ele>37.200000762939</ele>
        <time>2019-09-29T07:36:21.000Z</time>
      </trkpt>
      <trkpt lat="47.25062" lon="-2.28139">
        <ele>37.200000762939</ele>
        <time>2019-09-29T07:36:28.000Z</time>
      </trkpt>
      <trkpt lat="47.2507" lon="-2.28105">
        <ele>37.200000762939</ele>
        <time>2019-09-29T07:36:33.000Z</time>
      </trkpt>
      <trkpt lat="47.25074" lon="-2.28087">
        <ele>37.200000762939</ele>
        <time>2019-09-29T07:36:35.000Z</time>
      </trkpt>
      <trkpt lat="47.25088" lon="-2.28054">
        <ele>37.200000762939</ele>
        <time>2019-09-29T07:36:39.000Z</time>
      </trkpt>
      <trkpt lat="47.25092" lon="-2.28047">
        <ele>37.200000762939</ele>
        <time>2019-09-29T07:36:40.000Z</time>
      </trkpt>
      <trkpt lat="47.25095" lon="-2.28037">
        <ele>37.200000762939</ele>
        <time>2019-09-29T07:36:41.000Z</time>
      </trkpt>
      <trkpt lat="47.25101" lon="-2.28022">
        <ele>37.200000762939</ele>
        <time>2019-09-29T07:36:43.000Z</time>
      </trkpt>
      <trkpt lat="47.2512" lon="-2.27981">
        <ele>37.200000762939</ele>
        <time>2019-09-29T07:36:49.000Z</time>
      </trkpt>
      <trkpt lat="47.25124" lon="-2.27974">
        <ele>37.200000762939</ele>
        <time>2019-09-29T07:36:50.000Z</time>
      </trkpt>
      <trkpt lat="47.25143" lon="-2.27953">
        <ele>37.200000762939</ele>
        <time>2019-09-29T07:36:54.000Z</time>
      </trkpt>
      <trkpt lat="47.25148" lon="-2.27949">
        <ele>37.200000762939</ele>
        <time>2019-09-29T07:36:55.000Z</time>
      </trkpt>
      <trkpt lat="47.25164" lon="-2.27938">
        <ele>37.200000762939</ele>
        <time>2019-09-29T07:36:58.000Z</time>
      </trkpt>
      <trkpt lat="47.25169" lon="-2.27935">
        <ele>37.200000762939</ele>
        <time>2019-09-29T07:36:59.000Z</time>
      </trkpt>
      <trkpt lat="47.25179" lon="-2.27929">
        <ele>37.200000762939</ele>
        <time>2019-09-29T07:37:01.000Z</time>
      </trkpt>
      <trkpt lat="47.25201" lon="-2.27915">
        <ele>37.200000762939</ele>
        <time>2019-09-29T07:37:05.000Z</time>
      </trkpt>
      <trkpt lat="47.25231" lon="-2.27899">
        <ele>37.200000762939</ele>
        <time>2019-09-29T07:37:11.000Z</time>
      </trkpt>
      <trkpt lat="47.25237" lon="-2.27894">
        <ele>37.200000762939</ele>
        <time>2019-09-29T07:37:12.000Z</time>
      </trkpt>
      <trkpt lat="47.25261" lon="-2.27885">
        <ele>37.200000762939</ele>
        <time>2019-09-29T07:37:16.000Z</time>
      </trkpt>
      <trkpt lat="47.25307" lon="-2.27874">
        <ele>37.200000762939</ele>
        <time>2019-09-29T07:37:25.000Z</time>
      </trkpt>
      <trkpt lat="47.25342" lon="-2.27866">
        <ele>37.200000762939</ele>
        <time>2019-09-29T07:37:31.000Z</time>
      </trkpt>
      <trkpt lat="47.25381" lon="-2.27856">
        <ele>37.200000762939</ele>
        <time>2019-09-29T07:37:38.000Z</time>
      </trkpt>
      <trkpt lat="47.25412" lon="-2.27841">
        <ele>37.200000762939</ele>
        <time>2019-09-29T07:37:44.000Z</time>
      </trkpt>
      <trkpt lat="47.25422" lon="-2.27834">
        <ele>37.200000762939</ele>
        <time>2019-09-29T07:37:46.000Z</time>
      </trkpt>
      <trkpt lat="47.25438" lon="-2.27821">
        <ele>37.200000762939</ele>
        <time>2019-09-29T07:37:49.000Z</time>
      </trkpt>
      <trkpt lat="47.25467" lon="-2.27788">
        <ele>37.200000762939</ele>
        <time>2019-09-29T07:37:56.000Z</time>
      </trkpt>
      <trkpt lat="47.25485" lon="-2.27766">
        <ele>37.200000762939</ele>
        <time>2019-09-29T07:38:02.000Z</time>
      </trkpt>
      <trkpt lat="47.25496" lon="-2.27742">
        <ele>37.200000762939</ele>
        <time>2019-09-29T07:38:07.000Z</time>
      </trkpt>
      <trkpt lat="47.25497" lon="-2.27711">
        <ele>37.200000762939</ele>
        <time>2019-09-29T07:38:12.000Z</time>
      </trkpt>
      <trkpt lat="47.25496" lon="-2.27705">
        <ele>37.200000762939</ele>
        <time>2019-09-29T07:38:13.000Z</time>
      </trkpt>
      <trkpt lat="47.25491" lon="-2.27677">
        <ele>37.200000762939</ele>
        <time>2019-09-29T07:38:18.000Z</time>
      </trkpt>
      <trkpt lat="47.25483" lon="-2.27639">
        <ele>37.200000762939</ele>
        <time>2019-09-29T07:38:24.000Z</time>
      </trkpt>
      <trkpt lat="47.2548" lon="-2.27625">
        <ele>37.200000762939</ele>
        <time>2019-09-29T07:38:26.000Z</time>
      </trkpt>
      <trkpt lat="47.25469" lon="-2.27609">
        <ele>37.200000762939</ele>
        <time>2019-09-29T07:38:29.000Z</time>
      </trkpt>
      <trkpt lat="47.25455" lon="-2.27578">
        <ele>37.200000762939</ele>
        <time>2019-09-29T07:38:34.000Z</time>
      </trkpt>
      <trkpt lat="47.25452" lon="-2.27563">
        <ele>37.200000762939</ele>
        <time>2019-09-29T07:38:36.000Z</time>
      </trkpt>
      <trkpt lat="47.25444" lon="-2.27527">
        <ele>37.200000762939</ele>
        <time>2019-09-29T07:38:41.000Z</time>
      </trkpt>
      <trkpt lat="47.25441" lon="-2.27517">
        <ele>37.599998474121</ele>
        <time>2019-09-29T07:38:43.000Z</time>
      </trkpt>
      <trkpt lat="47.2544" lon="-2.27512">
        <ele>38</ele>
        <time>2019-09-29T07:38:44.000Z</time>
      </trkpt>
      <trkpt lat="47.25438" lon="-2.27507">
        <ele>38.599998474121</ele>
        <time>2019-09-29T07:38:45.000Z</time>
      </trkpt>
      <trkpt lat="47.25433" lon="-2.27502">
        <ele>39</ele>
        <time>2019-09-29T07:38:46.000Z</time>
      </trkpt>
      <trkpt lat="47.25429" lon="-2.27498">
        <ele>39.400001525879</ele>
        <time>2019-09-29T07:38:47.000Z</time>
      </trkpt>
      <trkpt lat="47.25417" lon="-2.27477">
        <ele>39.400001525879</ele>
        <time>2019-09-29T07:38:50.000Z</time>
      </trkpt>
      <trkpt lat="47.25414" lon="-2.2747">
        <ele>39.400001525879</ele>
        <time>2019-09-29T07:38:51.000Z</time>
      </trkpt>
      <trkpt lat="47.25395" lon="-2.27418">
        <ele>39.400001525879</ele>
        <time>2019-09-29T07:38:54.000Z</time>
      </trkpt>
      <trkpt lat="47.2539" lon="-2.27405">
        <ele>39.400001525879</ele>
        <time>2019-09-29T07:38:59.000Z</time>
      </trkpt>
      <trkpt lat="47.25381" lon="-2.27383">
        <ele>39.400001525879</ele>
        <time>2019-09-29T07:39:04.000Z</time>
      </trkpt>
      <trkpt lat="47.25367" lon="-2.27373">
        <ele>39.400001525879</ele>
        <time>2019-09-29T07:39:08.000Z</time>
      </trkpt>
      <trkpt lat="47.25365" lon="-2.27354">
        <ele>39.400001525879</ele>
        <time>2019-09-29T07:39:11.000Z</time>
      </trkpt>
      <trkpt lat="47.25355" lon="-2.27347">
        <ele>39.400001525879</ele>
        <time>2019-09-29T07:39:14.000Z</time>
      </trkpt>
      <trkpt lat="47.25348" lon="-2.2734">
        <ele>39.400001525879</ele>
        <time>2019-09-29T07:39:16.000Z</time>
      </trkpt>
      <trkpt lat="47.25341" lon="-2.27333">
        <ele>39.400001525879</ele>
        <time>2019-09-29T07:39:18.000Z</time>
      </trkpt>
      <trkpt lat="47.2534" lon="-2.27328">
        <ele>39.400001525879</ele>
        <time>2019-09-29T07:39:19.000Z</time>
      </trkpt>
      <trkpt lat="47.25342" lon="-2.27314">
        <ele>39.400001525879</ele>
        <time>2019-09-29T07:39:22.000Z</time>
      </trkpt>
      <trkpt lat="47.25338" lon="-2.27297">
        <ele>39.400001525879</ele>
        <time>2019-09-29T07:39:25.000Z</time>
      </trkpt>
      <trkpt lat="47.25335" lon="-2.27286">
        <ele>39.400001525879</ele>
        <time>2019-09-29T07:39:27.000Z</time>
      </trkpt>
      <trkpt lat="47.2532" lon="-2.27267">
        <ele>39.400001525879</ele>
        <time>2019-09-29T07:39:31.000Z</time>
      </trkpt>
      <trkpt lat="47.25315" lon="-2.27262">
        <ele>39.400001525879</ele>
        <time>2019-09-29T07:39:32.000Z</time>
      </trkpt>
      <trkpt lat="47.25311" lon="-2.27256">
        <ele>39.400001525879</ele>
        <time>2019-09-29T07:39:33.000Z</time>
      </trkpt>
      <trkpt lat="47.25298" lon="-2.2723">
        <ele>39.400001525879</ele>
        <time>2019-09-29T07:39:37.000Z</time>
      </trkpt>
      <trkpt lat="47.25294" lon="-2.27215">
        <ele>39.400001525879</ele>
        <time>2019-09-29T07:39:39.000Z</time>
      </trkpt>
      <trkpt lat="47.25285" lon="-2.27195">
        <ele>39.400001525879</ele>
        <time>2019-09-29T07:39:42.000Z</time>
      </trkpt>
      <trkpt lat="47.25281" lon="-2.27189">
        <ele>39.400001525879</ele>
        <time>2019-09-29T07:39:43.000Z</time>
      </trkpt>
      <trkpt lat="47.25256" lon="-2.27149">
        <ele>39.400001525879</ele>
        <time>2019-09-29T07:39:50.000Z</time>
      </trkpt>
      <trkpt lat="47.25252" lon="-2.27145">
        <ele>39.400001525879</ele>
        <time>2019-09-29T07:39:51.000Z</time>
      </trkpt>
      <trkpt lat="47.25241" lon="-2.27129">
        <ele>39.400001525879</ele>
        <time>2019-09-29T07:39:54.000Z</time>
      </trkpt>
      <trkpt lat="47.25235" lon="-2.27117">
        <ele>39.400001525879</ele>
        <time>2019-09-29T07:39:56.000Z</time>
      </trkpt>
      <trkpt lat="47.25222" lon="-2.2709">
        <ele>39.400001525879</ele>
        <time>2019-09-29T07:40:00.000Z</time>
      </trkpt>
      <trkpt lat="47.25201" lon="-2.27048">
        <ele>39.400001525879</ele>
        <time>2019-09-29T07:40:06.000Z</time>
      </trkpt>
      <trkpt lat="47.25189" lon="-2.27023">
        <ele>39.400001525879</ele>
        <time>2019-09-29T07:40:11.000Z</time>
      </trkpt>
      <trkpt lat="47.25182" lon="-2.27012">
        <ele>39.400001525879</ele>
        <time>2019-09-29T07:40:13.000Z</time>
      </trkpt>
      <trkpt lat="47.25178" lon="-2.27">
        <ele>39.400001525879</ele>
        <time>2019-09-29T07:40:15.000Z</time>
      </trkpt>
      <trkpt lat="47.25178" lon="-2.26987">
        <ele>39.400001525879</ele>
        <time>2019-09-29T07:40:17.000Z</time>
      </trkpt>
      <trkpt lat="47.25175" lon="-2.26972">
        <ele>39.400001525879</ele>
        <time>2019-09-29T07:40:21.000Z</time>
      </trkpt>
      <trkpt lat="47.25173" lon="-2.26972">
        <ele>39.400001525879</ele>
        <time>2019-09-29T07:40:22.000Z</time>
      </trkpt>
      <trkpt lat="47.2516" lon="-2.26967">
        <ele>39.400001525879</ele>
        <time>2019-09-29T07:40:26.000Z</time>
      </trkpt>
      <trkpt lat="47.25159" lon="-2.26962">
        <ele>39.400001525879</ele>
        <time>2019-09-29T07:40:27.000Z</time>
      </trkpt>
      <trkpt lat="47.25153" lon="-2.26951">
        <ele>39.400001525879</ele>
        <time>2019-09-29T07:40:29.000Z</time>
      </trkpt>
      <trkpt lat="47.25139" lon="-2.2694">
        <ele>39.400001525879</ele>
        <time>2019-09-29T07:40:32.000Z</time>
      </trkpt>
      <trkpt lat="47.25135" lon="-2.26933">
        <ele>39.400001525879</ele>
        <time>2019-09-29T07:40:33.000Z</time>
      </trkpt>
      <trkpt lat="47.2513" lon="-2.26918">
        <ele>39.400001525879</ele>
        <time>2019-09-29T07:40:35.000Z</time>
      </trkpt>
      <trkpt lat="47.25124" lon="-2.26904">
        <ele>39.400001525879</ele>
        <time>2019-09-29T07:40:37.000Z</time>
      </trkpt>
      <trkpt lat="47.25114" lon="-2.26897">
        <ele>39.400001525879</ele>
        <time>2019-09-29T07:40:39.000Z</time>
      </trkpt>
      <trkpt lat="47.25104" lon="-2.26895">
        <ele>39.400001525879</ele>
        <time>2019-09-29T07:40:41.000Z</time>
      </trkpt>
      <trkpt lat="47.25099" lon="-2.26891">
        <ele>39.400001525879</ele>
        <time>2019-09-29T07:40:42.000Z</time>
      </trkpt>
      <trkpt lat="47.25095" lon="-2.26885">
        <ele>39.400001525879</ele>
        <time>2019-09-29T07:40:43.000Z</time>
      </trkpt>
      <trkpt lat="47.25084" lon="-2.26871">
        <ele>39.400001525879</ele>
        <time>2019-09-29T07:40:46.000Z</time>
      </trkpt>
      <trkpt lat="47.25076" lon="-2.26864">
        <ele>39.400001525879</ele>
        <time>2019-09-29T07:40:48.000Z</time>
      </trkpt>
      <trkpt lat="47.25071" lon="-2.26862">
        <ele>39.400001525879</ele>
        <time>2019-09-29T07:40:49.000Z</time>
      </trkpt>
      <trkpt lat="47.25057" lon="-2.26861">
        <ele>39.400001525879</ele>
        <time>2019-09-29T07:40:52.000Z</time>
      </trkpt>
      <trkpt lat="47.25039" lon="-2.2686">
        <ele>39.400001525879</ele>
        <time>2019-09-29T07:40:57.000Z</time>
      </trkpt>
      <trkpt lat="47.25015" lon="-2.26866">
        <ele>39.400001525879</ele>
        <time>2019-09-29T07:41:02.000Z</time>
      </trkpt>
      <trkpt lat="47.24989" lon="-2.26873">
        <ele>39.400001525879</ele>
        <time>2019-09-29T07:41:08.000Z</time>
      </trkpt>
      <trkpt lat="47.24985" lon="-2.26873">
        <ele>39.400001525879</ele>
        <time>2019-09-29T07:41:09.000Z</time>
      </trkpt>
      <trkpt lat="47.24972" lon="-2.26871">
        <ele>39.400001525879</ele>
        <time>2019-09-29T07:41:12.000Z</time>
      </trkpt>
      <trkpt lat="47.24964" lon="-2.26863">
        <ele>39.400001525879</ele>
        <time>2019-09-29T07:41:14.000Z</time>
      </trkpt>
      <trkpt lat="47.24954" lon="-2.26853">
        <ele>39.400001525879</ele>
        <time>2019-09-29T07:41:17.000Z</time>
      </trkpt>
      <trkpt lat="47.24941" lon="-2.26847">
        <ele>39.400001525879</ele>
        <time>2019-09-29T07:41:20.000Z</time>
      </trkpt>
      <trkpt lat="47.24936" lon="-2.26846">
        <ele>39.400001525879</ele>
        <time>2019-09-29T07:41:21.000Z</time>
      </trkpt>
      <trkpt lat="47.24931" lon="-2.26842">
        <ele>39.400001525879</ele>
        <time>2019-09-29T07:41:22.000Z</time>
      </trkpt>
      <trkpt lat="47.24922" lon="-2.26833">
        <ele>39.400001525879</ele>
        <time>2019-09-29T07:41:24.000Z</time>
      </trkpt>
      <trkpt lat="47.24918" lon="-2.26831">
        <ele>39.400001525879</ele>
        <time>2019-09-29T07:41:25.000Z</time>
      </trkpt>
      <trkpt lat="47.24905" lon="-2.26824">
        <ele>39.400001525879</ele>
        <time>2019-09-29T07:41:28.000Z</time>
      </trkpt>
      <trkpt lat="47.249" lon="-2.26823">
        <ele>39.400001525879</ele>
        <time>2019-09-29T07:41:29.000Z</time>
      </trkpt>
      <trkpt lat="47.24885" lon="-2.26819">
        <ele>39.400001525879</ele>
        <time>2019-09-29T07:41:32.000Z</time>
      </trkpt>
      <trkpt lat="47.2488" lon="-2.26815">
        <ele>39.400001525879</ele>
        <time>2019-09-29T07:41:33.000Z</time>
      </trkpt>
      <trkpt lat="47.24861" lon="-2.26809">
        <ele>39.400001525879</ele>
        <time>2019-09-29T07:41:37.000Z</time>
      </trkpt>
      <trkpt lat="47.24841" lon="-2.26798">
        <ele>39.400001525879</ele>
        <time>2019-09-29T07:41:38.000Z</time>
      </trkpt>
      <trkpt lat="47.24824" lon="-2.26799">
        <ele>39.400001525879</ele>
        <time>2019-09-29T07:41:40.000Z</time>
      </trkpt>
      <trkpt lat="47.24817" lon="-2.26797">
        <ele>39.400001525879</ele>
        <time>2019-09-29T07:41:44.000Z</time>
      </trkpt>
      <trkpt lat="47.24811" lon="-2.26795">
        <ele>39.400001525879</ele>
        <time>2019-09-29T07:41:45.000Z</time>
      </trkpt>
      <trkpt lat="47.24766" lon="-2.26781">
        <ele>39.400001525879</ele>
        <time>2019-09-29T07:41:54.000Z</time>
      </trkpt>
      <trkpt lat="47.24729" lon="-2.26779">
        <ele>39.400001525879</ele>
        <time>2019-09-29T07:42:00.000Z</time>
      </trkpt>
      <trkpt lat="47.24698" lon="-2.26782">
        <ele>39.400001525879</ele>
        <time>2019-09-29T07:42:05.000Z</time>
      </trkpt>
      <trkpt lat="47.24692" lon="-2.26782">
        <ele>39.400001525879</ele>
        <time>2019-09-29T07:42:06.000Z</time>
      </trkpt>
      <trkpt lat="47.24677" lon="-2.26787">
        <ele>39.400001525879</ele>
        <time>2019-09-29T07:42:09.000Z</time>
      </trkpt>
      <trkpt lat="47.24674" lon="-2.26792">
        <ele>39.400001525879</ele>
        <time>2019-09-29T07:42:10.000Z</time>
      </trkpt>
      <trkpt lat="47.24667" lon="-2.26799">
        <ele>39.400001525879</ele>
        <time>2019-09-29T07:42:12.000Z</time>
      </trkpt>
      <trkpt lat="47.24654" lon="-2.26809">
        <ele>39.400001525879</ele>
        <time>2019-09-29T07:42:15.000Z</time>
      </trkpt>
      <trkpt lat="47.2463" lon="-2.26814">
        <ele>39.400001525879</ele>
        <time>2019-09-29T07:42:19.000Z</time>
      </trkpt>
      <trkpt lat="47.24619" lon="-2.26818">
        <ele>39.400001525879</ele>
        <time>2019-09-29T07:42:21.000Z</time>
      </trkpt>
      <trkpt lat="47.2461" lon="-2.26828">
        <ele>39.400001525879</ele>
        <time>2019-09-29T07:42:23.000Z</time>
      </trkpt>
      <trkpt lat="47.24592" lon="-2.2684">
        <ele>39.400001525879</ele>
        <time>2019-09-29T07:42:27.000Z</time>
      </trkpt>
      <trkpt lat="47.24587" lon="-2.2684">
        <ele>39.400001525879</ele>
        <time>2019-09-29T07:42:28.000Z</time>
      </trkpt>
      <trkpt lat="47.24579" lon="-2.26843">
        <ele>39.400001525879</ele>
        <time>2019-09-29T07:42:30.000Z</time>
      </trkpt>
      <trkpt lat="47.24567" lon="-2.26854">
        <ele>39.400001525879</ele>
        <time>2019-09-29T07:42:33.000Z</time>
      </trkpt>
      <trkpt lat="47.24556" lon="-2.26865">
        <ele>39.400001525879</ele>
        <time>2019-09-29T07:42:36.000Z</time>
      </trkpt>
      <trkpt lat="47.24544" lon="-2.26878">
        <ele>39.400001525879</ele>
        <time>2019-09-29T07:42:39.000Z</time>
      </trkpt>
      <trkpt lat="47.24531" lon="-2.26895">
        <ele>39.400001525879</ele>
        <time>2019-09-29T07:42:43.000Z</time>
      </trkpt>
      <trkpt lat="47.24526" lon="-2.26907">
        <ele>39.400001525879</ele>
        <time>2019-09-29T07:42:45.000Z</time>
      </trkpt>
      <trkpt lat="47.24516" lon="-2.26922">
        <ele>39.400001525879</ele>
        <time>2019-09-29T07:42:48.000Z</time>
      </trkpt>
      <trkpt lat="47.24508" lon="-2.2693">
        <ele>39.400001525879</ele>
        <time>2019-09-29T07:42:50.000Z</time>
      </trkpt>
      <trkpt lat="47.24492" lon="-2.26937">
        <ele>39.400001525879</ele>
        <time>2019-09-29T07:42:53.000Z</time>
      </trkpt>
      <trkpt lat="47.2448" lon="-2.26934">
        <ele>39.400001525879</ele>
        <time>2019-09-29T07:42:55.000Z</time>
      </trkpt>
      <trkpt lat="47.24469" lon="-2.26931">
        <ele>39.400001525879</ele>
        <time>2019-09-29T07:42:57.000Z</time>
      </trkpt>
      <trkpt lat="47.24458" lon="-2.26929">
        <ele>39.400001525879</ele>
        <time>2019-09-29T07:42:59.000Z</time>
      </trkpt>
      <trkpt lat="47.24445" lon="-2.26928">
        <ele>39.400001525879</ele>
        <time>2019-09-29T07:43:01.000Z</time>
      </trkpt>
      <trkpt lat="47.2444" lon="-2.26931">
        <ele>39.400001525879</ele>
        <time>2019-09-29T07:43:02.000Z</time>
      </trkpt>
      <trkpt lat="47.24423" lon="-2.26946">
        <ele>39.400001525879</ele>
        <time>2019-09-29T07:43:06.000Z</time>
      </trkpt>
      <trkpt lat="47.2441" lon="-2.26963">
        <ele>39.400001525879</ele>
        <time>2019-09-29T07:43:09.000Z</time>
      </trkpt>
      <trkpt lat="47.24403" lon="-2.26979">
        <ele>39.400001525879</ele>
        <time>2019-09-29T07:43:11.000Z</time>
      </trkpt>
      <trkpt lat="47.24391" lon="-2.26999">
        <ele>39.400001525879</ele>
        <time>2019-09-29T07:43:14.000Z</time>
      </trkpt>
      <trkpt lat="47.24368" lon="-2.27034">
        <ele>39.400001525879</ele>
        <time>2019-09-29T07:43:19.000Z</time>
      </trkpt>
      <trkpt lat="47.24364" lon="-2.27041">
        <ele>39.400001525879</ele>
        <time>2019-09-29T07:43:20.000Z</time>
      </trkpt>
      <trkpt lat="47.24357" lon="-2.27054">
        <ele>39.400001525879</ele>
        <time>2019-09-29T07:43:22.000Z</time>
      </trkpt>
      <trkpt lat="47.24348" lon="-2.27065">
        <ele>39.400001525879</ele>
        <time>2019-09-29T07:43:24.000Z</time>
      </trkpt>
      <trkpt lat="47.24328" lon="-2.27081">
        <ele>39.400001525879</ele>
        <time>2019-09-29T07:43:27.000Z</time>
      </trkpt>
      <trkpt lat="47.24312" lon="-2.271">
        <ele>39.400001525879</ele>
        <time>2019-09-29T07:43:30.000Z</time>
      </trkpt>
      <trkpt lat="47.24307" lon="-2.27106">
        <ele>39.400001525879</ele>
        <time>2019-09-29T07:43:31.000Z</time>
      </trkpt>
      <trkpt lat="47.24291" lon="-2.27115">
        <ele>39.400001525879</ele>
        <time>2019-09-29T07:43:34.000Z</time>
      </trkpt>
      <trkpt lat="47.24272" lon="-2.27114">
        <ele>39.400001525879</ele>
        <time>2019-09-29T07:43:37.000Z</time>
      </trkpt>
      <trkpt lat="47.24253" lon="-2.27122">
        <ele>39.400001525879</ele>
        <time>2019-09-29T07:43:40.000Z</time>
      </trkpt>
      <trkpt lat="47.2424" lon="-2.2713">
        <ele>39.400001525879</ele>
        <time>2019-09-29T07:43:42.000Z</time>
      </trkpt>
      <trkpt lat="47.24203" lon="-2.27154">
        <ele>39.400001525879</ele>
        <time>2019-09-29T07:43:49.000Z</time>
      </trkpt>
      <trkpt lat="47.24192" lon="-2.27161">
        <ele>39.400001525879</ele>
        <time>2019-09-29T07:43:51.000Z</time>
      </trkpt>
      <trkpt lat="47.24176" lon="-2.27168">
        <ele>39.400001525879</ele>
        <time>2019-09-29T07:43:54.000Z</time>
      </trkpt>
      <trkpt lat="47.24136" lon="-2.27184">
        <ele>39</ele>
        <time>2019-09-29T07:44:00.000Z</time>
      </trkpt>
      <trkpt lat="47.2412" lon="-2.2719">
        <ele>37.799999237061</ele>
        <time>2019-09-29T07:44:01.000Z</time>
      </trkpt>
      <trkpt lat="47.24115" lon="-2.27191">
        <ele>37.400001525879</ele>
        <time>2019-09-29T07:44:04.000Z</time>
      </trkpt>
      <trkpt lat="47.24107" lon="-2.27192">
        <ele>37.400001525879</ele>
        <time>2019-09-29T07:44:05.000Z</time>
      </trkpt>
      <trkpt lat="47.24105" lon="-2.27192">
        <ele>37.400001525879</ele>
        <time>2019-09-29T07:44:10.000Z</time>
      </trkpt>
      <trkpt lat="47.24103" lon="-2.27191">
        <ele>37.400001525879</ele>
        <time>2019-09-29T07:44:12.000Z</time>
      </trkpt>
      <trkpt lat="47.24101" lon="-2.27189">
        <ele>37.400001525879</ele>
        <time>2019-09-29T07:44:13.000Z</time>
      </trkpt>
      <trkpt lat="47.24096" lon="-2.27171">
        <ele>37.400001525879</ele>
        <time>2019-09-29T07:44:17.000Z</time>
      </trkpt>
      <trkpt lat="47.24095" lon="-2.27164">
        <ele>37.400001525879</ele>
        <time>2019-09-29T07:44:18.000Z</time>
      </trkpt>
      <trkpt lat="47.24093" lon="-2.27136">
        <ele>37.400001525879</ele>
        <time>2019-09-29T07:44:22.000Z</time>
      </trkpt>
      <trkpt lat="47.24093" lon="-2.2713">
        <ele>37.400001525879</ele>
        <time>2019-09-29T07:44:23.000Z</time>
      </trkpt>
      <trkpt lat="47.24094" lon="-2.27119">
        <ele>37.400001525879</ele>
        <time>2019-09-29T07:44:25.000Z</time>
      </trkpt>
      <trkpt lat="47.24094" lon="-2.27103">
        <ele>37.400001525879</ele>
        <time>2019-09-29T07:44:28.000Z</time>
      </trkpt>
      <trkpt lat="47.24092" lon="-2.27099">
        <ele>37.400001525879</ele>
        <time>2019-09-29T07:44:29.000Z</time>
      </trkpt>
      <trkpt lat="47.24085" lon="-2.2709">
        <ele>37.400001525879</ele>
        <time>2019-09-29T07:44:31.000Z</time>
      </trkpt>
      <trkpt lat="47.24075" lon="-2.27072">
        <ele>37.400001525879</ele>
        <time>2019-09-29T07:44:34.000Z</time>
      </trkpt>
      <trkpt lat="47.24069" lon="-2.27057">
        <ele>37.400001525879</ele>
        <time>2019-09-29T07:44:36.000Z</time>
      </trkpt>
      <trkpt lat="47.24063" lon="-2.27041">
        <ele>37</ele>
        <time>2019-09-29T07:44:38.000Z</time>
      </trkpt>
      <trkpt lat="47.2406" lon="-2.27032">
        <ele>36.599998474121</ele>
        <time>2019-09-29T07:44:39.000Z</time>
      </trkpt>
      <trkpt lat="47.24057" lon="-2.27024">
        <ele>36</ele>
        <time>2019-09-29T07:44:40.000Z</time>
      </trkpt>
      <trkpt lat="47.24054" lon="-2.27015">
        <ele>35.599998474121</ele>
        <time>2019-09-29T07:44:41.000Z</time>
      </trkpt>
      <trkpt lat="47.24051" lon="-2.27007">
        <ele>35.200000762939</ele>
        <time>2019-09-29T07:44:42.000Z</time>
      </trkpt>
      <trkpt lat="47.24047" lon="-2.27">
        <ele>35.200000762939</ele>
        <time>2019-09-29T07:44:43.000Z</time>
      </trkpt>
      <trkpt lat="47.24033" lon="-2.26994">
        <ele>35.200000762939</ele>
        <time>2019-09-29T07:44:46.000Z</time>
      </trkpt>
      <trkpt lat="47.24016" lon="-2.26979">
        <ele>35.200000762939</ele>
        <time>2019-09-29T07:44:50.000Z</time>
      </trkpt>
      <trkpt lat="47.24008" lon="-2.26966">
        <ele>35.200000762939</ele>
        <time>2019-09-29T07:44:53.000Z</time>
      </trkpt>
      <trkpt lat="47.23998" lon="-2.2696">
        <ele>35.200000762939</ele>
        <time>2019-09-29T07:44:55.000Z</time>
      </trkpt>
      <trkpt lat="47.23983" lon="-2.2695">
        <ele>35.200000762939</ele>
        <time>2019-09-29T07:44:58.000Z</time>
      </trkpt>
      <trkpt lat="47.23964" lon="-2.2694">
        <ele>35.200000762939</ele>
        <time>2019-09-29T07:45:02.000Z</time>
      </trkpt>
      <trkpt lat="47.23954" lon="-2.26929">
        <ele>35.200000762939</ele>
        <time>2019-09-29T07:45:03.000Z</time>
      </trkpt>
      <trkpt lat="47.23944" lon="-2.26914">
        <ele>35.200000762939</ele>
        <time>2019-09-29T07:45:07.000Z</time>
      </trkpt>
      <trkpt lat="47.23943" lon="-2.2691">
        <ele>35.200000762939</ele>
        <time>2019-09-29T07:45:10.000Z</time>
      </trkpt>
      <trkpt lat="47.23937" lon="-2.26896">
        <ele>35.200000762939</ele>
        <time>2019-09-29T07:45:14.000Z</time>
      </trkpt>
      <trkpt lat="47.23919" lon="-2.26887">
        <ele>35.200000762939</ele>
        <time>2019-09-29T07:45:19.000Z</time>
      </trkpt>
      <trkpt lat="47.23908" lon="-2.26883">
        <ele>35.200000762939</ele>
        <time>2019-09-29T07:45:22.000Z</time>
      </trkpt>
      <trkpt lat="47.239" lon="-2.26879">
        <ele>35.200000762939</ele>
        <time>2019-09-29T07:45:24.000Z</time>
      </trkpt>
      <trkpt lat="47.23869" lon="-2.2687">
        <ele>35.200000762939</ele>
        <time>2019-09-29T07:45:31.000Z</time>
      </trkpt>
      <trkpt lat="47.2386" lon="-2.26856">
        <ele>35.200000762939</ele>
        <time>2019-09-29T07:45:35.000Z</time>
      </trkpt>
      <trkpt lat="47.23862" lon="-2.26843">
        <ele>34.400001525879</ele>
        <time>2019-09-29T07:45:36.000Z</time>
      </trkpt>
      <trkpt lat="47.23862" lon="-2.26843">
        <ele>34.400001525879</ele>
        <time>2019-09-29T07:45:37.000Z</time>
      </trkpt>
      <trkpt lat="47.23866" lon="-2.26841">
        <ele>34</ele>
        <time>2019-09-29T07:45:38.000Z</time>
      </trkpt>
      <trkpt lat="47.23873" lon="-2.2684">
        <ele>33.599998474121</ele>
        <time>2019-09-29T07:45:39.000Z</time>
      </trkpt>
      <trkpt lat="47.23887" lon="-2.26836">
        <ele>33.200000762939</ele>
        <time>2019-09-29T07:45:40.000Z</time>
      </trkpt>
      <trkpt lat="47.23887" lon="-2.26836">
        <ele>33.200000762939</ele>
        <time>2019-09-29T07:45:42.000Z</time>
      </trkpt>
      <trkpt lat="47.23891" lon="-2.26832">
        <ele>33.200000762939</ele>
        <time>2019-09-29T07:45:43.000Z</time>
      </trkpt>
      <trkpt lat="47.23895" lon="-2.2682">
        <ele>33.200000762939</ele>
        <time>2019-09-29T07:45:45.000Z</time>
      </trkpt>
      <trkpt lat="47.23893" lon="-2.26796">
        <ele>33.200000762939</ele>
        <time>2019-09-29T07:45:49.000Z</time>
      </trkpt>
      <trkpt lat="47.23894" lon="-2.26774">
        <ele>33.200000762939</ele>
        <time>2019-09-29T07:45:53.000Z</time>
      </trkpt>
      <trkpt lat="47.23901" lon="-2.2675">
        <ele>33.200000762939</ele>
        <time>2019-09-29T07:45:56.000Z</time>
      </trkpt>
      <trkpt lat="47.23901" lon="-2.2675">
        <ele>33.200000762939</ele>
        <time>2019-09-29T07:45:59.000Z</time>
      </trkpt>
      <trkpt lat="47.23902" lon="-2.26749">
        <ele>33.200000762939</ele>
        <time>2019-09-29T07:46:01.000Z</time>
      </trkpt>
      <trkpt lat="47.23908" lon="-2.26745">
        <ele>29</ele>
        <time>2019-09-29T07:47:07.000Z</time>
      </trkpt>
      <trkpt lat="47.23909" lon="-2.26745">
        <ele>29</ele>
        <time>2019-09-29T07:47:08.000Z</time>
      </trkpt>
      <trkpt lat="47.23915" lon="-2.26748">
        <ele>29</ele>
        <time>2019-09-29T07:47:11.000Z</time>
      </trkpt>
      <trkpt lat="47.23927" lon="-2.2675">
        <ele>29</ele>
        <time>2019-09-29T07:47:15.000Z</time>
      </trkpt>
      <trkpt lat="47.23949" lon="-2.2674">
        <ele>29</ele>
        <time>2019-09-29T07:47:21.000Z</time>
      </trkpt>
      <trkpt lat="47.23954" lon="-2.26738">
        <ele>29</ele>
        <time>2019-09-29T07:47:22.000Z</time>
      </trkpt>
      <trkpt lat="47.23971" lon="-2.26736">
        <ele>29</ele>
        <time>2019-09-29T07:47:26.000Z</time>
      </trkpt>
      <trkpt lat="47.23975" lon="-2.26736">
        <ele>29</ele>
        <time>2019-09-29T07:47:27.000Z</time>
      </trkpt>
      <trkpt lat="47.23996" lon="-2.26739">
        <ele>29</ele>
        <time>2019-09-29T07:47:32.000Z</time>
      </trkpt>
      <trkpt lat="47.24" lon="-2.26739">
        <ele>29</ele>
        <time>2019-09-29T07:47:33.000Z</time>
      </trkpt>
      <trkpt lat="47.24015" lon="-2.26737">
        <ele>29</ele>
        <time>2019-09-29T07:47:38.000Z</time>
      </trkpt>
      <trkpt lat="47.24032" lon="-2.26732">
        <ele>29</ele>
        <time>2019-09-29T07:47:43.000Z</time>
      </trkpt>
      <trkpt lat="47.24053" lon="-2.26719">
        <ele>29</ele>
        <time>2019-09-29T07:47:49.000Z</time>
      </trkpt>
      <trkpt lat="47.24074" lon="-2.26691">
        <ele>29</ele>
        <time>2019-09-29T07:47:58.000Z</time>
      </trkpt>
      <trkpt lat="47.24086" lon="-2.26664">
        <ele>29</ele>
        <time>2019-09-29T07:48:05.000Z</time>
      </trkpt>
      <trkpt lat="47.24095" lon="-2.26653">
        <ele>29</ele>
        <time>2019-09-29T07:48:09.000Z</time>
      </trkpt>
      <trkpt lat="47.24097" lon="-2.26653">
        <ele>29</ele>
        <time>2019-09-29T07:48:10.000Z</time>
      </trkpt>
      <trkpt lat="47.24105" lon="-2.26655">
        <ele>29</ele>
        <time>2019-09-29T07:48:14.000Z</time>
      </trkpt>
      <trkpt lat="47.24107" lon="-2.26652">
        <ele>29</ele>
        <time>2019-09-29T07:48:15.000Z</time>
      </trkpt>
      <trkpt lat="47.24114" lon="-2.26639">
        <ele>29</ele>
        <time>2019-09-29T07:48:20.000Z</time>
      </trkpt>
      <trkpt lat="47.24118" lon="-2.26641">
        <ele>29</ele>
        <time>2019-09-29T07:48:23.000Z</time>
      </trkpt>
      <trkpt lat="47.24121" lon="-2.26632">
        <ele>29</ele>
        <time>2019-09-29T07:48:26.000Z</time>
      </trkpt>
      <trkpt lat="47.24123" lon="-2.26626">
        <ele>29</ele>
        <time>2019-09-29T07:48:27.000Z</time>
      </trkpt>
      <trkpt lat="47.24129" lon="-2.26607">
        <ele>29</ele>
        <time>2019-09-29T07:48:30.000Z</time>
      </trkpt>
      <trkpt lat="47.24133" lon="-2.26598">
        <ele>29</ele>
        <time>2019-09-29T07:48:32.000Z</time>
      </trkpt>
      <trkpt lat="47.24135" lon="-2.26595">
        <ele>29</ele>
        <time>2019-09-29T07:48:33.000Z</time>
      </trkpt>
      <trkpt lat="47.24136" lon="-2.26586">
        <ele>29</ele>
        <time>2019-09-29T07:48:36.000Z</time>
      </trkpt>
      <trkpt lat="47.24137" lon="-2.26584">
        <ele>29</ele>
        <time>2019-09-29T07:48:37.000Z</time>
      </trkpt>
      <trkpt lat="47.24142" lon="-2.26578">
        <ele>29</ele>
        <time>2019-09-29T07:48:40.000Z</time>
      </trkpt>
      <trkpt lat="47.24145" lon="-2.26578">
        <ele>29</ele>
        <time>2019-09-29T07:48:41.000Z</time>
      </trkpt>
      <trkpt lat="47.24155" lon="-2.26579">
        <ele>29</ele>
        <time>2019-09-29T07:48:46.000Z</time>
      </trkpt>
      <trkpt lat="47.2416" lon="-2.26579">
        <ele>29</ele>
        <time>2019-09-29T07:48:48.000Z</time>
      </trkpt>
      <trkpt lat="47.24162" lon="-2.26585">
        <ele>29</ele>
        <time>2019-09-29T07:48:50.000Z</time>
      </trkpt>
      <trkpt lat="47.24162" lon="-2.26592">
        <ele>29</ele>
        <time>2019-09-29T07:48:52.000Z</time>
      </trkpt>
      <trkpt lat="47.2416" lon="-2.26603">
        <ele>29</ele>
        <time>2019-09-29T07:48:56.000Z</time>
      </trkpt>
      <trkpt lat="47.24161" lon="-2.26614">
        <ele>29</ele>
        <time>2019-09-29T07:49:01.000Z</time>
      </trkpt>
      <trkpt lat="47.24176" lon="-2.26615">
        <ele>29</ele>
        <time>2019-09-29T07:49:05.000Z</time>
      </trkpt>
      <trkpt lat="47.24198" lon="-2.26622">
        <ele>29</ele>
        <time>2019-09-29T07:49:11.000Z</time>
      </trkpt>
      <trkpt lat="47.24216" lon="-2.26627">
        <ele>29</ele>
        <time>2019-09-29T07:49:17.000Z</time>
      </trkpt>
      <trkpt lat="47.24232" lon="-2.26619">
        <ele>29</ele>
        <time>2019-09-29T07:49:22.000Z</time>
      </trkpt>
      <trkpt lat="47.24239" lon="-2.26613">
        <ele>29</ele>
        <time>2019-09-29T07:49:24.000Z</time>
      </trkpt>
      <trkpt lat="47.24254" lon="-2.26599">
        <ele>29</ele>
        <time>2019-09-29T07:49:28.000Z</time>
      </trkpt>
      <trkpt lat="47.2428" lon="-2.26574">
        <ele>29</ele>
        <time>2019-09-29T07:49:34.000Z</time>
      </trkpt>
      <trkpt lat="47.24329" lon="-2.26529">
        <ele>29</ele>
        <time>2019-09-29T07:49:42.000Z</time>
      </trkpt>
      <trkpt lat="47.24365" lon="-2.26497">
        <ele>29</ele>
        <time>2019-09-29T07:49:50.000Z</time>
      </trkpt>
      <trkpt lat="47.24409" lon="-2.26466">
        <ele>29</ele>
        <time>2019-09-29T07:49:58.000Z</time>
      </trkpt>
      <trkpt lat="47.24414" lon="-2.26463">
        <ele>29</ele>
        <time>2019-09-29T07:49:59.000Z</time>
      </trkpt>
      <trkpt lat="47.24443" lon="-2.26444">
        <ele>29</ele>
        <time>2019-09-29T07:50:04.000Z</time>
      </trkpt>
      <trkpt lat="47.24503" lon="-2.26411">
        <ele>29</ele>
        <time>2019-09-29T07:50:15.000Z</time>
      </trkpt>
      <trkpt lat="47.24574" lon="-2.26381">
        <ele>29</ele>
        <time>2019-09-29T07:50:24.000Z</time>
      </trkpt>
      <trkpt lat="47.24612" lon="-2.26375">
        <ele>29</ele>
        <time>2019-09-29T07:50:33.000Z</time>
      </trkpt>
      <trkpt lat="47.24646" lon="-2.26382">
        <ele>29</ele>
        <time>2019-09-29T07:50:39.000Z</time>
      </trkpt>
      <trkpt lat="47.24685" lon="-2.26399">
        <ele>29</ele>
        <time>2019-09-29T07:50:46.000Z</time>
      </trkpt>
      <trkpt lat="47.24727" lon="-2.2642">
        <ele>29</ele>
        <time>2019-09-29T07:50:54.000Z</time>
      </trkpt>
      <trkpt lat="47.2477" lon="-2.26443">
        <ele>29</ele>
        <time>2019-09-29T07:51:02.000Z</time>
      </trkpt>
      <trkpt lat="47.24815" lon="-2.26456">
        <ele>29</ele>
        <time>2019-09-29T07:51:10.000Z</time>
      </trkpt>
      <trkpt lat="47.24821" lon="-2.26455">
        <ele>29</ele>
        <time>2019-09-29T07:51:11.000Z</time>
      </trkpt>
      <trkpt lat="47.24849" lon="-2.26453">
        <ele>29</ele>
        <time>2019-09-29T07:51:14.000Z</time>
      </trkpt>
      <trkpt lat="47.24849" lon="-2.26453">
        <ele>29</ele>
        <time>2019-09-29T07:51:15.000Z</time>
      </trkpt>
      <trkpt lat="47.24881" lon="-2.26444">
        <ele>29</ele>
        <time>2019-09-29T07:51:21.000Z</time>
      </trkpt>
      <trkpt lat="47.24923" lon="-2.2643">
        <ele>29</ele>
        <time>2019-09-29T07:51:29.000Z</time>
      </trkpt>
      <trkpt lat="47.24938" lon="-2.26425">
        <ele>29</ele>
        <time>2019-09-29T07:51:32.000Z</time>
      </trkpt>
      <trkpt lat="47.24953" lon="-2.26425">
        <ele>29</ele>
        <time>2019-09-29T07:51:35.000Z</time>
      </trkpt>
      <trkpt lat="47.24965" lon="-2.26413">
        <ele>29</ele>
        <time>2019-09-29T07:51:38.000Z</time>
      </trkpt>
      <trkpt lat="47.24973" lon="-2.26395">
        <ele>29</ele>
        <time>2019-09-29T07:51:41.000Z</time>
      </trkpt>
      <trkpt lat="47.24978" lon="-2.26391">
        <ele>29</ele>
        <time>2019-09-29T07:51:42.000Z</time>
      </trkpt>
      <trkpt lat="47.24988" lon="-2.26381">
        <ele>29</ele>
        <time>2019-09-29T07:51:44.000Z</time>
      </trkpt>
      <trkpt lat="47.24999" lon="-2.26372">
        <ele>29</ele>
        <time>2019-09-29T07:51:46.000Z</time>
      </trkpt>
      <trkpt lat="47.25005" lon="-2.26368">
        <ele>29</ele>
        <time>2019-09-29T07:51:47.000Z</time>
      </trkpt>
      <trkpt lat="47.25019" lon="-2.26362">
        <ele>29</ele>
        <time>2019-09-29T07:51:49.000Z</time>
      </trkpt>
      <trkpt lat="47.25027" lon="-2.2636">
        <ele>29</ele>
        <time>2019-09-29T07:51:50.000Z</time>
      </trkpt>
      <trkpt lat="47.25041" lon="-2.26354">
        <ele>29</ele>
        <time>2019-09-29T07:51:52.000Z</time>
      </trkpt>
      <trkpt lat="47.25052" lon="-2.26341">
        <ele>29</ele>
        <time>2019-09-29T07:51:54.000Z</time>
      </trkpt>
      <trkpt lat="47.25058" lon="-2.26311">
        <ele>29</ele>
        <time>2019-09-29T07:51:57.000Z</time>
      </trkpt>
      <trkpt lat="47.25059" lon="-2.26302">
        <ele>29</ele>
        <time>2019-09-29T07:51:58.000Z</time>
      </trkpt>
      <trkpt lat="47.25064" lon="-2.26266">
        <ele>29</ele>
        <time>2019-09-29T07:52:02.000Z</time>
      </trkpt>
      <trkpt lat="47.25066" lon="-2.26258">
        <ele>29</ele>
        <time>2019-09-29T07:52:03.000Z</time>
      </trkpt>
      <trkpt lat="47.25075" lon="-2.26236">
        <ele>29</ele>
        <time>2019-09-29T07:52:06.000Z</time>
      </trkpt>
      <trkpt lat="47.25079" lon="-2.26222">
        <ele>29</ele>
        <time>2019-09-29T07:52:08.000Z</time>
      </trkpt>
      <trkpt lat="47.25081" lon="-2.262">
        <ele>29</ele>
        <time>2019-09-29T07:52:11.000Z</time>
      </trkpt>
      <trkpt lat="47.25081" lon="-2.26181">
        <ele>29</ele>
        <time>2019-09-29T07:52:14.000Z</time>
      </trkpt>
      <trkpt lat="47.25081" lon="-2.26174">
        <ele>29</ele>
        <time>2019-09-29T07:52:15.000Z</time>
      </trkpt>
      <trkpt lat="47.25081" lon="-2.26147">
        <ele>29</ele>
        <time>2019-09-29T07:52:20.000Z</time>
      </trkpt>
      <trkpt lat="47.25086" lon="-2.26108">
        <ele>29</ele>
        <time>2019-09-29T07:52:27.000Z</time>
      </trkpt>
      <trkpt lat="47.25093" lon="-2.26071">
        <ele>29</ele>
        <time>2019-09-29T07:52:32.000Z</time>
      </trkpt>
      <trkpt lat="47.25101" lon="-2.26017">
        <ele>29</ele>
        <time>2019-09-29T07:52:38.000Z</time>
      </trkpt>
      <trkpt lat="47.25107" lon="-2.25989">
        <ele>29</ele>
        <time>2019-09-29T07:52:41.000Z</time>
      </trkpt>
      <trkpt lat="47.25113" lon="-2.25972">
        <ele>29</ele>
        <time>2019-09-29T07:52:43.000Z</time>
      </trkpt>
      <trkpt lat="47.25125" lon="-2.25952">
        <ele>29</ele>
        <time>2019-09-29T07:52:46.000Z</time>
      </trkpt>
      <trkpt lat="47.25133" lon="-2.2594">
        <ele>29</ele>
        <time>2019-09-29T07:52:48.000Z</time>
      </trkpt>
      <trkpt lat="47.25151" lon="-2.2591">
        <ele>29</ele>
        <time>2019-09-29T07:52:53.000Z</time>
      </trkpt>
      <trkpt lat="47.25154" lon="-2.25903">
        <ele>29</ele>
        <time>2019-09-29T07:52:54.000Z</time>
      </trkpt>
      <trkpt lat="47.25157" lon="-2.25895">
        <ele>29</ele>
        <time>2019-09-29T07:52:55.000Z</time>
      </trkpt>
      <trkpt lat="47.25166" lon="-2.25861">
        <ele>29</ele>
        <time>2019-09-29T07:52:59.000Z</time>
      </trkpt>
      <trkpt lat="47.25174" lon="-2.2582">
        <ele>29</ele>
        <time>2019-09-29T07:53:04.000Z</time>
      </trkpt>
      <trkpt lat="47.25181" lon="-2.25799">
        <ele>29</ele>
        <time>2019-09-29T07:53:07.000Z</time>
      </trkpt>
      <trkpt lat="47.25186" lon="-2.25795">
        <ele>29</ele>
        <time>2019-09-29T07:53:08.000Z</time>
      </trkpt>
      <trkpt lat="47.25206" lon="-2.25792">
        <ele>29</ele>
        <time>2019-09-29T07:53:12.000Z</time>
      </trkpt>
      <trkpt lat="47.25211" lon="-2.25793">
        <ele>29</ele>
        <time>2019-09-29T07:53:13.000Z</time>
      </trkpt>
      <trkpt lat="47.2522" lon="-2.25793">
        <ele>29</ele>
        <time>2019-09-29T07:53:15.000Z</time>
      </trkpt>
      <trkpt lat="47.25225" lon="-2.25786">
        <ele>29</ele>
        <time>2019-09-29T07:53:17.000Z</time>
      </trkpt>
      <trkpt lat="47.25228" lon="-2.25774">
        <ele>29</ele>
        <time>2019-09-29T07:53:19.000Z</time>
      </trkpt>
      <trkpt lat="47.2523" lon="-2.25753">
        <ele>29</ele>
        <time>2019-09-29T07:53:22.000Z</time>
      </trkpt>
      <trkpt lat="47.25236" lon="-2.25705">
        <ele>29</ele>
        <time>2019-09-29T07:53:29.000Z</time>
      </trkpt>
      <trkpt lat="47.2524" lon="-2.2569">
        <ele>29</ele>
        <time>2019-09-29T07:53:31.000Z</time>
      </trkpt>
      <trkpt lat="47.25249" lon="-2.25669">
        <ele>29</ele>
        <time>2019-09-29T07:53:34.000Z</time>
      </trkpt>
      <trkpt lat="47.25258" lon="-2.25637">
        <ele>29</ele>
        <time>2019-09-29T07:53:38.000Z</time>
      </trkpt>
      <trkpt lat="47.25261" lon="-2.25618">
        <ele>29</ele>
        <time>2019-09-29T07:53:40.000Z</time>
      </trkpt>
      <trkpt lat="47.25265" lon="-2.25584">
        <ele>29</ele>
        <time>2019-09-29T07:53:44.000Z</time>
      </trkpt>
      <trkpt lat="47.25266" lon="-2.2556">
        <ele>29</ele>
        <time>2019-09-29T07:53:48.000Z</time>
      </trkpt>
      <trkpt lat="47.25264" lon="-2.25548">
        <ele>29</ele>
        <time>2019-09-29T07:53:55.000Z</time>
      </trkpt>
      <trkpt lat="47.25261" lon="-2.25545">
        <ele>29</ele>
        <time>2019-09-29T07:53:57.000Z</time>
      </trkpt>
      <trkpt lat="47.2526" lon="-2.25544">
        <ele>29</ele>
        <time>2019-09-29T07:53:59.000Z</time>
      </trkpt>
      <trkpt lat="47.25259" lon="-2.2554">
        <ele>18.799999237061</ele>
        <time>2019-09-29T07:57:35.000Z</time>
      </trkpt>
      <trkpt lat="47.25258" lon="-2.25538">
        <ele>18.799999237061</ele>
        <time>2019-09-29T07:57:36.000Z</time>
      </trkpt>
      <trkpt lat="47.25254" lon="-2.25521">
        <ele>18.799999237061</ele>
        <time>2019-09-29T07:57:40.000Z</time>
      </trkpt>
      <trkpt lat="47.25253" lon="-2.25493">
        <ele>18.799999237061</ele>
        <time>2019-09-29T07:57:46.000Z</time>
      </trkpt>
      <trkpt lat="47.25236" lon="-2.25475">
        <ele>18.799999237061</ele>
        <time>2019-09-29T07:57:50.000Z</time>
      </trkpt>
      <trkpt lat="47.25232" lon="-2.25466">
        <ele>18.799999237061</ele>
        <time>2019-09-29T07:57:57.000Z</time>
      </trkpt>
      <trkpt lat="47.25234" lon="-2.25459">
        <ele>18.799999237061</ele>
        <time>2019-09-29T07:57:59.000Z</time>
      </trkpt>
      <trkpt lat="47.2524" lon="-2.25437">
        <ele>18.799999237061</ele>
        <time>2019-09-29T07:58:03.000Z</time>
      </trkpt>
      <trkpt lat="47.25246" lon="-2.25422">
        <ele>18.799999237061</ele>
        <time>2019-09-29T07:58:06.000Z</time>
      </trkpt>
      <trkpt lat="47.25249" lon="-2.25418">
        <ele>18.799999237061</ele>
        <time>2019-09-29T07:58:07.000Z</time>
      </trkpt>
      <trkpt lat="47.25257" lon="-2.25408">
        <ele>18.799999237061</ele>
        <time>2019-09-29T07:58:10.000Z</time>
      </trkpt>
      <trkpt lat="47.25261" lon="-2.2541">
        <ele>18.799999237061</ele>
        <time>2019-09-29T07:58:11.000Z</time>
      </trkpt>
      <trkpt lat="47.2527" lon="-2.25408">
        <ele>18.799999237061</ele>
        <time>2019-09-29T07:58:15.000Z</time>
      </trkpt>
      <trkpt lat="47.25272" lon="-2.25391">
        <ele>18.799999237061</ele>
        <time>2019-09-29T07:58:19.000Z</time>
      </trkpt>
      <trkpt lat="47.25271" lon="-2.25386">
        <ele>18.799999237061</ele>
        <time>2019-09-29T07:58:20.000Z</time>
      </trkpt>
      <trkpt lat="47.25274" lon="-2.25374">
        <ele>18.799999237061</ele>
        <time>2019-09-29T07:58:23.000Z</time>
      </trkpt>
      <trkpt lat="47.25279" lon="-2.25376">
        <ele>18.799999237061</ele>
        <time>2019-09-29T07:58:26.000Z</time>
      </trkpt>
      <trkpt lat="47.25286" lon="-2.25389">
        <ele>18.799999237061</ele>
        <time>2019-09-29T07:58:31.000Z</time>
      </trkpt>
      <trkpt lat="47.25298" lon="-2.25402">
        <ele>18.799999237061</ele>
        <time>2019-09-29T07:58:36.000Z</time>
      </trkpt>
      <trkpt lat="47.25307" lon="-2.2541">
        <ele>18.799999237061</ele>
        <time>2019-09-29T07:58:41.000Z</time>
      </trkpt>
      <trkpt lat="47.25317" lon="-2.25411">
        <ele>18.799999237061</ele>
        <time>2019-09-29T07:58:45.000Z</time>
      </trkpt>
      <trkpt lat="47.25331" lon="-2.25407">
        <ele>18.799999237061</ele>
        <time>2019-09-29T07:58:50.000Z</time>
      </trkpt>
      <trkpt lat="47.25334" lon="-2.25407">
        <ele>18.799999237061</ele>
        <time>2019-09-29T07:58:51.000Z</time>
      </trkpt>
      <trkpt lat="47.25338" lon="-2.25402">
        <ele>18.799999237061</ele>
        <time>2019-09-29T07:58:52.000Z</time>
      </trkpt>
      <trkpt lat="47.25343" lon="-2.25393">
        <ele>18.799999237061</ele>
        <time>2019-09-29T07:58:54.000Z</time>
      </trkpt>
      <trkpt lat="47.25345" lon="-2.25383">
        <ele>18.799999237061</ele>
        <time>2019-09-29T07:58:58.000Z</time>
      </trkpt>
      <trkpt lat="47.25344" lon="-2.25382">
        <ele>18.799999237061</ele>
        <time>2019-09-29T07:58:59.000Z</time>
      </trkpt>
      <trkpt lat="47.25342" lon="-2.25381">
        <ele>18.799999237061</ele>
        <time>2019-09-29T07:59:01.000Z</time>
      </trkpt>
      <trkpt lat="47.25343" lon="-2.25378">
        <ele>18.799999237061</ele>
        <time>2019-09-29T08:00:00.000Z</time>
      </trkpt>
      <trkpt lat="47.2535" lon="-2.25378">
        <ele>18.799999237061</ele>
        <time>2019-09-29T08:00:04.000Z</time>
      </trkpt>
      <trkpt lat="47.25354" lon="-2.2538">
        <ele>18.799999237061</ele>
        <time>2019-09-29T08:00:06.000Z</time>
      </trkpt>
      <trkpt lat="47.25357" lon="-2.2538">
        <ele>18.799999237061</ele>
        <time>2019-09-29T08:00:09.000Z</time>
      </trkpt>
      <trkpt lat="47.25357" lon="-2.2538">
        <ele>18.799999237061</ele>
        <time>2019-09-29T08:00:14.000Z</time>
      </trkpt>
      <trkpt lat="47.25377" lon="-2.25381">
        <ele>18.799999237061</ele>
        <time>2019-09-29T08:00:25.000Z</time>
      </trkpt>
      <trkpt lat="47.25395" lon="-2.25378">
        <ele>18.799999237061</ele>
        <time>2019-09-29T08:00:37.000Z</time>
      </trkpt>
      <trkpt lat="47.25405" lon="-2.25377">
        <ele>18.799999237061</ele>
        <time>2019-09-29T08:00:43.000Z</time>
      </trkpt>
      <trkpt lat="47.25424" lon="-2.25374">
        <ele>18.799999237061</ele>
        <time>2019-09-29T08:00:50.000Z</time>
      </trkpt>
      <trkpt lat="47.25438" lon="-2.25374">
        <ele>18.799999237061</ele>
        <time>2019-09-29T08:00:56.000Z</time>
      </trkpt>
      <trkpt lat="47.25454" lon="-2.25378">
        <ele>18.799999237061</ele>
        <time>2019-09-29T08:01:02.000Z</time>
      </trkpt>
      <trkpt lat="47.2547" lon="-2.25381">
        <ele>18.799999237061</ele>
        <time>2019-09-29T08:01:08.000Z</time>
      </trkpt>
      <trkpt lat="47.25488" lon="-2.25387">
        <ele>18.799999237061</ele>
        <time>2019-09-29T08:01:14.000Z</time>
      </trkpt>
      <trkpt lat="47.25502" lon="-2.25395">
        <ele>18.799999237061</ele>
        <time>2019-09-29T08:01:20.000Z</time>
      </trkpt>
      <trkpt lat="47.25518" lon="-2.25391">
        <ele>18.799999237061</ele>
        <time>2019-09-29T08:01:26.000Z</time>
      </trkpt>
      <trkpt lat="47.2553" lon="-2.25366">
        <ele>18.799999237061</ele>
        <time>2019-09-29T08:01:36.000Z</time>
      </trkpt>
      <trkpt lat="47.25535" lon="-2.25334">
        <ele>18.799999237061</ele>
        <time>2019-09-29T08:01:42.000Z</time>
      </trkpt>
      <trkpt lat="47.25541" lon="-2.25296">
        <ele>18.799999237061</ele>
        <time>2019-09-29T08:01:49.000Z</time>
      </trkpt>
      <trkpt lat="47.25545" lon="-2.25264">
        <ele>18.799999237061</ele>
        <time>2019-09-29T08:01:55.000Z</time>
      </trkpt>
      <trkpt lat="47.25551" lon="-2.25229">
        <ele>18.799999237061</ele>
        <time>2019-09-29T08:02:02.000Z</time>
      </trkpt>
      <trkpt lat="47.25549" lon="-2.25199">
        <ele>18.799999237061</ele>
        <time>2019-09-29T08:02:08.000Z</time>
      </trkpt>
      <trkpt lat="47.25549" lon="-2.25195">
        <ele>18.799999237061</ele>
        <time>2019-09-29T08:02:09.000Z</time>
      </trkpt>
      <trkpt lat="47.25553" lon="-2.25189">
        <ele>18.799999237061</ele>
        <time>2019-09-29T08:02:11.000Z</time>
      </trkpt>
      <trkpt lat="47.25558" lon="-2.25186">
        <ele>18.799999237061</ele>
        <time>2019-09-29T08:02:13.000Z</time>
      </trkpt>
      <trkpt lat="47.25563" lon="-2.25179">
        <ele>18.799999237061</ele>
        <time>2019-09-29T08:02:15.000Z</time>
      </trkpt>
      <trkpt lat="47.25568" lon="-2.25161">
        <ele>18.799999237061</ele>
        <time>2019-09-29T08:02:19.000Z</time>
      </trkpt>
      <trkpt lat="47.25572" lon="-2.25137">
        <ele>18.799999237061</ele>
        <time>2019-09-29T08:02:24.000Z</time>
      </trkpt>
      <trkpt lat="47.25577" lon="-2.2513">
        <ele>18.799999237061</ele>
        <time>2019-09-29T08:02:26.000Z</time>
      </trkpt>
      <trkpt lat="47.2558" lon="-2.25129">
        <ele>18.799999237061</ele>
        <time>2019-09-29T08:02:27.000Z</time>
      </trkpt>
      <trkpt lat="47.25584" lon="-2.25129">
        <ele>18.799999237061</ele>
        <time>2019-09-29T08:02:28.000Z</time>
      </trkpt>
      <trkpt lat="47.25595" lon="-2.25133">
        <ele>18.799999237061</ele>
        <time>2019-09-29T08:02:31.000Z</time>
      </trkpt>
      <trkpt lat="47.25601" lon="-2.25134">
        <ele>18.799999237061</ele>
        <time>2019-09-29T08:02:33.000Z</time>
      </trkpt>
      <trkpt lat="47.2562" lon="-2.25141">
        <ele>18.799999237061</ele>
        <time>2019-09-29T08:02:39.000Z</time>
      </trkpt>
      <trkpt lat="47.25637" lon="-2.25149">
        <ele>18.799999237061</ele>
        <time>2019-09-29T08:02:45.000Z</time>
      </trkpt>
      <trkpt lat="47.25654" lon="-2.25161">
        <ele>18.799999237061</ele>
        <time>2019-09-29T08:02:51.000Z</time>
      </trkpt>
      <trkpt lat="47.25656" lon="-2.2516">
        <ele>18.799999237061</ele>
        <time>2019-09-29T08:02:52.000Z</time>
      </trkpt>
      <trkpt lat="47.2566" lon="-2.25154">
        <ele>18.799999237061</ele>
        <time>2019-09-29T08:02:54.000Z</time>
      </trkpt>
      <trkpt lat="47.25663" lon="-2.25145">
        <ele>18.799999237061</ele>
        <time>2019-09-29T08:02:56.000Z</time>
      </trkpt>
      <trkpt lat="47.25665" lon="-2.25135">
        <ele>18.799999237061</ele>
        <time>2019-09-29T08:02:58.000Z</time>
      </trkpt>
      <trkpt lat="47.25672" lon="-2.25102">
        <ele>18.799999237061</ele>
        <time>2019-09-29T08:03:04.000Z</time>
      </trkpt>
      <trkpt lat="47.25676" lon="-2.25088">
        <ele>18.799999237061</ele>
        <time>2019-09-29T08:03:06.000Z</time>
      </trkpt>
      <trkpt lat="47.2568" lon="-2.25074">
        <ele>18.799999237061</ele>
        <time>2019-09-29T08:03:08.000Z</time>
      </trkpt>
      <trkpt lat="47.2569" lon="-2.25022">
        <ele>18.799999237061</ele>
        <time>2019-09-29T08:03:15.000Z</time>
      </trkpt>
      <trkpt lat="47.25695" lon="-2.25006">
        <ele>18.799999237061</ele>
        <time>2019-09-29T08:03:17.000Z</time>
      </trkpt>
      <trkpt lat="47.25708" lon="-2.24952">
        <ele>18.799999237061</ele>
        <time>2019-09-29T08:03:24.000Z</time>
      </trkpt>
      <trkpt lat="47.2571" lon="-2.24944">
        <ele>18.799999237061</ele>
        <time>2019-09-29T08:03:25.000Z</time>
      </trkpt>
      <trkpt lat="47.25711" lon="-2.24936">
        <ele>18.799999237061</ele>
        <time>2019-09-29T08:03:26.000Z</time>
      </trkpt>
      <trkpt lat="47.25715" lon="-2.24915">
        <ele>18.799999237061</ele>
        <time>2019-09-29T08:03:29.000Z</time>
      </trkpt>
      <trkpt lat="47.2572" lon="-2.24898">
        <ele>18.799999237061</ele>
        <time>2019-09-29T08:03:33.000Z</time>
      </trkpt>
      <trkpt lat="47.25722" lon="-2.24895">
        <ele>18.799999237061</ele>
        <time>2019-09-29T08:03:34.000Z</time>
      </trkpt>
      <trkpt lat="47.25735" lon="-2.24888">
        <ele>18.799999237061</ele>
        <time>2019-09-29T08:03:38.000Z</time>
      </trkpt>
      <trkpt lat="47.25749" lon="-2.24882">
        <ele>19.200000762939</ele>
        <time>2019-09-29T08:03:42.000Z</time>
      </trkpt>
      <trkpt lat="47.25752" lon="-2.24882">
        <ele>19.60000038147</ele>
        <time>2019-09-29T08:03:43.000Z</time>
      </trkpt>
      <trkpt lat="47.25756" lon="-2.24881">
        <ele>20</ele>
        <time>2019-09-29T08:03:44.000Z</time>
      </trkpt>
      <trkpt lat="47.2576" lon="-2.2488">
        <ele>20.39999961853</ele>
        <time>2019-09-29T08:03:45.000Z</time>
      </trkpt>
      <trkpt lat="47.25763" lon="-2.24877">
        <ele>20.799999237061</ele>
        <time>2019-09-29T08:03:46.000Z</time>
      </trkpt>
      <trkpt lat="47.2577" lon="-2.24868">
        <ele>20.799999237061</ele>
        <time>2019-09-29T08:03:48.000Z</time>
      </trkpt>
      <trkpt lat="47.25777" lon="-2.24852">
        <ele>20.799999237061</ele>
        <time>2019-09-29T08:03:49.000Z</time>
      </trkpt>
      <trkpt lat="47.2578" lon="-2.24839">
        <ele>20.799999237061</ele>
        <time>2019-09-29T08:03:53.000Z</time>
      </trkpt>
      <trkpt lat="47.2579" lon="-2.24798">
        <ele>20.799999237061</ele>
        <time>2019-09-29T08:03:57.000Z</time>
      </trkpt>
      <trkpt lat="47.2579" lon="-2.24798">
        <ele>20.799999237061</ele>
        <time>2019-09-29T08:03:59.000Z</time>
      </trkpt>
      <trkpt lat="47.25798" lon="-2.24753">
        <ele>20.799999237061</ele>
        <time>2019-09-29T08:04:05.000Z</time>
      </trkpt>
      <trkpt lat="47.25802" lon="-2.2467">
        <ele>20.799999237061</ele>
        <time>2019-09-29T08:04:15.000Z</time>
      </trkpt>
      <trkpt lat="47.25791" lon="-2.24602">
        <ele>20.799999237061</ele>
        <time>2019-09-29T08:04:22.000Z</time>
      </trkpt>
      <trkpt lat="47.25786" lon="-2.2458">
        <ele>20.799999237061</ele>
        <time>2019-09-29T08:04:25.000Z</time>
      </trkpt>
      <trkpt lat="47.25783" lon="-2.24575">
        <ele>20.799999237061</ele>
        <time>2019-09-29T08:04:26.000Z</time>
      </trkpt>
      <trkpt lat="47.25771" lon="-2.24559">
        <ele>20.799999237061</ele>
        <time>2019-09-29T08:04:30.000Z</time>
      </trkpt>
      <trkpt lat="47.25762" lon="-2.24542">
        <ele>20.799999237061</ele>
        <time>2019-09-29T08:04:35.000Z</time>
      </trkpt>
      <trkpt lat="47.25755" lon="-2.24522">
        <ele>20.799999237061</ele>
        <time>2019-09-29T08:04:40.000Z</time>
      </trkpt>
      <trkpt lat="47.25754" lon="-2.24501">
        <ele>20.799999237061</ele>
        <time>2019-09-29T08:04:45.000Z</time>
      </trkpt>
      <trkpt lat="47.25749" lon="-2.24475">
        <ele>20.799999237061</ele>
        <time>2019-09-29T08:04:50.000Z</time>
      </trkpt>
      <trkpt lat="47.25747" lon="-2.24461">
        <ele>20.799999237061</ele>
        <time>2019-09-29T08:04:52.000Z</time>
      </trkpt>
      <trkpt lat="47.25747" lon="-2.24439">
        <ele>20.799999237061</ele>
        <time>2019-09-29T08:04:55.000Z</time>
      </trkpt>
      <trkpt lat="47.25744" lon="-2.24379">
        <ele>20.799999237061</ele>
        <time>2019-09-29T08:05:03.000Z</time>
      </trkpt>
      <trkpt lat="47.25743" lon="-2.2434">
        <ele>20.799999237061</ele>
        <time>2019-09-29T08:05:09.000Z</time>
      </trkpt>
      <trkpt lat="47.25744" lon="-2.24278">
        <ele>20.799999237061</ele>
        <time>2019-09-29T08:05:16.000Z</time>
      </trkpt>
      <trkpt lat="47.25744" lon="-2.24235">
        <ele>20.799999237061</ele>
        <time>2019-09-29T08:05:25.000Z</time>
      </trkpt>
      <trkpt lat="47.25743" lon="-2.24208">
        <ele>20.799999237061</ele>
        <time>2019-09-29T08:05:29.000Z</time>
      </trkpt>
      <trkpt lat="47.25744" lon="-2.24197">
        <ele>20.799999237061</ele>
        <time>2019-09-29T08:05:31.000Z</time>
      </trkpt>
      <trkpt lat="47.25745" lon="-2.24159">
        <ele>20.799999237061</ele>
        <time>2019-09-29T08:05:37.000Z</time>
      </trkpt>
      <trkpt lat="47.25749" lon="-2.24092">
        <ele>20.799999237061</ele>
        <time>2019-09-29T08:05:44.000Z</time>
      </trkpt>
      <trkpt lat="47.2575" lon="-2.24038">
        <ele>20.799999237061</ele>
        <time>2019-09-29T08:05:52.000Z</time>
      </trkpt>
      <trkpt lat="47.25747" lon="-2.23999">
        <ele>20.799999237061</ele>
        <time>2019-09-29T08:05:56.000Z</time>
      </trkpt>
      <trkpt lat="47.25743" lon="-2.23977">
        <ele>20.799999237061</ele>
        <time>2019-09-29T08:05:58.000Z</time>
      </trkpt>
      <trkpt lat="47.25734" lon="-2.23922">
        <ele>20.799999237061</ele>
        <time>2019-09-29T08:06:04.000Z</time>
      </trkpt>
      <trkpt lat="47.25724" lon="-2.23861">
        <ele>20.799999237061</ele>
        <time>2019-09-29T08:06:11.000Z</time>
      </trkpt>
      <trkpt lat="47.25723" lon="-2.23853">
        <ele>20.799999237061</ele>
        <time>2019-09-29T08:06:12.000Z</time>
      </trkpt>
      <trkpt lat="47.2572" lon="-2.23819">
        <ele>20.799999237061</ele>
        <time>2019-09-29T08:06:16.000Z</time>
      </trkpt>
      <trkpt lat="47.25718" lon="-2.23765">
        <ele>20.799999237061</ele>
        <time>2019-09-29T08:06:23.000Z</time>
      </trkpt>
      <trkpt lat="47.25718" lon="-2.23743">
        <ele>20.799999237061</ele>
        <time>2019-09-29T08:06:26.000Z</time>
      </trkpt>
      <trkpt lat="47.25716" lon="-2.23717">
        <ele>20.799999237061</ele>
        <time>2019-09-29T08:06:29.000Z</time>
      </trkpt>
      <trkpt lat="47.25714" lon="-2.23663">
        <ele>20.799999237061</ele>
        <time>2019-09-29T08:06:36.000Z</time>
      </trkpt>
      <trkpt lat="47.2571" lon="-2.23609">
        <ele>20.39999961853</ele>
        <time>2019-09-29T08:06:43.000Z</time>
      </trkpt>
      <trkpt lat="47.2571" lon="-2.23601">
        <ele>20</ele>
        <time>2019-09-29T08:06:44.000Z</time>
      </trkpt>
      <trkpt lat="47.25709" lon="-2.23593">
        <ele>19.60000038147</ele>
        <time>2019-09-29T08:06:45.000Z</time>
      </trkpt>
      <trkpt lat="47.25709" lon="-2.23586">
        <ele>19.200000762939</ele>
        <time>2019-09-29T08:06:46.000Z</time>
      </trkpt>
      <trkpt lat="47.25709" lon="-2.23578">
        <ele>18.799999237061</ele>
        <time>2019-09-29T08:06:47.000Z</time>
      </trkpt>
      <trkpt lat="47.25707" lon="-2.23532">
        <ele>18.799999237061</ele>
        <time>2019-09-29T08:06:53.000Z</time>
      </trkpt>
      <trkpt lat="47.25705" lon="-2.2351">
        <ele>18.799999237061</ele>
        <time>2019-09-29T08:06:56.000Z</time>
      </trkpt>
      <trkpt lat="47.25702" lon="-2.2347">
        <ele>18.799999237061</ele>
        <time>2019-09-29T08:07:01.000Z</time>
      </trkpt>
      <trkpt lat="47.2569" lon="-2.23373">
        <ele>18.799999237061</ele>
        <time>2019-09-29T08:07:13.000Z</time>
      </trkpt>
      <trkpt lat="47.25686" lon="-2.23307">
        <ele>18.799999237061</ele>
        <time>2019-09-29T08:07:21.000Z</time>
      </trkpt>
      <trkpt lat="47.25685" lon="-2.23299">
        <ele>18.799999237061</ele>
        <time>2019-09-29T08:07:22.000Z</time>
      </trkpt>
      <trkpt lat="47.25679" lon="-2.23275">
        <ele>18.799999237061</ele>
        <time>2019-09-29T08:07:25.000Z</time>
      </trkpt>
      <trkpt lat="47.25673" lon="-2.2326">
        <ele>18.799999237061</ele>
        <time>2019-09-29T08:07:27.000Z</time>
      </trkpt>
      <trkpt lat="47.25662" lon="-2.23226">
        <ele>18.39999961853</ele>
        <time>2019-09-29T08:07:31.000Z</time>
      </trkpt>
      <trkpt lat="47.25661" lon="-2.23217">
        <ele>17.799999237061</ele>
        <time>2019-09-29T08:07:32.000Z</time>
      </trkpt>
      <trkpt lat="47.25661" lon="-2.23187">
        <ele>16.60000038147</ele>
        <time>2019-09-29T08:07:33.000Z</time>
      </trkpt>
      <trkpt lat="47.25661" lon="-2.23187">
        <ele>16.60000038147</ele>
        <time>2019-09-29T08:07:35.000Z</time>
      </trkpt>
      <trkpt lat="47.25664" lon="-2.23126">
        <ele>16.60000038147</ele>
        <time>2019-09-29T08:07:41.000Z</time>
      </trkpt>
      <trkpt lat="47.25666" lon="-2.23108">
        <ele>16.60000038147</ele>
        <time>2019-09-29T08:07:43.000Z</time>
      </trkpt>
      <trkpt lat="47.25668" lon="-2.2307">
        <ele>16.60000038147</ele>
        <time>2019-09-29T08:07:47.000Z</time>
      </trkpt>
      <trkpt lat="47.2567" lon="-2.22998">
        <ele>16.60000038147</ele>
        <time>2019-09-29T08:07:55.000Z</time>
      </trkpt>
      <trkpt lat="47.2567" lon="-2.22936">
        <ele>16.60000038147</ele>
        <time>2019-09-29T08:08:02.000Z</time>
      </trkpt>
      <trkpt lat="47.25675" lon="-2.22889">
        <ele>16.60000038147</ele>
        <time>2019-09-29T08:08:07.000Z</time>
      </trkpt>
      <trkpt lat="47.25677" lon="-2.22879">
        <ele>16.60000038147</ele>
        <time>2019-09-29T08:08:08.000Z</time>
      </trkpt>
      <trkpt lat="47.25691" lon="-2.22857">
        <ele>16.60000038147</ele>
        <time>2019-09-29T08:08:11.000Z</time>
      </trkpt>
      <trkpt lat="47.2571" lon="-2.2284">
        <ele>16.60000038147</ele>
        <time>2019-09-29T08:08:14.000Z</time>
      </trkpt>
      <trkpt lat="47.25717" lon="-2.22834">
        <ele>16.60000038147</ele>
        <time>2019-09-29T08:08:15.000Z</time>
      </trkpt>
      <trkpt lat="47.25761" lon="-2.22802">
        <ele>16.60000038147</ele>
        <time>2019-09-29T08:08:21.000Z</time>
      </trkpt>
      <trkpt lat="47.25801" lon="-2.22772">
        <ele>16.60000038147</ele>
        <time>2019-09-29T08:08:28.000Z</time>
      </trkpt>
      <trkpt lat="47.25805" lon="-2.22767">
        <ele>16.60000038147</ele>
        <time>2019-09-29T08:08:29.000Z</time>
      </trkpt>
      <trkpt lat="47.2581" lon="-2.22754">
        <ele>16.60000038147</ele>
        <time>2019-09-29T08:08:31.000Z</time>
      </trkpt>
      <trkpt lat="47.25809" lon="-2.22738">
        <ele>16.200000762939</ele>
        <time>2019-09-29T08:08:33.000Z</time>
      </trkpt>
      <trkpt lat="47.25808" lon="-2.2273">
        <ele>15.800000190735</ele>
        <time>2019-09-29T08:08:34.000Z</time>
      </trkpt>
      <trkpt lat="47.25807" lon="-2.22721">
        <ele>15.39999961853</ele>
        <time>2019-09-29T08:08:35.000Z</time>
      </trkpt>
      <trkpt lat="47.25806" lon="-2.22712">
        <ele>15</ele>
        <time>2019-09-29T08:08:36.000Z</time>
      </trkpt>
      <trkpt lat="47.25805" lon="-2.22703">
        <ele>14.60000038147</ele>
        <time>2019-09-29T08:08:37.000Z</time>
      </trkpt>
      <trkpt lat="47.25802" lon="-2.22677">
        <ele>14.60000038147</ele>
        <time>2019-09-29T08:08:40.000Z</time>
      </trkpt>
      <trkpt lat="47.25801" lon="-2.22667">
        <ele>14.60000038147</ele>
        <time>2019-09-29T08:08:41.000Z</time>
      </trkpt>
      <trkpt lat="47.25803" lon="-2.22642">
        <ele>14.60000038147</ele>
        <time>2019-09-29T08:08:44.000Z</time>
      </trkpt>
      <trkpt lat="47.25804" lon="-2.22634">
        <ele>14.60000038147</ele>
        <time>2019-09-29T08:08:45.000Z</time>
      </trkpt>
      <trkpt lat="47.25804" lon="-2.2261">
        <ele>14.60000038147</ele>
        <time>2019-09-29T08:08:48.000Z</time>
      </trkpt>
      <trkpt lat="47.25803" lon="-2.22593">
        <ele>14.60000038147</ele>
        <time>2019-09-29T08:08:50.000Z</time>
      </trkpt>
      <trkpt lat="47.25805" lon="-2.22577">
        <ele>14.60000038147</ele>
        <time>2019-09-29T08:08:52.000Z</time>
      </trkpt>
      <trkpt lat="47.25809" lon="-2.22536">
        <ele>14.60000038147</ele>
        <time>2019-09-29T08:08:55.000Z</time>
      </trkpt>
      <trkpt lat="47.25814" lon="-2.22496">
        <ele>14.60000038147</ele>
        <time>2019-09-29T08:09:02.000Z</time>
      </trkpt>
      <trkpt lat="47.25817" lon="-2.2248">
        <ele>14.60000038147</ele>
        <time>2019-09-29T08:09:04.000Z</time>
      </trkpt>
      <trkpt lat="47.25828" lon="-2.22432">
        <ele>14.60000038147</ele>
        <time>2019-09-29T08:09:10.000Z</time>
      </trkpt>
      <trkpt lat="47.25844" lon="-2.22368">
        <ele>14.199999809265</ele>
        <time>2019-09-29T08:09:18.000Z</time>
      </trkpt>
      <trkpt lat="47.25846" lon="-2.2236">
        <ele>13.800000190735</ele>
        <time>2019-09-29T08:09:19.000Z</time>
      </trkpt>
      <trkpt lat="47.25848" lon="-2.22353">
        <ele>13.39999961853</ele>
        <time>2019-09-29T08:09:20.000Z</time>
      </trkpt>
      <trkpt lat="47.2585" lon="-2.22346">
        <ele>13</ele>
        <time>2019-09-29T08:09:21.000Z</time>
      </trkpt>
      <trkpt lat="47.25853" lon="-2.2234">
        <ele>12.60000038147</ele>
        <time>2019-09-29T08:09:22.000Z</time>
      </trkpt>
      <trkpt lat="47.25859" lon="-2.22327">
        <ele>12.60000038147</ele>
        <time>2019-09-29T08:09:24.000Z</time>
      </trkpt>
      <trkpt lat="47.25863" lon="-2.22321">
        <ele>12.60000038147</ele>
        <time>2019-09-29T08:09:25.000Z</time>
      </trkpt>
      <trkpt lat="47.25877" lon="-2.22311">
        <ele>12.60000038147</ele>
        <time>2019-09-29T08:09:28.000Z</time>
      </trkpt>
      <trkpt lat="47.25897" lon="-2.22313">
        <ele>12.60000038147</ele>
        <time>2019-09-29T08:09:32.000Z</time>
      </trkpt>
      <trkpt lat="47.25901" lon="-2.22315">
        <ele>12.60000038147</ele>
        <time>2019-09-29T08:09:33.000Z</time>
      </trkpt>
      <trkpt lat="47.25916" lon="-2.22325">
        <ele>12.60000038147</ele>
        <time>2019-09-29T08:09:37.000Z</time>
      </trkpt>
      <trkpt lat="47.25939" lon="-2.22341">
        <ele>12.60000038147</ele>
        <time>2019-09-29T08:09:41.000Z</time>
      </trkpt>
      <trkpt lat="47.25943" lon="-2.22345">
        <ele>12.199999809265</ele>
        <time>2019-09-29T08:09:44.000Z</time>
      </trkpt>
      <trkpt lat="47.25947" lon="-2.22348">
        <ele>11.800000190735</ele>
        <time>2019-09-29T08:09:45.000Z</time>
      </trkpt>
      <trkpt lat="47.2595" lon="-2.22353">
        <ele>11.39999961853</ele>
        <time>2019-09-29T08:09:46.000Z</time>
      </trkpt>
      <trkpt lat="47.25954" lon="-2.22357">
        <ele>11</ele>
        <time>2019-09-29T08:09:47.000Z</time>
      </trkpt>
      <trkpt lat="47.25958" lon="-2.22361">
        <ele>10.60000038147</ele>
        <time>2019-09-29T08:09:48.000Z</time>
      </trkpt>
      <trkpt lat="47.25971" lon="-2.22371">
        <ele>10.60000038147</ele>
        <time>2019-09-29T08:09:51.000Z</time>
      </trkpt>
      <trkpt lat="47.25997" lon="-2.22381">
        <ele>10.60000038147</ele>
        <time>2019-09-29T08:09:56.000Z</time>
      </trkpt>
      <trkpt lat="47.26017" lon="-2.22383">
        <ele>10.60000038147</ele>
        <time>2019-09-29T08:10:00.000Z</time>
      </trkpt>
      <trkpt lat="47.26022" lon="-2.22384">
        <ele>10.60000038147</ele>
        <time>2019-09-29T08:10:01.000Z</time>
      </trkpt>
      <trkpt lat="47.26052" lon="-2.22399">
        <ele>10.60000038147</ele>
        <time>2019-09-29T08:10:07.000Z</time>
      </trkpt>
      <trkpt lat="47.26097" lon="-2.2242">
        <ele>10.60000038147</ele>
        <time>2019-09-29T08:10:16.000Z</time>
      </trkpt>
      <trkpt lat="47.26125" lon="-2.22431">
        <ele>10.60000038147</ele>
        <time>2019-09-29T08:10:23.000Z</time>
      </trkpt>
      <trkpt lat="47.26141" lon="-2.22437">
        <ele>10.60000038147</ele>
        <time>2019-09-29T08:10:28.000Z</time>
      </trkpt>
      <trkpt lat="47.26145" lon="-2.22439">
        <ele>10.60000038147</ele>
        <time>2019-09-29T08:10:29.000Z</time>
      </trkpt>
      <trkpt lat="47.2616" lon="-2.22444">
        <ele>10.60000038147</ele>
        <time>2019-09-29T08:10:32.000Z</time>
      </trkpt>
      <trkpt lat="47.26199" lon="-2.22461">
        <ele>10.60000038147</ele>
        <time>2019-09-29T08:10:38.000Z</time>
      </trkpt>
      <trkpt lat="47.2623" lon="-2.22478">
        <ele>10.199999809265</ele>
        <time>2019-09-29T08:10:46.000Z</time>
      </trkpt>
      <trkpt lat="47.26235" lon="-2.22482">
        <ele>9.8000001907349</ele>
        <time>2019-09-29T08:10:47.000Z</time>
      </trkpt>
      <trkpt lat="47.2624" lon="-2.22486">
        <ele>9.3999996185303</ele>
        <time>2019-09-29T08:10:48.000Z</time>
      </trkpt>
      <trkpt lat="47.26245" lon="-2.2249">
        <ele>9</ele>
        <time>2019-09-29T08:10:49.000Z</time>
      </trkpt>
      <trkpt lat="47.26249" lon="-2.22495">
        <ele>8.3999996185303</ele>
        <time>2019-09-29T08:10:50.000Z</time>
      </trkpt>
      <trkpt lat="47.2627" lon="-2.2251">
        <ele>8.3999996185303</ele>
        <time>2019-09-29T08:10:54.000Z</time>
      </trkpt>
      <trkpt lat="47.26274" lon="-2.22512">
        <ele>8.3999996185303</ele>
        <time>2019-09-29T08:10:55.000Z</time>
      </trkpt>
      <trkpt lat="47.26291" lon="-2.2252">
        <ele>8.3999996185303</ele>
        <time>2019-09-29T08:10:58.000Z</time>
      </trkpt>
      <trkpt lat="47.26332" lon="-2.22534">
        <ele>8.3999996185303</ele>
        <time>2019-09-29T08:11:05.000Z</time>
      </trkpt>
      <trkpt lat="47.26367" lon="-2.2254">
        <ele>8.3999996185303</ele>
        <time>2019-09-29T08:11:11.000Z</time>
      </trkpt>
      <trkpt lat="47.26402" lon="-2.22536">
        <ele>8.3999996185303</ele>
        <time>2019-09-29T08:11:17.000Z</time>
      </trkpt>
      <trkpt lat="47.26408" lon="-2.22533">
        <ele>8.3999996185303</ele>
        <time>2019-09-29T08:11:18.000Z</time>
      </trkpt>
      <trkpt lat="47.26435" lon="-2.22523">
        <ele>8.3999996185303</ele>
        <time>2019-09-29T08:11:23.000Z</time>
      </trkpt>
      <trkpt lat="47.26468" lon="-2.22508">
        <ele>8.3999996185303</ele>
        <time>2019-09-29T08:11:29.000Z</time>
      </trkpt>
      <trkpt lat="47.26492" lon="-2.22489">
        <ele>8.3999996185303</ele>
        <time>2019-09-29T08:11:34.000Z</time>
      </trkpt>
      <trkpt lat="47.26506" lon="-2.22477">
        <ele>8.3999996185303</ele>
        <time>2019-09-29T08:11:37.000Z</time>
      </trkpt>
      <trkpt lat="47.2653" lon="-2.2245">
        <ele>8.3999996185303</ele>
        <time>2019-09-29T08:11:43.000Z</time>
      </trkpt>
      <trkpt lat="47.26549" lon="-2.22415">
        <ele>8.3999996185303</ele>
        <time>2019-09-29T08:11:49.000Z</time>
      </trkpt>
      <trkpt lat="47.26571" lon="-2.22373">
        <ele>8.3999996185303</ele>
        <time>2019-09-29T08:11:56.000Z</time>
      </trkpt>
      <trkpt lat="47.26574" lon="-2.22367">
        <ele>8.3999996185303</ele>
        <time>2019-09-29T08:11:57.000Z</time>
      </trkpt>
      <trkpt lat="47.26591" lon="-2.22337">
        <ele>8.3999996185303</ele>
        <time>2019-09-29T08:12:02.000Z</time>
      </trkpt>
      <trkpt lat="47.26627" lon="-2.22276">
        <ele>8.3999996185303</ele>
        <time>2019-09-29T08:12:12.000Z</time>
      </trkpt>
      <trkpt lat="47.26655" lon="-2.22227">
        <ele>8.3999996185303</ele>
        <time>2019-09-29T08:12:20.000Z</time>
      </trkpt>
      <trkpt lat="47.26684" lon="-2.22176">
        <ele>8.3999996185303</ele>
        <time>2019-09-29T08:12:28.000Z</time>
      </trkpt>
      <trkpt lat="47.26708" lon="-2.22135">
        <ele>8.3999996185303</ele>
        <time>2019-09-29T08:12:35.000Z</time>
      </trkpt>
      <trkpt lat="47.2672" lon="-2.22114">
        <ele>8.3999996185303</ele>
        <time>2019-09-29T08:12:40.000Z</time>
      </trkpt>
      <trkpt lat="47.26721" lon="-2.2211">
        <ele>8.3999996185303</ele>
        <time>2019-09-29T08:12:45.000Z</time>
      </trkpt>
      <trkpt lat="47.26723" lon="-2.22104">
        <ele>4.4000000953674</ele>
        <time>2019-09-29T08:13:32.000Z</time>
      </trkpt>
      <trkpt lat="47.26729" lon="-2.22103">
        <ele>4.4000000953674</ele>
        <time>2019-09-29T08:13:34.000Z</time>
      </trkpt>
      <trkpt lat="47.26729" lon="-2.22103">
        <ele>4.4000000953674</ele>
        <time>2019-09-29T08:13:36.000Z</time>
      </trkpt>
      <trkpt lat="47.26733" lon="-2.22112">
        <ele>4.4000000953674</ele>
        <time>2019-09-29T08:13:38.000Z</time>
      </trkpt>
      <trkpt lat="47.26734" lon="-2.22116">
        <ele>4.4000000953674</ele>
        <time>2019-09-29T08:13:41.000Z</time>
      </trkpt>
      <trkpt lat="47.26736" lon="-2.22122">
        <ele>4.4000000953674</ele>
        <time>2019-09-29T08:13:43.000Z</time>
      </trkpt>
      <trkpt lat="47.2674" lon="-2.22125">
        <ele>4.4000000953674</ele>
        <time>2019-09-29T08:13:45.000Z</time>
      </trkpt>
      <trkpt lat="47.26747" lon="-2.22128">
        <ele>4.4000000953674</ele>
        <time>2019-09-29T08:13:48.000Z</time>
      </trkpt>
      <trkpt lat="47.26756" lon="-2.22132">
        <ele>4.4000000953674</ele>
        <time>2019-09-29T08:13:52.000Z</time>
      </trkpt>
      <trkpt lat="47.26771" lon="-2.22141">
        <ele>4.4000000953674</ele>
        <time>2019-09-29T08:13:59.000Z</time>
      </trkpt>
      <trkpt lat="47.26789" lon="-2.22156">
        <ele>4.4000000953674</ele>
        <time>2019-09-29T08:14:06.000Z</time>
      </trkpt>
      <trkpt lat="47.26804" lon="-2.22186">
        <ele>4.4000000953674</ele>
        <time>2019-09-29T08:14:14.000Z</time>
      </trkpt>
      <trkpt lat="47.26814" lon="-2.22197">
        <ele>4.4000000953674</ele>
        <time>2019-09-29T08:14:16.000Z</time>
      </trkpt>
      <trkpt lat="47.26816" lon="-2.222">
        <ele>4.4000000953674</ele>
        <time>2019-09-29T08:14:19.000Z</time>
      </trkpt>
      <trkpt lat="47.26836" lon="-2.22214">
        <ele>4.4000000953674</ele>
        <time>2019-09-29T08:14:24.000Z</time>
      </trkpt>
      <trkpt lat="47.26868" lon="-2.22231">
        <ele>4.4000000953674</ele>
        <time>2019-09-29T08:14:31.000Z</time>
      </trkpt>
      <trkpt lat="47.26888" lon="-2.2224">
        <ele>4.4000000953674</ele>
        <time>2019-09-29T08:14:36.000Z</time>
      </trkpt>
      <trkpt lat="47.26908" lon="-2.22253">
        <ele>4.4000000953674</ele>
        <time>2019-09-29T08:14:38.000Z</time>
      </trkpt>
      <trkpt lat="47.26916" lon="-2.22257">
        <ele>4.4000000953674</ele>
        <time>2019-09-29T08:14:43.000Z</time>
      </trkpt>
      <trkpt lat="47.26942" lon="-2.22275">
        <ele>4.4000000953674</ele>
        <time>2019-09-29T08:14:49.000Z</time>
      </trkpt>
      <trkpt lat="47.26955" lon="-2.22286">
        <ele>4.8000001907349</ele>
        <time>2019-09-29T08:14:52.000Z</time>
      </trkpt>
      <trkpt lat="47.26959" lon="-2.2229">
        <ele>5.1999998092651</ele>
        <time>2019-09-29T08:14:53.000Z</time>
      </trkpt>
      <trkpt lat="47.26963" lon="-2.22293">
        <ele>5.8000001907349</ele>
        <time>2019-09-29T08:14:54.000Z</time>
      </trkpt>
      <trkpt lat="47.26967" lon="-2.22297">
        <ele>6.1999998092651</ele>
        <time>2019-09-29T08:14:55.000Z</time>
      </trkpt>
      <trkpt lat="47.26971" lon="-2.22301">
        <ele>6.5999999046326</ele>
        <time>2019-09-29T08:14:56.000Z</time>
      </trkpt>
      <trkpt lat="47.27001" lon="-2.22332">
        <ele>6.5999999046326</ele>
        <time>2019-09-29T08:15:04.000Z</time>
      </trkpt>
      <trkpt lat="47.27032" lon="-2.2236">
        <ele>6.5999999046326</ele>
        <time>2019-09-29T08:15:12.000Z</time>
      </trkpt>
      <trkpt lat="47.2704" lon="-2.22362">
        <ele>6.5999999046326</ele>
        <time>2019-09-29T08:15:14.000Z</time>
      </trkpt>
      <trkpt lat="47.2705" lon="-2.22362">
        <ele>6.5999999046326</ele>
        <time>2019-09-29T08:15:16.000Z</time>
      </trkpt>
      <trkpt lat="47.27055" lon="-2.22361">
        <ele>6.5999999046326</ele>
        <time>2019-09-29T08:15:17.000Z</time>
      </trkpt>
      <trkpt lat="47.27066" lon="-2.22353">
        <ele>6.5999999046326</ele>
        <time>2019-09-29T08:15:20.000Z</time>
      </trkpt>
      <trkpt lat="47.27072" lon="-2.22346">
        <ele>6.5999999046326</ele>
        <time>2019-09-29T08:15:22.000Z</time>
      </trkpt>
      <trkpt lat="47.27079" lon="-2.22338">
        <ele>6.5999999046326</ele>
        <time>2019-09-29T08:15:25.000Z</time>
      </trkpt>
      <trkpt lat="47.27085" lon="-2.22336">
        <ele>6.5999999046326</ele>
        <time>2019-09-29T08:15:29.000Z</time>
      </trkpt>
      <trkpt lat="47.27087" lon="-2.22336">
        <ele>6.5999999046326</ele>
        <time>2019-09-29T08:15:30.000Z</time>
      </trkpt>
      <trkpt lat="47.2709" lon="-2.2234">
        <ele>6.5999999046326</ele>
        <time>2019-09-29T08:15:32.000Z</time>
      </trkpt>
      <trkpt lat="47.27094" lon="-2.22348">
        <ele>6.5999999046326</ele>
        <time>2019-09-29T08:15:34.000Z</time>
      </trkpt>
      <trkpt lat="47.27108" lon="-2.22375">
        <ele>6.5999999046326</ele>
        <time>2019-09-29T08:15:39.000Z</time>
      </trkpt>
      <trkpt lat="47.27135" lon="-2.22417">
        <ele>6.5999999046326</ele>
        <time>2019-09-29T08:15:47.000Z</time>
      </trkpt>
      <trkpt lat="47.2715" lon="-2.22455">
        <ele>6.5999999046326</ele>
        <time>2019-09-29T08:15:53.000Z</time>
      </trkpt>
      <trkpt lat="47.27151" lon="-2.22484">
        <ele>6.5999999046326</ele>
        <time>2019-09-29T08:15:58.000Z</time>
      </trkpt>
      <trkpt lat="47.2715" lon="-2.22502">
        <ele>6.5999999046326</ele>
        <time>2019-09-29T08:16:03.000Z</time>
      </trkpt>
      <trkpt lat="47.27149" lon="-2.22514">
        <ele>6.5999999046326</ele>
        <time>2019-09-29T08:16:06.000Z</time>
      </trkpt>
      <trkpt lat="47.2715" lon="-2.22523">
        <ele>7</ele>
        <time>2019-09-29T08:16:08.000Z</time>
      </trkpt>
      <trkpt lat="47.2715" lon="-2.22529">
        <ele>7.4000000953674</ele>
        <time>2019-09-29T08:16:09.000Z</time>
      </trkpt>
      <trkpt lat="47.27149" lon="-2.22535">
        <ele>7.8000001907349</ele>
        <time>2019-09-29T08:16:10.000Z</time>
      </trkpt>
      <trkpt lat="47.27148" lon="-2.22539">
        <ele>8.6000003814697</ele>
        <time>2019-09-29T08:16:11.000Z</time>
      </trkpt>
      <trkpt lat="47.27146" lon="-2.22544">
        <ele>8.6000003814697</ele>
        <time>2019-09-29T08:16:12.000Z</time>
      </trkpt>
      <trkpt lat="47.27143" lon="-2.2257">
        <ele>8.6000003814697</ele>
        <time>2019-09-29T08:16:17.000Z</time>
      </trkpt>
      <trkpt lat="47.27143" lon="-2.22583">
        <ele>8.6000003814697</ele>
        <time>2019-09-29T08:16:19.000Z</time>
      </trkpt>
      <trkpt lat="47.27142" lon="-2.22602">
        <ele>8.6000003814697</ele>
        <time>2019-09-29T08:16:21.000Z</time>
      </trkpt>
      <trkpt lat="47.27148" lon="-2.22636">
        <ele>8.6000003814697</ele>
        <time>2019-09-29T08:16:24.000Z</time>
      </trkpt>
      <trkpt lat="47.27151" lon="-2.22647">
        <ele>8.6000003814697</ele>
        <time>2019-09-29T08:16:25.000Z</time>
      </trkpt>
      <trkpt lat="47.27169" lon="-2.22691">
        <ele>8.6000003814697</ele>
        <time>2019-09-29T08:16:28.000Z</time>
      </trkpt>
      <trkpt lat="47.27181" lon="-2.22713">
        <ele>8.6000003814697</ele>
        <time>2019-09-29T08:16:30.000Z</time>
      </trkpt>
      <trkpt lat="47.27181" lon="-2.22713">
        <ele>8.6000003814697</ele>
        <time>2019-09-29T08:16:33.000Z</time>
      </trkpt>
      <trkpt lat="47.27197" lon="-2.22731">
        <ele>8.6000003814697</ele>
        <time>2019-09-29T08:16:37.000Z</time>
      </trkpt>
      <trkpt lat="47.27202" lon="-2.22734">
        <ele>8.6000003814697</ele>
        <time>2019-09-29T08:16:38.000Z</time>
      </trkpt>
      <trkpt lat="47.27229" lon="-2.22758">
        <ele>8.6000003814697</ele>
        <time>2019-09-29T08:16:44.000Z</time>
      </trkpt>
      <trkpt lat="47.27252" lon="-2.2277">
        <ele>8.6000003814697</ele>
        <time>2019-09-29T08:16:49.000Z</time>
      </trkpt>
      <trkpt lat="47.27282" lon="-2.22787">
        <ele>8.6000003814697</ele>
        <time>2019-09-29T08:16:57.000Z</time>
      </trkpt>
      <trkpt lat="47.27289" lon="-2.22789">
        <ele>9</ele>
        <time>2019-09-29T08:16:59.000Z</time>
      </trkpt>
      <trkpt lat="47.27294" lon="-2.22789">
        <ele>9.8000001907349</ele>
        <time>2019-09-29T08:17:00.000Z</time>
      </trkpt>
      <trkpt lat="47.27298" lon="-2.22789">
        <ele>10.199999809265</ele>
        <time>2019-09-29T08:17:01.000Z</time>
      </trkpt>
      <trkpt lat="47.27302" lon="-2.2279">
        <ele>10.60000038147</ele>
        <time>2019-09-29T08:17:02.000Z</time>
      </trkpt>
      <trkpt lat="47.27307" lon="-2.2279">
        <ele>10.60000038147</ele>
        <time>2019-09-29T08:17:03.000Z</time>
      </trkpt>
      <trkpt lat="47.27318" lon="-2.22789">
        <ele>10.60000038147</ele>
        <time>2019-09-29T08:17:05.000Z</time>
      </trkpt>
      <trkpt lat="47.27332" lon="-2.22787">
        <ele>10.60000038147</ele>
        <time>2019-09-29T08:17:08.000Z</time>
      </trkpt>
      <trkpt lat="47.27337" lon="-2.22787">
        <ele>10.60000038147</ele>
        <time>2019-09-29T08:17:09.000Z</time>
      </trkpt>
      <trkpt lat="47.27358" lon="-2.22785">
        <ele>10.60000038147</ele>
        <time>2019-09-29T08:17:13.000Z</time>
      </trkpt>
      <trkpt lat="47.27367" lon="-2.22784">
        <ele>10.60000038147</ele>
        <time>2019-09-29T08:17:15.000Z</time>
      </trkpt>
      <trkpt lat="47.27386" lon="-2.22781">
        <ele>10.60000038147</ele>
        <time>2019-09-29T08:17:19.000Z</time>
      </trkpt>
      <trkpt lat="47.27395" lon="-2.22779">
        <ele>10.60000038147</ele>
        <time>2019-09-29T08:17:21.000Z</time>
      </trkpt>
      <trkpt lat="47.27416" lon="-2.22775">
        <ele>10.60000038147</ele>
        <time>2019-09-29T08:17:24.000Z</time>
      </trkpt>
      <trkpt lat="47.27416" lon="-2.22775">
        <ele>10.60000038147</ele>
        <time>2019-09-29T08:17:26.000Z</time>
      </trkpt>
      <trkpt lat="47.27443" lon="-2.22775">
        <ele>10.60000038147</ele>
        <time>2019-09-29T08:17:32.000Z</time>
      </trkpt>
      <trkpt lat="47.27457" lon="-2.22773">
        <ele>10.60000038147</ele>
        <time>2019-09-29T08:17:35.000Z</time>
      </trkpt>
      <trkpt lat="47.27469" lon="-2.22772">
        <ele>10.60000038147</ele>
        <time>2019-09-29T08:17:38.000Z</time>
      </trkpt>
      <trkpt lat="47.27488" lon="-2.2277">
        <ele>10.60000038147</ele>
        <time>2019-09-29T08:17:44.000Z</time>
      </trkpt>
      <trkpt lat="47.27498" lon="-2.22762">
        <ele>10.60000038147</ele>
        <time>2019-09-29T08:17:49.000Z</time>
      </trkpt>
      <trkpt lat="47.27501" lon="-2.22762">
        <ele>10.60000038147</ele>
        <time>2019-09-29T08:17:50.000Z</time>
      </trkpt>
      <trkpt lat="47.27513" lon="-2.22769">
        <ele>10.60000038147</ele>
        <time>2019-09-29T08:17:53.000Z</time>
      </trkpt>
      <trkpt lat="47.27528" lon="-2.22771">
        <ele>10.60000038147</ele>
        <time>2019-09-29T08:17:57.000Z</time>
      </trkpt>
      <trkpt lat="47.2757" lon="-2.22764">
        <ele>10.60000038147</ele>
        <time>2019-09-29T08:18:05.000Z</time>
      </trkpt>
      <trkpt lat="47.27612" lon="-2.22758">
        <ele>10.60000038147</ele>
        <time>2019-09-29T08:18:12.000Z</time>
      </trkpt>
      <trkpt lat="47.27661" lon="-2.22754">
        <ele>10.60000038147</ele>
        <time>2019-09-29T08:18:20.000Z</time>
      </trkpt>
      <trkpt lat="47.27664" lon="-2.22752">
        <ele>10.60000038147</ele>
        <time>2019-09-29T08:18:22.000Z</time>
      </trkpt>
      <trkpt lat="47.27668" lon="-2.22746">
        <ele>10.60000038147</ele>
        <time>2019-09-29T08:18:25.000Z</time>
      </trkpt>
      <trkpt lat="47.27671" lon="-2.22746">
        <ele>10.60000038147</ele>
        <time>2019-09-29T08:18:26.000Z</time>
      </trkpt>
      <trkpt lat="47.27678" lon="-2.22745">
        <ele>10.60000038147</ele>
        <time>2019-09-29T08:18:29.000Z</time>
      </trkpt>
      <trkpt lat="47.27693" lon="-2.22741">
        <ele>10.60000038147</ele>
        <time>2019-09-29T08:18:35.000Z</time>
      </trkpt>
      <trkpt lat="47.27713" lon="-2.22738">
        <ele>10.60000038147</ele>
        <time>2019-09-29T08:18:40.000Z</time>
      </trkpt>
      <trkpt lat="47.2773" lon="-2.22744">
        <ele>9.3999996185303</ele>
        <time>2019-09-29T08:18:42.000Z</time>
      </trkpt>
      <trkpt lat="47.27734" lon="-2.22744">
        <ele>9</ele>
        <time>2019-09-29T08:18:45.000Z</time>
      </trkpt>
      <trkpt lat="47.27738" lon="-2.22744">
        <ele>8.6000003814697</ele>
        <time>2019-09-29T08:18:46.000Z</time>
      </trkpt>
      <trkpt lat="47.27762" lon="-2.22736">
        <ele>8.6000003814697</ele>
        <time>2019-09-29T08:18:51.000Z</time>
      </trkpt>
      <trkpt lat="47.278" lon="-2.2272">
        <ele>8.6000003814697</ele>
        <time>2019-09-29T08:18:59.000Z</time>
      </trkpt>
      <trkpt lat="47.27839" lon="-2.22695">
        <ele>8.6000003814697</ele>
        <time>2019-09-29T08:19:07.000Z</time>
      </trkpt>
      <trkpt lat="47.27847" lon="-2.22687">
        <ele>8.6000003814697</ele>
        <time>2019-09-29T08:19:10.000Z</time>
      </trkpt>
      <trkpt lat="47.27864" lon="-2.22671">
        <ele>8.6000003814697</ele>
        <time>2019-09-29T08:19:14.000Z</time>
      </trkpt>
      <trkpt lat="47.27881" lon="-2.22652">
        <ele>8.6000003814697</ele>
        <time>2019-09-29T08:19:19.000Z</time>
      </trkpt>
      <trkpt lat="47.27884" lon="-2.22647">
        <ele>8.6000003814697</ele>
        <time>2019-09-29T08:19:20.000Z</time>
      </trkpt>
      <trkpt lat="47.27891" lon="-2.22638">
        <ele>8.6000003814697</ele>
        <time>2019-09-29T08:19:22.000Z</time>
      </trkpt>
      <trkpt lat="47.27906" lon="-2.2262">
        <ele>8.6000003814697</ele>
        <time>2019-09-29T08:19:26.000Z</time>
      </trkpt>
      <trkpt lat="47.27928" lon="-2.22592">
        <ele>8.6000003814697</ele>
        <time>2019-09-29T08:19:32.000Z</time>
      </trkpt>
      <trkpt lat="47.27935" lon="-2.22583">
        <ele>8.6000003814697</ele>
        <time>2019-09-29T08:19:34.000Z</time>
      </trkpt>
      <trkpt lat="47.27947" lon="-2.22568">
        <ele>8.6000003814697</ele>
        <time>2019-09-29T08:19:35.000Z</time>
      </trkpt>
      <trkpt lat="47.2795" lon="-2.22562">
        <ele>8.6000003814697</ele>
        <time>2019-09-29T08:19:38.000Z</time>
      </trkpt>
      <trkpt lat="47.27956" lon="-2.22549">
        <ele>8.6000003814697</ele>
        <time>2019-09-29T08:19:40.000Z</time>
      </trkpt>
      <trkpt lat="47.27962" lon="-2.22539">
        <ele>8.6000003814697</ele>
        <time>2019-09-29T08:19:42.000Z</time>
      </trkpt>
      <trkpt lat="47.27966" lon="-2.22535">
        <ele>8.6000003814697</ele>
        <time>2019-09-29T08:19:43.000Z</time>
      </trkpt>
      <trkpt lat="47.27975" lon="-2.22526">
        <ele>8.6000003814697</ele>
        <time>2019-09-29T08:19:45.000Z</time>
      </trkpt>
      <trkpt lat="47.2799" lon="-2.22508">
        <ele>8.6000003814697</ele>
        <time>2019-09-29T08:19:49.000Z</time>
      </trkpt>
      <trkpt lat="47.27995" lon="-2.22498">
        <ele>8.6000003814697</ele>
        <time>2019-09-29T08:19:51.000Z</time>
      </trkpt>
      <trkpt lat="47.28011" lon="-2.22487">
        <ele>8.6000003814697</ele>
        <time>2019-09-29T08:19:56.000Z</time>
      </trkpt>
      <trkpt lat="47.28026" lon="-2.22471">
        <ele>8.6000003814697</ele>
        <time>2019-09-29T08:20:02.000Z</time>
      </trkpt>
      <trkpt lat="47.28036" lon="-2.22466">
        <ele>8.6000003814697</ele>
        <time>2019-09-29T08:20:03.000Z</time>
      </trkpt>
      <trkpt lat="47.28036" lon="-2.22466">
        <ele>8.6000003814697</ele>
        <time>2019-09-29T08:20:05.000Z</time>
      </trkpt>
      <trkpt lat="47.28039" lon="-2.22468">
        <ele>8.6000003814697</ele>
        <time>2019-09-29T08:20:06.000Z</time>
      </trkpt>
      <trkpt lat="47.28049" lon="-2.22474">
        <ele>8.6000003814697</ele>
        <time>2019-09-29T08:20:09.000Z</time>
      </trkpt>
      <trkpt lat="47.28053" lon="-2.22473">
        <ele>8.6000003814697</ele>
        <time>2019-09-29T08:20:10.000Z</time>
      </trkpt>
      <trkpt lat="47.28066" lon="-2.2247">
        <ele>8.6000003814697</ele>
        <time>2019-09-29T08:20:13.000Z</time>
      </trkpt>
      <trkpt lat="47.28086" lon="-2.22466">
        <ele>8.6000003814697</ele>
        <time>2019-09-29T08:20:19.000Z</time>
      </trkpt>
      <trkpt lat="47.28092" lon="-2.22465">
        <ele>8.6000003814697</ele>
        <time>2019-09-29T08:20:23.000Z</time>
      </trkpt>
      <trkpt lat="47.28102" lon="-2.22466">
        <ele>8.6000003814697</ele>
        <time>2019-09-29T08:20:28.000Z</time>
      </trkpt>
      <trkpt lat="47.28116" lon="-2.22465">
        <ele>8.6000003814697</ele>
        <time>2019-09-29T08:20:33.000Z</time>
      </trkpt>
      <trkpt lat="47.28127" lon="-2.22456">
        <ele>8.6000003814697</ele>
        <time>2019-09-29T08:20:38.000Z</time>
      </trkpt>
      <trkpt lat="47.28132" lon="-2.22433">
        <ele>8.6000003814697</ele>
        <time>2019-09-29T08:20:43.000Z</time>
      </trkpt>
      <trkpt lat="47.28136" lon="-2.22406">
        <ele>8.6000003814697</ele>
        <time>2019-09-29T08:20:49.000Z</time>
      </trkpt>
      <trkpt lat="47.28139" lon="-2.22372">
        <ele>8.6000003814697</ele>
        <time>2019-09-29T08:20:56.000Z</time>
      </trkpt>
      <trkpt lat="47.28141" lon="-2.22339">
        <ele>8.6000003814697</ele>
        <time>2019-09-29T08:21:03.000Z</time>
      </trkpt>
      <trkpt lat="47.28149" lon="-2.22322">
        <ele>8.6000003814697</ele>
        <time>2019-09-29T08:21:08.000Z</time>
      </trkpt>
      <trkpt lat="47.28167" lon="-2.22317">
        <ele>8.1999998092651</ele>
        <time>2019-09-29T08:21:14.000Z</time>
      </trkpt>
      <trkpt lat="47.2817" lon="-2.22316">
        <ele>7.8000001907349</ele>
        <time>2019-09-29T08:21:15.000Z</time>
      </trkpt>
      <trkpt lat="47.28174" lon="-2.22315">
        <ele>7.4000000953674</ele>
        <time>2019-09-29T08:21:16.000Z</time>
      </trkpt>
      <trkpt lat="47.28177" lon="-2.22315">
        <ele>7</ele>
        <time>2019-09-29T08:21:17.000Z</time>
      </trkpt>
      <trkpt lat="47.2818" lon="-2.22314">
        <ele>6.5999999046326</ele>
        <time>2019-09-29T08:21:18.000Z</time>
      </trkpt>
      <trkpt lat="47.28184" lon="-2.22313">
        <ele>6.5999999046326</ele>
        <time>2019-09-29T08:21:19.000Z</time>
      </trkpt>
      <trkpt lat="47.28197" lon="-2.22313">
        <ele>6.5999999046326</ele>
        <time>2019-09-29T08:21:24.000Z</time>
      </trkpt>
      <trkpt lat="47.28212" lon="-2.22311">
        <ele>6.5999999046326</ele>
        <time>2019-09-29T08:21:29.000Z</time>
      </trkpt>
      <trkpt lat="47.28237" lon="-2.22307">
        <ele>6.5999999046326</ele>
        <time>2019-09-29T08:21:36.000Z</time>
      </trkpt>
      <trkpt lat="47.28261" lon="-2.22303">
        <ele>6.5999999046326</ele>
        <time>2019-09-29T08:21:43.000Z</time>
      </trkpt>
      <trkpt lat="47.28263" lon="-2.22291">
        <ele>6.5999999046326</ele>
        <time>2019-09-29T08:21:46.000Z</time>
      </trkpt>
      <trkpt lat="47.28254" lon="-2.22272">
        <ele>6.5999999046326</ele>
        <time>2019-09-29T08:21:52.000Z</time>
      </trkpt>
      <trkpt lat="47.2825" lon="-2.22267">
        <ele>6.5999999046326</ele>
        <time>2019-09-29T08:21:57.000Z</time>
      </trkpt>
      <trkpt lat="47.2825" lon="-2.22267">
        <ele>8.8000001907349</ele>
        <time>2019-09-29T08:22:37.000Z</time>
      </trkpt>
      <trkpt lat="47.28248" lon="-2.22261">
        <ele>8.8000001907349</ele>
        <time>2019-09-29T08:22:40.000Z</time>
      </trkpt>
      <trkpt lat="47.28246" lon="-2.2226">
        <ele>8.8000001907349</ele>
        <time>2019-09-29T08:22:41.000Z</time>
      </trkpt>
      <trkpt lat="47.28245" lon="-2.22259">
        <ele>8.1999998092651</ele>
        <time>2019-09-29T08:22:43.000Z</time>
      </trkpt>
      <trkpt lat="47.28246" lon="-2.2226">
        <ele>7.4000000953674</ele>
        <time>2019-09-29T08:22:45.000Z</time>
      </trkpt>
      <trkpt lat="47.28247" lon="-2.22262">
        <ele>6.5999999046326</ele>
        <time>2019-09-29T08:22:46.000Z</time>
      </trkpt>
      <trkpt lat="47.28257" lon="-2.22274">
        <ele>6.5999999046326</ele>
        <time>2019-09-29T08:22:50.000Z</time>
      </trkpt>
      <trkpt lat="47.28272" lon="-2.22299">
        <ele>6.5999999046326</ele>
        <time>2019-09-29T08:22:59.000Z</time>
      </trkpt>
      <trkpt lat="47.28274" lon="-2.22301">
        <ele>6.1999998092651</ele>
        <time>2019-09-29T08:23:03.000Z</time>
      </trkpt>
      <trkpt lat="47.28274" lon="-2.22302">
        <ele>5.8000001907349</ele>
        <time>2019-09-29T08:23:04.000Z</time>
      </trkpt>
      <trkpt lat="47.28276" lon="-2.22303">
        <ele>5.4000000953674</ele>
        <time>2019-09-29T08:23:05.000Z</time>
      </trkpt>
      <trkpt lat="47.28278" lon="-2.22302">
        <ele>5</ele>
        <time>2019-09-29T08:23:06.000Z</time>
      </trkpt>
      <trkpt lat="47.28281" lon="-2.22302">
        <ele>4.5999999046326</ele>
        <time>2019-09-29T08:23:07.000Z</time>
      </trkpt>
      <trkpt lat="47.283" lon="-2.22297">
        <ele>4.5999999046326</ele>
        <time>2019-09-29T08:23:13.000Z</time>
      </trkpt>
      <trkpt lat="47.28316" lon="-2.22294">
        <ele>4.5999999046326</ele>
        <time>2019-09-29T08:23:17.000Z</time>
      </trkpt>
      <trkpt lat="47.28324" lon="-2.22297">
        <ele>4.5999999046326</ele>
        <time>2019-09-29T08:23:19.000Z</time>
      </trkpt>
      <trkpt lat="47.28334" lon="-2.22315">
        <ele>4.5999999046326</ele>
        <time>2019-09-29T08:23:23.000Z</time>
      </trkpt>
      <trkpt lat="47.2834" lon="-2.22326">
        <ele>4.1999998092651</ele>
        <time>2019-09-29T08:23:26.000Z</time>
      </trkpt>
      <trkpt lat="47.28342" lon="-2.2233">
        <ele>3.7999999523163</ele>
        <time>2019-09-29T08:23:27.000Z</time>
      </trkpt>
      <trkpt lat="47.28344" lon="-2.22334">
        <ele>3.4000000953674</ele>
        <time>2019-09-29T08:23:28.000Z</time>
      </trkpt>
      <trkpt lat="47.28346" lon="-2.22338">
        <ele>3</ele>
        <time>2019-09-29T08:23:29.000Z</time>
      </trkpt>
      <trkpt lat="47.28348" lon="-2.22342">
        <ele>2.5999999046326</ele>
        <time>2019-09-29T08:23:30.000Z</time>
      </trkpt>
      <trkpt lat="47.2835" lon="-2.22345">
        <ele>2.5999999046326</ele>
        <time>2019-09-29T08:23:31.000Z</time>
      </trkpt>
      <trkpt lat="47.28366" lon="-2.22385">
        <ele>2.5999999046326</ele>
        <time>2019-09-29T08:23:40.000Z</time>
      </trkpt>
      <trkpt lat="47.28373" lon="-2.22397">
        <ele>2.5999999046326</ele>
        <time>2019-09-29T08:23:44.000Z</time>
      </trkpt>
      <trkpt lat="47.2838" lon="-2.22389">
        <ele>2.5999999046326</ele>
        <time>2019-09-29T08:23:47.000Z</time>
      </trkpt>
      <trkpt lat="47.28397" lon="-2.22362">
        <ele>2.5999999046326</ele>
        <time>2019-09-29T08:23:53.000Z</time>
      </trkpt>
      <trkpt lat="47.28419" lon="-2.22328">
        <ele>2.5999999046326</ele>
        <time>2019-09-29T08:24:00.000Z</time>
      </trkpt>
      <trkpt lat="47.28443" lon="-2.22293">
        <ele>2.5999999046326</ele>
        <time>2019-09-29T08:24:07.000Z</time>
      </trkpt>
      <trkpt lat="47.2845" lon="-2.22281">
        <ele>2.5999999046326</ele>
        <time>2019-09-29T08:24:11.000Z</time>
      </trkpt>
      <trkpt lat="47.28451" lon="-2.22281">
        <ele>2.5999999046326</ele>
        <time>2019-09-29T08:24:12.000Z</time>
      </trkpt>
      <trkpt lat="47.28451" lon="-2.22281">
        <ele>2.5999999046326</ele>
        <time>2019-09-29T08:24:34.000Z</time>
      </trkpt>
      <trkpt lat="47.28452" lon="-2.22279">
        <ele>2.5999999046326</ele>
        <time>2019-09-29T08:24:35.000Z</time>
      </trkpt>
      <trkpt lat="47.28467" lon="-2.22255">
        <ele>2.5999999046326</ele>
        <time>2019-09-29T08:24:40.000Z</time>
      </trkpt>
      <trkpt lat="47.28501" lon="-2.22197">
        <ele>2.5999999046326</ele>
        <time>2019-09-29T08:24:50.000Z</time>
      </trkpt>
      <trkpt lat="47.2853" lon="-2.22146">
        <ele>2.5999999046326</ele>
        <time>2019-09-29T08:24:59.000Z</time>
      </trkpt>
      <trkpt lat="47.28548" lon="-2.22116">
        <ele>2.2000000476837</ele>
        <time>2019-09-29T08:25:03.000Z</time>
      </trkpt>
      <trkpt lat="47.28552" lon="-2.22109">
        <ele>1.7999999523163</ele>
        <time>2019-09-29T08:25:04.000Z</time>
      </trkpt>
      <trkpt lat="47.28557" lon="-2.22101">
        <ele>1.3999999761581</ele>
        <time>2019-09-29T08:25:05.000Z</time>
      </trkpt>
      <trkpt lat="47.28562" lon="-2.22094">
        <ele>1</ele>
        <time>2019-09-29T08:25:06.000Z</time>
      </trkpt>
      <trkpt lat="47.28566" lon="-2.22087">
        <ele>0.60000002384186</ele>
        <time>2019-09-29T08:25:07.000Z</time>
      </trkpt>
      <trkpt lat="47.28578" lon="-2.22063">
        <ele>0.60000002384186</ele>
        <time>2019-09-29T08:25:10.000Z</time>
      </trkpt>
      <trkpt lat="47.28592" lon="-2.22022">
        <ele>0.60000002384186</ele>
        <time>2019-09-29T08:25:12.000Z</time>
      </trkpt>
      <trkpt lat="47.28607" lon="-2.21978">
        <ele>0.60000002384186</ele>
        <time>2019-09-29T08:25:21.000Z</time>
      </trkpt>
      <trkpt lat="47.28619" lon="-2.21944">
        <ele>0.20000000298023</ele>
        <time>2019-09-29T08:25:26.000Z</time>
      </trkpt>
      <trkpt lat="47.28621" lon="-2.21938">
        <ele>-0.20000000298023</ele>
        <time>2019-09-29T08:25:27.000Z</time>
      </trkpt>
      <trkpt lat="47.28623" lon="-2.21932">
        <ele>-0.60000002384186</ele>
        <time>2019-09-29T08:25:28.000Z</time>
      </trkpt>
      <trkpt lat="47.28625" lon="-2.21925">
        <ele>-1.2000000476837</ele>
        <time>2019-09-29T08:25:29.000Z</time>
      </trkpt>
      <trkpt lat="47.28627" lon="-2.21919">
        <ele>-1.6000000238419</ele>
        <time>2019-09-29T08:25:30.000Z</time>
      </trkpt>
      <trkpt lat="47.28638" lon="-2.2189">
        <ele>-1.6000000238419</ele>
        <time>2019-09-29T08:25:34.000Z</time>
      </trkpt>
      <trkpt lat="47.28642" lon="-2.21877">
        <ele>-1.6000000238419</ele>
        <time>2019-09-29T08:25:36.000Z</time>
      </trkpt>
      <trkpt lat="47.28646" lon="-2.2187">
        <ele>-2</ele>
        <time>2019-09-29T08:25:38.000Z</time>
      </trkpt>
      <trkpt lat="47.28648" lon="-2.21868">
        <ele>-2.4000000953674</ele>
        <time>2019-09-29T08:25:39.000Z</time>
      </trkpt>
      <trkpt lat="47.28651" lon="-2.21868">
        <ele>-2.7999999523163</ele>
        <time>2019-09-29T08:25:40.000Z</time>
      </trkpt>
      <trkpt lat="47.28654" lon="-2.21869">
        <ele>-3.2000000476837</ele>
        <time>2019-09-29T08:25:41.000Z</time>
      </trkpt>
      <trkpt lat="47.28658" lon="-2.2187">
        <ele>-3.5999999046326</ele>
        <time>2019-09-29T08:25:42.000Z</time>
      </trkpt>
      <trkpt lat="47.28662" lon="-2.21871">
        <ele>-3.5999999046326</ele>
        <time>2019-09-29T08:25:43.000Z</time>
      </trkpt>
      <trkpt lat="47.28672" lon="-2.21879">
        <ele>-3.5999999046326</ele>
        <time>2019-09-29T08:25:46.000Z</time>
      </trkpt>
      <trkpt lat="47.28675" lon="-2.21883">
        <ele>-4</ele>
        <time>2019-09-29T08:25:47.000Z</time>
      </trkpt>
      <trkpt lat="47.28677" lon="-2.21888">
        <ele>-4.4000000953674</ele>
        <time>2019-09-29T08:25:48.000Z</time>
      </trkpt>
      <trkpt lat="47.28678" lon="-2.21892">
        <ele>-4.8000001907349</ele>
        <time>2019-09-29T08:25:49.000Z</time>
      </trkpt>
      <trkpt lat="47.28677" lon="-2.21895">
        <ele>-5.1999998092651</ele>
        <time>2019-09-29T08:25:50.000Z</time>
      </trkpt>
      <trkpt lat="47.28677" lon="-2.21899">
        <ele>-5.5999999046326</ele>
        <time>2019-09-29T08:25:51.000Z</time>
      </trkpt>
      <trkpt lat="47.28685" lon="-2.21908">
        <ele>-5.5999999046326</ele>
        <time>2019-09-29T08:25:53.000Z</time>
      </trkpt>
      <trkpt lat="47.28685" lon="-2.21908">
        <ele>-5.5999999046326</ele>
        <time>2019-09-29T08:25:55.000Z</time>
      </trkpt>
      <trkpt lat="47.28704" lon="-2.21924">
        <ele>-5.5999999046326</ele>
        <time>2019-09-29T08:25:57.000Z</time>
      </trkpt>
      <trkpt lat="47.28704" lon="-2.21924">
        <ele>-5.5999999046326</ele>
        <time>2019-09-29T08:26:00.000Z</time>
      </trkpt>
      <trkpt lat="47.28706" lon="-2.21931">
        <ele>-5.5999999046326</ele>
        <time>2019-09-29T08:26:01.000Z</time>
      </trkpt>
      <trkpt lat="47.28715" lon="-2.21956">
        <ele>-5.5999999046326</ele>
        <time>2019-09-29T08:26:04.000Z</time>
      </trkpt>
      <trkpt lat="47.28737" lon="-2.2202">
        <ele>-5.5999999046326</ele>
        <time>2019-09-29T08:26:12.000Z</time>
      </trkpt>
      <trkpt lat="47.28754" lon="-2.22072">
        <ele>-5.5999999046326</ele>
        <time>2019-09-29T08:26:19.000Z</time>
      </trkpt>
      <trkpt lat="47.28773" lon="-2.22126">
        <ele>-5.5999999046326</ele>
        <time>2019-09-29T08:26:26.000Z</time>
      </trkpt>
      <trkpt lat="47.28776" lon="-2.22133">
        <ele>-5.1999998092651</ele>
        <time>2019-09-29T08:26:27.000Z</time>
      </trkpt>
      <trkpt lat="47.28778" lon="-2.22142">
        <ele>-4.4000000953674</ele>
        <time>2019-09-29T08:26:28.000Z</time>
      </trkpt>
      <trkpt lat="47.28781" lon="-2.2215">
        <ele>-3.7999999523163</ele>
        <time>2019-09-29T08:26:29.000Z</time>
      </trkpt>
      <trkpt lat="47.28784" lon="-2.22158">
        <ele>-3.4000000953674</ele>
        <time>2019-09-29T08:26:30.000Z</time>
      </trkpt>
      <trkpt lat="47.28791" lon="-2.22182">
        <ele>-3.4000000953674</ele>
        <time>2019-09-29T08:26:33.000Z</time>
      </trkpt>
      <trkpt lat="47.28798" lon="-2.22207">
        <ele>-3</ele>
        <time>2019-09-29T08:26:36.000Z</time>
      </trkpt>
      <trkpt lat="47.28799" lon="-2.22215">
        <ele>-2.5999999046326</ele>
        <time>2019-09-29T08:26:37.000Z</time>
      </trkpt>
      <trkpt lat="47.28801" lon="-2.22223">
        <ele>-2.2000000476837</ele>
        <time>2019-09-29T08:26:38.000Z</time>
      </trkpt>
      <trkpt lat="47.28803" lon="-2.2223">
        <ele>-1.7999999523163</ele>
        <time>2019-09-29T08:26:39.000Z</time>
      </trkpt>
      <trkpt lat="47.28804" lon="-2.22239">
        <ele>-1.2000000476837</ele>
        <time>2019-09-29T08:26:40.000Z</time>
      </trkpt>
      <trkpt lat="47.28806" lon="-2.22247">
        <ele>-1.2000000476837</ele>
        <time>2019-09-29T08:26:41.000Z</time>
      </trkpt>
      <trkpt lat="47.28809" lon="-2.22271">
        <ele>-0.80000001192093</ele>
        <time>2019-09-29T08:26:44.000Z</time>
      </trkpt>
      <trkpt lat="47.2881" lon="-2.2228">
        <ele>-0.40000000596046</ele>
        <time>2019-09-29T08:26:45.000Z</time>
      </trkpt>
      <trkpt lat="47.28811" lon="-2.22288">
        <ele>3.9</ele>
        <time>2019-09-29T08:26:46.000Z</time>
      </trkpt>
      <trkpt lat="47.28813" lon="-2.22297">
        <ele>0.40000000596046</ele>
        <time>2019-09-29T08:26:47.000Z</time>
      </trkpt>
      <trkpt lat="47.28813" lon="-2.22305">
        <ele>0.80000001192093</ele>
        <time>2019-09-29T08:26:48.000Z</time>
      </trkpt>
      <trkpt lat="47.28817" lon="-2.22339">
        <ele>1.3999999761581</ele>
        <time>2019-09-29T08:26:52.000Z</time>
      </trkpt>
      <trkpt lat="47.28819" lon="-2.22348">
        <ele>1.7999999523163</ele>
        <time>2019-09-29T08:26:53.000Z</time>
      </trkpt>
      <trkpt lat="47.2882" lon="-2.22355">
        <ele>2.2000000476837</ele>
        <time>2019-09-29T08:26:54.000Z</time>
      </trkpt>
      <trkpt lat="47.28821" lon="-2.22363">
        <ele>2.5999999046326</ele>
        <time>2019-09-29T08:26:55.000Z</time>
      </trkpt>
      <trkpt lat="47.28822" lon="-2.22371">
        <ele>3.2000000476837</ele>
        <time>2019-09-29T08:26:56.000Z</time>
      </trkpt>
      <trkpt lat="47.28823" lon="-2.22402">
        <ele>3.5999999046326</ele>
        <time>2019-09-29T08:27:00.000Z</time>
      </trkpt>
      <trkpt lat="47.28823" lon="-2.2241">
        <ele>4</ele>
        <time>2019-09-29T08:27:01.000Z</time>
      </trkpt>
      <trkpt lat="47.28825" lon="-2.22418">
        <ele>4.4000000953674</ele>
        <time>2019-09-29T08:27:02.000Z</time>
      </trkpt>
      <trkpt lat="47.28827" lon="-2.22425">
        <ele>5</ele>
        <time>2019-09-29T08:27:03.000Z</time>
      </trkpt>
      <trkpt lat="47.28829" lon="-2.22433">
        <ele>5.4000000953674</ele>
        <time>2019-09-29T08:27:04.000Z</time>
      </trkpt>
      <trkpt lat="47.28831" lon="-2.2244">
        <ele>5.4000000953674</ele>
        <time>2019-09-29T08:27:05.000Z</time>
      </trkpt>
      <trkpt lat="47.28831" lon="-2.22456">
        <ele>5.4000000953674</ele>
        <time>2019-09-29T08:27:07.000Z</time>
      </trkpt>
      <trkpt lat="47.28832" lon="-2.22471">
        <ele>5.4000000953674</ele>
        <time>2019-09-29T08:27:09.000Z</time>
      </trkpt>
      <trkpt lat="47.28837" lon="-2.22494">
        <ele>5.8000001907349</ele>
        <time>2019-09-29T08:27:12.000Z</time>
      </trkpt>
      <trkpt lat="47.28839" lon="-2.22502">
        <ele>6.1999998092651</ele>
        <time>2019-09-29T08:27:13.000Z</time>
      </trkpt>
      <trkpt lat="47.28841" lon="-2.2251">
        <ele>6.5999999046326</ele>
        <time>2019-09-29T08:27:14.000Z</time>
      </trkpt>
      <trkpt lat="47.28842" lon="-2.22517">
        <ele>7.1999998092651</ele>
        <time>2019-09-29T08:27:15.000Z</time>
      </trkpt>
      <trkpt lat="47.28844" lon="-2.22524">
        <ele>7.5999999046326</ele>
        <time>2019-09-29T08:27:16.000Z</time>
      </trkpt>
      <trkpt lat="47.28851" lon="-2.22558">
        <ele>8</ele>
        <time>2019-09-29T08:27:21.000Z</time>
      </trkpt>
      <trkpt lat="47.28852" lon="-2.22565">
        <ele>8.3999996185303</ele>
        <time>2019-09-29T08:27:22.000Z</time>
      </trkpt>
      <trkpt lat="47.28854" lon="-2.22572">
        <ele>8.8000001907349</ele>
        <time>2019-09-29T08:27:23.000Z</time>
      </trkpt>
      <trkpt lat="47.28855" lon="-2.22579">
        <ele>9.1999998092651</ele>
        <time>2019-09-29T08:27:24.000Z</time>
      </trkpt>
      <trkpt lat="47.28857" lon="-2.22586">
        <ele>9.8000001907349</ele>
        <time>2019-09-29T08:27:25.000Z</time>
      </trkpt>
      <trkpt lat="47.28867" lon="-2.22622">
        <ele>10.199999809265</ele>
        <time>2019-09-29T08:27:30.000Z</time>
      </trkpt>
      <trkpt lat="47.28869" lon="-2.2263">
        <ele>10.60000038147</ele>
        <time>2019-09-29T08:27:31.000Z</time>
      </trkpt>
      <trkpt lat="47.28871" lon="-2.22637">
        <ele>11</ele>
        <time>2019-09-29T08:27:32.000Z</time>
      </trkpt>
      <trkpt lat="47.28873" lon="-2.22645">
        <ele>11.39999961853</ele>
        <time>2019-09-29T08:27:33.000Z</time>
      </trkpt>
      <trkpt lat="47.28875" lon="-2.22652">
        <ele>11.800000190735</ele>
        <time>2019-09-29T08:27:34.000Z</time>
      </trkpt>
      <trkpt lat="47.28887" lon="-2.22689">
        <ele>11.800000190735</ele>
        <time>2019-09-29T08:27:39.000Z</time>
      </trkpt>
      <trkpt lat="47.28895" lon="-2.22712">
        <ele>12.199999809265</ele>
        <time>2019-09-29T08:27:42.000Z</time>
      </trkpt>
      <trkpt lat="47.28898" lon="-2.2272">
        <ele>12.60000038147</ele>
        <time>2019-09-29T08:27:43.000Z</time>
      </trkpt>
      <trkpt lat="47.289" lon="-2.22728">
        <ele>13.60000038147</ele>
        <time>2019-09-29T08:27:44.000Z</time>
      </trkpt>
      <trkpt lat="47.28903" lon="-2.22735">
        <ele>14</ele>
        <time>2019-09-29T08:27:45.000Z</time>
      </trkpt>
      <trkpt lat="47.28906" lon="-2.22743">
        <ele>14</ele>
        <time>2019-09-29T08:27:46.000Z</time>
      </trkpt>
      <trkpt lat="47.28928" lon="-2.22792">
        <ele>14</ele>
        <time>2019-09-29T08:27:53.000Z</time>
      </trkpt>
      <trkpt lat="47.28944" lon="-2.22827">
        <ele>14.39999961853</ele>
        <time>2019-09-29T08:27:58.000Z</time>
      </trkpt>
      <trkpt lat="47.28947" lon="-2.22834">
        <ele>14.800000190735</ele>
        <time>2019-09-29T08:27:59.000Z</time>
      </trkpt>
      <trkpt lat="47.28951" lon="-2.22841">
        <ele>15.199999809265</ele>
        <time>2019-09-29T08:28:00.000Z</time>
      </trkpt>
      <trkpt lat="47.28954" lon="-2.22847">
        <ele>15.60000038147</ele>
        <time>2019-09-29T08:28:01.000Z</time>
      </trkpt>
      <trkpt lat="47.28958" lon="-2.22854">
        <ele>16</ele>
        <time>2019-09-29T08:28:02.000Z</time>
      </trkpt>
      <trkpt lat="47.29003" lon="-2.22931">
        <ele>16</ele>
        <time>2019-09-29T08:28:14.000Z</time>
      </trkpt>
      <trkpt lat="47.29035" lon="-2.22976">
        <ele>17.60000038147</ele>
        <time>2019-09-29T08:28:19.000Z</time>
      </trkpt>
      <trkpt lat="47.29039" lon="-2.22982">
        <ele>18</ele>
        <time>2019-09-29T08:28:23.000Z</time>
      </trkpt>
      <trkpt lat="47.29043" lon="-2.22988">
        <ele>18</ele>
        <time>2019-09-29T08:28:24.000Z</time>
      </trkpt>
      <trkpt lat="47.29051" lon="-2.23001">
        <ele>18</ele>
        <time>2019-09-29T08:28:26.000Z</time>
      </trkpt>
      <trkpt lat="47.29065" lon="-2.23017">
        <ele>18</ele>
        <time>2019-09-29T08:28:29.000Z</time>
      </trkpt>
      <trkpt lat="47.29095" lon="-2.23056">
        <ele>18</ele>
        <time>2019-09-29T08:28:36.000Z</time>
      </trkpt>
      <trkpt lat="47.29134" lon="-2.23105">
        <ele>18</ele>
        <time>2019-09-29T08:28:45.000Z</time>
      </trkpt>
      <trkpt lat="47.29167" lon="-2.23146">
        <ele>18</ele>
        <time>2019-09-29T08:28:53.000Z</time>
      </trkpt>
      <trkpt lat="47.2918" lon="-2.23161">
        <ele>18</ele>
        <time>2019-09-29T08:28:56.000Z</time>
      </trkpt>
      <trkpt lat="47.29187" lon="-2.23172">
        <ele>18</ele>
        <time>2019-09-29T08:28:58.000Z</time>
      </trkpt>
      <trkpt lat="47.29191" lon="-2.23178">
        <ele>18</ele>
        <time>2019-09-29T08:28:59.000Z</time>
      </trkpt>
      <trkpt lat="47.29197" lon="-2.23189">
        <ele>18</ele>
        <time>2019-09-29T08:29:01.000Z</time>
      </trkpt>
      <trkpt lat="47.29201" lon="-2.23203">
        <ele>18</ele>
        <time>2019-09-29T08:29:03.000Z</time>
      </trkpt>
      <trkpt lat="47.29203" lon="-2.2322">
        <ele>18</ele>
        <time>2019-09-29T08:29:05.000Z</time>
      </trkpt>
      <trkpt lat="47.2921" lon="-2.23233">
        <ele>18</ele>
        <time>2019-09-29T08:29:07.000Z</time>
      </trkpt>
      <trkpt lat="47.29223" lon="-2.2325">
        <ele>18</ele>
        <time>2019-09-29T08:29:10.000Z</time>
      </trkpt>
      <trkpt lat="47.29244" lon="-2.23277">
        <ele>18</ele>
        <time>2019-09-29T08:29:15.000Z</time>
      </trkpt>
      <trkpt lat="47.29255" lon="-2.23296">
        <ele>18</ele>
        <time>2019-09-29T08:29:18.000Z</time>
      </trkpt>
      <trkpt lat="47.29261" lon="-2.2331">
        <ele>18</ele>
        <time>2019-09-29T08:29:20.000Z</time>
      </trkpt>
      <trkpt lat="47.29272" lon="-2.23355">
        <ele>18</ele>
        <time>2019-09-29T08:29:26.000Z</time>
      </trkpt>
      <trkpt lat="47.29281" lon="-2.234">
        <ele>18</ele>
        <time>2019-09-29T08:29:32.000Z</time>
      </trkpt>
      <trkpt lat="47.29283" lon="-2.23408">
        <ele>18</ele>
        <time>2019-09-29T08:29:33.000Z</time>
      </trkpt>
      <trkpt lat="47.29291" lon="-2.23447">
        <ele>18</ele>
        <time>2019-09-29T08:29:38.000Z</time>
      </trkpt>
      <trkpt lat="47.29303" lon="-2.23512">
        <ele>18</ele>
        <time>2019-09-29T08:29:46.000Z</time>
      </trkpt>
      <trkpt lat="47.29312" lon="-2.23578">
        <ele>18</ele>
        <time>2019-09-29T08:29:54.000Z</time>
      </trkpt>
      <trkpt lat="47.29313" lon="-2.2365">
        <ele>18</ele>
        <time>2019-09-29T08:30:03.000Z</time>
      </trkpt>
      <trkpt lat="47.29314" lon="-2.23706">
        <ele>18</ele>
        <time>2019-09-29T08:30:10.000Z</time>
      </trkpt>
      <trkpt lat="47.29314" lon="-2.23762">
        <ele>18</ele>
        <time>2019-09-29T08:30:17.000Z</time>
      </trkpt>
      <trkpt lat="47.29316" lon="-2.23838">
        <ele>18</ele>
        <time>2019-09-29T08:30:26.000Z</time>
      </trkpt>
      <trkpt lat="47.29321" lon="-2.23878">
        <ele>18</ele>
        <time>2019-09-29T08:30:28.000Z</time>
      </trkpt>
      <trkpt lat="47.29324" lon="-2.23886">
        <ele>18</ele>
        <time>2019-09-29T08:30:31.000Z</time>
      </trkpt>
      <trkpt lat="47.29332" lon="-2.23908">
        <ele>18</ele>
        <time>2019-09-29T08:30:32.000Z</time>
      </trkpt>
      <trkpt lat="47.29332" lon="-2.23908">
        <ele>18</ele>
        <time>2019-09-29T08:30:35.000Z</time>
      </trkpt>
      <trkpt lat="47.29349" lon="-2.23938">
        <ele>18</ele>
        <time>2019-09-29T08:30:40.000Z</time>
      </trkpt>
      <trkpt lat="47.29362" lon="-2.23956">
        <ele>18</ele>
        <time>2019-09-29T08:30:43.000Z</time>
      </trkpt>
      <trkpt lat="47.29376" lon="-2.23974">
        <ele>18</ele>
        <time>2019-09-29T08:30:46.000Z</time>
      </trkpt>
      <trkpt lat="47.29412" lon="-2.24023">
        <ele>18</ele>
        <time>2019-09-29T08:30:55.000Z</time>
      </trkpt>
      <trkpt lat="47.29444" lon="-2.24069">
        <ele>18</ele>
        <time>2019-09-29T08:31:03.000Z</time>
      </trkpt>
      <trkpt lat="47.2947" lon="-2.24099">
        <ele>18</ele>
        <time>2019-09-29T08:31:09.000Z</time>
      </trkpt>
      <trkpt lat="47.29496" lon="-2.24129">
        <ele>18</ele>
        <time>2019-09-29T08:31:15.000Z</time>
      </trkpt>
      <trkpt lat="47.2952" lon="-2.24167">
        <ele>18</ele>
        <time>2019-09-29T08:31:21.000Z</time>
      </trkpt>
      <trkpt lat="47.29526" lon="-2.24181">
        <ele>18</ele>
        <time>2019-09-29T08:31:23.000Z</time>
      </trkpt>
      <trkpt lat="47.29535" lon="-2.24203">
        <ele>18</ele>
        <time>2019-09-29T08:31:26.000Z</time>
      </trkpt>
      <trkpt lat="47.29544" lon="-2.24233">
        <ele>18</ele>
        <time>2019-09-29T08:31:27.000Z</time>
      </trkpt>
      <trkpt lat="47.29545" lon="-2.2424">
        <ele>18</ele>
        <time>2019-09-29T08:31:30.000Z</time>
      </trkpt>
      <trkpt lat="47.29547" lon="-2.24251">
        <ele>18</ele>
        <time>2019-09-29T08:31:32.000Z</time>
      </trkpt>
      <trkpt lat="47.29555" lon="-2.24282">
        <ele>18</ele>
        <time>2019-09-29T08:31:39.000Z</time>
      </trkpt>
      <trkpt lat="47.29559" lon="-2.24294">
        <ele>18</ele>
        <time>2019-09-29T08:31:43.000Z</time>
      </trkpt>
      <trkpt lat="47.2956" lon="-2.24296">
        <ele>18</ele>
        <time>2019-09-29T08:31:47.000Z</time>
      </trkpt>
      <trkpt lat="47.2956" lon="-2.24301">
        <ele>18</ele>
        <time>2019-09-29T08:31:50.000Z</time>
      </trkpt>
      <trkpt lat="47.29562" lon="-2.24306">
        <ele>18</ele>
        <time>2019-09-29T08:31:53.000Z</time>
      </trkpt>
      <trkpt lat="47.29563" lon="-2.24307">
        <ele>18</ele>
        <time>2019-09-29T08:31:54.000Z</time>
      </trkpt>
      <trkpt lat="47.29568" lon="-2.24314">
        <ele>18</ele>
        <time>2019-09-29T08:32:01.000Z</time>
      </trkpt>
      <trkpt lat="47.29569" lon="-2.24316">
        <ele>18</ele>
        <time>2019-09-29T08:32:02.000Z</time>
      </trkpt>
      <trkpt lat="47.2957" lon="-2.24322">
        <ele>18</ele>
        <time>2019-09-29T08:32:07.000Z</time>
      </trkpt>
      <trkpt lat="47.29572" lon="-2.24326">
        <ele>18</ele>
        <time>2019-09-29T08:33:31.000Z</time>
      </trkpt>
      <trkpt lat="47.29576" lon="-2.24336">
        <ele>18</ele>
        <time>2019-09-29T08:33:34.000Z</time>
      </trkpt>
      <trkpt lat="47.29585" lon="-2.24368">
        <ele>18</ele>
        <time>2019-09-29T08:33:39.000Z</time>
      </trkpt>
      <trkpt lat="47.29586" lon="-2.24375">
        <ele>18</ele>
        <time>2019-09-29T08:33:40.000Z</time>
      </trkpt>
      <trkpt lat="47.29596" lon="-2.24421">
        <ele>19.200000762939</ele>
        <time>2019-09-29T08:33:44.000Z</time>
      </trkpt>
      <trkpt lat="47.29598" lon="-2.24428">
        <ele>19.60000038147</ele>
        <time>2019-09-29T08:33:47.000Z</time>
      </trkpt>
      <trkpt lat="47.29599" lon="-2.24436">
        <ele>20</ele>
        <time>2019-09-29T08:33:48.000Z</time>
      </trkpt>
      <trkpt lat="47.29617" lon="-2.24508">
        <ele>20</ele>
        <time>2019-09-29T08:33:58.000Z</time>
      </trkpt>
      <trkpt lat="47.29635" lon="-2.24569">
        <ele>20</ele>
        <time>2019-09-29T08:34:07.000Z</time>
      </trkpt>
      <trkpt lat="47.29652" lon="-2.24625">
        <ele>20</ele>
        <time>2019-09-29T08:34:15.000Z</time>
      </trkpt>
      <trkpt lat="47.29658" lon="-2.24646">
        <ele>20.39999961853</ele>
        <time>2019-09-29T08:34:16.000Z</time>
      </trkpt>
      <trkpt lat="47.29661" lon="-2.24653">
        <ele>20.799999237061</ele>
        <time>2019-09-29T08:34:19.000Z</time>
      </trkpt>
      <trkpt lat="47.29663" lon="-2.2466">
        <ele>21.200000762939</ele>
        <time>2019-09-29T08:34:20.000Z</time>
      </trkpt>
      <trkpt lat="47.29665" lon="-2.24666">
        <ele>21.60000038147</ele>
        <time>2019-09-29T08:34:21.000Z</time>
      </trkpt>
      <trkpt lat="47.29667" lon="-2.24673">
        <ele>22</ele>
        <time>2019-09-29T08:34:22.000Z</time>
      </trkpt>
      <trkpt lat="47.29671" lon="-2.24686">
        <ele>22</ele>
        <time>2019-09-29T08:34:24.000Z</time>
      </trkpt>
      <trkpt lat="47.29691" lon="-2.24748">
        <ele>22</ele>
        <time>2019-09-29T08:34:33.000Z</time>
      </trkpt>
      <trkpt lat="47.29711" lon="-2.2481">
        <ele>22</ele>
        <time>2019-09-29T08:34:41.000Z</time>
      </trkpt>
      <trkpt lat="47.2973" lon="-2.24869">
        <ele>22</ele>
        <time>2019-09-29T08:34:49.000Z</time>
      </trkpt>
      <trkpt lat="47.2975" lon="-2.24935">
        <ele>22</ele>
        <time>2019-09-29T08:34:58.000Z</time>
      </trkpt>
      <trkpt lat="47.29754" lon="-2.2495">
        <ele>22</ele>
        <time>2019-09-29T08:35:00.000Z</time>
      </trkpt>
      <trkpt lat="47.29764" lon="-2.24979">
        <ele>22</ele>
        <time>2019-09-29T08:35:04.000Z</time>
      </trkpt>
      <trkpt lat="47.29779" lon="-2.25041">
        <ele>22</ele>
        <time>2019-09-29T08:35:12.000Z</time>
      </trkpt>
      <trkpt lat="47.29785" lon="-2.25084">
        <ele>22</ele>
        <time>2019-09-29T08:35:18.000Z</time>
      </trkpt>
      <trkpt lat="47.29791" lon="-2.25095">
        <ele>22</ele>
        <time>2019-09-29T08:35:20.000Z</time>
      </trkpt>
      <trkpt lat="47.29804" lon="-2.25101">
        <ele>22</ele>
        <time>2019-09-29T08:35:23.000Z</time>
      </trkpt>
      <trkpt lat="47.29816" lon="-2.25094">
        <ele>22</ele>
        <time>2019-09-29T08:35:26.000Z</time>
      </trkpt>
      <trkpt lat="47.29828" lon="-2.25094">
        <ele>22</ele>
        <time>2019-09-29T08:35:30.000Z</time>
      </trkpt>
      <trkpt lat="47.29834" lon="-2.25113">
        <ele>22</ele>
        <time>2019-09-29T08:35:33.000Z</time>
      </trkpt>
      <trkpt lat="47.29836" lon="-2.2513">
        <ele>22</ele>
        <time>2019-09-29T08:35:35.000Z</time>
      </trkpt>
      <trkpt lat="47.29838" lon="-2.25148">
        <ele>21.60000038147</ele>
        <time>2019-09-29T08:35:37.000Z</time>
      </trkpt>
      <trkpt lat="47.29839" lon="-2.25157">
        <ele>21.200000762939</ele>
        <time>2019-09-29T08:35:38.000Z</time>
      </trkpt>
      <trkpt lat="47.2984" lon="-2.25166">
        <ele>20.799999237061</ele>
        <time>2019-09-29T08:35:39.000Z</time>
      </trkpt>
      <trkpt lat="47.29842" lon="-2.25175">
        <ele>20.39999961853</ele>
        <time>2019-09-29T08:35:40.000Z</time>
      </trkpt>
      <trkpt lat="47.29844" lon="-2.25184">
        <ele>19.799999237061</ele>
        <time>2019-09-29T08:35:41.000Z</time>
      </trkpt>
      <trkpt lat="47.29856" lon="-2.25226">
        <ele>19.799999237061</ele>
        <time>2019-09-29T08:35:46.000Z</time>
      </trkpt>
      <trkpt lat="47.29858" lon="-2.25234">
        <ele>19.39999961853</ele>
        <time>2019-09-29T08:35:47.000Z</time>
      </trkpt>
      <trkpt lat="47.29861" lon="-2.25242">
        <ele>19</ele>
        <time>2019-09-29T08:35:48.000Z</time>
      </trkpt>
      <trkpt lat="47.29864" lon="-2.2525">
        <ele>18.60000038147</ele>
        <time>2019-09-29T08:35:49.000Z</time>
      </trkpt>
      <trkpt lat="47.29866" lon="-2.25258">
        <ele>18.200000762939</ele>
        <time>2019-09-29T08:35:50.000Z</time>
      </trkpt>
      <trkpt lat="47.29869" lon="-2.25267">
        <ele>17.799999237061</ele>
        <time>2019-09-29T08:35:51.000Z</time>
      </trkpt>
      <trkpt lat="47.29877" lon="-2.25291">
        <ele>17.799999237061</ele>
        <time>2019-09-29T08:35:54.000Z</time>
      </trkpt>
      <trkpt lat="47.29893" lon="-2.25347">
        <ele>17.799999237061</ele>
        <time>2019-09-29T08:36:01.000Z</time>
      </trkpt>
      <trkpt lat="47.29894" lon="-2.25356">
        <ele>17.799999237061</ele>
        <time>2019-09-29T08:36:02.000Z</time>
      </trkpt>
      <trkpt lat="47.29896" lon="-2.25398">
        <ele>17.799999237061</ele>
        <time>2019-09-29T08:36:07.000Z</time>
      </trkpt>
      <trkpt lat="47.29896" lon="-2.25415">
        <ele>17.799999237061</ele>
        <time>2019-09-29T08:36:09.000Z</time>
      </trkpt>
      <trkpt lat="47.29892" lon="-2.25446">
        <ele>17.799999237061</ele>
        <time>2019-09-29T08:36:13.000Z</time>
      </trkpt>
      <trkpt lat="47.2988" lon="-2.25514">
        <ele>17.799999237061</ele>
        <time>2019-09-29T08:36:22.000Z</time>
      </trkpt>
      <trkpt lat="47.29878" lon="-2.2553">
        <ele>17.799999237061</ele>
        <time>2019-09-29T08:36:24.000Z</time>
      </trkpt>
      <trkpt lat="47.29877" lon="-2.25554">
        <ele>17.799999237061</ele>
        <time>2019-09-29T08:36:27.000Z</time>
      </trkpt>
      <trkpt lat="47.29873" lon="-2.25599">
        <ele>17.799999237061</ele>
        <time>2019-09-29T08:36:33.000Z</time>
      </trkpt>
      <trkpt lat="47.29872" lon="-2.25663">
        <ele>17.799999237061</ele>
        <time>2019-09-29T08:36:41.000Z</time>
      </trkpt>
      <trkpt lat="47.29869" lon="-2.25717">
        <ele>17.799999237061</ele>
        <time>2019-09-29T08:36:48.000Z</time>
      </trkpt>
      <trkpt lat="47.29864" lon="-2.25768">
        <ele>17.799999237061</ele>
        <time>2019-09-29T08:36:54.000Z</time>
      </trkpt>
      <trkpt lat="47.29862" lon="-2.25776">
        <ele>17.799999237061</ele>
        <time>2019-09-29T08:36:55.000Z</time>
      </trkpt>
      <trkpt lat="47.29852" lon="-2.25824">
        <ele>17.799999237061</ele>
        <time>2019-09-29T08:37:01.000Z</time>
      </trkpt>
      <trkpt lat="47.29838" lon="-2.25906">
        <ele>17.799999237061</ele>
        <time>2019-09-29T08:37:11.000Z</time>
      </trkpt>
      <trkpt lat="47.29835" lon="-2.25998">
        <ele>17.799999237061</ele>
        <time>2019-09-29T08:37:22.000Z</time>
      </trkpt>
      <trkpt lat="47.29834" lon="-2.26066">
        <ele>17.799999237061</ele>
        <time>2019-09-29T08:37:30.000Z</time>
      </trkpt>
      <trkpt lat="47.29842" lon="-2.26114">
        <ele>16.799999237061</ele>
        <time>2019-09-29T08:37:34.000Z</time>
      </trkpt>
      <trkpt lat="47.29844" lon="-2.26121">
        <ele>16.39999961853</ele>
        <time>2019-09-29T08:37:37.000Z</time>
      </trkpt>
      <trkpt lat="47.29846" lon="-2.26127">
        <ele>16</ele>
        <time>2019-09-29T08:37:38.000Z</time>
      </trkpt>
      <trkpt lat="47.29848" lon="-2.26133">
        <ele>15.60000038147</ele>
        <time>2019-09-29T08:37:39.000Z</time>
      </trkpt>
      <trkpt lat="47.29859" lon="-2.2615">
        <ele>15.60000038147</ele>
        <time>2019-09-29T08:37:40.000Z</time>
      </trkpt>
      <trkpt lat="47.29862" lon="-2.26155">
        <ele>15.60000038147</ele>
        <time>2019-09-29T08:37:43.000Z</time>
      </trkpt>
      <trkpt lat="47.29873" lon="-2.26173">
        <ele>15.60000038147</ele>
        <time>2019-09-29T08:37:46.000Z</time>
      </trkpt>
      <trkpt lat="47.29882" lon="-2.26196">
        <ele>16</ele>
        <time>2019-09-29T08:37:49.000Z</time>
      </trkpt>
      <trkpt lat="47.29885" lon="-2.26203">
        <ele>16.39999961853</ele>
        <time>2019-09-29T08:37:50.000Z</time>
      </trkpt>
      <trkpt lat="47.29887" lon="-2.2621">
        <ele>17</ele>
        <time>2019-09-29T08:37:51.000Z</time>
      </trkpt>
      <trkpt lat="47.2989" lon="-2.26217">
        <ele>17.39999961853</ele>
        <time>2019-09-29T08:37:52.000Z</time>
      </trkpt>
      <trkpt lat="47.29893" lon="-2.26225">
        <ele>17.799999237061</ele>
        <time>2019-09-29T08:37:53.000Z</time>
      </trkpt>
      <trkpt lat="47.29902" lon="-2.26251">
        <ele>17.799999237061</ele>
        <time>2019-09-29T08:37:57.000Z</time>
      </trkpt>
      <trkpt lat="47.29916" lon="-2.26275">
        <ele>17.799999237061</ele>
        <time>2019-09-29T08:37:59.000Z</time>
      </trkpt>
      <trkpt lat="47.29916" lon="-2.26275">
        <ele>17.799999237061</ele>
        <time>2019-09-29T08:38:02.000Z</time>
      </trkpt>
      <trkpt lat="47.29922" lon="-2.26276">
        <ele>17.799999237061</ele>
        <time>2019-09-29T08:38:03.000Z</time>
      </trkpt>
      <trkpt lat="47.29938" lon="-2.26276">
        <ele>17.799999237061</ele>
        <time>2019-09-29T08:38:06.000Z</time>
      </trkpt>
      <trkpt lat="47.29972" lon="-2.26281">
        <ele>17.799999237061</ele>
        <time>2019-09-29T08:38:12.000Z</time>
      </trkpt>
      <trkpt lat="47.29977" lon="-2.26285">
        <ele>17.799999237061</ele>
        <time>2019-09-29T08:38:13.000Z</time>
      </trkpt>
      <trkpt lat="47.29994" lon="-2.263">
        <ele>17.799999237061</ele>
        <time>2019-09-29T08:38:16.000Z</time>
      </trkpt>
      <trkpt lat="47.30019" lon="-2.26328">
        <ele>17.799999237061</ele>
        <time>2019-09-29T08:38:21.000Z</time>
      </trkpt>
      <trkpt lat="47.30046" lon="-2.26361">
        <ele>17.799999237061</ele>
        <time>2019-09-29T08:38:27.000Z</time>
      </trkpt>
      <trkpt lat="47.30062" lon="-2.26386">
        <ele>17.799999237061</ele>
        <time>2019-09-29T08:38:31.000Z</time>
      </trkpt>
      <trkpt lat="47.30068" lon="-2.26398">
        <ele>17.799999237061</ele>
        <time>2019-09-29T08:38:33.000Z</time>
      </trkpt>
      <trkpt lat="47.3009" lon="-2.26442">
        <ele>17.799999237061</ele>
        <time>2019-09-29T08:38:40.000Z</time>
      </trkpt>
      <trkpt lat="47.30116" lon="-2.26497">
        <ele>17.799999237061</ele>
        <time>2019-09-29T08:38:49.000Z</time>
      </trkpt>
      <trkpt lat="47.3014" lon="-2.26553">
        <ele>17.799999237061</ele>
        <time>2019-09-29T08:38:58.000Z</time>
      </trkpt>
      <trkpt lat="47.30161" lon="-2.26595">
        <ele>18.200000762939</ele>
        <time>2019-09-29T08:39:03.000Z</time>
      </trkpt>
      <trkpt lat="47.30164" lon="-2.26601">
        <ele>18.60000038147</ele>
        <time>2019-09-29T08:39:06.000Z</time>
      </trkpt>
      <trkpt lat="47.30167" lon="-2.26607">
        <ele>19</ele>
        <time>2019-09-29T08:39:07.000Z</time>
      </trkpt>
      <trkpt lat="47.3017" lon="-2.26612">
        <ele>19.39999961853</ele>
        <time>2019-09-29T08:39:08.000Z</time>
      </trkpt>
      <trkpt lat="47.30172" lon="-2.26618">
        <ele>19.799999237061</ele>
        <time>2019-09-29T08:39:09.000Z</time>
      </trkpt>
      <trkpt lat="47.30187" lon="-2.26647">
        <ele>19.799999237061</ele>
        <time>2019-09-29T08:39:14.000Z</time>
      </trkpt>
      <trkpt lat="47.30201" lon="-2.26672">
        <ele>20.200000762939</ele>
        <time>2019-09-29T08:39:18.000Z</time>
      </trkpt>
      <trkpt lat="47.30205" lon="-2.26678">
        <ele>20.60000038147</ele>
        <time>2019-09-29T08:39:19.000Z</time>
      </trkpt>
      <trkpt lat="47.30208" lon="-2.26685">
        <ele>21</ele>
        <time>2019-09-29T08:39:20.000Z</time>
      </trkpt>
      <trkpt lat="47.30211" lon="-2.26691">
        <ele>21.39999961853</ele>
        <time>2019-09-29T08:39:21.000Z</time>
      </trkpt>
      <trkpt lat="47.30215" lon="-2.26698">
        <ele>21.799999237061</ele>
        <time>2019-09-29T08:39:22.000Z</time>
      </trkpt>
      <trkpt lat="47.30238" lon="-2.26765">
        <ele>21.799999237061</ele>
        <time>2019-09-29T08:39:29.000Z</time>
      </trkpt>
      <trkpt lat="47.30256" lon="-2.26837">
        <ele>21.799999237061</ele>
        <time>2019-09-29T08:39:40.000Z</time>
      </trkpt>
      <trkpt lat="47.30266" lon="-2.26894">
        <ele>21.799999237061</ele>
        <time>2019-09-29T08:39:49.000Z</time>
      </trkpt>
      <trkpt lat="47.3028" lon="-2.26934">
        <ele>21.799999237061</ele>
        <time>2019-09-29T08:39:54.000Z</time>
      </trkpt>
      <trkpt lat="47.30284" lon="-2.26942">
        <ele>21.799999237061</ele>
        <time>2019-09-29T08:39:55.000Z</time>
      </trkpt>
      <trkpt lat="47.30315" lon="-2.26996">
        <ele>21.799999237061</ele>
        <time>2019-09-29T08:40:03.000Z</time>
      </trkpt>
      <trkpt lat="47.30349" lon="-2.27059">
        <ele>21.799999237061</ele>
        <time>2019-09-29T08:40:12.000Z</time>
      </trkpt>
      <trkpt lat="47.30382" lon="-2.27122">
        <ele>21.799999237061</ele>
        <time>2019-09-29T08:40:21.000Z</time>
      </trkpt>
      <trkpt lat="47.30385" lon="-2.27127">
        <ele>21.200000762939</ele>
        <time>2019-09-29T08:40:22.000Z</time>
      </trkpt>
      <trkpt lat="47.30387" lon="-2.27133">
        <ele>20.799999237061</ele>
        <time>2019-09-29T08:40:23.000Z</time>
      </trkpt>
      <trkpt lat="47.3039" lon="-2.27138">
        <ele>20</ele>
        <time>2019-09-29T08:40:24.000Z</time>
      </trkpt>
      <trkpt lat="47.30392" lon="-2.27143">
        <ele>19.60000038147</ele>
        <time>2019-09-29T08:40:25.000Z</time>
      </trkpt>
      <trkpt lat="47.30394" lon="-2.27148">
        <ele>19.60000038147</ele>
        <time>2019-09-29T08:40:26.000Z</time>
      </trkpt>
      <trkpt lat="47.30389" lon="-2.27162">
        <ele>19.60000038147</ele>
        <time>2019-09-29T08:40:29.000Z</time>
      </trkpt>
      <trkpt lat="47.30368" lon="-2.27169">
        <ele>19.60000038147</ele>
        <time>2019-09-29T08:40:32.000Z</time>
      </trkpt>
      <trkpt lat="47.30368" lon="-2.27169">
        <ele>19.60000038147</ele>
        <time>2019-09-29T08:40:34.000Z</time>
      </trkpt>
      <trkpt lat="47.30335" lon="-2.27175">
        <ele>19.60000038147</ele>
        <time>2019-09-29T08:40:40.000Z</time>
      </trkpt>
      <trkpt lat="47.30304" lon="-2.27183">
        <ele>19.60000038147</ele>
        <time>2019-09-29T08:40:46.000Z</time>
      </trkpt>
      <trkpt lat="47.30299" lon="-2.27182">
        <ele>19.60000038147</ele>
        <time>2019-09-29T08:40:47.000Z</time>
      </trkpt>
      <trkpt lat="47.30285" lon="-2.27181">
        <ele>19.60000038147</ele>
        <time>2019-09-29T08:40:50.000Z</time>
      </trkpt>
      <trkpt lat="47.30243" lon="-2.27167">
        <ele>19.60000038147</ele>
        <time>2019-09-29T08:40:59.000Z</time>
      </trkpt>
      <trkpt lat="47.3022" lon="-2.27158">
        <ele>19.60000038147</ele>
        <time>2019-09-29T08:41:04.000Z</time>
      </trkpt>
      <trkpt lat="47.30215" lon="-2.2716">
        <ele>19.60000038147</ele>
        <time>2019-09-29T08:41:05.000Z</time>
      </trkpt>
      <trkpt lat="47.30199" lon="-2.27173">
        <ele>19.60000038147</ele>
        <time>2019-09-29T08:41:08.000Z</time>
      </trkpt>
      <trkpt lat="47.30169" lon="-2.27208">
        <ele>19.60000038147</ele>
        <time>2019-09-29T08:41:14.000Z</time>
      </trkpt>
      <trkpt lat="47.30155" lon="-2.27225">
        <ele>19.60000038147</ele>
        <time>2019-09-29T08:41:17.000Z</time>
      </trkpt>
      <trkpt lat="47.30142" lon="-2.27242">
        <ele>19.60000038147</ele>
        <time>2019-09-29T08:41:20.000Z</time>
      </trkpt>
      <trkpt lat="47.30138" lon="-2.27247">
        <ele>19.60000038147</ele>
        <time>2019-09-29T08:41:21.000Z</time>
      </trkpt>
      <trkpt lat="47.30115" lon="-2.27275">
        <ele>19.60000038147</ele>
        <time>2019-09-29T08:41:26.000Z</time>
      </trkpt>
      <trkpt lat="47.30106" lon="-2.27287">
        <ele>19.60000038147</ele>
        <time>2019-09-29T08:41:28.000Z</time>
      </trkpt>
      <trkpt lat="47.30098" lon="-2.27301">
        <ele>19.60000038147</ele>
        <time>2019-09-29T08:41:30.000Z</time>
      </trkpt>
      <trkpt lat="47.30091" lon="-2.27316">
        <ele>19.60000038147</ele>
        <time>2019-09-29T08:41:32.000Z</time>
      </trkpt>
      <trkpt lat="47.30067" lon="-2.27371">
        <ele>19.60000038147</ele>
        <time>2019-09-29T08:41:39.000Z</time>
      </trkpt>
      <trkpt lat="47.30059" lon="-2.27386">
        <ele>20</ele>
        <time>2019-09-29T08:41:41.000Z</time>
      </trkpt>
      <trkpt lat="47.30056" lon="-2.27393">
        <ele>20.39999961853</ele>
        <time>2019-09-29T08:41:42.000Z</time>
      </trkpt>
      <trkpt lat="47.30052" lon="-2.27399">
        <ele>20.799999237061</ele>
        <time>2019-09-29T08:41:43.000Z</time>
      </trkpt>
      <trkpt lat="47.30049" lon="-2.27404">
        <ele>21.200000762939</ele>
        <time>2019-09-29T08:41:44.000Z</time>
      </trkpt>
      <trkpt lat="47.30037" lon="-2.27423">
        <ele>21.60000038147</ele>
        <time>2019-09-29T08:41:45.000Z</time>
      </trkpt>
      <trkpt lat="47.30011" lon="-2.27461">
        <ele>21.60000038147</ele>
        <time>2019-09-29T08:41:53.000Z</time>
      </trkpt>
      <trkpt lat="47.29999" lon="-2.27493">
        <ele>21.60000038147</ele>
        <time>2019-09-29T08:41:55.000Z</time>
      </trkpt>
      <trkpt lat="47.29993" lon="-2.27509">
        <ele>21.60000038147</ele>
        <time>2019-09-29T08:41:59.000Z</time>
      </trkpt>
      <trkpt lat="47.29985" lon="-2.27542">
        <ele>21.60000038147</ele>
        <time>2019-09-29T08:42:03.000Z</time>
      </trkpt>
      <trkpt lat="47.29981" lon="-2.27558">
        <ele>21.60000038147</ele>
        <time>2019-09-29T08:42:05.000Z</time>
      </trkpt>
      <trkpt lat="47.29964" lon="-2.27617">
        <ele>21.60000038147</ele>
        <time>2019-09-29T08:42:12.000Z</time>
      </trkpt>
      <trkpt lat="47.29955" lon="-2.27676">
        <ele>21.60000038147</ele>
        <time>2019-09-29T08:42:19.000Z</time>
      </trkpt>
      <trkpt lat="47.2995" lon="-2.27737">
        <ele>21.60000038147</ele>
        <time>2019-09-29T08:42:26.000Z</time>
      </trkpt>
      <trkpt lat="47.29949" lon="-2.27754">
        <ele>21.60000038147</ele>
        <time>2019-09-29T08:42:28.000Z</time>
      </trkpt>
      <trkpt lat="47.29947" lon="-2.27788">
        <ele>21.60000038147</ele>
        <time>2019-09-29T08:42:32.000Z</time>
      </trkpt>
      <trkpt lat="47.29946" lon="-2.27796">
        <ele>22</ele>
        <time>2019-09-29T08:42:33.000Z</time>
      </trkpt>
      <trkpt lat="47.29945" lon="-2.27804">
        <ele>22.39999961853</ele>
        <time>2019-09-29T08:42:34.000Z</time>
      </trkpt>
      <trkpt lat="47.29944" lon="-2.27813">
        <ele>22.799999237061</ele>
        <time>2019-09-29T08:42:35.000Z</time>
      </trkpt>
      <trkpt lat="47.29943" lon="-2.27822">
        <ele>23.200000762939</ele>
        <time>2019-09-29T08:42:36.000Z</time>
      </trkpt>
      <trkpt lat="47.29942" lon="-2.2783">
        <ele>23.60000038147</ele>
        <time>2019-09-29T08:42:37.000Z</time>
      </trkpt>
      <trkpt lat="47.29942" lon="-2.27838">
        <ele>23.60000038147</ele>
        <time>2019-09-29T08:42:38.000Z</time>
      </trkpt>
      <trkpt lat="47.29939" lon="-2.27887">
        <ele>23.60000038147</ele>
        <time>2019-09-29T08:42:44.000Z</time>
      </trkpt>
      <trkpt lat="47.29932" lon="-2.27963">
        <ele>23.60000038147</ele>
        <time>2019-09-29T08:42:53.000Z</time>
      </trkpt>
      <trkpt lat="47.29934" lon="-2.28004">
        <ele>23.60000038147</ele>
        <time>2019-09-29T08:42:58.000Z</time>
      </trkpt>
      <trkpt lat="47.29935" lon="-2.28012">
        <ele>23.60000038147</ele>
        <time>2019-09-29T08:42:59.000Z</time>
      </trkpt>
      <trkpt lat="47.29941" lon="-2.28033">
        <ele>23.60000038147</ele>
        <time>2019-09-29T08:43:02.000Z</time>
      </trkpt>
      <trkpt lat="47.29947" lon="-2.28044">
        <ele>23.60000038147</ele>
        <time>2019-09-29T08:43:04.000Z</time>
      </trkpt>
      <trkpt lat="47.29961" lon="-2.28046">
        <ele>23.60000038147</ele>
        <time>2019-09-29T08:43:07.000Z</time>
      </trkpt>
      <trkpt lat="47.29979" lon="-2.28038">
        <ele>23.60000038147</ele>
        <time>2019-09-29T08:43:11.000Z</time>
      </trkpt>
      <trkpt lat="47.30002" lon="-2.28026">
        <ele>23.60000038147</ele>
        <time>2019-09-29T08:43:16.000Z</time>
      </trkpt>
      <trkpt lat="47.30033" lon="-2.28011">
        <ele>23.60000038147</ele>
        <time>2019-09-29T08:43:21.000Z</time>
      </trkpt>
      <trkpt lat="47.30058" lon="-2.27992">
        <ele>23.200000762939</ele>
        <time>2019-09-29T08:43:25.000Z</time>
      </trkpt>
      <trkpt lat="47.30064" lon="-2.27987">
        <ele>22.799999237061</ele>
        <time>2019-09-29T08:43:26.000Z</time>
      </trkpt>
      <trkpt lat="47.3007" lon="-2.27982">
        <ele>22.39999961853</ele>
        <time>2019-09-29T08:43:27.000Z</time>
      </trkpt>
      <trkpt lat="47.30075" lon="-2.27977">
        <ele>22</ele>
        <time>2019-09-29T08:43:28.000Z</time>
      </trkpt>
      <trkpt lat="47.30081" lon="-2.27971">
        <ele>21.60000038147</ele>
        <time>2019-09-29T08:43:29.000Z</time>
      </trkpt>
      <trkpt lat="47.30115" lon="-2.27943">
        <ele>21.60000038147</ele>
        <time>2019-09-29T08:43:35.000Z</time>
      </trkpt>
      <trkpt lat="47.30144" lon="-2.27924">
        <ele>21.60000038147</ele>
        <time>2019-09-29T08:43:40.000Z</time>
      </trkpt>
      <trkpt lat="47.30176" lon="-2.27916">
        <ele>21.60000038147</ele>
        <time>2019-09-29T08:43:45.000Z</time>
      </trkpt>
      <trkpt lat="47.30209" lon="-2.27914">
        <ele>21.60000038147</ele>
        <time>2019-09-29T08:43:50.000Z</time>
      </trkpt>
      <trkpt lat="47.30223" lon="-2.27913">
        <ele>21</ele>
        <time>2019-09-29T08:43:52.000Z</time>
      </trkpt>
      <trkpt lat="47.30231" lon="-2.27913">
        <ele>20.60000038147</ele>
        <time>2019-09-29T08:43:53.000Z</time>
      </trkpt>
      <trkpt lat="47.30237" lon="-2.27913">
        <ele>20.200000762939</ele>
        <time>2019-09-29T08:43:54.000Z</time>
      </trkpt>
      <trkpt lat="47.30244" lon="-2.27912">
        <ele>19.799999237061</ele>
        <time>2019-09-29T08:43:55.000Z</time>
      </trkpt>
      <trkpt lat="47.30265" lon="-2.2791">
        <ele>19.39999961853</ele>
        <time>2019-09-29T08:43:56.000Z</time>
      </trkpt>
      <trkpt lat="47.30307" lon="-2.27905">
        <ele>18.799999237061</ele>
        <time>2019-09-29T08:44:04.000Z</time>
      </trkpt>
      <trkpt lat="47.30315" lon="-2.27904">
        <ele>18.39999961853</ele>
        <time>2019-09-29T08:44:05.000Z</time>
      </trkpt>
      <trkpt lat="47.30322" lon="-2.27902">
        <ele>18</ele>
        <time>2019-09-29T08:44:06.000Z</time>
      </trkpt>
      <trkpt lat="47.30342" lon="-2.279">
        <ele>17.200000762939</ele>
        <time>2019-09-29T08:44:07.000Z</time>
      </trkpt>
      <trkpt lat="47.30366" lon="-2.27895">
        <ele>16.799999237061</ele>
        <time>2019-09-29T08:44:13.000Z</time>
      </trkpt>
      <trkpt lat="47.30372" lon="-2.27894">
        <ele>16.39999961853</ele>
        <time>2019-09-29T08:44:14.000Z</time>
      </trkpt>
      <trkpt lat="47.30378" lon="-2.27894">
        <ele>16</ele>
        <time>2019-09-29T08:44:15.000Z</time>
      </trkpt>
      <trkpt lat="47.30384" lon="-2.27894">
        <ele>15.60000038147</ele>
        <time>2019-09-29T08:44:16.000Z</time>
      </trkpt>
      <trkpt lat="47.3039" lon="-2.27894">
        <ele>15.199999809265</ele>
        <time>2019-09-29T08:44:17.000Z</time>
      </trkpt>
      <trkpt lat="47.30407" lon="-2.27895">
        <ele>15.199999809265</ele>
        <time>2019-09-29T08:44:20.000Z</time>
      </trkpt>
      <trkpt lat="47.30413" lon="-2.27894">
        <ele>15.199999809265</ele>
        <time>2019-09-29T08:44:21.000Z</time>
      </trkpt>
      <trkpt lat="47.30423" lon="-2.27893">
        <ele>15.199999809265</ele>
        <time>2019-09-29T08:44:23.000Z</time>
      </trkpt>
      <trkpt lat="47.30433" lon="-2.27894">
        <ele>15.199999809265</ele>
        <time>2019-09-29T08:44:25.000Z</time>
      </trkpt>
      <trkpt lat="47.30438" lon="-2.27896">
        <ele>15.199999809265</ele>
        <time>2019-09-29T08:44:26.000Z</time>
      </trkpt>
      <trkpt lat="47.3046" lon="-2.27907">
        <ele>15.199999809265</ele>
        <time>2019-09-29T08:44:30.000Z</time>
      </trkpt>
      <trkpt lat="47.30488" lon="-2.27919">
        <ele>15.199999809265</ele>
        <time>2019-09-29T08:44:35.000Z</time>
      </trkpt>
      <trkpt lat="47.30493" lon="-2.2792">
        <ele>15.199999809265</ele>
        <time>2019-09-29T08:44:36.000Z</time>
      </trkpt>
      <trkpt lat="47.30513" lon="-2.27924">
        <ele>15.199999809265</ele>
        <time>2019-09-29T08:44:41.000Z</time>
      </trkpt>
      <trkpt lat="47.30519" lon="-2.27931">
        <ele>15.199999809265</ele>
        <time>2019-09-29T08:44:45.000Z</time>
      </trkpt>
      <trkpt lat="47.3052" lon="-2.27935">
        <ele>15.199999809265</ele>
        <time>2019-09-29T08:44:46.000Z</time>
      </trkpt>
      <trkpt lat="47.30521" lon="-2.27952">
        <ele>15.199999809265</ele>
        <time>2019-09-29T08:44:49.000Z</time>
      </trkpt>
      <trkpt lat="47.30522" lon="-2.27959">
        <ele>15.199999809265</ele>
        <time>2019-09-29T08:44:50.000Z</time>
      </trkpt>
      <trkpt lat="47.30525" lon="-2.27973">
        <ele>15.199999809265</ele>
        <time>2019-09-29T08:44:52.000Z</time>
      </trkpt>
      <trkpt lat="47.30534" lon="-2.27997">
        <ele>15.199999809265</ele>
        <time>2019-09-29T08:44:56.000Z</time>
      </trkpt>
      <trkpt lat="47.30551" lon="-2.28023">
        <ele>15.199999809265</ele>
        <time>2019-09-29T08:45:02.000Z</time>
      </trkpt>
      <trkpt lat="47.3057" lon="-2.28033">
        <ele>15.199999809265</ele>
        <time>2019-09-29T08:45:06.000Z</time>
      </trkpt>
      <trkpt lat="47.30575" lon="-2.28035">
        <ele>15.199999809265</ele>
        <time>2019-09-29T08:45:07.000Z</time>
      </trkpt>
      <trkpt lat="47.30591" lon="-2.28041">
        <ele>15.199999809265</ele>
        <time>2019-09-29T08:45:10.000Z</time>
      </trkpt>
      <trkpt lat="47.30601" lon="-2.28049">
        <ele>15.199999809265</ele>
        <time>2019-09-29T08:45:12.000Z</time>
      </trkpt>
      <trkpt lat="47.30631" lon="-2.28079">
        <ele>15.199999809265</ele>
        <time>2019-09-29T08:45:18.000Z</time>
      </trkpt>
      <trkpt lat="47.30669" lon="-2.28117">
        <ele>15.199999809265</ele>
        <time>2019-09-29T08:45:26.000Z</time>
      </trkpt>
      <trkpt lat="47.30707" lon="-2.28156">
        <ele>15.199999809265</ele>
        <time>2019-09-29T08:45:33.000Z</time>
      </trkpt>
      <trkpt lat="47.30737" lon="-2.28195">
        <ele>15.199999809265</ele>
        <time>2019-09-29T08:45:39.000Z</time>
      </trkpt>
      <trkpt lat="47.30766" lon="-2.2823">
        <ele>15.199999809265</ele>
        <time>2019-09-29T08:45:45.000Z</time>
      </trkpt>
      <trkpt lat="47.30776" lon="-2.28239">
        <ele>15.199999809265</ele>
        <time>2019-09-29T08:45:47.000Z</time>
      </trkpt>
      <trkpt lat="47.30805" lon="-2.28251">
        <ele>15.199999809265</ele>
        <time>2019-09-29T08:45:50.000Z</time>
      </trkpt>
      <trkpt lat="47.30805" lon="-2.28251">
        <ele>15.199999809265</ele>
        <time>2019-09-29T08:45:52.000Z</time>
      </trkpt>
      <trkpt lat="47.30816" lon="-2.28253">
        <ele>15.199999809265</ele>
        <time>2019-09-29T08:45:54.000Z</time>
      </trkpt>
      <trkpt lat="47.30833" lon="-2.28251">
        <ele>15.199999809265</ele>
        <time>2019-09-29T08:45:57.000Z</time>
      </trkpt>
      <trkpt lat="47.30838" lon="-2.28249">
        <ele>15.199999809265</ele>
        <time>2019-09-29T08:45:58.000Z</time>
      </trkpt>
      <trkpt lat="47.30857" lon="-2.28237">
        <ele>15.199999809265</ele>
        <time>2019-09-29T08:46:02.000Z</time>
      </trkpt>
      <trkpt lat="47.3087" lon="-2.28221">
        <ele>15.199999809265</ele>
        <time>2019-09-29T08:46:05.000Z</time>
      </trkpt>
      <trkpt lat="47.30877" lon="-2.28209">
        <ele>15.199999809265</ele>
        <time>2019-09-29T08:46:07.000Z</time>
      </trkpt>
      <trkpt lat="47.30901" lon="-2.28165">
        <ele>15.199999809265</ele>
        <time>2019-09-29T08:46:14.000Z</time>
      </trkpt>
      <trkpt lat="47.30928" lon="-2.28124">
        <ele>15.199999809265</ele>
        <time>2019-09-29T08:46:19.000Z</time>
      </trkpt>
      <trkpt lat="47.30928" lon="-2.28124">
        <ele>15.199999809265</ele>
        <time>2019-09-29T08:46:21.000Z</time>
      </trkpt>
      <trkpt lat="47.30937" lon="-2.28112">
        <ele>15.199999809265</ele>
        <time>2019-09-29T08:46:23.000Z</time>
      </trkpt>
      <trkpt lat="47.30952" lon="-2.28098">
        <ele>14.800000190735</ele>
        <time>2019-09-29T08:46:25.000Z</time>
      </trkpt>
      <trkpt lat="47.30959" lon="-2.28092">
        <ele>14.39999961853</ele>
        <time>2019-09-29T08:46:26.000Z</time>
      </trkpt>
      <trkpt lat="47.30966" lon="-2.28086">
        <ele>14</ele>
        <time>2019-09-29T08:46:27.000Z</time>
      </trkpt>
      <trkpt lat="47.30973" lon="-2.28081">
        <ele>13.60000038147</ele>
        <time>2019-09-29T08:46:28.000Z</time>
      </trkpt>
      <trkpt lat="47.30979" lon="-2.28077">
        <ele>13.199999809265</ele>
        <time>2019-09-29T08:46:29.000Z</time>
      </trkpt>
      <trkpt lat="47.30986" lon="-2.28073">
        <ele>13.199999809265</ele>
        <time>2019-09-29T08:46:30.000Z</time>
      </trkpt>
      <trkpt lat="47.31019" lon="-2.28049">
        <ele>13.199999809265</ele>
        <time>2019-09-29T08:46:36.000Z</time>
      </trkpt>
      <trkpt lat="47.31052" lon="-2.28009">
        <ele>13.199999809265</ele>
        <time>2019-09-29T08:46:41.000Z</time>
      </trkpt>
      <trkpt lat="47.31052" lon="-2.28009">
        <ele>13.199999809265</ele>
        <time>2019-09-29T08:46:43.000Z</time>
      </trkpt>
      <trkpt lat="47.3108" lon="-2.27964">
        <ele>13.199999809265</ele>
        <time>2019-09-29T08:46:50.000Z</time>
      </trkpt>
      <trkpt lat="47.31092" lon="-2.27946">
        <ele>13.199999809265</ele>
        <time>2019-09-29T08:46:53.000Z</time>
      </trkpt>
      <trkpt lat="47.31096" lon="-2.27939">
        <ele>13.199999809265</ele>
        <time>2019-09-29T08:46:54.000Z</time>
      </trkpt>
      <trkpt lat="47.31114" lon="-2.27911">
        <ele>13.199999809265</ele>
        <time>2019-09-29T08:46:58.000Z</time>
      </trkpt>
      <trkpt lat="47.31118" lon="-2.27904">
        <ele>13.199999809265</ele>
        <time>2019-09-29T08:46:59.000Z</time>
      </trkpt>
      <trkpt lat="47.31138" lon="-2.2787">
        <ele>13.199999809265</ele>
        <time>2019-09-29T08:47:04.000Z</time>
      </trkpt>
      <trkpt lat="47.31141" lon="-2.27862">
        <ele>13.199999809265</ele>
        <time>2019-09-29T08:47:05.000Z</time>
      </trkpt>
      <trkpt lat="47.31145" lon="-2.27852">
        <ele>13.199999809265</ele>
        <time>2019-09-29T08:47:06.000Z</time>
      </trkpt>
      <trkpt lat="47.31153" lon="-2.27816">
        <ele>13.199999809265</ele>
        <time>2019-09-29T08:47:10.000Z</time>
      </trkpt>
      <trkpt lat="47.31154" lon="-2.27791">
        <ele>13.199999809265</ele>
        <time>2019-09-29T08:47:13.000Z</time>
      </trkpt>
      <trkpt lat="47.31153" lon="-2.27775">
        <ele>13.199999809265</ele>
        <time>2019-09-29T08:47:15.000Z</time>
      </trkpt>
      <trkpt lat="47.31149" lon="-2.27744">
        <ele>13.199999809265</ele>
        <time>2019-09-29T08:47:21.000Z</time>
      </trkpt>
      <trkpt lat="47.31159" lon="-2.27739">
        <ele>13.199999809265</ele>
        <time>2019-09-29T08:47:24.000Z</time>
      </trkpt>
      <trkpt lat="47.31173" lon="-2.27731">
        <ele>13.199999809265</ele>
        <time>2019-09-29T08:47:27.000Z</time>
      </trkpt>
      <trkpt lat="47.31179" lon="-2.27728">
        <ele>13.199999809265</ele>
        <time>2019-09-29T08:47:28.000Z</time>
      </trkpt>
      <trkpt lat="47.31191" lon="-2.27724">
        <ele>13.199999809265</ele>
        <time>2019-09-29T08:47:30.000Z</time>
      </trkpt>
      <trkpt lat="47.312" lon="-2.27725">
        <ele>13.199999809265</ele>
        <time>2019-09-29T08:47:32.000Z</time>
      </trkpt>
      <trkpt lat="47.31206" lon="-2.27728">
        <ele>13.60000038147</ele>
        <time>2019-09-29T08:47:33.000Z</time>
      </trkpt>
      <trkpt lat="47.31211" lon="-2.27735">
        <ele>14</ele>
        <time>2019-09-29T08:47:34.000Z</time>
      </trkpt>
      <trkpt lat="47.31216" lon="-2.27741">
        <ele>14.39999961853</ele>
        <time>2019-09-29T08:47:35.000Z</time>
      </trkpt>
      <trkpt lat="47.3122" lon="-2.2775">
        <ele>14.800000190735</ele>
        <time>2019-09-29T08:47:36.000Z</time>
      </trkpt>
      <trkpt lat="47.31224" lon="-2.27757">
        <ele>15.199999809265</ele>
        <time>2019-09-29T08:47:37.000Z</time>
      </trkpt>
      <trkpt lat="47.31233" lon="-2.2777">
        <ele>15.199999809265</ele>
        <time>2019-09-29T08:47:39.000Z</time>
      </trkpt>
      <trkpt lat="47.3125" lon="-2.27774">
        <ele>15.199999809265</ele>
        <time>2019-09-29T08:47:42.000Z</time>
      </trkpt>
      <trkpt lat="47.3127" lon="-2.27771">
        <ele>15.199999809265</ele>
        <time>2019-09-29T08:47:45.000Z</time>
      </trkpt>
      <trkpt lat="47.31288" lon="-2.27767">
        <ele>15.199999809265</ele>
        <time>2019-09-29T08:47:48.000Z</time>
      </trkpt>
      <trkpt lat="47.3133" lon="-2.27761">
        <ele>15.199999809265</ele>
        <time>2019-09-29T08:47:55.000Z</time>
      </trkpt>
      <trkpt lat="47.31371" lon="-2.27749">
        <ele>15.199999809265</ele>
        <time>2019-09-29T08:48:02.000Z</time>
      </trkpt>
      <trkpt lat="47.31411" lon="-2.2773">
        <ele>15.199999809265</ele>
        <time>2019-09-29T08:48:09.000Z</time>
      </trkpt>
      <trkpt lat="47.31417" lon="-2.27726">
        <ele>15.199999809265</ele>
        <time>2019-09-29T08:48:10.000Z</time>
      </trkpt>
      <trkpt lat="47.31446" lon="-2.27705">
        <ele>15.199999809265</ele>
        <time>2019-09-29T08:48:15.000Z</time>
      </trkpt>
      <trkpt lat="47.31465" lon="-2.27683">
        <ele>15.199999809265</ele>
        <time>2019-09-29T08:48:19.000Z</time>
      </trkpt>
      <trkpt lat="47.31473" lon="-2.2767">
        <ele>15.199999809265</ele>
        <time>2019-09-29T08:48:21.000Z</time>
      </trkpt>
      <trkpt lat="47.31481" lon="-2.27655">
        <ele>15.199999809265</ele>
        <time>2019-09-29T08:48:23.000Z</time>
      </trkpt>
      <trkpt lat="47.31491" lon="-2.27621">
        <ele>15.199999809265</ele>
        <time>2019-09-29T08:48:27.000Z</time>
      </trkpt>
      <trkpt lat="47.31492" lon="-2.27583">
        <ele>15.199999809265</ele>
        <time>2019-09-29T08:48:31.000Z</time>
      </trkpt>
      <trkpt lat="47.31491" lon="-2.27574">
        <ele>15.199999809265</ele>
        <time>2019-09-29T08:48:32.000Z</time>
      </trkpt>
      <trkpt lat="47.31489" lon="-2.27557">
        <ele>15.199999809265</ele>
        <time>2019-09-29T08:48:34.000Z</time>
      </trkpt>
      <trkpt lat="47.31481" lon="-2.27534">
        <ele>15.199999809265</ele>
        <time>2019-09-29T08:48:37.000Z</time>
      </trkpt>
      <trkpt lat="47.31473" lon="-2.2752">
        <ele>15.199999809265</ele>
        <time>2019-09-29T08:48:39.000Z</time>
      </trkpt>
      <trkpt lat="47.31466" lon="-2.27496">
        <ele>15.199999809265</ele>
        <time>2019-09-29T08:48:42.000Z</time>
      </trkpt>
      <trkpt lat="47.3145" lon="-2.2745">
        <ele>15.199999809265</ele>
        <time>2019-09-29T08:48:48.000Z</time>
      </trkpt>
      <trkpt lat="47.31445" lon="-2.27444">
        <ele>15.199999809265</ele>
        <time>2019-09-29T08:48:49.000Z</time>
      </trkpt>
      <trkpt lat="47.3143" lon="-2.2743">
        <ele>15.199999809265</ele>
        <time>2019-09-29T08:48:52.000Z</time>
      </trkpt>
      <trkpt lat="47.31419" lon="-2.27421">
        <ele>15.199999809265</ele>
        <time>2019-09-29T08:48:54.000Z</time>
      </trkpt>
      <trkpt lat="47.31386" lon="-2.27388">
        <ele>15.199999809265</ele>
        <time>2019-09-29T08:49:00.000Z</time>
      </trkpt>
      <trkpt lat="47.31349" lon="-2.27341">
        <ele>15.199999809265</ele>
        <time>2019-09-29T08:49:06.000Z</time>
      </trkpt>
      <trkpt lat="47.31324" lon="-2.27302">
        <ele>15.199999809265</ele>
        <time>2019-09-29T08:49:14.000Z</time>
      </trkpt>
      <trkpt lat="47.31304" lon="-2.27262">
        <ele>15.199999809265</ele>
        <time>2019-09-29T08:49:20.000Z</time>
      </trkpt>
      <trkpt lat="47.31288" lon="-2.27206">
        <ele>15.199999809265</ele>
        <time>2019-09-29T08:49:27.000Z</time>
      </trkpt>
      <trkpt lat="47.31284" lon="-2.27189">
        <ele>15.60000038147</ele>
        <time>2019-09-29T08:49:29.000Z</time>
      </trkpt>
      <trkpt lat="47.31282" lon="-2.27181">
        <ele>16</ele>
        <time>2019-09-29T08:49:30.000Z</time>
      </trkpt>
      <trkpt lat="47.31281" lon="-2.27173">
        <ele>16.39999961853</ele>
        <time>2019-09-29T08:49:31.000Z</time>
      </trkpt>
      <trkpt lat="47.31279" lon="-2.27165">
        <ele>16.799999237061</ele>
        <time>2019-09-29T08:49:32.000Z</time>
      </trkpt>
      <trkpt lat="47.31277" lon="-2.27157">
        <ele>17.39999961853</ele>
        <time>2019-09-29T08:49:33.000Z</time>
      </trkpt>
      <trkpt lat="47.31276" lon="-2.2715">
        <ele>17.39999961853</ele>
        <time>2019-09-29T08:49:34.000Z</time>
      </trkpt>
      <trkpt lat="47.31273" lon="-2.27122">
        <ele>17.39999961853</ele>
        <time>2019-09-29T08:49:39.000Z</time>
      </trkpt>
      <trkpt lat="47.31275" lon="-2.27105">
        <ele>17.39999961853</ele>
        <time>2019-09-29T08:49:43.000Z</time>
      </trkpt>
      <trkpt lat="47.31281" lon="-2.27096">
        <ele>17.39999961853</ele>
        <time>2019-09-29T08:49:45.000Z</time>
      </trkpt>
      <trkpt lat="47.3129" lon="-2.2709">
        <ele>17.39999961853</ele>
        <time>2019-09-29T08:49:47.000Z</time>
      </trkpt>
      <trkpt lat="47.31327" lon="-2.27073">
        <ele>17.39999961853</ele>
        <time>2019-09-29T08:49:54.000Z</time>
      </trkpt>
      <trkpt lat="47.31372" lon="-2.27057">
        <ele>17.39999961853</ele>
        <time>2019-09-29T08:50:01.000Z</time>
      </trkpt>
      <trkpt lat="47.3141" lon="-2.27036">
        <ele>17.39999961853</ele>
        <time>2019-09-29T08:50:07.000Z</time>
      </trkpt>
      <trkpt lat="47.31452" lon="-2.27005">
        <ele>17.39999961853</ele>
        <time>2019-09-29T08:50:14.000Z</time>
      </trkpt>
      <trkpt lat="47.31493" lon="-2.2698">
        <ele>17.39999961853</ele>
        <time>2019-09-29T08:50:21.000Z</time>
      </trkpt>
      <trkpt lat="47.31516" lon="-2.26978">
        <ele>16.799999237061</ele>
        <time>2019-09-29T08:50:25.000Z</time>
      </trkpt>
      <trkpt lat="47.31521" lon="-2.26979">
        <ele>16.39999961853</ele>
        <time>2019-09-29T08:50:26.000Z</time>
      </trkpt>
      <trkpt lat="47.31527" lon="-2.26981">
        <ele>16</ele>
        <time>2019-09-29T08:50:27.000Z</time>
      </trkpt>
      <trkpt lat="47.31533" lon="-2.26983">
        <ele>15.60000038147</ele>
        <time>2019-09-29T08:50:28.000Z</time>
      </trkpt>
      <trkpt lat="47.31539" lon="-2.26986">
        <ele>15.199999809265</ele>
        <time>2019-09-29T08:50:29.000Z</time>
      </trkpt>
      <trkpt lat="47.31551" lon="-2.2699">
        <ele>15.199999809265</ele>
        <time>2019-09-29T08:50:31.000Z</time>
      </trkpt>
      <trkpt lat="47.31591" lon="-2.27001">
        <ele>15.199999809265</ele>
        <time>2019-09-29T08:50:37.000Z</time>
      </trkpt>
      <trkpt lat="47.31632" lon="-2.27014">
        <ele>15.199999809265</ele>
        <time>2019-09-29T08:50:44.000Z</time>
      </trkpt>
      <trkpt lat="47.31691" lon="-2.27034">
        <ele>15.199999809265</ele>
        <time>2019-09-29T08:50:52.000Z</time>
      </trkpt>
      <trkpt lat="47.31734" lon="-2.27047">
        <ele>15.199999809265</ele>
        <time>2019-09-29T08:51:01.000Z</time>
      </trkpt>
      <trkpt lat="47.31788" lon="-2.27065">
        <ele>15.199999809265</ele>
        <time>2019-09-29T08:51:10.000Z</time>
      </trkpt>
      <trkpt lat="47.31816" lon="-2.27074">
        <ele>15.199999809265</ele>
        <time>2019-09-29T08:51:16.000Z</time>
      </trkpt>
      <trkpt lat="47.31838" lon="-2.27081">
        <ele>15.199999809265</ele>
        <time>2019-09-29T08:51:21.000Z</time>
      </trkpt>
      <trkpt lat="47.31848" lon="-2.27094">
        <ele>16.39999961853</ele>
        <time>2019-09-29T08:51:22.000Z</time>
      </trkpt>
      <trkpt lat="47.31848" lon="-2.27094">
        <ele>16.39999961853</ele>
        <time>2019-09-29T08:51:24.000Z</time>
      </trkpt>
      <trkpt lat="47.3185" lon="-2.271">
        <ele>17</ele>
        <time>2019-09-29T08:51:25.000Z</time>
      </trkpt>
      <trkpt lat="47.31851" lon="-2.27122">
        <ele>17.39999961853</ele>
        <time>2019-09-29T08:51:26.000Z</time>
      </trkpt>
      <trkpt lat="47.31851" lon="-2.27122">
        <ele>17.39999961853</ele>
        <time>2019-09-29T08:51:28.000Z</time>
      </trkpt>
      <trkpt lat="47.31853" lon="-2.27178">
        <ele>17.39999961853</ele>
        <time>2019-09-29T08:51:35.000Z</time>
      </trkpt>
      <trkpt lat="47.31854" lon="-2.27201">
        <ele>17.39999961853</ele>
        <time>2019-09-29T08:51:38.000Z</time>
      </trkpt>
      <trkpt lat="47.31855" lon="-2.27223">
        <ele>17.39999961853</ele>
        <time>2019-09-29T08:51:41.000Z</time>
      </trkpt>
      <trkpt lat="47.31854" lon="-2.27235">
        <ele>17.799999237061</ele>
        <time>2019-09-29T08:51:43.000Z</time>
      </trkpt>
      <trkpt lat="47.31854" lon="-2.27241">
        <ele>18.200000762939</ele>
        <time>2019-09-29T08:51:44.000Z</time>
      </trkpt>
      <trkpt lat="47.31854" lon="-2.27247">
        <ele>18.60000038147</ele>
        <time>2019-09-29T08:51:45.000Z</time>
      </trkpt>
      <trkpt lat="47.31854" lon="-2.27254">
        <ele>19</ele>
        <time>2019-09-29T08:51:46.000Z</time>
      </trkpt>
      <trkpt lat="47.31854" lon="-2.27261">
        <ele>19.39999961853</ele>
        <time>2019-09-29T08:51:47.000Z</time>
      </trkpt>
      <trkpt lat="47.31855" lon="-2.27305">
        <ele>19.39999961853</ele>
        <time>2019-09-29T08:51:53.000Z</time>
      </trkpt>
      <trkpt lat="47.31859" lon="-2.27363">
        <ele>19.39999961853</ele>
        <time>2019-09-29T08:52:00.000Z</time>
      </trkpt>
      <trkpt lat="47.31861" lon="-2.27415">
        <ele>19</ele>
        <time>2019-09-29T08:52:06.000Z</time>
      </trkpt>
      <trkpt lat="47.31861" lon="-2.27424">
        <ele>18.60000038147</ele>
        <time>2019-09-29T08:52:07.000Z</time>
      </trkpt>
      <trkpt lat="47.31861" lon="-2.27432">
        <ele>18.200000762939</ele>
        <time>2019-09-29T08:52:08.000Z</time>
      </trkpt>
      <trkpt lat="47.31861" lon="-2.27442">
        <ele>17.799999237061</ele>
        <time>2019-09-29T08:52:09.000Z</time>
      </trkpt>
      <trkpt lat="47.31862" lon="-2.2745">
        <ele>17.200000762939</ele>
        <time>2019-09-29T08:52:10.000Z</time>
      </trkpt>
      <trkpt lat="47.31861" lon="-2.27471">
        <ele>17.200000762939</ele>
        <time>2019-09-29T08:52:13.000Z</time>
      </trkpt>
      <trkpt lat="47.31864" lon="-2.27516">
        <ele>17.200000762939</ele>
        <time>2019-09-29T08:52:19.000Z</time>
      </trkpt>
      <trkpt lat="47.31865" lon="-2.27539">
        <ele>17.200000762939</ele>
        <time>2019-09-29T08:52:22.000Z</time>
      </trkpt>
      <trkpt lat="47.31866" lon="-2.27555">
        <ele>17.200000762939</ele>
        <time>2019-09-29T08:52:24.000Z</time>
      </trkpt>
      <trkpt lat="47.31866" lon="-2.27587">
        <ele>17.200000762939</ele>
        <time>2019-09-29T08:52:28.000Z</time>
      </trkpt>
      <trkpt lat="47.31867" lon="-2.27603">
        <ele>17.200000762939</ele>
        <time>2019-09-29T08:52:30.000Z</time>
      </trkpt>
      <trkpt lat="47.31869" lon="-2.27653">
        <ele>17.200000762939</ele>
        <time>2019-09-29T08:52:36.000Z</time>
      </trkpt>
      <trkpt lat="47.3187" lon="-2.27711">
        <ele>17.200000762939</ele>
        <time>2019-09-29T08:52:43.000Z</time>
      </trkpt>
      <trkpt lat="47.31868" lon="-2.27738">
        <ele>17.200000762939</ele>
        <time>2019-09-29T08:52:46.000Z</time>
      </trkpt>
      <trkpt lat="47.31868" lon="-2.27764">
        <ele>17.200000762939</ele>
        <time>2019-09-29T08:52:49.000Z</time>
      </trkpt>
      <trkpt lat="47.31867" lon="-2.27842">
        <ele>17.200000762939</ele>
        <time>2019-09-29T08:52:56.000Z</time>
      </trkpt>
      <trkpt lat="47.31864" lon="-2.27884">
        <ele>17.799999237061</ele>
        <time>2019-09-29T08:53:03.000Z</time>
      </trkpt>
      <trkpt lat="47.31864" lon="-2.27892">
        <ele>18.60000038147</ele>
        <time>2019-09-29T08:53:04.000Z</time>
      </trkpt>
      <trkpt lat="47.31864" lon="-2.279">
        <ele>19</ele>
        <time>2019-09-29T08:53:05.000Z</time>
      </trkpt>
      <trkpt lat="47.31864" lon="-2.27908">
        <ele>19.60000038147</ele>
        <time>2019-09-29T08:53:06.000Z</time>
      </trkpt>
      <trkpt lat="47.31863" lon="-2.27969">
        <ele>19.60000038147</ele>
        <time>2019-09-29T08:53:13.000Z</time>
      </trkpt>
      <trkpt lat="47.31864" lon="-2.28029">
        <ele>19.60000038147</ele>
        <time>2019-09-29T08:53:20.000Z</time>
      </trkpt>
      <trkpt lat="47.31866" lon="-2.28081">
        <ele>19.60000038147</ele>
        <time>2019-09-29T08:53:25.000Z</time>
      </trkpt>
      <trkpt lat="47.31866" lon="-2.28081">
        <ele>19.60000038147</ele>
        <time>2019-09-29T08:53:27.000Z</time>
      </trkpt>
      <trkpt lat="47.31866" lon="-2.28131">
        <ele>19.200000762939</ele>
        <time>2019-09-29T08:53:33.000Z</time>
      </trkpt>
      <trkpt lat="47.31866" lon="-2.28139">
        <ele>18.60000038147</ele>
        <time>2019-09-29T08:53:34.000Z</time>
      </trkpt>
      <trkpt lat="47.31866" lon="-2.28147">
        <ele>18.200000762939</ele>
        <time>2019-09-29T08:53:35.000Z</time>
      </trkpt>
      <trkpt lat="47.31866" lon="-2.28155">
        <ele>17.799999237061</ele>
        <time>2019-09-29T08:53:36.000Z</time>
      </trkpt>
      <trkpt lat="47.31866" lon="-2.28164">
        <ele>17.39999961853</ele>
        <time>2019-09-29T08:53:37.000Z</time>
      </trkpt>
      <trkpt lat="47.31863" lon="-2.28186">
        <ele>17.39999961853</ele>
        <time>2019-09-29T08:53:40.000Z</time>
      </trkpt>
      <trkpt lat="47.31863" lon="-2.28193">
        <ele>17.39999961853</ele>
        <time>2019-09-29T08:53:41.000Z</time>
      </trkpt>
      <trkpt lat="47.31864" lon="-2.28216">
        <ele>17.39999961853</ele>
        <time>2019-09-29T08:53:45.000Z</time>
      </trkpt>
      <trkpt lat="47.31867" lon="-2.28245">
        <ele>17.39999961853</ele>
        <time>2019-09-29T08:53:51.000Z</time>
      </trkpt>
      <trkpt lat="47.31869" lon="-2.28262">
        <ele>17.39999961853</ele>
        <time>2019-09-29T08:53:57.000Z</time>
      </trkpt>
      <trkpt lat="47.31866" lon="-2.28275">
        <ele>17.39999961853</ele>
        <time>2019-09-29T08:54:02.000Z</time>
      </trkpt>
      <trkpt lat="47.31865" lon="-2.28276">
        <ele>17.39999961853</ele>
        <time>2019-09-29T08:54:05.000Z</time>
      </trkpt>
      <trkpt lat="47.31865" lon="-2.28275">
        <ele>17.39999961853</ele>
        <time>2019-09-29T08:54:06.000Z</time>
      </trkpt>
      <trkpt lat="47.31869" lon="-2.2828">
        <ele>17.39999961853</ele>
        <time>2019-09-29T09:21:21.000Z</time>
      </trkpt>
      <trkpt lat="47.3187" lon="-2.28282">
        <ele>17.39999961853</ele>
        <time>2019-09-29T09:21:22.000Z</time>
      </trkpt>
      <trkpt lat="47.31872" lon="-2.28288">
        <ele>17.39999961853</ele>
        <time>2019-09-29T09:21:25.000Z</time>
      </trkpt>
      <trkpt lat="47.31873" lon="-2.28294">
        <ele>17.39999961853</ele>
        <time>2019-09-29T09:21:27.000Z</time>
      </trkpt>
      <trkpt lat="47.31878" lon="-2.28317">
        <ele>17.39999961853</ele>
        <time>2019-09-29T09:21:32.000Z</time>
      </trkpt>
      <trkpt lat="47.31889" lon="-2.28364">
        <ele>17.39999961853</ele>
        <time>2019-09-29T09:21:40.000Z</time>
      </trkpt>
      <trkpt lat="47.319" lon="-2.28423">
        <ele>17.39999961853</ele>
        <time>2019-09-29T09:21:49.000Z</time>
      </trkpt>
      <trkpt lat="47.31901" lon="-2.28478">
        <ele>17.39999961853</ele>
        <time>2019-09-29T09:21:57.000Z</time>
      </trkpt>
      <trkpt lat="47.31901" lon="-2.28525">
        <ele>17.39999961853</ele>
        <time>2019-09-29T09:22:03.000Z</time>
      </trkpt>
      <trkpt lat="47.31901" lon="-2.2854">
        <ele>17.39999961853</ele>
        <time>2019-09-29T09:22:05.000Z</time>
      </trkpt>
      <trkpt lat="47.31902" lon="-2.28575">
        <ele>17.39999961853</ele>
        <time>2019-09-29T09:22:10.000Z</time>
      </trkpt>
      <trkpt lat="47.31901" lon="-2.28581">
        <ele>17.39999961853</ele>
        <time>2019-09-29T09:22:11.000Z</time>
      </trkpt>
      <trkpt lat="47.31896" lon="-2.28607">
        <ele>17.39999961853</ele>
        <time>2019-09-29T09:22:15.000Z</time>
      </trkpt>
      <trkpt lat="47.31895" lon="-2.28613">
        <ele>17.39999961853</ele>
        <time>2019-09-29T09:22:16.000Z</time>
      </trkpt>
      <trkpt lat="47.31894" lon="-2.28635">
        <ele>17.39999961853</ele>
        <time>2019-09-29T09:22:21.000Z</time>
      </trkpt>
      <trkpt lat="47.31887" lon="-2.28659">
        <ele>17.39999961853</ele>
        <time>2019-09-29T09:22:26.000Z</time>
      </trkpt>
      <trkpt lat="47.31887" lon="-2.28666">
        <ele>17.39999961853</ele>
        <time>2019-09-29T09:22:27.000Z</time>
      </trkpt>
      <trkpt lat="47.31883" lon="-2.28705">
        <ele>17.39999961853</ele>
        <time>2019-09-29T09:22:34.000Z</time>
      </trkpt>
      <trkpt lat="47.31879" lon="-2.28747">
        <ele>17</ele>
        <time>2019-09-29T09:22:40.000Z</time>
      </trkpt>
      <trkpt lat="47.31879" lon="-2.28754">
        <ele>16.60000038147</ele>
        <time>2019-09-29T09:22:41.000Z</time>
      </trkpt>
      <trkpt lat="47.31879" lon="-2.28761">
        <ele>16.200000762939</ele>
        <time>2019-09-29T09:22:42.000Z</time>
      </trkpt>
      <trkpt lat="47.31878" lon="-2.28768">
        <ele>15.800000190735</ele>
        <time>2019-09-29T09:22:43.000Z</time>
      </trkpt>
      <trkpt lat="47.31876" lon="-2.28775">
        <ele>15.39999961853</ele>
        <time>2019-09-29T09:22:44.000Z</time>
      </trkpt>
      <trkpt lat="47.31874" lon="-2.28804">
        <ele>15.39999961853</ele>
        <time>2019-09-29T09:22:48.000Z</time>
      </trkpt>
      <trkpt lat="47.3187" lon="-2.28835">
        <ele>15.39999961853</ele>
        <time>2019-09-29T09:22:53.000Z</time>
      </trkpt>
      <trkpt lat="47.31867" lon="-2.28851">
        <ele>15.39999961853</ele>
        <time>2019-09-29T09:22:56.000Z</time>
      </trkpt>
      <trkpt lat="47.31866" lon="-2.28858">
        <ele>15.39999961853</ele>
        <time>2019-09-29T09:22:57.000Z</time>
      </trkpt>
      <trkpt lat="47.31866" lon="-2.28882">
        <ele>15.39999961853</ele>
        <time>2019-09-29T09:23:01.000Z</time>
      </trkpt>
      <trkpt lat="47.31866" lon="-2.28896">
        <ele>15.39999961853</ele>
        <time>2019-09-29T09:23:03.000Z</time>
      </trkpt>
      <trkpt lat="47.31864" lon="-2.2894">
        <ele>15.39999961853</ele>
        <time>2019-09-29T09:23:09.000Z</time>
      </trkpt>
      <trkpt lat="47.31862" lon="-2.28977">
        <ele>15.39999961853</ele>
        <time>2019-09-29T09:23:15.000Z</time>
      </trkpt>
      <trkpt lat="47.31861" lon="-2.28984">
        <ele>15.39999961853</ele>
        <time>2019-09-29T09:23:16.000Z</time>
      </trkpt>
      <trkpt lat="47.31855" lon="-2.29018">
        <ele>15.39999961853</ele>
        <time>2019-09-29T09:23:21.000Z</time>
      </trkpt>
      <trkpt lat="47.31844" lon="-2.29069">
        <ele>15.39999961853</ele>
        <time>2019-09-29T09:23:28.000Z</time>
      </trkpt>
      <trkpt lat="47.31835" lon="-2.2912">
        <ele>15.800000190735</ele>
        <time>2019-09-29T09:23:35.000Z</time>
      </trkpt>
      <trkpt lat="47.31834" lon="-2.29126">
        <ele>16.200000762939</ele>
        <time>2019-09-29T09:23:36.000Z</time>
      </trkpt>
      <trkpt lat="47.31832" lon="-2.29133">
        <ele>16.60000038147</ele>
        <time>2019-09-29T09:23:37.000Z</time>
      </trkpt>
      <trkpt lat="47.31831" lon="-2.29139">
        <ele>17</ele>
        <time>2019-09-29T09:23:38.000Z</time>
      </trkpt>
      <trkpt lat="47.3183" lon="-2.29145">
        <ele>17.39999961853</ele>
        <time>2019-09-29T09:23:39.000Z</time>
      </trkpt>
      <trkpt lat="47.31828" lon="-2.29169">
        <ele>17.39999961853</ele>
        <time>2019-09-29T09:23:43.000Z</time>
      </trkpt>
      <trkpt lat="47.31824" lon="-2.2921">
        <ele>18.60000038147</ele>
        <time>2019-09-29T09:23:48.000Z</time>
      </trkpt>
      <trkpt lat="47.31823" lon="-2.29229">
        <ele>19.60000038147</ele>
        <time>2019-09-29T09:23:51.000Z</time>
      </trkpt>
      <trkpt lat="47.31827" lon="-2.29249">
        <ele>19.60000038147</ele>
        <time>2019-09-29T09:23:57.000Z</time>
      </trkpt>
      <trkpt lat="47.31831" lon="-2.29271">
        <ele>20</ele>
        <time>2019-09-29T09:24:01.000Z</time>
      </trkpt>
      <trkpt lat="47.31831" lon="-2.29276">
        <ele>20.39999961853</ele>
        <time>2019-09-29T09:24:02.000Z</time>
      </trkpt>
      <trkpt lat="47.31832" lon="-2.29282">
        <ele>20.799999237061</ele>
        <time>2019-09-29T09:24:03.000Z</time>
      </trkpt>
      <trkpt lat="47.31833" lon="-2.29288">
        <ele>21.39999961853</ele>
        <time>2019-09-29T09:24:04.000Z</time>
      </trkpt>
      <trkpt lat="47.31833" lon="-2.29294">
        <ele>21.799999237061</ele>
        <time>2019-09-29T09:24:05.000Z</time>
      </trkpt>
      <trkpt lat="47.31836" lon="-2.29311">
        <ele>22.200000762939</ele>
        <time>2019-09-29T09:24:08.000Z</time>
      </trkpt>
      <trkpt lat="47.31836" lon="-2.29317">
        <ele>22.60000038147</ele>
        <time>2019-09-29T09:24:09.000Z</time>
      </trkpt>
      <trkpt lat="47.31836" lon="-2.29322">
        <ele>23</ele>
        <time>2019-09-29T09:24:10.000Z</time>
      </trkpt>
      <trkpt lat="47.31838" lon="-2.29328">
        <ele>23.39999961853</ele>
        <time>2019-09-29T09:24:11.000Z</time>
      </trkpt>
      <trkpt lat="47.31838" lon="-2.29334">
        <ele>23.799999237061</ele>
        <time>2019-09-29T09:24:12.000Z</time>
      </trkpt>
      <trkpt lat="47.31841" lon="-2.29353">
        <ele>23.799999237061</ele>
        <time>2019-09-29T09:24:15.000Z</time>
      </trkpt>
      <trkpt lat="47.31844" lon="-2.29365">
        <ele>23.799999237061</ele>
        <time>2019-09-29T09:24:17.000Z</time>
      </trkpt>
      <trkpt lat="47.31852" lon="-2.29409">
        <ele>23.799999237061</ele>
        <time>2019-09-29T09:24:24.000Z</time>
      </trkpt>
      <trkpt lat="47.31852" lon="-2.29421">
        <ele>23.799999237061</ele>
        <time>2019-09-29T09:24:26.000Z</time>
      </trkpt>
      <trkpt lat="47.31851" lon="-2.29446">
        <ele>23.799999237061</ele>
        <time>2019-09-29T09:24:30.000Z</time>
      </trkpt>
      <trkpt lat="47.31849" lon="-2.29472">
        <ele>23.799999237061</ele>
        <time>2019-09-29T09:24:34.000Z</time>
      </trkpt>
      <trkpt lat="47.3185" lon="-2.29486">
        <ele>23.799999237061</ele>
        <time>2019-09-29T09:24:36.000Z</time>
      </trkpt>
      <trkpt lat="47.31853" lon="-2.29506">
        <ele>23.799999237061</ele>
        <time>2019-09-29T09:24:39.000Z</time>
      </trkpt>
      <trkpt lat="47.31857" lon="-2.29518">
        <ele>23.799999237061</ele>
        <time>2019-09-29T09:24:41.000Z</time>
      </trkpt>
      <trkpt lat="47.31873" lon="-2.29576">
        <ele>23.799999237061</ele>
        <time>2019-09-29T09:24:49.000Z</time>
      </trkpt>
      <trkpt lat="47.31873" lon="-2.29596">
        <ele>23.799999237061</ele>
        <time>2019-09-29T09:24:56.000Z</time>
      </trkpt>
      <trkpt lat="47.31864" lon="-2.29612">
        <ele>23.799999237061</ele>
        <time>2019-09-29T09:25:00.000Z</time>
      </trkpt>
      <trkpt lat="47.31854" lon="-2.29624">
        <ele>23.799999237061</ele>
        <time>2019-09-29T09:25:03.000Z</time>
      </trkpt>
      <trkpt lat="47.31845" lon="-2.2963">
        <ele>23.799999237061</ele>
        <time>2019-09-29T09:25:05.000Z</time>
      </trkpt>
      <trkpt lat="47.31827" lon="-2.29641">
        <ele>23.799999237061</ele>
        <time>2019-09-29T09:25:09.000Z</time>
      </trkpt>
      <trkpt lat="47.31814" lon="-2.29649">
        <ele>23.799999237061</ele>
        <time>2019-09-29T09:25:12.000Z</time>
      </trkpt>
      <trkpt lat="47.31771" lon="-2.29677">
        <ele>23.799999237061</ele>
        <time>2019-09-29T09:25:22.000Z</time>
      </trkpt>
      <trkpt lat="47.31754" lon="-2.2969">
        <ele>24.200000762939</ele>
        <time>2019-09-29T09:25:26.000Z</time>
      </trkpt>
      <trkpt lat="47.31749" lon="-2.29693">
        <ele>24.60000038147</ele>
        <time>2019-09-29T09:25:27.000Z</time>
      </trkpt>
      <trkpt lat="47.31745" lon="-2.29697">
        <ele>25.200000762939</ele>
        <time>2019-09-29T09:25:28.000Z</time>
      </trkpt>
      <trkpt lat="47.31741" lon="-2.297">
        <ele>25.60000038147</ele>
        <time>2019-09-29T09:25:29.000Z</time>
      </trkpt>
      <trkpt lat="47.31737" lon="-2.29703">
        <ele>26</ele>
        <time>2019-09-29T09:25:30.000Z</time>
      </trkpt>
      <trkpt lat="47.31715" lon="-2.29721">
        <ele>26</ele>
        <time>2019-09-29T09:25:36.000Z</time>
      </trkpt>
      <trkpt lat="47.31711" lon="-2.29724">
        <ele>26</ele>
        <time>2019-09-29T09:25:37.000Z</time>
      </trkpt>
      <trkpt lat="47.31704" lon="-2.29728">
        <ele>26</ele>
        <time>2019-09-29T09:25:39.000Z</time>
      </trkpt>
      <trkpt lat="47.31695" lon="-2.29731">
        <ele>26.39999961853</ele>
        <time>2019-09-29T09:25:41.000Z</time>
      </trkpt>
      <trkpt lat="47.31691" lon="-2.29734">
        <ele>26.799999237061</ele>
        <time>2019-09-29T09:25:42.000Z</time>
      </trkpt>
      <trkpt lat="47.31687" lon="-2.29735">
        <ele>27.200000762939</ele>
        <time>2019-09-29T09:25:43.000Z</time>
      </trkpt>
      <trkpt lat="47.31682" lon="-2.29736">
        <ele>27.60000038147</ele>
        <time>2019-09-29T09:25:44.000Z</time>
      </trkpt>
      <trkpt lat="47.31677" lon="-2.29737">
        <ele>28</ele>
        <time>2019-09-29T09:25:45.000Z</time>
      </trkpt>
      <trkpt lat="47.31667" lon="-2.29736">
        <ele>28</ele>
        <time>2019-09-29T09:25:47.000Z</time>
      </trkpt>
      <trkpt lat="47.31655" lon="-2.29724">
        <ele>27.60000038147</ele>
        <time>2019-09-29T09:25:50.000Z</time>
      </trkpt>
      <trkpt lat="47.31652" lon="-2.2972">
        <ele>27.200000762939</ele>
        <time>2019-09-29T09:25:51.000Z</time>
      </trkpt>
      <trkpt lat="47.31649" lon="-2.29715">
        <ele>26.799999237061</ele>
        <time>2019-09-29T09:25:52.000Z</time>
      </trkpt>
      <trkpt lat="47.31646" lon="-2.2971">
        <ele>26.39999961853</ele>
        <time>2019-09-29T09:25:53.000Z</time>
      </trkpt>
      <trkpt lat="47.31644" lon="-2.29704">
        <ele>26</ele>
        <time>2019-09-29T09:25:54.000Z</time>
      </trkpt>
      <trkpt lat="47.31641" lon="-2.29698">
        <ele>26</ele>
        <time>2019-09-29T09:25:55.000Z</time>
      </trkpt>
      <trkpt lat="47.31639" lon="-2.2969">
        <ele>26</ele>
        <time>2019-09-29T09:25:56.000Z</time>
      </trkpt>
      <trkpt lat="47.31628" lon="-2.29653">
        <ele>26</ele>
        <time>2019-09-29T09:26:01.000Z</time>
      </trkpt>
      <trkpt lat="47.31615" lon="-2.29629">
        <ele>26</ele>
        <time>2019-09-29T09:26:05.000Z</time>
      </trkpt>
      <trkpt lat="47.31612" lon="-2.29623">
        <ele>26</ele>
        <time>2019-09-29T09:26:06.000Z</time>
      </trkpt>
      <trkpt lat="47.31604" lon="-2.29613">
        <ele>26</ele>
        <time>2019-09-29T09:26:08.000Z</time>
      </trkpt>
      <trkpt lat="47.31595" lon="-2.29607">
        <ele>26</ele>
        <time>2019-09-29T09:26:10.000Z</time>
      </trkpt>
      <trkpt lat="47.31587" lon="-2.29599">
        <ele>26</ele>
        <time>2019-09-29T09:26:12.000Z</time>
      </trkpt>
      <trkpt lat="47.31575" lon="-2.29583">
        <ele>26</ele>
        <time>2019-09-29T09:26:15.000Z</time>
      </trkpt>
      <trkpt lat="47.31557" lon="-2.29549">
        <ele>26</ele>
        <time>2019-09-29T09:26:21.000Z</time>
      </trkpt>
      <trkpt lat="47.31554" lon="-2.29543">
        <ele>26</ele>
        <time>2019-09-29T09:26:22.000Z</time>
      </trkpt>
      <trkpt lat="47.31544" lon="-2.29507">
        <ele>25.60000038147</ele>
        <time>2019-09-29T09:26:26.000Z</time>
      </trkpt>
      <trkpt lat="47.31542" lon="-2.29499">
        <ele>24.799999237061</ele>
        <time>2019-09-29T09:26:27.000Z</time>
      </trkpt>
      <trkpt lat="47.3154" lon="-2.29491">
        <ele>24.39999961853</ele>
        <time>2019-09-29T09:26:28.000Z</time>
      </trkpt>
      <trkpt lat="47.31539" lon="-2.29483">
        <ele>24</ele>
        <time>2019-09-29T09:26:29.000Z</time>
      </trkpt>
      <trkpt lat="47.31536" lon="-2.29475">
        <ele>24</ele>
        <time>2019-09-29T09:26:30.000Z</time>
      </trkpt>
      <trkpt lat="47.31531" lon="-2.29457">
        <ele>24</ele>
        <time>2019-09-29T09:26:32.000Z</time>
      </trkpt>
      <trkpt lat="47.31512" lon="-2.29411">
        <ele>24</ele>
        <time>2019-09-29T09:26:38.000Z</time>
      </trkpt>
      <trkpt lat="47.31503" lon="-2.29401">
        <ele>24</ele>
        <time>2019-09-29T09:26:40.000Z</time>
      </trkpt>
      <trkpt lat="47.31494" lon="-2.294">
        <ele>24</ele>
        <time>2019-09-29T09:26:42.000Z</time>
      </trkpt>
      <trkpt lat="47.31483" lon="-2.29401">
        <ele>24</ele>
        <time>2019-09-29T09:26:44.000Z</time>
      </trkpt>
      <trkpt lat="47.31472" lon="-2.29403">
        <ele>23.60000038147</ele>
        <time>2019-09-29T09:26:46.000Z</time>
      </trkpt>
      <trkpt lat="47.31466" lon="-2.29404">
        <ele>23.200000762939</ele>
        <time>2019-09-29T09:26:47.000Z</time>
      </trkpt>
      <trkpt lat="47.31461" lon="-2.29404">
        <ele>22.799999237061</ele>
        <time>2019-09-29T09:26:48.000Z</time>
      </trkpt>
      <trkpt lat="47.31458" lon="-2.29402">
        <ele>22.39999961853</ele>
        <time>2019-09-29T09:26:49.000Z</time>
      </trkpt>
      <trkpt lat="47.31454" lon="-2.29398">
        <ele>22</ele>
        <time>2019-09-29T09:26:50.000Z</time>
      </trkpt>
      <trkpt lat="47.3144" lon="-2.29379">
        <ele>22</ele>
        <time>2019-09-29T09:26:53.000Z</time>
      </trkpt>
      <trkpt lat="47.31435" lon="-2.29371">
        <ele>21.60000038147</ele>
        <time>2019-09-29T09:26:54.000Z</time>
      </trkpt>
      <trkpt lat="47.31431" lon="-2.29364">
        <ele>21.200000762939</ele>
        <time>2019-09-29T09:26:55.000Z</time>
      </trkpt>
      <trkpt lat="47.31426" lon="-2.29356">
        <ele>20.60000038147</ele>
        <time>2019-09-29T09:26:56.000Z</time>
      </trkpt>
      <trkpt lat="47.31419" lon="-2.29348">
        <ele>20.200000762939</ele>
        <time>2019-09-29T09:26:57.000Z</time>
      </trkpt>
      <trkpt lat="47.31412" lon="-2.2934">
        <ele>19.799999237061</ele>
        <time>2019-09-29T09:26:58.000Z</time>
      </trkpt>
      <trkpt lat="47.31405" lon="-2.29333">
        <ele>19.799999237061</ele>
        <time>2019-09-29T09:26:59.000Z</time>
      </trkpt>
      <trkpt lat="47.31382" lon="-2.2932">
        <ele>19.799999237061</ele>
        <time>2019-09-29T09:27:02.000Z</time>
      </trkpt>
      <trkpt lat="47.31374" lon="-2.29318">
        <ele>19.799999237061</ele>
        <time>2019-09-29T09:27:03.000Z</time>
      </trkpt>
      <trkpt lat="47.31366" lon="-2.29316">
        <ele>19.799999237061</ele>
        <time>2019-09-29T09:27:04.000Z</time>
      </trkpt>
      <trkpt lat="47.31345" lon="-2.29307">
        <ele>19.799999237061</ele>
        <time>2019-09-29T09:27:07.000Z</time>
      </trkpt>
      <trkpt lat="47.31314" lon="-2.293">
        <ele>19.799999237061</ele>
        <time>2019-09-29T09:27:12.000Z</time>
      </trkpt>
      <trkpt lat="47.31304" lon="-2.29303">
        <ele>19.39999961853</ele>
        <time>2019-09-29T09:27:14.000Z</time>
      </trkpt>
      <trkpt lat="47.31299" lon="-2.29306">
        <ele>19</ele>
        <time>2019-09-29T09:27:15.000Z</time>
      </trkpt>
      <trkpt lat="47.31296" lon="-2.2931">
        <ele>18</ele>
        <time>2019-09-29T09:27:16.000Z</time>
      </trkpt>
      <trkpt lat="47.31293" lon="-2.29314">
        <ele>17.60000038147</ele>
        <time>2019-09-29T09:27:17.000Z</time>
      </trkpt>
      <trkpt lat="47.31288" lon="-2.29322">
        <ele>17.60000038147</ele>
        <time>2019-09-29T09:27:19.000Z</time>
      </trkpt>
      <trkpt lat="47.31286" lon="-2.29326">
        <ele>17.60000038147</ele>
        <time>2019-09-29T09:27:20.000Z</time>
      </trkpt>
      <trkpt lat="47.31271" lon="-2.29348">
        <ele>17.60000038147</ele>
        <time>2019-09-29T09:27:26.000Z</time>
      </trkpt>
      <trkpt lat="47.31262" lon="-2.29369">
        <ele>17.60000038147</ele>
        <time>2019-09-29T09:27:31.000Z</time>
      </trkpt>
      <trkpt lat="47.31244" lon="-2.29389">
        <ele>17.60000038147</ele>
        <time>2019-09-29T09:27:37.000Z</time>
      </trkpt>
      <trkpt lat="47.31214" lon="-2.29413">
        <ele>17.60000038147</ele>
        <time>2019-09-29T09:27:44.000Z</time>
      </trkpt>
      <trkpt lat="47.31184" lon="-2.29433">
        <ele>17.60000038147</ele>
        <time>2019-09-29T09:27:50.000Z</time>
      </trkpt>
      <trkpt lat="47.31158" lon="-2.29457">
        <ele>17.60000038147</ele>
        <time>2019-09-29T09:27:55.000Z</time>
      </trkpt>
      <trkpt lat="47.31153" lon="-2.29463">
        <ele>17.200000762939</ele>
        <time>2019-09-29T09:27:56.000Z</time>
      </trkpt>
      <trkpt lat="47.3115" lon="-2.29471">
        <ele>16.799999237061</ele>
        <time>2019-09-29T09:27:57.000Z</time>
      </trkpt>
      <trkpt lat="47.31147" lon="-2.2948">
        <ele>16.39999961853</ele>
        <time>2019-09-29T09:27:58.000Z</time>
      </trkpt>
      <trkpt lat="47.31147" lon="-2.29489">
        <ele>15.800000190735</ele>
        <time>2019-09-29T09:27:59.000Z</time>
      </trkpt>
      <trkpt lat="47.31148" lon="-2.29497">
        <ele>15.39999961853</ele>
        <time>2019-09-29T09:28:00.000Z</time>
      </trkpt>
      <trkpt lat="47.3115" lon="-2.29503">
        <ele>15.39999961853</ele>
        <time>2019-09-29T09:28:01.000Z</time>
      </trkpt>
      <trkpt lat="47.31155" lon="-2.29522">
        <ele>15.39999961853</ele>
        <time>2019-09-29T09:28:04.000Z</time>
      </trkpt>
      <trkpt lat="47.31157" lon="-2.29528">
        <ele>15.39999961853</ele>
        <time>2019-09-29T09:28:05.000Z</time>
      </trkpt>
      <trkpt lat="47.31163" lon="-2.29542">
        <ele>15.39999961853</ele>
        <time>2019-09-29T09:28:07.000Z</time>
      </trkpt>
      <trkpt lat="47.31171" lon="-2.29582">
        <ele>15.39999961853</ele>
        <time>2019-09-29T09:28:11.000Z</time>
      </trkpt>
      <trkpt lat="47.31171" lon="-2.29582">
        <ele>15.39999961853</ele>
        <time>2019-09-29T09:28:13.000Z</time>
      </trkpt>
      <trkpt lat="47.31168" lon="-2.29588">
        <ele>15.39999961853</ele>
        <time>2019-09-29T09:28:14.000Z</time>
      </trkpt>
      <trkpt lat="47.31151" lon="-2.29599">
        <ele>15.39999961853</ele>
        <time>2019-09-29T09:28:17.000Z</time>
      </trkpt>
      <trkpt lat="47.31119" lon="-2.29629">
        <ele>15.39999961853</ele>
        <time>2019-09-29T09:28:24.000Z</time>
      </trkpt>
      <trkpt lat="47.31114" lon="-2.29633">
        <ele>15.39999961853</ele>
        <time>2019-09-29T09:28:25.000Z</time>
      </trkpt>
      <trkpt lat="47.3109" lon="-2.2966">
        <ele>15.39999961853</ele>
        <time>2019-09-29T09:28:31.000Z</time>
      </trkpt>
      <trkpt lat="47.31068" lon="-2.29683">
        <ele>15.39999961853</ele>
        <time>2019-09-29T09:28:36.000Z</time>
      </trkpt>
      <trkpt lat="47.31045" lon="-2.29699">
        <ele>15.39999961853</ele>
        <time>2019-09-29T09:28:43.000Z</time>
      </trkpt>
      <trkpt lat="47.31044" lon="-2.29699">
        <ele>15.39999961853</ele>
        <time>2019-09-29T09:28:46.000Z</time>
      </trkpt>
      <trkpt lat="47.31041" lon="-2.29697">
        <ele>15.39999961853</ele>
        <time>2019-09-29T09:30:08.000Z</time>
      </trkpt>
      <trkpt lat="47.3104" lon="-2.29696">
        <ele>15.39999961853</ele>
        <time>2019-09-29T09:30:09.000Z</time>
      </trkpt>
      <trkpt lat="47.31034" lon="-2.2968">
        <ele>15.39999961853</ele>
        <time>2019-09-29T09:30:13.000Z</time>
      </trkpt>
      <trkpt lat="47.31032" lon="-2.29675">
        <ele>15.39999961853</ele>
        <time>2019-09-29T09:30:14.000Z</time>
      </trkpt>
      <trkpt lat="47.31018" lon="-2.29642">
        <ele>15.39999961853</ele>
        <time>2019-09-29T09:30:19.000Z</time>
      </trkpt>
      <trkpt lat="47.30992" lon="-2.29594">
        <ele>15.39999961853</ele>
        <time>2019-09-29T09:30:26.000Z</time>
      </trkpt>
      <trkpt lat="47.30969" lon="-2.29581">
        <ele>15.39999961853</ele>
        <time>2019-09-29T09:30:30.000Z</time>
      </trkpt>
      <trkpt lat="47.30942" lon="-2.29573">
        <ele>15.39999961853</ele>
        <time>2019-09-29T09:30:33.000Z</time>
      </trkpt>
      <trkpt lat="47.30931" lon="-2.2957">
        <ele>15.39999961853</ele>
        <time>2019-09-29T09:30:37.000Z</time>
      </trkpt>
      <trkpt lat="47.3089" lon="-2.29558">
        <ele>15.39999961853</ele>
        <time>2019-09-29T09:30:44.000Z</time>
      </trkpt>
      <trkpt lat="47.30848" lon="-2.29545">
        <ele>15.39999961853</ele>
        <time>2019-09-29T09:30:51.000Z</time>
      </trkpt>
      <trkpt lat="47.30822" lon="-2.29543">
        <ele>15.39999961853</ele>
        <time>2019-09-29T09:30:55.000Z</time>
      </trkpt>
      <trkpt lat="47.30815" lon="-2.29544">
        <ele>15.39999961853</ele>
        <time>2019-09-29T09:30:56.000Z</time>
      </trkpt>
      <trkpt lat="47.30766" lon="-2.29559">
        <ele>15.39999961853</ele>
        <time>2019-09-29T09:31:04.000Z</time>
      </trkpt>
      <trkpt lat="47.30725" lon="-2.29575">
        <ele>15.39999961853</ele>
        <time>2019-09-29T09:31:11.000Z</time>
      </trkpt>
      <trkpt lat="47.30709" lon="-2.2958">
        <ele>15</ele>
        <time>2019-09-29T09:31:14.000Z</time>
      </trkpt>
      <trkpt lat="47.30703" lon="-2.29582">
        <ele>14.60000038147</ele>
        <time>2019-09-29T09:31:15.000Z</time>
      </trkpt>
      <trkpt lat="47.30697" lon="-2.29584">
        <ele>14.199999809265</ele>
        <time>2019-09-29T09:31:16.000Z</time>
      </trkpt>
      <trkpt lat="47.30691" lon="-2.29586">
        <ele>13.800000190735</ele>
        <time>2019-09-29T09:31:17.000Z</time>
      </trkpt>
      <trkpt lat="47.30685" lon="-2.29587">
        <ele>13.39999961853</ele>
        <time>2019-09-29T09:31:18.000Z</time>
      </trkpt>
      <trkpt lat="47.30656" lon="-2.29595">
        <ele>13.39999961853</ele>
        <time>2019-09-29T09:31:23.000Z</time>
      </trkpt>
      <trkpt lat="47.3062" lon="-2.29607">
        <ele>13.39999961853</ele>
        <time>2019-09-29T09:31:29.000Z</time>
      </trkpt>
      <trkpt lat="47.30602" lon="-2.29612">
        <ele>13.39999961853</ele>
        <time>2019-09-29T09:31:32.000Z</time>
      </trkpt>
      <trkpt lat="47.30585" lon="-2.29616">
        <ele>13.39999961853</ele>
        <time>2019-09-29T09:31:35.000Z</time>
      </trkpt>
      <trkpt lat="47.30569" lon="-2.29622">
        <ele>13.39999961853</ele>
        <time>2019-09-29T09:31:38.000Z</time>
      </trkpt>
      <trkpt lat="47.30558" lon="-2.29626">
        <ele>13.39999961853</ele>
        <time>2019-09-29T09:31:40.000Z</time>
      </trkpt>
      <trkpt lat="47.30529" lon="-2.29635">
        <ele>13.39999961853</ele>
        <time>2019-09-29T09:31:45.000Z</time>
      </trkpt>
      <trkpt lat="47.30524" lon="-2.29636">
        <ele>13.39999961853</ele>
        <time>2019-09-29T09:31:46.000Z</time>
      </trkpt>
      <trkpt lat="47.30502" lon="-2.29644">
        <ele>13.39999961853</ele>
        <time>2019-09-29T09:31:50.000Z</time>
      </trkpt>
      <trkpt lat="47.30491" lon="-2.29648">
        <ele>13.39999961853</ele>
        <time>2019-09-29T09:31:52.000Z</time>
      </trkpt>
      <trkpt lat="47.30451" lon="-2.2966">
        <ele>13.39999961853</ele>
        <time>2019-09-29T09:31:59.000Z</time>
      </trkpt>
      <trkpt lat="47.30408" lon="-2.29672">
        <ele>13</ele>
        <time>2019-09-29T09:32:06.000Z</time>
      </trkpt>
      <trkpt lat="47.30401" lon="-2.29674">
        <ele>12.60000038147</ele>
        <time>2019-09-29T09:32:07.000Z</time>
      </trkpt>
      <trkpt lat="47.30395" lon="-2.29675">
        <ele>12.199999809265</ele>
        <time>2019-09-29T09:32:08.000Z</time>
      </trkpt>
      <trkpt lat="47.3039" lon="-2.29678">
        <ele>11.60000038147</ele>
        <time>2019-09-29T09:32:09.000Z</time>
      </trkpt>
      <trkpt lat="47.30384" lon="-2.29679">
        <ele>11.199999809265</ele>
        <time>2019-09-29T09:32:10.000Z</time>
      </trkpt>
      <trkpt lat="47.30367" lon="-2.29685">
        <ele>11.199999809265</ele>
        <time>2019-09-29T09:32:13.000Z</time>
      </trkpt>
      <trkpt lat="47.30333" lon="-2.29696">
        <ele>11.199999809265</ele>
        <time>2019-09-29T09:32:19.000Z</time>
      </trkpt>
      <trkpt lat="47.30297" lon="-2.29707">
        <ele>11.199999809265</ele>
        <time>2019-09-29T09:32:26.000Z</time>
      </trkpt>
      <trkpt lat="47.30264" lon="-2.29716">
        <ele>11.199999809265</ele>
        <time>2019-09-29T09:32:32.000Z</time>
      </trkpt>
      <trkpt lat="47.30258" lon="-2.29715">
        <ele>11.199999809265</ele>
        <time>2019-09-29T09:32:33.000Z</time>
      </trkpt>
      <trkpt lat="47.30241" lon="-2.29709">
        <ele>11.199999809265</ele>
        <time>2019-09-29T09:32:36.000Z</time>
      </trkpt>
      <trkpt lat="47.30235" lon="-2.29706">
        <ele>11.199999809265</ele>
        <time>2019-09-29T09:32:37.000Z</time>
      </trkpt>
      <trkpt lat="47.30203" lon="-2.29686">
        <ele>11.199999809265</ele>
        <time>2019-09-29T09:32:43.000Z</time>
      </trkpt>
      <trkpt lat="47.30194" lon="-2.29681">
        <ele>11.199999809265</ele>
        <time>2019-09-29T09:32:45.000Z</time>
      </trkpt>
      <trkpt lat="47.30178" lon="-2.29676">
        <ele>11.199999809265</ele>
        <time>2019-09-29T09:32:48.000Z</time>
      </trkpt>
      <trkpt lat="47.30157" lon="-2.29663">
        <ele>11.199999809265</ele>
        <time>2019-09-29T09:32:53.000Z</time>
      </trkpt>
      <trkpt lat="47.30153" lon="-2.29662">
        <ele>11.199999809265</ele>
        <time>2019-09-29T09:32:54.000Z</time>
      </trkpt>
      <trkpt lat="47.3014" lon="-2.29655">
        <ele>11.199999809265</ele>
        <time>2019-09-29T09:32:57.000Z</time>
      </trkpt>
      <trkpt lat="47.30138" lon="-2.2965">
        <ele>11.199999809265</ele>
        <time>2019-09-29T09:32:58.000Z</time>
      </trkpt>
      <trkpt lat="47.3014" lon="-2.29631">
        <ele>11.199999809265</ele>
        <time>2019-09-29T09:33:01.000Z</time>
      </trkpt>
      <trkpt lat="47.30142" lon="-2.29616">
        <ele>11.199999809265</ele>
        <time>2019-09-29T09:33:03.000Z</time>
      </trkpt>
      <trkpt lat="47.30142" lon="-2.29599">
        <ele>11.199999809265</ele>
        <time>2019-09-29T09:33:05.000Z</time>
      </trkpt>
      <trkpt lat="47.30144" lon="-2.29554">
        <ele>11.199999809265</ele>
        <time>2019-09-29T09:33:09.000Z</time>
      </trkpt>
      <trkpt lat="47.30146" lon="-2.29547">
        <ele>11.199999809265</ele>
        <time>2019-09-29T09:33:12.000Z</time>
      </trkpt>
      <trkpt lat="47.30148" lon="-2.29541">
        <ele>11.199999809265</ele>
        <time>2019-09-29T09:33:13.000Z</time>
      </trkpt>
      <trkpt lat="47.30156" lon="-2.29523">
        <ele>11.199999809265</ele>
        <time>2019-09-29T09:33:16.000Z</time>
      </trkpt>
      <trkpt lat="47.30173" lon="-2.29492">
        <ele>11.199999809265</ele>
        <time>2019-09-29T09:33:21.000Z</time>
      </trkpt>
      <trkpt lat="47.30177" lon="-2.29485">
        <ele>11.199999809265</ele>
        <time>2019-09-29T09:33:22.000Z</time>
      </trkpt>
      <trkpt lat="47.30185" lon="-2.2947">
        <ele>11.199999809265</ele>
        <time>2019-09-29T09:33:24.000Z</time>
      </trkpt>
      <trkpt lat="47.30202" lon="-2.2944">
        <ele>11.199999809265</ele>
        <time>2019-09-29T09:33:28.000Z</time>
      </trkpt>
      <trkpt lat="47.30213" lon="-2.29412">
        <ele>11.199999809265</ele>
        <time>2019-09-29T09:33:32.000Z</time>
      </trkpt>
      <trkpt lat="47.30213" lon="-2.29405">
        <ele>11.199999809265</ele>
        <time>2019-09-29T09:33:33.000Z</time>
      </trkpt>
      <trkpt lat="47.30204" lon="-2.29378">
        <ele>11.199999809265</ele>
        <time>2019-09-29T09:33:37.000Z</time>
      </trkpt>
      <trkpt lat="47.302" lon="-2.29363">
        <ele>11.199999809265</ele>
        <time>2019-09-29T09:33:39.000Z</time>
      </trkpt>
      <trkpt lat="47.30196" lon="-2.29347">
        <ele>11.199999809265</ele>
        <time>2019-09-29T09:33:41.000Z</time>
      </trkpt>
      <trkpt lat="47.30193" lon="-2.29341">
        <ele>11.199999809265</ele>
        <time>2019-09-29T09:33:42.000Z</time>
      </trkpt>
      <trkpt lat="47.30169" lon="-2.29306">
        <ele>11.199999809265</ele>
        <time>2019-09-29T09:33:48.000Z</time>
      </trkpt>
      <trkpt lat="47.30136" lon="-2.29259">
        <ele>11.199999809265</ele>
        <time>2019-09-29T09:33:56.000Z</time>
      </trkpt>
      <trkpt lat="47.30124" lon="-2.29243">
        <ele>11.199999809265</ele>
        <time>2019-09-29T09:33:59.000Z</time>
      </trkpt>
      <trkpt lat="47.30112" lon="-2.29226">
        <ele>11.199999809265</ele>
        <time>2019-09-29T09:34:02.000Z</time>
      </trkpt>
      <trkpt lat="47.30084" lon="-2.2919">
        <ele>11.199999809265</ele>
        <time>2019-09-29T09:34:09.000Z</time>
      </trkpt>
      <trkpt lat="47.30069" lon="-2.29165">
        <ele>11.60000038147</ele>
        <time>2019-09-29T09:34:13.000Z</time>
      </trkpt>
      <trkpt lat="47.30066" lon="-2.29159">
        <ele>12</ele>
        <time>2019-09-29T09:34:14.000Z</time>
      </trkpt>
      <trkpt lat="47.30062" lon="-2.29153">
        <ele>12.800000190735</ele>
        <time>2019-09-29T09:34:15.000Z</time>
      </trkpt>
      <trkpt lat="47.30059" lon="-2.29148">
        <ele>13.199999809265</ele>
        <time>2019-09-29T09:34:16.000Z</time>
      </trkpt>
      <trkpt lat="47.30043" lon="-2.29129">
        <ele>13.199999809265</ele>
        <time>2019-09-29T09:34:20.000Z</time>
      </trkpt>
      <trkpt lat="47.30038" lon="-2.29126">
        <ele>13.199999809265</ele>
        <time>2019-09-29T09:34:21.000Z</time>
      </trkpt>
      <trkpt lat="47.30011" lon="-2.29106">
        <ele>13.199999809265</ele>
        <time>2019-09-29T09:34:26.000Z</time>
      </trkpt>
      <trkpt lat="47.30006" lon="-2.29101">
        <ele>13.199999809265</ele>
        <time>2019-09-29T09:34:27.000Z</time>
      </trkpt>
      <trkpt lat="47.29987" lon="-2.29084">
        <ele>13.199999809265</ele>
        <time>2019-09-29T09:34:32.000Z</time>
      </trkpt>
      <trkpt lat="47.29983" lon="-2.2908">
        <ele>13.199999809265</ele>
        <time>2019-09-29T09:34:36.000Z</time>
      </trkpt>
      <trkpt lat="47.29983" lon="-2.2908">
        <ele>13.199999809265</ele>
        <time>2019-09-29T09:34:37.000Z</time>
      </trkpt>
      <trkpt lat="47.29981" lon="-2.29071">
        <ele>13.199999809265</ele>
        <time>2019-09-29T09:34:51.000Z</time>
      </trkpt>
      <trkpt lat="47.2998" lon="-2.29069">
        <ele>13.199999809265</ele>
        <time>2019-09-29T09:34:53.000Z</time>
      </trkpt>
      <trkpt lat="47.29968" lon="-2.29045">
        <ele>13.199999809265</ele>
        <time>2019-09-29T09:34:59.000Z</time>
      </trkpt>
      <trkpt lat="47.29953" lon="-2.29022">
        <ele>13.199999809265</ele>
        <time>2019-09-29T09:35:07.000Z</time>
      </trkpt>
      <trkpt lat="47.29933" lon="-2.28988">
        <ele>13.199999809265</ele>
        <time>2019-09-29T09:35:15.000Z</time>
      </trkpt>
      <trkpt lat="47.29915" lon="-2.28954">
        <ele>13.60000038147</ele>
        <time>2019-09-29T09:35:23.000Z</time>
      </trkpt>
      <trkpt lat="47.29911" lon="-2.28952">
        <ele>14</ele>
        <time>2019-09-29T09:35:24.000Z</time>
      </trkpt>
      <trkpt lat="47.29906" lon="-2.2895">
        <ele>14.39999961853</ele>
        <time>2019-09-29T09:35:25.000Z</time>
      </trkpt>
      <trkpt lat="47.29901" lon="-2.28949">
        <ele>14.800000190735</ele>
        <time>2019-09-29T09:35:26.000Z</time>
      </trkpt>
      <trkpt lat="47.29897" lon="-2.28947">
        <ele>15.39999961853</ele>
        <time>2019-09-29T09:35:27.000Z</time>
      </trkpt>
      <trkpt lat="47.29877" lon="-2.28942">
        <ele>15.39999961853</ele>
        <time>2019-09-29T09:35:32.000Z</time>
      </trkpt>
      <trkpt lat="47.29871" lon="-2.28928">
        <ele>15.39999961853</ele>
        <time>2019-09-29T09:35:36.000Z</time>
      </trkpt>
      <trkpt lat="47.29871" lon="-2.28898">
        <ele>15.39999961853</ele>
        <time>2019-09-29T09:35:42.000Z</time>
      </trkpt>
      <trkpt lat="47.2988" lon="-2.28877">
        <ele>15.39999961853</ele>
        <time>2019-09-29T09:35:46.000Z</time>
      </trkpt>
      <trkpt lat="47.29887" lon="-2.28839">
        <ele>15.39999961853</ele>
        <time>2019-09-29T09:35:52.000Z</time>
      </trkpt>
      <trkpt lat="47.29894" lon="-2.28793">
        <ele>15.39999961853</ele>
        <time>2019-09-29T09:35:59.000Z</time>
      </trkpt>
      <trkpt lat="47.29898" lon="-2.28781">
        <ele>15.39999961853</ele>
        <time>2019-09-29T09:36:01.000Z</time>
      </trkpt>
      <trkpt lat="47.299" lon="-2.28757">
        <ele>15.39999961853</ele>
        <time>2019-09-29T09:36:04.000Z</time>
      </trkpt>
      <trkpt lat="47.29905" lon="-2.28732">
        <ele>15.39999961853</ele>
        <time>2019-09-29T09:36:07.000Z</time>
      </trkpt>
      <trkpt lat="47.29911" lon="-2.28709">
        <ele>15.39999961853</ele>
        <time>2019-09-29T09:36:10.000Z</time>
      </trkpt>
      <trkpt lat="47.29916" lon="-2.28689">
        <ele>15.800000190735</ele>
        <time>2019-09-29T09:36:13.000Z</time>
      </trkpt>
      <trkpt lat="47.29918" lon="-2.28682">
        <ele>16.200000762939</ele>
        <time>2019-09-29T09:36:14.000Z</time>
      </trkpt>
      <trkpt lat="47.29918" lon="-2.28676">
        <ele>16.60000038147</ele>
        <time>2019-09-29T09:36:15.000Z</time>
      </trkpt>
      <trkpt lat="47.29919" lon="-2.2867">
        <ele>17</ele>
        <time>2019-09-29T09:36:16.000Z</time>
      </trkpt>
      <trkpt lat="47.29921" lon="-2.28663">
        <ele>17.39999961853</ele>
        <time>2019-09-29T09:36:17.000Z</time>
      </trkpt>
      <trkpt lat="47.29926" lon="-2.2864">
        <ele>17.39999961853</ele>
        <time>2019-09-29T09:36:20.000Z</time>
      </trkpt>
      <trkpt lat="47.29928" lon="-2.28632">
        <ele>17.39999961853</ele>
        <time>2019-09-29T09:36:21.000Z</time>
      </trkpt>
      <trkpt lat="47.29935" lon="-2.28591">
        <ele>17.39999961853</ele>
        <time>2019-09-29T09:36:27.000Z</time>
      </trkpt>
      <trkpt lat="47.29936" lon="-2.28571">
        <ele>17.39999961853</ele>
        <time>2019-09-29T09:36:30.000Z</time>
      </trkpt>
      <trkpt lat="47.29931" lon="-2.28562">
        <ele>17.799999237061</ele>
        <time>2019-09-29T09:36:32.000Z</time>
      </trkpt>
      <trkpt lat="47.29928" lon="-2.28556">
        <ele>18.200000762939</ele>
        <time>2019-09-29T09:36:33.000Z</time>
      </trkpt>
      <trkpt lat="47.29925" lon="-2.28551">
        <ele>18.60000038147</ele>
        <time>2019-09-29T09:36:34.000Z</time>
      </trkpt>
      <trkpt lat="47.29922" lon="-2.28545">
        <ele>19</ele>
        <time>2019-09-29T09:36:35.000Z</time>
      </trkpt>
      <trkpt lat="47.2992" lon="-2.2854">
        <ele>19.39999961853</ele>
        <time>2019-09-29T09:36:36.000Z</time>
      </trkpt>
      <trkpt lat="47.2992" lon="-2.28534">
        <ele>19.39999961853</ele>
        <time>2019-09-29T09:36:37.000Z</time>
      </trkpt>
      <trkpt lat="47.29927" lon="-2.28513">
        <ele>19.39999961853</ele>
        <time>2019-09-29T09:36:40.000Z</time>
      </trkpt>
      <trkpt lat="47.29933" lon="-2.28492">
        <ele>19.39999961853</ele>
        <time>2019-09-29T09:36:43.000Z</time>
      </trkpt>
      <trkpt lat="47.29932" lon="-2.28467">
        <ele>19.39999961853</ele>
        <time>2019-09-29T09:36:47.000Z</time>
      </trkpt>
      <trkpt lat="47.29935" lon="-2.28442">
        <ele>19.39999961853</ele>
        <time>2019-09-29T09:36:52.000Z</time>
      </trkpt>
      <trkpt lat="47.2994" lon="-2.28406">
        <ele>19.39999961853</ele>
        <time>2019-09-29T09:36:56.000Z</time>
      </trkpt>
      <trkpt lat="47.2994" lon="-2.28406">
        <ele>19.39999961853</ele>
        <time>2019-09-29T09:36:58.000Z</time>
      </trkpt>
      <trkpt lat="47.29939" lon="-2.28351">
        <ele>19.39999961853</ele>
        <time>2019-09-29T09:37:05.000Z</time>
      </trkpt>
      <trkpt lat="47.2994" lon="-2.2834">
        <ele>19.39999961853</ele>
        <time>2019-09-29T09:37:06.000Z</time>
      </trkpt>
      <trkpt lat="47.2994" lon="-2.28323">
        <ele>19.39999961853</ele>
        <time>2019-09-29T09:37:08.000Z</time>
      </trkpt>
      <trkpt lat="47.2994" lon="-2.28314">
        <ele>19.39999961853</ele>
        <time>2019-09-29T09:37:09.000Z</time>
      </trkpt>
      <trkpt lat="47.29938" lon="-2.28261">
        <ele>19.39999961853</ele>
        <time>2019-09-29T09:37:15.000Z</time>
      </trkpt>
      <trkpt lat="47.29937" lon="-2.28219">
        <ele>19.39999961853</ele>
        <time>2019-09-29T09:37:20.000Z</time>
      </trkpt>
      <trkpt lat="47.29939" lon="-2.28211">
        <ele>19.39999961853</ele>
        <time>2019-09-29T09:37:21.000Z</time>
      </trkpt>
      <trkpt lat="47.29946" lon="-2.28191">
        <ele>19.39999961853</ele>
        <time>2019-09-29T09:37:24.000Z</time>
      </trkpt>
      <trkpt lat="47.29964" lon="-2.28131">
        <ele>19.39999961853</ele>
        <time>2019-09-29T09:37:31.000Z</time>
      </trkpt>
      <trkpt lat="47.2997" lon="-2.28112">
        <ele>19.39999961853</ele>
        <time>2019-09-29T09:37:33.000Z</time>
      </trkpt>
      <trkpt lat="47.29977" lon="-2.28086">
        <ele>19.39999961853</ele>
        <time>2019-09-29T09:37:36.000Z</time>
      </trkpt>
      <trkpt lat="47.29988" lon="-2.28053">
        <ele>19.39999961853</ele>
        <time>2019-09-29T09:37:40.000Z</time>
      </trkpt>
      <trkpt lat="47.29988" lon="-2.28043">
        <ele>19.39999961853</ele>
        <time>2019-09-29T09:37:42.000Z</time>
      </trkpt>
      <trkpt lat="47.29983" lon="-2.28041">
        <ele>19.39999961853</ele>
        <time>2019-09-29T09:37:44.000Z</time>
      </trkpt>
      <trkpt lat="47.29971" lon="-2.28045">
        <ele>19.39999961853</ele>
        <time>2019-09-29T09:37:48.000Z</time>
      </trkpt>
      <trkpt lat="47.29967" lon="-2.28046">
        <ele>19.39999961853</ele>
        <time>2019-09-29T09:37:49.000Z</time>
      </trkpt>
      <trkpt lat="47.29946" lon="-2.2805">
        <ele>19.39999961853</ele>
        <time>2019-09-29T09:37:54.000Z</time>
      </trkpt>
      <trkpt lat="47.29936" lon="-2.28042">
        <ele>19.39999961853</ele>
        <time>2019-09-29T09:37:55.000Z</time>
      </trkpt>
      <trkpt lat="47.29932" lon="-2.28036">
        <ele>19.39999961853</ele>
        <time>2019-09-29T09:37:59.000Z</time>
      </trkpt>
      <trkpt lat="47.29929" lon="-2.28025">
        <ele>19.39999961853</ele>
        <time>2019-09-29T09:38:02.000Z</time>
      </trkpt>
      <trkpt lat="47.29923" lon="-2.27996">
        <ele>19.39999961853</ele>
        <time>2019-09-29T09:38:07.000Z</time>
      </trkpt>
      <trkpt lat="47.29923" lon="-2.27989">
        <ele>19.799999237061</ele>
        <time>2019-09-29T09:38:08.000Z</time>
      </trkpt>
      <trkpt lat="47.29924" lon="-2.27981">
        <ele>20.200000762939</ele>
        <time>2019-09-29T09:38:09.000Z</time>
      </trkpt>
      <trkpt lat="47.29925" lon="-2.27972">
        <ele>20.60000038147</ele>
        <time>2019-09-29T09:38:10.000Z</time>
      </trkpt>
      <trkpt lat="47.29927" lon="-2.27964">
        <ele>21.200000762939</ele>
        <time>2019-09-29T09:38:11.000Z</time>
      </trkpt>
      <trkpt lat="47.29929" lon="-2.27955">
        <ele>21.60000038147</ele>
        <time>2019-09-29T09:38:12.000Z</time>
      </trkpt>
      <trkpt lat="47.29934" lon="-2.27898">
        <ele>21.60000038147</ele>
        <time>2019-09-29T09:38:19.000Z</time>
      </trkpt>
      <trkpt lat="47.29942" lon="-2.27829">
        <ele>21.60000038147</ele>
        <time>2019-09-29T09:38:27.000Z</time>
      </trkpt>
      <trkpt lat="47.29946" lon="-2.27785">
        <ele>21.200000762939</ele>
        <time>2019-09-29T09:38:32.000Z</time>
      </trkpt>
      <trkpt lat="47.29947" lon="-2.27775">
        <ele>20.60000038147</ele>
        <time>2019-09-29T09:38:33.000Z</time>
      </trkpt>
      <trkpt lat="47.29948" lon="-2.27766">
        <ele>20.200000762939</ele>
        <time>2019-09-29T09:38:34.000Z</time>
      </trkpt>
      <trkpt lat="47.29949" lon="-2.27757">
        <ele>19.799999237061</ele>
        <time>2019-09-29T09:38:35.000Z</time>
      </trkpt>
      <trkpt lat="47.2995" lon="-2.27747">
        <ele>19.39999961853</ele>
        <time>2019-09-29T09:38:36.000Z</time>
      </trkpt>
      <trkpt lat="47.29957" lon="-2.27677">
        <ele>19.39999961853</ele>
        <time>2019-09-29T09:38:44.000Z</time>
      </trkpt>
      <trkpt lat="47.29963" lon="-2.27615">
        <ele>19.39999961853</ele>
        <time>2019-09-29T09:38:49.000Z</time>
      </trkpt>
      <trkpt lat="47.29962" lon="-2.27606">
        <ele>19.39999961853</ele>
        <time>2019-09-29T09:38:52.000Z</time>
      </trkpt>
      <trkpt lat="47.29941" lon="-2.27587">
        <ele>19.39999961853</ele>
        <time>2019-09-29T09:38:55.000Z</time>
      </trkpt>
      <trkpt lat="47.29941" lon="-2.27587">
        <ele>19.39999961853</ele>
        <time>2019-09-29T09:38:57.000Z</time>
      </trkpt>
      <trkpt lat="47.29937" lon="-2.27586">
        <ele>19.39999961853</ele>
        <time>2019-09-29T09:38:58.000Z</time>
      </trkpt>
      <trkpt lat="47.29921" lon="-2.27589">
        <ele>19.39999961853</ele>
        <time>2019-09-29T09:39:01.000Z</time>
      </trkpt>
      <trkpt lat="47.29909" lon="-2.27597">
        <ele>19.39999961853</ele>
        <time>2019-09-29T09:39:03.000Z</time>
      </trkpt>
      <trkpt lat="47.29899" lon="-2.27605">
        <ele>19.39999961853</ele>
        <time>2019-09-29T09:39:05.000Z</time>
      </trkpt>
      <trkpt lat="47.29893" lon="-2.27608">
        <ele>19.39999961853</ele>
        <time>2019-09-29T09:39:06.000Z</time>
      </trkpt>
      <trkpt lat="47.2987" lon="-2.2762">
        <ele>19.39999961853</ele>
        <time>2019-09-29T09:39:10.000Z</time>
      </trkpt>
      <trkpt lat="47.29856" lon="-2.27619">
        <ele>19.39999961853</ele>
        <time>2019-09-29T09:39:12.000Z</time>
      </trkpt>
      <trkpt lat="47.29832" lon="-2.27608">
        <ele>19.39999961853</ele>
        <time>2019-09-29T09:39:16.000Z</time>
      </trkpt>
      <trkpt lat="47.29802" lon="-2.27594">
        <ele>19.39999961853</ele>
        <time>2019-09-29T09:39:21.000Z</time>
      </trkpt>
      <trkpt lat="47.29795" lon="-2.27593">
        <ele>19.39999961853</ele>
        <time>2019-09-29T09:39:22.000Z</time>
      </trkpt>
      <trkpt lat="47.29776" lon="-2.27593">
        <ele>19.39999961853</ele>
        <time>2019-09-29T09:39:25.000Z</time>
      </trkpt>
      <trkpt lat="47.29765" lon="-2.27597">
        <ele>19.39999961853</ele>
        <time>2019-09-29T09:39:27.000Z</time>
      </trkpt>
      <trkpt lat="47.29719" lon="-2.27614">
        <ele>19.39999961853</ele>
        <time>2019-09-29T09:39:35.000Z</time>
      </trkpt>
      <trkpt lat="47.29695" lon="-2.27617">
        <ele>19.39999961853</ele>
        <time>2019-09-29T09:39:39.000Z</time>
      </trkpt>
      <trkpt lat="47.29683" lon="-2.27616">
        <ele>19.39999961853</ele>
        <time>2019-09-29T09:39:41.000Z</time>
      </trkpt>
      <trkpt lat="47.29644" lon="-2.27603">
        <ele>19.39999961853</ele>
        <time>2019-09-29T09:39:48.000Z</time>
      </trkpt>
      <trkpt lat="47.29639" lon="-2.276">
        <ele>19.39999961853</ele>
        <time>2019-09-29T09:39:49.000Z</time>
      </trkpt>
      <trkpt lat="47.29613" lon="-2.27582">
        <ele>19.799999237061</ele>
        <time>2019-09-29T09:39:54.000Z</time>
      </trkpt>
      <trkpt lat="47.29608" lon="-2.27579">
        <ele>20.200000762939</ele>
        <time>2019-09-29T09:39:55.000Z</time>
      </trkpt>
      <trkpt lat="47.29604" lon="-2.27574">
        <ele>20.799999237061</ele>
        <time>2019-09-29T09:39:56.000Z</time>
      </trkpt>
      <trkpt lat="47.296" lon="-2.27571">
        <ele>21.200000762939</ele>
        <time>2019-09-29T09:39:57.000Z</time>
      </trkpt>
      <trkpt lat="47.29595" lon="-2.27567">
        <ele>21.60000038147</ele>
        <time>2019-09-29T09:39:58.000Z</time>
      </trkpt>
      <trkpt lat="47.2959" lon="-2.27563">
        <ele>21.60000038147</ele>
        <time>2019-09-29T09:39:59.000Z</time>
      </trkpt>
      <trkpt lat="47.29552" lon="-2.27545">
        <ele>22</ele>
        <time>2019-09-29T09:40:06.000Z</time>
      </trkpt>
      <trkpt lat="47.29547" lon="-2.27544">
        <ele>22.39999961853</ele>
        <time>2019-09-29T09:40:07.000Z</time>
      </trkpt>
      <trkpt lat="47.29541" lon="-2.27543">
        <ele>22.799999237061</ele>
        <time>2019-09-29T09:40:08.000Z</time>
      </trkpt>
      <trkpt lat="47.29535" lon="-2.2754">
        <ele>23.200000762939</ele>
        <time>2019-09-29T09:40:09.000Z</time>
      </trkpt>
      <trkpt lat="47.2953" lon="-2.27538">
        <ele>23.60000038147</ele>
        <time>2019-09-29T09:40:10.000Z</time>
      </trkpt>
      <trkpt lat="47.29514" lon="-2.27533">
        <ele>23.60000038147</ele>
        <time>2019-09-29T09:40:13.000Z</time>
      </trkpt>
      <trkpt lat="47.29486" lon="-2.27523">
        <ele>23.60000038147</ele>
        <time>2019-09-29T09:40:18.000Z</time>
      </trkpt>
      <trkpt lat="47.29469" lon="-2.2752">
        <ele>23.60000038147</ele>
        <time>2019-09-29T09:40:19.000Z</time>
      </trkpt>
      <trkpt lat="47.29442" lon="-2.27515">
        <ele>23.60000038147</ele>
        <time>2019-09-29T09:40:26.000Z</time>
      </trkpt>
      <trkpt lat="47.29403" lon="-2.27517">
        <ele>23.60000038147</ele>
        <time>2019-09-29T09:40:33.000Z</time>
      </trkpt>
      <trkpt lat="47.29381" lon="-2.27521">
        <ele>24</ele>
        <time>2019-09-29T09:40:37.000Z</time>
      </trkpt>
      <trkpt lat="47.29375" lon="-2.27523">
        <ele>24.39999961853</ele>
        <time>2019-09-29T09:40:38.000Z</time>
      </trkpt>
      <trkpt lat="47.29369" lon="-2.27524">
        <ele>24.799999237061</ele>
        <time>2019-09-29T09:40:39.000Z</time>
      </trkpt>
      <trkpt lat="47.29352" lon="-2.27528">
        <ele>25.799999237061</ele>
        <time>2019-09-29T09:40:40.000Z</time>
      </trkpt>
      <trkpt lat="47.29307" lon="-2.27531">
        <ele>25.799999237061</ele>
        <time>2019-09-29T09:40:50.000Z</time>
      </trkpt>
      <trkpt lat="47.29286" lon="-2.27533">
        <ele>25.799999237061</ele>
        <time>2019-09-29T09:40:55.000Z</time>
      </trkpt>
      <trkpt lat="47.29272" lon="-2.27537">
        <ele>25.799999237061</ele>
        <time>2019-09-29T09:40:59.000Z</time>
      </trkpt>
      <trkpt lat="47.29269" lon="-2.27536">
        <ele>25.799999237061</ele>
        <time>2019-09-29T09:41:00.000Z</time>
      </trkpt>
      <trkpt lat="47.29254" lon="-2.2753">
        <ele>25.799999237061</ele>
        <time>2019-09-29T09:41:03.000Z</time>
      </trkpt>
      <trkpt lat="47.29249" lon="-2.27528">
        <ele>25.799999237061</ele>
        <time>2019-09-29T09:41:04.000Z</time>
      </trkpt>
      <trkpt lat="47.29218" lon="-2.27528">
        <ele>25.799999237061</ele>
        <time>2019-09-29T09:41:09.000Z</time>
      </trkpt>
      <trkpt lat="47.29175" lon="-2.27528">
        <ele>25.799999237061</ele>
        <time>2019-09-29T09:41:16.000Z</time>
      </trkpt>
      <trkpt lat="47.29152" lon="-2.27529">
        <ele>25.39999961853</ele>
        <time>2019-09-29T09:41:20.000Z</time>
      </trkpt>
      <trkpt lat="47.29146" lon="-2.27529">
        <ele>25</ele>
        <time>2019-09-29T09:41:21.000Z</time>
      </trkpt>
      <trkpt lat="47.2914" lon="-2.27529">
        <ele>24.60000038147</ele>
        <time>2019-09-29T09:41:22.000Z</time>
      </trkpt>
      <trkpt lat="47.29134" lon="-2.27529">
        <ele>24.200000762939</ele>
        <time>2019-09-29T09:41:23.000Z</time>
      </trkpt>
      <trkpt lat="47.29128" lon="-2.27529">
        <ele>23.799999237061</ele>
        <time>2019-09-29T09:41:24.000Z</time>
      </trkpt>
      <trkpt lat="47.29079" lon="-2.27527">
        <ele>23.799999237061</ele>
        <time>2019-09-29T09:41:30.000Z</time>
      </trkpt>
      <trkpt lat="47.29029" lon="-2.27522">
        <ele>23.799999237061</ele>
        <time>2019-09-29T09:41:40.000Z</time>
      </trkpt>
      <trkpt lat="47.29017" lon="-2.27521">
        <ele>24.200000762939</ele>
        <time>2019-09-29T09:41:42.000Z</time>
      </trkpt>
      <trkpt lat="47.29011" lon="-2.2752">
        <ele>24.799999237061</ele>
        <time>2019-09-29T09:41:43.000Z</time>
      </trkpt>
      <trkpt lat="47.29005" lon="-2.2752">
        <ele>25.39999961853</ele>
        <time>2019-09-29T09:41:44.000Z</time>
      </trkpt>
      <trkpt lat="47.28999" lon="-2.2752">
        <ele>25.799999237061</ele>
        <time>2019-09-29T09:41:45.000Z</time>
      </trkpt>
      <trkpt lat="47.28993" lon="-2.2752">
        <ele>26.39999961853</ele>
        <time>2019-09-29T09:41:46.000Z</time>
      </trkpt>
      <trkpt lat="47.28986" lon="-2.27521">
        <ele>26.39999961853</ele>
        <time>2019-09-29T09:41:47.000Z</time>
      </trkpt>
      <trkpt lat="47.28955" lon="-2.27521">
        <ele>25.799999237061</ele>
        <time>2019-09-29T09:41:52.000Z</time>
      </trkpt>
      <trkpt lat="47.28949" lon="-2.27521">
        <ele>25.39999961853</ele>
        <time>2019-09-29T09:41:53.000Z</time>
      </trkpt>
      <trkpt lat="47.28943" lon="-2.27522">
        <ele>25</ele>
        <time>2019-09-29T09:41:54.000Z</time>
      </trkpt>
      <trkpt lat="47.2892" lon="-2.27522">
        <ele>24</ele>
        <time>2019-09-29T09:41:55.000Z</time>
      </trkpt>
      <trkpt lat="47.28895" lon="-2.27524">
        <ele>24</ele>
        <time>2019-09-29T09:42:02.000Z</time>
      </trkpt>
      <trkpt lat="47.28844" lon="-2.27533">
        <ele>24</ele>
        <time>2019-09-29T09:42:10.000Z</time>
      </trkpt>
      <trkpt lat="47.28809" lon="-2.27545">
        <ele>24</ele>
        <time>2019-09-29T09:42:16.000Z</time>
      </trkpt>
      <trkpt lat="47.28785" lon="-2.27571">
        <ele>24</ele>
        <time>2019-09-29T09:42:21.000Z</time>
      </trkpt>
      <trkpt lat="47.28745" lon="-2.2762">
        <ele>24</ele>
        <time>2019-09-29T09:42:30.000Z</time>
      </trkpt>
      <trkpt lat="47.28711" lon="-2.27672">
        <ele>24</ele>
        <time>2019-09-29T09:42:38.000Z</time>
      </trkpt>
      <trkpt lat="47.28682" lon="-2.27723">
        <ele>24</ele>
        <time>2019-09-29T09:42:46.000Z</time>
      </trkpt>
      <trkpt lat="47.28675" lon="-2.27735">
        <ele>24</ele>
        <time>2019-09-29T09:42:48.000Z</time>
      </trkpt>
      <trkpt lat="47.28662" lon="-2.2776">
        <ele>24</ele>
        <time>2019-09-29T09:42:52.000Z</time>
      </trkpt>
      <trkpt lat="47.28651" lon="-2.27797">
        <ele>24</ele>
        <time>2019-09-29T09:42:55.000Z</time>
      </trkpt>
      <trkpt lat="47.28649" lon="-2.27805">
        <ele>24</ele>
        <time>2019-09-29T09:42:58.000Z</time>
      </trkpt>
      <trkpt lat="47.28644" lon="-2.27828">
        <ele>24.39999961853</ele>
        <time>2019-09-29T09:43:01.000Z</time>
      </trkpt>
      <trkpt lat="47.28643" lon="-2.27835">
        <ele>24.799999237061</ele>
        <time>2019-09-29T09:43:02.000Z</time>
      </trkpt>
      <trkpt lat="47.28641" lon="-2.27842">
        <ele>25.39999961853</ele>
        <time>2019-09-29T09:43:03.000Z</time>
      </trkpt>
      <trkpt lat="47.2864" lon="-2.27849">
        <ele>25.799999237061</ele>
        <time>2019-09-29T09:43:04.000Z</time>
      </trkpt>
      <trkpt lat="47.28639" lon="-2.27856">
        <ele>26.200000762939</ele>
        <time>2019-09-29T09:43:05.000Z</time>
      </trkpt>
      <trkpt lat="47.2863" lon="-2.27916">
        <ele>26.200000762939</ele>
        <time>2019-09-29T09:43:13.000Z</time>
      </trkpt>
      <trkpt lat="47.28627" lon="-2.27965">
        <ele>26.200000762939</ele>
        <time>2019-09-29T09:43:19.000Z</time>
      </trkpt>
      <trkpt lat="47.28628" lon="-2.2798">
        <ele>26.200000762939</ele>
        <time>2019-09-29T09:43:21.000Z</time>
      </trkpt>
      <trkpt lat="47.28629" lon="-2.27994">
        <ele>26.200000762939</ele>
        <time>2019-09-29T09:43:23.000Z</time>
      </trkpt>
      <trkpt lat="47.2863" lon="-2.28001">
        <ele>26.200000762939</ele>
        <time>2019-09-29T09:43:24.000Z</time>
      </trkpt>
      <trkpt lat="47.28638" lon="-2.28032">
        <ele>26.799999237061</ele>
        <time>2019-09-29T09:43:29.000Z</time>
      </trkpt>
      <trkpt lat="47.28641" lon="-2.28038">
        <ele>27.200000762939</ele>
        <time>2019-09-29T09:43:30.000Z</time>
      </trkpt>
      <trkpt lat="47.28643" lon="-2.28045">
        <ele>27.60000038147</ele>
        <time>2019-09-29T09:43:31.000Z</time>
      </trkpt>
      <trkpt lat="47.28645" lon="-2.28051">
        <ele>28</ele>
        <time>2019-09-29T09:43:32.000Z</time>
      </trkpt>
      <trkpt lat="47.28647" lon="-2.28058">
        <ele>28.60000038147</ele>
        <time>2019-09-29T09:43:33.000Z</time>
      </trkpt>
      <trkpt lat="47.28652" lon="-2.28072">
        <ele>28.60000038147</ele>
        <time>2019-09-29T09:43:35.000Z</time>
      </trkpt>
      <trkpt lat="47.28656" lon="-2.28086">
        <ele>29</ele>
        <time>2019-09-29T09:43:37.000Z</time>
      </trkpt>
      <trkpt lat="47.28659" lon="-2.28092">
        <ele>29.39999961853</ele>
        <time>2019-09-29T09:43:38.000Z</time>
      </trkpt>
      <trkpt lat="47.28661" lon="-2.28098">
        <ele>29.799999237061</ele>
        <time>2019-09-29T09:43:39.000Z</time>
      </trkpt>
      <trkpt lat="47.28663" lon="-2.28106">
        <ele>30.200000762939</ele>
        <time>2019-09-29T09:43:40.000Z</time>
      </trkpt>
      <trkpt lat="47.28665" lon="-2.28112">
        <ele>30.60000038147</ele>
        <time>2019-09-29T09:43:41.000Z</time>
      </trkpt>
      <trkpt lat="47.2867" lon="-2.28137">
        <ele>30.60000038147</ele>
        <time>2019-09-29T09:43:44.000Z</time>
      </trkpt>
      <trkpt lat="47.28675" lon="-2.28157">
        <ele>31</ele>
        <time>2019-09-29T09:43:47.000Z</time>
      </trkpt>
      <trkpt lat="47.28677" lon="-2.28163">
        <ele>31.39999961853</ele>
        <time>2019-09-29T09:43:48.000Z</time>
      </trkpt>
      <trkpt lat="47.28678" lon="-2.28171">
        <ele>31.799999237061</ele>
        <time>2019-09-29T09:43:49.000Z</time>
      </trkpt>
      <trkpt lat="47.28681" lon="-2.28181">
        <ele>32.200000762939</ele>
        <time>2019-09-29T09:43:50.000Z</time>
      </trkpt>
      <trkpt lat="47.28683" lon="-2.28189">
        <ele>32.599998474121</ele>
        <time>2019-09-29T09:43:51.000Z</time>
      </trkpt>
      <trkpt lat="47.28689" lon="-2.28222">
        <ele>32.599998474121</ele>
        <time>2019-09-29T09:43:55.000Z</time>
      </trkpt>
      <trkpt lat="47.28689" lon="-2.28242">
        <ele>32.599998474121</ele>
        <time>2019-09-29T09:43:57.000Z</time>
      </trkpt>
      <trkpt lat="47.28692" lon="-2.28272">
        <ele>32.599998474121</ele>
        <time>2019-09-29T09:44:00.000Z</time>
      </trkpt>
      <trkpt lat="47.28692" lon="-2.28291">
        <ele>33</ele>
        <time>2019-09-29T09:44:02.000Z</time>
      </trkpt>
      <trkpt lat="47.28693" lon="-2.283">
        <ele>33.400001525879</ele>
        <time>2019-09-29T09:44:03.000Z</time>
      </trkpt>
      <trkpt lat="47.28693" lon="-2.28309">
        <ele>33.799999237061</ele>
        <time>2019-09-29T09:44:04.000Z</time>
      </trkpt>
      <trkpt lat="47.28693" lon="-2.28317">
        <ele>34.400001525879</ele>
        <time>2019-09-29T09:44:05.000Z</time>
      </trkpt>
      <trkpt lat="47.28693" lon="-2.28326">
        <ele>34.799999237061</ele>
        <time>2019-09-29T09:44:06.000Z</time>
      </trkpt>
      <trkpt lat="47.28693" lon="-2.28334">
        <ele>34.799999237061</ele>
        <time>2019-09-29T09:44:07.000Z</time>
      </trkpt>
      <trkpt lat="47.28694" lon="-2.2836">
        <ele>34.799999237061</ele>
        <time>2019-09-29T09:44:10.000Z</time>
      </trkpt>
      <trkpt lat="47.28694" lon="-2.28378">
        <ele>34.799999237061</ele>
        <time>2019-09-29T09:44:12.000Z</time>
      </trkpt>
      <trkpt lat="47.28695" lon="-2.2844">
        <ele>34.799999237061</ele>
        <time>2019-09-29T09:44:19.000Z</time>
      </trkpt>
      <trkpt lat="47.28694" lon="-2.28516">
        <ele>35.200000762939</ele>
        <time>2019-09-29T09:44:27.000Z</time>
      </trkpt>
      <trkpt lat="47.28694" lon="-2.28526">
        <ele>35.599998474121</ele>
        <time>2019-09-29T09:44:28.000Z</time>
      </trkpt>
      <trkpt lat="47.28693" lon="-2.28535">
        <ele>36.200000762939</ele>
        <time>2019-09-29T09:44:29.000Z</time>
      </trkpt>
      <trkpt lat="47.28693" lon="-2.28546">
        <ele>35.599998474121</ele>
        <time>2019-09-29T09:44:30.000Z</time>
      </trkpt>
      <trkpt lat="47.28692" lon="-2.28556">
        <ele>34.799999237061</ele>
        <time>2019-09-29T09:44:31.000Z</time>
      </trkpt>
      <trkpt lat="47.28692" lon="-2.28567">
        <ele>34.400001525879</ele>
        <time>2019-09-29T09:44:32.000Z</time>
      </trkpt>
      <trkpt lat="47.28692" lon="-2.28577">
        <ele>34</ele>
        <time>2019-09-29T09:44:33.000Z</time>
      </trkpt>
      <trkpt lat="47.28691" lon="-2.28596">
        <ele>33.599998474121</ele>
        <time>2019-09-29T09:44:35.000Z</time>
      </trkpt>
      <trkpt lat="47.28691" lon="-2.28606">
        <ele>33.200000762939</ele>
        <time>2019-09-29T09:44:36.000Z</time>
      </trkpt>
      <trkpt lat="47.28692" lon="-2.28615">
        <ele>32.799999237061</ele>
        <time>2019-09-29T09:44:37.000Z</time>
      </trkpt>
      <trkpt lat="47.28692" lon="-2.28624">
        <ele>32.400001525879</ele>
        <time>2019-09-29T09:44:38.000Z</time>
      </trkpt>
      <trkpt lat="47.28693" lon="-2.28633">
        <ele>31.799999237061</ele>
        <time>2019-09-29T09:44:39.000Z</time>
      </trkpt>
      <trkpt lat="47.28695" lon="-2.2865">
        <ele>31.799999237061</ele>
        <time>2019-09-29T09:44:41.000Z</time>
      </trkpt>
      <trkpt lat="47.287" lon="-2.28711">
        <ele>31.799999237061</ele>
        <time>2019-09-29T09:44:48.000Z</time>
      </trkpt>
      <trkpt lat="47.28709" lon="-2.28771">
        <ele>31.799999237061</ele>
        <time>2019-09-29T09:44:55.000Z</time>
      </trkpt>
      <trkpt lat="47.2871" lon="-2.28793">
        <ele>31.799999237061</ele>
        <time>2019-09-29T09:44:56.000Z</time>
      </trkpt>
      <trkpt lat="47.28708" lon="-2.288">
        <ele>31.799999237061</ele>
        <time>2019-09-29T09:44:59.000Z</time>
      </trkpt>
      <trkpt lat="47.28705" lon="-2.28807">
        <ele>31.39999961853</ele>
        <time>2019-09-29T09:45:00.000Z</time>
      </trkpt>
      <trkpt lat="47.287" lon="-2.28812">
        <ele>31</ele>
        <time>2019-09-29T09:45:01.000Z</time>
      </trkpt>
      <trkpt lat="47.28694" lon="-2.28815">
        <ele>30.60000038147</ele>
        <time>2019-09-29T09:45:02.000Z</time>
      </trkpt>
      <trkpt lat="47.28688" lon="-2.28818">
        <ele>30.200000762939</ele>
        <time>2019-09-29T09:45:03.000Z</time>
      </trkpt>
      <trkpt lat="47.28682" lon="-2.28819">
        <ele>29.799999237061</ele>
        <time>2019-09-29T09:45:04.000Z</time>
      </trkpt>
      <trkpt lat="47.28663" lon="-2.28824">
        <ele>29.799999237061</ele>
        <time>2019-09-29T09:45:07.000Z</time>
      </trkpt>
      <trkpt lat="47.28657" lon="-2.28824">
        <ele>29.799999237061</ele>
        <time>2019-09-29T09:45:08.000Z</time>
      </trkpt>
      <trkpt lat="47.28645" lon="-2.28823">
        <ele>29.799999237061</ele>
        <time>2019-09-29T09:45:10.000Z</time>
      </trkpt>
      <trkpt lat="47.28639" lon="-2.28823">
        <ele>29.799999237061</ele>
        <time>2019-09-29T09:45:11.000Z</time>
      </trkpt>
      <trkpt lat="47.28602" lon="-2.28819">
        <ele>29.799999237061</ele>
        <time>2019-09-29T09:45:17.000Z</time>
      </trkpt>
      <trkpt lat="47.28564" lon="-2.28809">
        <ele>29.799999237061</ele>
        <time>2019-09-29T09:45:24.000Z</time>
      </trkpt>
      <trkpt lat="47.28558" lon="-2.28809">
        <ele>30.200000762939</ele>
        <time>2019-09-29T09:45:25.000Z</time>
      </trkpt>
      <trkpt lat="47.28553" lon="-2.2881">
        <ele>30.60000038147</ele>
        <time>2019-09-29T09:45:26.000Z</time>
      </trkpt>
      <trkpt lat="47.28547" lon="-2.2881">
        <ele>31</ele>
        <time>2019-09-29T09:45:27.000Z</time>
      </trkpt>
      <trkpt lat="47.28541" lon="-2.28812">
        <ele>31.60000038147</ele>
        <time>2019-09-29T09:45:28.000Z</time>
      </trkpt>
      <trkpt lat="47.28536" lon="-2.28815">
        <ele>32</ele>
        <time>2019-09-29T09:45:29.000Z</time>
      </trkpt>
      <trkpt lat="47.28511" lon="-2.28831">
        <ele>32</ele>
        <time>2019-09-29T09:45:34.000Z</time>
      </trkpt>
      <trkpt lat="47.28496" lon="-2.28843">
        <ele>32</ele>
        <time>2019-09-29T09:45:37.000Z</time>
      </trkpt>
      <trkpt lat="47.28481" lon="-2.28854">
        <ele>32</ele>
        <time>2019-09-29T09:45:40.000Z</time>
      </trkpt>
      <trkpt lat="47.28471" lon="-2.2886">
        <ele>32</ele>
        <time>2019-09-29T09:45:42.000Z</time>
      </trkpt>
      <trkpt lat="47.28461" lon="-2.28867">
        <ele>32.400001525879</ele>
        <time>2019-09-29T09:45:44.000Z</time>
      </trkpt>
      <trkpt lat="47.28456" lon="-2.28869">
        <ele>33.200000762939</ele>
        <time>2019-09-29T09:45:45.000Z</time>
      </trkpt>
      <trkpt lat="47.28451" lon="-2.28871">
        <ele>33.599998474121</ele>
        <time>2019-09-29T09:45:46.000Z</time>
      </trkpt>
      <trkpt lat="47.28447" lon="-2.28874">
        <ele>34.200000762939</ele>
        <time>2019-09-29T09:45:47.000Z</time>
      </trkpt>
      <trkpt lat="47.28423" lon="-2.28883">
        <ele>34.200000762939</ele>
        <time>2019-09-29T09:45:52.000Z</time>
      </trkpt>
      <trkpt lat="47.284" lon="-2.28892">
        <ele>34.200000762939</ele>
        <time>2019-09-29T09:45:58.000Z</time>
      </trkpt>
      <trkpt lat="47.28394" lon="-2.28892">
        <ele>34.200000762939</ele>
        <time>2019-09-29T09:46:00.000Z</time>
      </trkpt>
      <trkpt lat="47.28392" lon="-2.28888">
        <ele>34.200000762939</ele>
        <time>2019-09-29T09:46:02.000Z</time>
      </trkpt>
      <trkpt lat="47.28391" lon="-2.28878">
        <ele>34.200000762939</ele>
        <time>2019-09-29T09:46:05.000Z</time>
      </trkpt>
      <trkpt lat="47.28391" lon="-2.28869">
        <ele>34.200000762939</ele>
        <time>2019-09-29T09:46:07.000Z</time>
      </trkpt>
      <trkpt lat="47.28391" lon="-2.28841">
        <ele>34.599998474121</ele>
        <time>2019-09-29T09:46:12.000Z</time>
      </trkpt>
      <trkpt lat="47.2839" lon="-2.28834">
        <ele>35</ele>
        <time>2019-09-29T09:46:13.000Z</time>
      </trkpt>
      <trkpt lat="47.2839" lon="-2.28827">
        <ele>35.400001525879</ele>
        <time>2019-09-29T09:46:14.000Z</time>
      </trkpt>
      <trkpt lat="47.2839" lon="-2.28819">
        <ele>35.799999237061</ele>
        <time>2019-09-29T09:46:15.000Z</time>
      </trkpt>
      <trkpt lat="47.2839" lon="-2.28812">
        <ele>36.400001525879</ele>
        <time>2019-09-29T09:46:16.000Z</time>
      </trkpt>
      <trkpt lat="47.28389" lon="-2.28788">
        <ele>36.400001525879</ele>
        <time>2019-09-29T09:46:19.000Z</time>
      </trkpt>
      <trkpt lat="47.28388" lon="-2.28765">
        <ele>36.400001525879</ele>
        <time>2019-09-29T09:46:22.000Z</time>
      </trkpt>
      <trkpt lat="47.28387" lon="-2.28749">
        <ele>36.400001525879</ele>
        <time>2019-09-29T09:46:24.000Z</time>
      </trkpt>
      <trkpt lat="47.28386" lon="-2.28732">
        <ele>36.400001525879</ele>
        <time>2019-09-29T09:46:26.000Z</time>
      </trkpt>
      <trkpt lat="47.28384" lon="-2.28707">
        <ele>36.400001525879</ele>
        <time>2019-09-29T09:46:29.000Z</time>
      </trkpt>
      <trkpt lat="47.28383" lon="-2.28698">
        <ele>36.400001525879</ele>
        <time>2019-09-29T09:46:30.000Z</time>
      </trkpt>
      <trkpt lat="47.28382" lon="-2.28654">
        <ele>36.400001525879</ele>
        <time>2019-09-29T09:46:35.000Z</time>
      </trkpt>
      <trkpt lat="47.28381" lon="-2.28646">
        <ele>36.400001525879</ele>
        <time>2019-09-29T09:46:36.000Z</time>
      </trkpt>
      <trkpt lat="47.28379" lon="-2.28559">
        <ele>36.400001525879</ele>
        <time>2019-09-29T09:46:46.000Z</time>
      </trkpt>
      <trkpt lat="47.28377" lon="-2.28501">
        <ele>36.400001525879</ele>
        <time>2019-09-29T09:46:53.000Z</time>
      </trkpt>
      <trkpt lat="47.28375" lon="-2.28442">
        <ele>36.400001525879</ele>
        <time>2019-09-29T09:47:00.000Z</time>
      </trkpt>
      <trkpt lat="47.28374" lon="-2.28418">
        <ele>36.799999237061</ele>
        <time>2019-09-29T09:47:01.000Z</time>
      </trkpt>
      <trkpt lat="47.28374" lon="-2.2841">
        <ele>37.200000762939</ele>
        <time>2019-09-29T09:47:04.000Z</time>
      </trkpt>
      <trkpt lat="47.28373" lon="-2.28403">
        <ele>37.599998474121</ele>
        <time>2019-09-29T09:47:05.000Z</time>
      </trkpt>
      <trkpt lat="47.28372" lon="-2.28395">
        <ele>38</ele>
        <time>2019-09-29T09:47:06.000Z</time>
      </trkpt>
      <trkpt lat="47.28372" lon="-2.28387">
        <ele>38.400001525879</ele>
        <time>2019-09-29T09:47:07.000Z</time>
      </trkpt>
      <trkpt lat="47.28371" lon="-2.28373">
        <ele>38.400001525879</ele>
        <time>2019-09-29T09:47:09.000Z</time>
      </trkpt>
      <trkpt lat="47.2837" lon="-2.28321">
        <ele>38.400001525879</ele>
        <time>2019-09-29T09:47:16.000Z</time>
      </trkpt>
      <trkpt lat="47.2837" lon="-2.28266">
        <ele>38.400001525879</ele>
        <time>2019-09-29T09:47:23.000Z</time>
      </trkpt>
      <trkpt lat="47.28369" lon="-2.28248">
        <ele>38</ele>
        <time>2019-09-29T09:47:25.000Z</time>
      </trkpt>
      <trkpt lat="47.28369" lon="-2.28238">
        <ele>37.599998474121</ele>
        <time>2019-09-29T09:47:26.000Z</time>
      </trkpt>
      <trkpt lat="47.28368" lon="-2.2823">
        <ele>37.200000762939</ele>
        <time>2019-09-29T09:47:27.000Z</time>
      </trkpt>
      <trkpt lat="47.28368" lon="-2.28221">
        <ele>36.799999237061</ele>
        <time>2019-09-29T09:47:28.000Z</time>
      </trkpt>
      <trkpt lat="47.28368" lon="-2.28212">
        <ele>36.400001525879</ele>
        <time>2019-09-29T09:47:29.000Z</time>
      </trkpt>
      <trkpt lat="47.28367" lon="-2.28166">
        <ele>36</ele>
        <time>2019-09-29T09:47:34.000Z</time>
      </trkpt>
      <trkpt lat="47.28367" lon="-2.28158">
        <ele>35.400001525879</ele>
        <time>2019-09-29T09:47:35.000Z</time>
      </trkpt>
      <trkpt lat="47.28367" lon="-2.28149">
        <ele>35</ele>
        <time>2019-09-29T09:47:36.000Z</time>
      </trkpt>
      <trkpt lat="47.28367" lon="-2.28141">
        <ele>34.599998474121</ele>
        <time>2019-09-29T09:47:37.000Z</time>
      </trkpt>
      <trkpt lat="47.28367" lon="-2.28134">
        <ele>34</ele>
        <time>2019-09-29T09:47:38.000Z</time>
      </trkpt>
      <trkpt lat="47.28366" lon="-2.28127">
        <ele>33.400001525879</ele>
        <time>2019-09-29T09:47:39.000Z</time>
      </trkpt>
      <trkpt lat="47.28366" lon="-2.2812">
        <ele>32.799999237061</ele>
        <time>2019-09-29T09:47:40.000Z</time>
      </trkpt>
      <trkpt lat="47.28366" lon="-2.28113">
        <ele>32.200000762939</ele>
        <time>2019-09-29T09:47:41.000Z</time>
      </trkpt>
      <trkpt lat="47.28366" lon="-2.28106">
        <ele>31.60000038147</ele>
        <time>2019-09-29T09:47:42.000Z</time>
      </trkpt>
      <trkpt lat="47.28365" lon="-2.281">
        <ele>31.200000762939</ele>
        <time>2019-09-29T09:47:43.000Z</time>
      </trkpt>
      <trkpt lat="47.28364" lon="-2.28095">
        <ele>30.799999237061</ele>
        <time>2019-09-29T09:47:44.000Z</time>
      </trkpt>
      <trkpt lat="47.28361" lon="-2.28092">
        <ele>30.200000762939</ele>
        <time>2019-09-29T09:47:45.000Z</time>
      </trkpt>
      <trkpt lat="47.28358" lon="-2.2809">
        <ele>29.799999237061</ele>
        <time>2019-09-29T09:47:46.000Z</time>
      </trkpt>
      <trkpt lat="47.28355" lon="-2.28089">
        <ele>29.39999961853</ele>
        <time>2019-09-29T09:47:47.000Z</time>
      </trkpt>
      <trkpt lat="47.28331" lon="-2.28095">
        <ele>29.39999961853</ele>
        <time>2019-09-29T09:47:55.000Z</time>
      </trkpt>
      <trkpt lat="47.28327" lon="-2.2813">
        <ele>29.39999961853</ele>
        <time>2019-09-29T09:48:01.000Z</time>
      </trkpt>
      <trkpt lat="47.28326" lon="-2.28149">
        <ele>29.39999961853</ele>
        <time>2019-09-29T09:48:04.000Z</time>
      </trkpt>
      <trkpt lat="47.28326" lon="-2.28156">
        <ele>29.799999237061</ele>
        <time>2019-09-29T09:48:05.000Z</time>
      </trkpt>
      <trkpt lat="47.28325" lon="-2.28163">
        <ele>30.200000762939</ele>
        <time>2019-09-29T09:48:06.000Z</time>
      </trkpt>
      <trkpt lat="47.28324" lon="-2.2817">
        <ele>30.60000038147</ele>
        <time>2019-09-29T09:48:07.000Z</time>
      </trkpt>
      <trkpt lat="47.28324" lon="-2.28177">
        <ele>31</ele>
        <time>2019-09-29T09:48:08.000Z</time>
      </trkpt>
      <trkpt lat="47.28325" lon="-2.28184">
        <ele>31.39999961853</ele>
        <time>2019-09-29T09:48:09.000Z</time>
      </trkpt>
      <trkpt lat="47.28324" lon="-2.28205">
        <ele>32</ele>
        <time>2019-09-29T09:48:12.000Z</time>
      </trkpt>
      <trkpt lat="47.28324" lon="-2.28212">
        <ele>32.400001525879</ele>
        <time>2019-09-29T09:48:13.000Z</time>
      </trkpt>
      <trkpt lat="47.28324" lon="-2.28219">
        <ele>33.200000762939</ele>
        <time>2019-09-29T09:48:14.000Z</time>
      </trkpt>
      <trkpt lat="47.28324" lon="-2.28225">
        <ele>33.599998474121</ele>
        <time>2019-09-29T09:48:15.000Z</time>
      </trkpt>
      <trkpt lat="47.28323" lon="-2.28245">
        <ele>34</ele>
        <time>2019-09-29T09:48:18.000Z</time>
      </trkpt>
      <trkpt lat="47.28323" lon="-2.28252">
        <ele>34.599998474121</ele>
        <time>2019-09-29T09:48:19.000Z</time>
      </trkpt>
      <trkpt lat="47.28324" lon="-2.28259">
        <ele>35</ele>
        <time>2019-09-29T09:48:20.000Z</time>
      </trkpt>
      <trkpt lat="47.28324" lon="-2.28266">
        <ele>35.400001525879</ele>
        <time>2019-09-29T09:48:21.000Z</time>
      </trkpt>
      <trkpt lat="47.28324" lon="-2.28273">
        <ele>35.799999237061</ele>
        <time>2019-09-29T09:48:22.000Z</time>
      </trkpt>
      <trkpt lat="47.28323" lon="-2.28292">
        <ele>36.200000762939</ele>
        <time>2019-09-29T09:48:25.000Z</time>
      </trkpt>
      <trkpt lat="47.28324" lon="-2.28298">
        <ele>36.799999237061</ele>
        <time>2019-09-29T09:48:26.000Z</time>
      </trkpt>
      <trkpt lat="47.28323" lon="-2.28304">
        <ele>37.200000762939</ele>
        <time>2019-09-29T09:48:27.000Z</time>
      </trkpt>
      <trkpt lat="47.28324" lon="-2.2831">
        <ele>37.599998474121</ele>
        <time>2019-09-29T09:48:28.000Z</time>
      </trkpt>
      <trkpt lat="47.28324" lon="-2.28316">
        <ele>38</ele>
        <time>2019-09-29T09:48:29.000Z</time>
      </trkpt>
      <trkpt lat="47.28324" lon="-2.2833">
        <ele>38</ele>
        <time>2019-09-29T09:48:31.000Z</time>
      </trkpt>
      <trkpt lat="47.28324" lon="-2.28337">
        <ele>38</ele>
        <time>2019-09-29T09:48:32.000Z</time>
      </trkpt>
      <trkpt lat="47.28321" lon="-2.28382">
        <ele>38</ele>
        <time>2019-09-29T09:48:38.000Z</time>
      </trkpt>
      <trkpt lat="47.28317" lon="-2.28405">
        <ele>38</ele>
        <time>2019-09-29T09:48:41.000Z</time>
      </trkpt>
      <trkpt lat="47.28312" lon="-2.28419">
        <ele>38</ele>
        <time>2019-09-29T09:48:43.000Z</time>
      </trkpt>
      <trkpt lat="47.28295" lon="-2.28489">
        <ele>39.200000762939</ele>
        <time>2019-09-29T09:48:50.000Z</time>
      </trkpt>
      <trkpt lat="47.28295" lon="-2.28489">
        <ele>39.200000762939</ele>
        <time>2019-09-29T09:48:52.000Z</time>
      </trkpt>
      <trkpt lat="47.28294" lon="-2.28498">
        <ele>39.599998474121</ele>
        <time>2019-09-29T09:48:53.000Z</time>
      </trkpt>
      <trkpt lat="47.28293" lon="-2.28506">
        <ele>40</ele>
        <time>2019-09-29T09:48:54.000Z</time>
      </trkpt>
      <trkpt lat="47.28292" lon="-2.28514">
        <ele>39.599998474121</ele>
        <time>2019-09-29T09:48:55.000Z</time>
      </trkpt>
      <trkpt lat="47.28291" lon="-2.28523">
        <ele>39.200000762939</ele>
        <time>2019-09-29T09:48:56.000Z</time>
      </trkpt>
      <trkpt lat="47.28289" lon="-2.28532">
        <ele>38.799999237061</ele>
        <time>2019-09-29T09:48:57.000Z</time>
      </trkpt>
      <trkpt lat="47.28288" lon="-2.28541">
        <ele>38.200000762939</ele>
        <time>2019-09-29T09:48:58.000Z</time>
      </trkpt>
      <trkpt lat="47.28286" lon="-2.28549">
        <ele>37.799999237061</ele>
        <time>2019-09-29T09:48:59.000Z</time>
      </trkpt>
      <trkpt lat="47.28274" lon="-2.28611">
        <ele>37.799999237061</ele>
        <time>2019-09-29T09:49:06.000Z</time>
      </trkpt>
      <trkpt lat="47.28261" lon="-2.28668">
        <ele>37.799999237061</ele>
        <time>2019-09-29T09:49:13.000Z</time>
      </trkpt>
      <trkpt lat="47.28239" lon="-2.28789">
        <ele>37.799999237061</ele>
        <time>2019-09-29T09:49:25.000Z</time>
      </trkpt>
      <trkpt lat="47.28233" lon="-2.28833">
        <ele>37.799999237061</ele>
        <time>2019-09-29T09:49:34.000Z</time>
      </trkpt>
      <trkpt lat="47.2823" lon="-2.28847">
        <ele>37.799999237061</ele>
        <time>2019-09-29T09:49:36.000Z</time>
      </trkpt>
      <trkpt lat="47.28222" lon="-2.28865">
        <ele>37.799999237061</ele>
        <time>2019-09-29T09:49:39.000Z</time>
      </trkpt>
      <trkpt lat="47.28207" lon="-2.2887">
        <ele>37.799999237061</ele>
        <time>2019-09-29T09:49:42.000Z</time>
      </trkpt>
      <trkpt lat="47.28187" lon="-2.28854">
        <ele>37.799999237061</ele>
        <time>2019-09-29T09:49:46.000Z</time>
      </trkpt>
      <trkpt lat="47.28183" lon="-2.2885">
        <ele>37.400001525879</ele>
        <time>2019-09-29T09:49:47.000Z</time>
      </trkpt>
      <trkpt lat="47.28178" lon="-2.28846">
        <ele>37</ele>
        <time>2019-09-29T09:49:48.000Z</time>
      </trkpt>
      <trkpt lat="47.28173" lon="-2.28843">
        <ele>36.599998474121</ele>
        <time>2019-09-29T09:49:49.000Z</time>
      </trkpt>
      <trkpt lat="47.28169" lon="-2.28839">
        <ele>36</ele>
        <time>2019-09-29T09:49:50.000Z</time>
      </trkpt>
      <trkpt lat="47.28165" lon="-2.28834">
        <ele>35.599998474121</ele>
        <time>2019-09-29T09:49:51.000Z</time>
      </trkpt>
      <trkpt lat="47.28131" lon="-2.28804">
        <ele>35.599998474121</ele>
        <time>2019-09-29T09:49:58.000Z</time>
      </trkpt>
      <trkpt lat="47.28092" lon="-2.28779">
        <ele>35.200000762939</ele>
        <time>2019-09-29T09:50:04.000Z</time>
      </trkpt>
      <trkpt lat="47.28085" lon="-2.28775">
        <ele>34.799999237061</ele>
        <time>2019-09-29T09:50:05.000Z</time>
      </trkpt>
      <trkpt lat="47.28079" lon="-2.28771">
        <ele>34.400001525879</ele>
        <time>2019-09-29T09:50:06.000Z</time>
      </trkpt>
      <trkpt lat="47.28072" lon="-2.28768">
        <ele>34</ele>
        <time>2019-09-29T09:50:07.000Z</time>
      </trkpt>
      <trkpt lat="47.28065" lon="-2.28765">
        <ele>33.599998474121</ele>
        <time>2019-09-29T09:50:08.000Z</time>
      </trkpt>
      <trkpt lat="47.28051" lon="-2.2876">
        <ele>33.599998474121</ele>
        <time>2019-09-29T09:50:10.000Z</time>
      </trkpt>
      <trkpt lat="47.28044" lon="-2.28758">
        <ele>33.599998474121</ele>
        <time>2019-09-29T09:50:11.000Z</time>
      </trkpt>
      <trkpt lat="47.28004" lon="-2.2875">
        <ele>33.599998474121</ele>
        <time>2019-09-29T09:50:17.000Z</time>
      </trkpt>
      <trkpt lat="47.27967" lon="-2.28746">
        <ele>33.599998474121</ele>
        <time>2019-09-29T09:50:23.000Z</time>
      </trkpt>
      <trkpt lat="47.2796" lon="-2.28746">
        <ele>33</ele>
        <time>2019-09-29T09:50:24.000Z</time>
      </trkpt>
      <trkpt lat="47.27954" lon="-2.28747">
        <ele>32.599998474121</ele>
        <time>2019-09-29T09:50:25.000Z</time>
      </trkpt>
      <trkpt lat="47.27948" lon="-2.28749">
        <ele>32.200000762939</ele>
        <time>2019-09-29T09:50:26.000Z</time>
      </trkpt>
      <trkpt lat="47.27942" lon="-2.28751">
        <ele>31.799999237061</ele>
        <time>2019-09-29T09:50:27.000Z</time>
      </trkpt>
      <trkpt lat="47.27936" lon="-2.28753">
        <ele>31.39999961853</ele>
        <time>2019-09-29T09:50:28.000Z</time>
      </trkpt>
      <trkpt lat="47.27897" lon="-2.28768">
        <ele>31.39999961853</ele>
        <time>2019-09-29T09:50:35.000Z</time>
      </trkpt>
      <trkpt lat="47.27887" lon="-2.28771">
        <ele>31.39999961853</ele>
        <time>2019-09-29T09:50:37.000Z</time>
      </trkpt>
      <trkpt lat="47.27879" lon="-2.28779">
        <ele>31.39999961853</ele>
        <time>2019-09-29T09:50:39.000Z</time>
      </trkpt>
      <trkpt lat="47.27875" lon="-2.28796">
        <ele>31.39999961853</ele>
        <time>2019-09-29T09:50:42.000Z</time>
      </trkpt>
      <trkpt lat="47.27873" lon="-2.28801">
        <ele>31.39999961853</ele>
        <time>2019-09-29T09:50:43.000Z</time>
      </trkpt>
      <trkpt lat="47.27865" lon="-2.28814">
        <ele>31.39999961853</ele>
        <time>2019-09-29T09:50:46.000Z</time>
      </trkpt>
      <trkpt lat="47.27861" lon="-2.28815">
        <ele>31.39999961853</ele>
        <time>2019-09-29T09:50:47.000Z</time>
      </trkpt>
      <trkpt lat="47.27846" lon="-2.28806">
        <ele>31.39999961853</ele>
        <time>2019-09-29T09:50:50.000Z</time>
      </trkpt>
      <trkpt lat="47.2782" lon="-2.28792">
        <ele>31.39999961853</ele>
        <time>2019-09-29T09:50:55.000Z</time>
      </trkpt>
      <trkpt lat="47.27814" lon="-2.28791">
        <ele>31.39999961853</ele>
        <time>2019-09-29T09:50:56.000Z</time>
      </trkpt>
      <trkpt lat="47.27793" lon="-2.28802">
        <ele>31.39999961853</ele>
        <time>2019-09-29T09:51:00.000Z</time>
      </trkpt>
      <trkpt lat="47.27789" lon="-2.28809">
        <ele>31.39999961853</ele>
        <time>2019-09-29T09:51:01.000Z</time>
      </trkpt>
      <trkpt lat="47.27762" lon="-2.28859">
        <ele>31.39999961853</ele>
        <time>2019-09-29T09:51:07.000Z</time>
      </trkpt>
      <trkpt lat="47.27736" lon="-2.28901">
        <ele>31.39999961853</ele>
        <time>2019-09-29T09:51:13.000Z</time>
      </trkpt>
      <trkpt lat="47.27731" lon="-2.28908">
        <ele>31.39999961853</ele>
        <time>2019-09-29T09:51:14.000Z</time>
      </trkpt>
      <trkpt lat="47.27723" lon="-2.28921">
        <ele>31.39999961853</ele>
        <time>2019-09-29T09:51:16.000Z</time>
      </trkpt>
      <trkpt lat="47.27714" lon="-2.28936">
        <ele>31.39999961853</ele>
        <time>2019-09-29T09:51:18.000Z</time>
      </trkpt>
      <trkpt lat="47.27698" lon="-2.28978">
        <ele>31.39999961853</ele>
        <time>2019-09-29T09:51:23.000Z</time>
      </trkpt>
      <trkpt lat="47.27676" lon="-2.29027">
        <ele>31.39999961853</ele>
        <time>2019-09-29T09:51:31.000Z</time>
      </trkpt>
      <trkpt lat="47.27659" lon="-2.29059">
        <ele>31.39999961853</ele>
        <time>2019-09-29T09:51:36.000Z</time>
      </trkpt>
      <trkpt lat="47.27652" lon="-2.29072">
        <ele>31.39999961853</ele>
        <time>2019-09-29T09:51:38.000Z</time>
      </trkpt>
      <trkpt lat="47.2763" lon="-2.29113">
        <ele>31.39999961853</ele>
        <time>2019-09-29T09:51:44.000Z</time>
      </trkpt>
      <trkpt lat="47.27618" lon="-2.2914">
        <ele>31.39999961853</ele>
        <time>2019-09-29T09:51:48.000Z</time>
      </trkpt>
      <trkpt lat="47.27612" lon="-2.2915">
        <ele>31.39999961853</ele>
        <time>2019-09-29T09:51:50.000Z</time>
      </trkpt>
      <trkpt lat="47.27596" lon="-2.29168">
        <ele>31.39999961853</ele>
        <time>2019-09-29T09:51:55.000Z</time>
      </trkpt>
      <trkpt lat="47.27571" lon="-2.29196">
        <ele>31.39999961853</ele>
        <time>2019-09-29T09:52:01.000Z</time>
      </trkpt>
      <trkpt lat="47.27543" lon="-2.29233">
        <ele>31.39999961853</ele>
        <time>2019-09-29T09:52:08.000Z</time>
      </trkpt>
      <trkpt lat="47.27515" lon="-2.29267">
        <ele>31.39999961853</ele>
        <time>2019-09-29T09:52:15.000Z</time>
      </trkpt>
      <trkpt lat="47.27491" lon="-2.29289">
        <ele>32.599998474121</ele>
        <time>2019-09-29T09:52:19.000Z</time>
      </trkpt>
      <trkpt lat="47.27482" lon="-2.29298">
        <ele>33.400001525879</ele>
        <time>2019-09-29T09:52:22.000Z</time>
      </trkpt>
      <trkpt lat="47.27467" lon="-2.29305">
        <ele>33.400001525879</ele>
        <time>2019-09-29T09:52:28.000Z</time>
      </trkpt>
      <trkpt lat="47.27455" lon="-2.29316">
        <ele>33.400001525879</ele>
        <time>2019-09-29T09:52:31.000Z</time>
      </trkpt>
      <trkpt lat="47.27451" lon="-2.2932">
        <ele>33.400001525879</ele>
        <time>2019-09-29T09:52:32.000Z</time>
      </trkpt>
      <trkpt lat="47.27426" lon="-2.29347">
        <ele>33.400001525879</ele>
        <time>2019-09-29T09:52:38.000Z</time>
      </trkpt>
      <trkpt lat="47.27399" lon="-2.29374">
        <ele>33.400001525879</ele>
        <time>2019-09-29T09:52:44.000Z</time>
      </trkpt>
      <trkpt lat="47.27377" lon="-2.29401">
        <ele>34</ele>
        <time>2019-09-29T09:52:49.000Z</time>
      </trkpt>
      <trkpt lat="47.27373" lon="-2.29406">
        <ele>34.400001525879</ele>
        <time>2019-09-29T09:52:50.000Z</time>
      </trkpt>
      <trkpt lat="47.27368" lon="-2.29411">
        <ele>34.799999237061</ele>
        <time>2019-09-29T09:52:51.000Z</time>
      </trkpt>
      <trkpt lat="47.27363" lon="-2.29416">
        <ele>35.200000762939</ele>
        <time>2019-09-29T09:52:52.000Z</time>
      </trkpt>
      <trkpt lat="47.27358" lon="-2.29421">
        <ele>35.799999237061</ele>
        <time>2019-09-29T09:52:53.000Z</time>
      </trkpt>
      <trkpt lat="47.27343" lon="-2.29435">
        <ele>35.799999237061</ele>
        <time>2019-09-29T09:52:56.000Z</time>
      </trkpt>
      <trkpt lat="47.27338" lon="-2.2944">
        <ele>35.799999237061</ele>
        <time>2019-09-29T09:52:57.000Z</time>
      </trkpt>
      <trkpt lat="47.27321" lon="-2.2946">
        <ele>35.799999237061</ele>
        <time>2019-09-29T09:53:01.000Z</time>
      </trkpt>
      <trkpt lat="47.27306" lon="-2.29475">
        <ele>35.799999237061</ele>
        <time>2019-09-29T09:53:04.000Z</time>
      </trkpt>
      <trkpt lat="47.27297" lon="-2.29486">
        <ele>35.799999237061</ele>
        <time>2019-09-29T09:53:06.000Z</time>
      </trkpt>
      <trkpt lat="47.27276" lon="-2.2951">
        <ele>35.799999237061</ele>
        <time>2019-09-29T09:53:11.000Z</time>
      </trkpt>
      <trkpt lat="47.27264" lon="-2.29524">
        <ele>35.799999237061</ele>
        <time>2019-09-29T09:53:12.000Z</time>
      </trkpt>
      <trkpt lat="47.27256" lon="-2.29533">
        <ele>35.799999237061</ele>
        <time>2019-09-29T09:53:16.000Z</time>
      </trkpt>
      <trkpt lat="47.27253" lon="-2.29538">
        <ele>35.799999237061</ele>
        <time>2019-09-29T09:53:17.000Z</time>
      </trkpt>
      <trkpt lat="47.27251" lon="-2.29553">
        <ele>35.799999237061</ele>
        <time>2019-09-29T09:53:20.000Z</time>
      </trkpt>
      <trkpt lat="47.27257" lon="-2.29576">
        <ele>35.799999237061</ele>
        <time>2019-09-29T09:53:24.000Z</time>
      </trkpt>
      <trkpt lat="47.27258" lon="-2.29583">
        <ele>35.799999237061</ele>
        <time>2019-09-29T09:53:25.000Z</time>
      </trkpt>
      <trkpt lat="47.27261" lon="-2.29614">
        <ele>35.799999237061</ele>
        <time>2019-09-29T09:53:29.000Z</time>
      </trkpt>
      <trkpt lat="47.27263" lon="-2.29621">
        <ele>35.799999237061</ele>
        <time>2019-09-29T09:53:30.000Z</time>
      </trkpt>
      <trkpt lat="47.27268" lon="-2.29643">
        <ele>35.799999237061</ele>
        <time>2019-09-29T09:53:34.000Z</time>
      </trkpt>
      <trkpt lat="47.2727" lon="-2.29661">
        <ele>36.200000762939</ele>
        <time>2019-09-29T09:53:37.000Z</time>
      </trkpt>
      <trkpt lat="47.27271" lon="-2.29668">
        <ele>36.599998474121</ele>
        <time>2019-09-29T09:53:38.000Z</time>
      </trkpt>
      <trkpt lat="47.27276" lon="-2.2969">
        <ele>37.799999237061</ele>
        <time>2019-09-29T09:53:39.000Z</time>
      </trkpt>
      <trkpt lat="47.27287" lon="-2.29738">
        <ele>37.799999237061</ele>
        <time>2019-09-29T09:53:47.000Z</time>
      </trkpt>
      <trkpt lat="47.27307" lon="-2.29793">
        <ele>37.799999237061</ele>
        <time>2019-09-29T09:53:54.000Z</time>
      </trkpt>
      <trkpt lat="47.27321" lon="-2.29821">
        <ele>37.799999237061</ele>
        <time>2019-09-29T09:53:58.000Z</time>
      </trkpt>
      <trkpt lat="47.2734" lon="-2.29857">
        <ele>37.799999237061</ele>
        <time>2019-09-29T09:54:03.000Z</time>
      </trkpt>
      <trkpt lat="47.27365" lon="-2.29915">
        <ele>37.799999237061</ele>
        <time>2019-09-29T09:54:09.000Z</time>
      </trkpt>
      <trkpt lat="47.27385" lon="-2.29959">
        <ele>37.799999237061</ele>
        <time>2019-09-29T09:54:17.000Z</time>
      </trkpt>
      <trkpt lat="47.27406" lon="-2.30006">
        <ele>37.799999237061</ele>
        <time>2019-09-29T09:54:23.000Z</time>
      </trkpt>
      <trkpt lat="47.27422" lon="-2.30044">
        <ele>37.799999237061</ele>
        <time>2019-09-29T09:54:28.000Z</time>
      </trkpt>
      <trkpt lat="47.27438" lon="-2.30096">
        <ele>37.799999237061</ele>
        <time>2019-09-29T09:54:35.000Z</time>
      </trkpt>
      <trkpt lat="47.27441" lon="-2.3011">
        <ele>37.400001525879</ele>
        <time>2019-09-29T09:54:37.000Z</time>
      </trkpt>
      <trkpt lat="47.27446" lon="-2.30131">
        <ele>35.799999237061</ele>
        <time>2019-09-29T09:54:38.000Z</time>
      </trkpt>
      <trkpt lat="47.27448" lon="-2.30139">
        <ele>35.400001525879</ele>
        <time>2019-09-29T09:54:41.000Z</time>
      </trkpt>
      <trkpt lat="47.27458" lon="-2.30184">
        <ele>35.400001525879</ele>
        <time>2019-09-29T09:54:47.000Z</time>
      </trkpt>
      <trkpt lat="47.27459" lon="-2.3019">
        <ele>35.400001525879</ele>
        <time>2019-09-29T09:54:48.000Z</time>
      </trkpt>
      <trkpt lat="47.27457" lon="-2.302">
        <ele>34.599998474121</ele>
        <time>2019-09-29T09:54:50.000Z</time>
      </trkpt>
      <trkpt lat="47.27455" lon="-2.30203">
        <ele>34</ele>
        <time>2019-09-29T09:54:51.000Z</time>
      </trkpt>
      <trkpt lat="47.27453" lon="-2.30205">
        <ele>33.599998474121</ele>
        <time>2019-09-29T09:54:52.000Z</time>
      </trkpt>
      <trkpt lat="47.2745" lon="-2.30207">
        <ele>33.200000762939</ele>
        <time>2019-09-29T09:54:53.000Z</time>
      </trkpt>
      <trkpt lat="47.27438" lon="-2.30212">
        <ele>33.200000762939</ele>
        <time>2019-09-29T09:54:57.000Z</time>
      </trkpt>
      <trkpt lat="47.27413" lon="-2.30226">
        <ele>33.200000762939</ele>
        <time>2019-09-29T09:55:02.000Z</time>
      </trkpt>
      <trkpt lat="47.27396" lon="-2.30236">
        <ele>33.200000762939</ele>
        <time>2019-09-29T09:55:05.000Z</time>
      </trkpt>
      <trkpt lat="47.27384" lon="-2.30242">
        <ele>33.200000762939</ele>
        <time>2019-09-29T09:55:07.000Z</time>
      </trkpt>
      <trkpt lat="47.27369" lon="-2.30247">
        <ele>33.200000762939</ele>
        <time>2019-09-29T09:55:10.000Z</time>
      </trkpt>
      <trkpt lat="47.27351" lon="-2.3025">
        <ele>33.200000762939</ele>
        <time>2019-09-29T09:55:13.000Z</time>
      </trkpt>
      <trkpt lat="47.27313" lon="-2.30254">
        <ele>33.200000762939</ele>
        <time>2019-09-29T09:55:19.000Z</time>
      </trkpt>
      <trkpt lat="47.27307" lon="-2.30255">
        <ele>32.799999237061</ele>
        <time>2019-09-29T09:55:20.000Z</time>
      </trkpt>
      <trkpt lat="47.273" lon="-2.30256">
        <ele>32.400001525879</ele>
        <time>2019-09-29T09:55:21.000Z</time>
      </trkpt>
      <trkpt lat="47.27294" lon="-2.30256">
        <ele>32</ele>
        <time>2019-09-29T09:55:22.000Z</time>
      </trkpt>
      <trkpt lat="47.27287" lon="-2.30257">
        <ele>31.60000038147</ele>
        <time>2019-09-29T09:55:23.000Z</time>
      </trkpt>
      <trkpt lat="47.27281" lon="-2.30257">
        <ele>31.200000762939</ele>
        <time>2019-09-29T09:55:24.000Z</time>
      </trkpt>
      <trkpt lat="47.27268" lon="-2.30259">
        <ele>31.200000762939</ele>
        <time>2019-09-29T09:55:26.000Z</time>
      </trkpt>
      <trkpt lat="47.27238" lon="-2.30268">
        <ele>31.200000762939</ele>
        <time>2019-09-29T09:55:31.000Z</time>
      </trkpt>
      <trkpt lat="47.27234" lon="-2.30267">
        <ele>31.200000762939</ele>
        <time>2019-09-29T09:55:32.000Z</time>
      </trkpt>
      <trkpt lat="47.27219" lon="-2.30263">
        <ele>31.200000762939</ele>
        <time>2019-09-29T09:55:37.000Z</time>
      </trkpt>
      <trkpt lat="47.27205" lon="-2.30258">
        <ele>31.200000762939</ele>
        <time>2019-09-29T09:55:41.000Z</time>
      </trkpt>
      <trkpt lat="47.27196" lon="-2.3026">
        <ele>31.200000762939</ele>
        <time>2019-09-29T09:55:44.000Z</time>
      </trkpt>
      <trkpt lat="47.27191" lon="-2.30262">
        <ele>31.200000762939</ele>
        <time>2019-09-29T09:55:46.000Z</time>
      </trkpt>
      <trkpt lat="47.27177" lon="-2.30254">
        <ele>31.200000762939</ele>
        <time>2019-09-29T09:55:50.000Z</time>
      </trkpt>
      <trkpt lat="47.27163" lon="-2.30244">
        <ele>31.200000762939</ele>
        <time>2019-09-29T09:55:53.000Z</time>
      </trkpt>
      <trkpt lat="47.27163" lon="-2.30244">
        <ele>31.200000762939</ele>
        <time>2019-09-29T09:55:55.000Z</time>
      </trkpt>
      <trkpt lat="47.27152" lon="-2.30245">
        <ele>31.200000762939</ele>
        <time>2019-09-29T09:55:58.000Z</time>
      </trkpt>
      <trkpt lat="47.27135" lon="-2.3025">
        <ele>31.200000762939</ele>
        <time>2019-09-29T09:55:59.000Z</time>
      </trkpt>
      <trkpt lat="47.27108" lon="-2.30259">
        <ele>31.200000762939</ele>
        <time>2019-09-29T09:56:08.000Z</time>
      </trkpt>
      <trkpt lat="47.27103" lon="-2.30262">
        <ele>31.200000762939</ele>
        <time>2019-09-29T09:56:09.000Z</time>
      </trkpt>
      <trkpt lat="47.27092" lon="-2.30271">
        <ele>31.200000762939</ele>
        <time>2019-09-29T09:56:12.000Z</time>
      </trkpt>
      <trkpt lat="47.27085" lon="-2.30278">
        <ele>31.200000762939</ele>
        <time>2019-09-29T09:56:14.000Z</time>
      </trkpt>
      <trkpt lat="47.27078" lon="-2.30293">
        <ele>31.200000762939</ele>
        <time>2019-09-29T09:56:17.000Z</time>
      </trkpt>
      <trkpt lat="47.27076" lon="-2.30298">
        <ele>31.60000038147</ele>
        <time>2019-09-29T09:56:18.000Z</time>
      </trkpt>
      <trkpt lat="47.27074" lon="-2.30304">
        <ele>32</ele>
        <time>2019-09-29T09:56:19.000Z</time>
      </trkpt>
      <trkpt lat="47.27073" lon="-2.30311">
        <ele>32.400001525879</ele>
        <time>2019-09-29T09:56:20.000Z</time>
      </trkpt>
      <trkpt lat="47.27071" lon="-2.30318">
        <ele>33</ele>
        <time>2019-09-29T09:56:21.000Z</time>
      </trkpt>
      <trkpt lat="47.2707" lon="-2.30325">
        <ele>33.400001525879</ele>
        <time>2019-09-29T09:56:22.000Z</time>
      </trkpt>
      <trkpt lat="47.27067" lon="-2.3034">
        <ele>33.400001525879</ele>
        <time>2019-09-29T09:56:24.000Z</time>
      </trkpt>
      <trkpt lat="47.27064" lon="-2.30356">
        <ele>33.400001525879</ele>
        <time>2019-09-29T09:56:26.000Z</time>
      </trkpt>
      <trkpt lat="47.27062" lon="-2.30364">
        <ele>33.400001525879</ele>
        <time>2019-09-29T09:56:27.000Z</time>
      </trkpt>
      <trkpt lat="47.27053" lon="-2.30425">
        <ele>33.400001525879</ele>
        <time>2019-09-29T09:56:34.000Z</time>
      </trkpt>
      <trkpt lat="47.27051" lon="-2.30433">
        <ele>33.400001525879</ele>
        <time>2019-09-29T09:56:35.000Z</time>
      </trkpt>
      <trkpt lat="47.27047" lon="-2.30457">
        <ele>33.400001525879</ele>
        <time>2019-09-29T09:56:38.000Z</time>
      </trkpt>
      <trkpt lat="47.27045" lon="-2.30466">
        <ele>33.400001525879</ele>
        <time>2019-09-29T09:56:39.000Z</time>
      </trkpt>
      <trkpt lat="47.27039" lon="-2.30489">
        <ele>33.400001525879</ele>
        <time>2019-09-29T09:56:42.000Z</time>
      </trkpt>
      <trkpt lat="47.27038" lon="-2.30497">
        <ele>33.400001525879</ele>
        <time>2019-09-29T09:56:43.000Z</time>
      </trkpt>
      <trkpt lat="47.27035" lon="-2.30511">
        <ele>33.400001525879</ele>
        <time>2019-09-29T09:56:45.000Z</time>
      </trkpt>
      <trkpt lat="47.27029" lon="-2.30534">
        <ele>33.400001525879</ele>
        <time>2019-09-29T09:56:48.000Z</time>
      </trkpt>
      <trkpt lat="47.27013" lon="-2.30583">
        <ele>33.400001525879</ele>
        <time>2019-09-29T09:56:54.000Z</time>
      </trkpt>
      <trkpt lat="47.27009" lon="-2.30589">
        <ele>33.400001525879</ele>
        <time>2019-09-29T09:56:55.000Z</time>
      </trkpt>
      <trkpt lat="47.26988" lon="-2.30608">
        <ele>33.400001525879</ele>
        <time>2019-09-29T09:56:59.000Z</time>
      </trkpt>
      <trkpt lat="47.26963" lon="-2.30619">
        <ele>33.400001525879</ele>
        <time>2019-09-29T09:57:04.000Z</time>
      </trkpt>
      <trkpt lat="47.26939" lon="-2.30628">
        <ele>33.400001525879</ele>
        <time>2019-09-29T09:57:09.000Z</time>
      </trkpt>
      <trkpt lat="47.26914" lon="-2.30641">
        <ele>33.400001525879</ele>
        <time>2019-09-29T09:57:16.000Z</time>
      </trkpt>
      <trkpt lat="47.26911" lon="-2.30645">
        <ele>33.799999237061</ele>
        <time>2019-09-29T09:57:17.000Z</time>
      </trkpt>
      <trkpt lat="47.26907" lon="-2.30649">
        <ele>34.400001525879</ele>
        <time>2019-09-29T09:57:18.000Z</time>
      </trkpt>
      <trkpt lat="47.26903" lon="-2.30652">
        <ele>34.799999237061</ele>
        <time>2019-09-29T09:57:19.000Z</time>
      </trkpt>
      <trkpt lat="47.26899" lon="-2.30656">
        <ele>35.200000762939</ele>
        <time>2019-09-29T09:57:20.000Z</time>
      </trkpt>
      <trkpt lat="47.26895" lon="-2.30661">
        <ele>35.599998474121</ele>
        <time>2019-09-29T09:57:21.000Z</time>
      </trkpt>
      <trkpt lat="47.26873" lon="-2.30689">
        <ele>35.599998474121</ele>
        <time>2019-09-29T09:57:27.000Z</time>
      </trkpt>
      <trkpt lat="47.26852" lon="-2.30734">
        <ele>35.599998474121</ele>
        <time>2019-09-29T09:57:34.000Z</time>
      </trkpt>
      <trkpt lat="47.26836" lon="-2.30775">
        <ele>35.599998474121</ele>
        <time>2019-09-29T09:57:41.000Z</time>
      </trkpt>
      <trkpt lat="47.26834" lon="-2.30787">
        <ele>35.599998474121</ele>
        <time>2019-09-29T09:57:43.000Z</time>
      </trkpt>
      <trkpt lat="47.26832" lon="-2.30808">
        <ele>35.599998474121</ele>
        <time>2019-09-29T09:57:46.000Z</time>
      </trkpt>
      <trkpt lat="47.26831" lon="-2.30831">
        <ele>35.599998474121</ele>
        <time>2019-09-29T09:57:49.000Z</time>
      </trkpt>
      <trkpt lat="47.26833" lon="-2.30855">
        <ele>35.599998474121</ele>
        <time>2019-09-29T09:57:52.000Z</time>
      </trkpt>
      <trkpt lat="47.26838" lon="-2.30904">
        <ele>35.599998474121</ele>
        <time>2019-09-29T09:57:58.000Z</time>
      </trkpt>
      <trkpt lat="47.26847" lon="-2.30953">
        <ele>35.599998474121</ele>
        <time>2019-09-29T09:58:04.000Z</time>
      </trkpt>
      <trkpt lat="47.26851" lon="-2.31017">
        <ele>35.599998474121</ele>
        <time>2019-09-29T09:58:12.000Z</time>
      </trkpt>
      <trkpt lat="47.26852" lon="-2.31038">
        <ele>36.200000762939</ele>
        <time>2019-09-29T09:58:15.000Z</time>
      </trkpt>
      <trkpt lat="47.26852" lon="-2.31044">
        <ele>36.599998474121</ele>
        <time>2019-09-29T09:58:16.000Z</time>
      </trkpt>
      <trkpt lat="47.26853" lon="-2.31051">
        <ele>37</ele>
        <time>2019-09-29T09:58:17.000Z</time>
      </trkpt>
      <trkpt lat="47.26853" lon="-2.31058">
        <ele>37.599998474121</ele>
        <time>2019-09-29T09:58:18.000Z</time>
      </trkpt>
      <trkpt lat="47.26853" lon="-2.31064">
        <ele>38</ele>
        <time>2019-09-29T09:58:19.000Z</time>
      </trkpt>
      <trkpt lat="47.26855" lon="-2.3109">
        <ele>37.599998474121</ele>
        <time>2019-09-29T09:58:23.000Z</time>
      </trkpt>
      <trkpt lat="47.26855" lon="-2.31097">
        <ele>37.200000762939</ele>
        <time>2019-09-29T09:58:24.000Z</time>
      </trkpt>
      <trkpt lat="47.26855" lon="-2.31105">
        <ele>36.599998474121</ele>
        <time>2019-09-29T09:58:25.000Z</time>
      </trkpt>
      <trkpt lat="47.26855" lon="-2.31112">
        <ele>36.200000762939</ele>
        <time>2019-09-29T09:58:26.000Z</time>
      </trkpt>
      <trkpt lat="47.26855" lon="-2.31119">
        <ele>35.799999237061</ele>
        <time>2019-09-29T09:58:27.000Z</time>
      </trkpt>
      <trkpt lat="47.26855" lon="-2.31125">
        <ele>35.799999237061</ele>
        <time>2019-09-29T09:58:28.000Z</time>
      </trkpt>
      <trkpt lat="47.26854" lon="-2.31174">
        <ele>35.799999237061</ele>
        <time>2019-09-29T09:58:35.000Z</time>
      </trkpt>
      <trkpt lat="47.26851" lon="-2.31223">
        <ele>35.799999237061</ele>
        <time>2019-09-29T09:58:41.000Z</time>
      </trkpt>
      <trkpt lat="47.2685" lon="-2.3124">
        <ele>36.200000762939</ele>
        <time>2019-09-29T09:58:43.000Z</time>
      </trkpt>
      <trkpt lat="47.2685" lon="-2.31248">
        <ele>36.599998474121</ele>
        <time>2019-09-29T09:58:44.000Z</time>
      </trkpt>
      <trkpt lat="47.2685" lon="-2.31257">
        <ele>37.200000762939</ele>
        <time>2019-09-29T09:58:45.000Z</time>
      </trkpt>
      <trkpt lat="47.26849" lon="-2.31266">
        <ele>37.599998474121</ele>
        <time>2019-09-29T09:58:46.000Z</time>
      </trkpt>
      <trkpt lat="47.26847" lon="-2.31274">
        <ele>38</ele>
        <time>2019-09-29T09:58:47.000Z</time>
      </trkpt>
      <trkpt lat="47.26846" lon="-2.31283">
        <ele>38</ele>
        <time>2019-09-29T09:58:48.000Z</time>
      </trkpt>
      <trkpt lat="47.26837" lon="-2.31315">
        <ele>38</ele>
        <time>2019-09-29T09:58:52.000Z</time>
      </trkpt>
      <trkpt lat="47.26835" lon="-2.31321">
        <ele>38</ele>
        <time>2019-09-29T09:58:53.000Z</time>
      </trkpt>
      <trkpt lat="47.26827" lon="-2.31334">
        <ele>38</ele>
        <time>2019-09-29T09:58:56.000Z</time>
      </trkpt>
      <trkpt lat="47.2682" lon="-2.31336">
        <ele>38</ele>
        <time>2019-09-29T09:58:58.000Z</time>
      </trkpt>
      <trkpt lat="47.26817" lon="-2.31339">
        <ele>38</ele>
        <time>2019-09-29T09:58:59.000Z</time>
      </trkpt>
      <trkpt lat="47.268" lon="-2.31352">
        <ele>38</ele>
        <time>2019-09-29T09:59:03.000Z</time>
      </trkpt>
      <trkpt lat="47.26796" lon="-2.31355">
        <ele>38</ele>
        <time>2019-09-29T09:59:04.000Z</time>
      </trkpt>
      <trkpt lat="47.26761" lon="-2.31379">
        <ele>38</ele>
        <time>2019-09-29T09:59:11.000Z</time>
      </trkpt>
      <trkpt lat="47.26729" lon="-2.31397">
        <ele>38</ele>
        <time>2019-09-29T09:59:17.000Z</time>
      </trkpt>
      <trkpt lat="47.26718" lon="-2.31405">
        <ele>37.200000762939</ele>
        <time>2019-09-29T09:59:19.000Z</time>
      </trkpt>
      <trkpt lat="47.26713" lon="-2.31408">
        <ele>36.799999237061</ele>
        <time>2019-09-29T09:59:20.000Z</time>
      </trkpt>
      <trkpt lat="47.26707" lon="-2.31412">
        <ele>36.200000762939</ele>
        <time>2019-09-29T09:59:21.000Z</time>
      </trkpt>
      <trkpt lat="47.267" lon="-2.31415">
        <ele>35.799999237061</ele>
        <time>2019-09-29T09:59:22.000Z</time>
      </trkpt>
      <trkpt lat="47.26694" lon="-2.31419">
        <ele>35.799999237061</ele>
        <time>2019-09-29T09:59:23.000Z</time>
      </trkpt>
      <trkpt lat="47.26657" lon="-2.31439">
        <ele>35.799999237061</ele>
        <time>2019-09-29T09:59:29.000Z</time>
      </trkpt>
      <trkpt lat="47.26651" lon="-2.31444">
        <ele>35.799999237061</ele>
        <time>2019-09-29T09:59:30.000Z</time>
      </trkpt>
      <trkpt lat="47.26638" lon="-2.31453">
        <ele>35.400001525879</ele>
        <time>2019-09-29T09:59:32.000Z</time>
      </trkpt>
      <trkpt lat="47.26632" lon="-2.31458">
        <ele>35</ele>
        <time>2019-09-29T09:59:33.000Z</time>
      </trkpt>
      <trkpt lat="47.26626" lon="-2.31464">
        <ele>34.599998474121</ele>
        <time>2019-09-29T09:59:34.000Z</time>
      </trkpt>
      <trkpt lat="47.26621" lon="-2.31469">
        <ele>34</ele>
        <time>2019-09-29T09:59:35.000Z</time>
      </trkpt>
      <trkpt lat="47.26616" lon="-2.31474">
        <ele>33.599998474121</ele>
        <time>2019-09-29T09:59:36.000Z</time>
      </trkpt>
      <trkpt lat="47.26612" lon="-2.3148">
        <ele>33.599998474121</ele>
        <time>2019-09-29T09:59:37.000Z</time>
      </trkpt>
      <trkpt lat="47.26611" lon="-2.31487">
        <ele>33.599998474121</ele>
        <time>2019-09-29T09:59:38.000Z</time>
      </trkpt>
      <trkpt lat="47.26612" lon="-2.31494">
        <ele>33.200000762939</ele>
        <time>2019-09-29T09:59:39.000Z</time>
      </trkpt>
      <trkpt lat="47.26614" lon="-2.315">
        <ele>32.799999237061</ele>
        <time>2019-09-29T09:59:40.000Z</time>
      </trkpt>
      <trkpt lat="47.26616" lon="-2.31506">
        <ele>32.400001525879</ele>
        <time>2019-09-29T09:59:41.000Z</time>
      </trkpt>
      <trkpt lat="47.26618" lon="-2.31512">
        <ele>32</ele>
        <time>2019-09-29T09:59:42.000Z</time>
      </trkpt>
      <trkpt lat="47.26625" lon="-2.31529">
        <ele>30.60000038147</ele>
        <time>2019-09-29T09:59:43.000Z</time>
      </trkpt>
      <trkpt lat="47.26627" lon="-2.31535">
        <ele>30.200000762939</ele>
        <time>2019-09-29T09:59:46.000Z</time>
      </trkpt>
      <trkpt lat="47.26628" lon="-2.3154">
        <ele>29.799999237061</ele>
        <time>2019-09-29T09:59:47.000Z</time>
      </trkpt>
      <trkpt lat="47.2663" lon="-2.31544">
        <ele>29.39999961853</ele>
        <time>2019-09-29T09:59:48.000Z</time>
      </trkpt>
      <trkpt lat="47.26631" lon="-2.31555">
        <ele>29.39999961853</ele>
        <time>2019-09-29T09:59:51.000Z</time>
      </trkpt>
      <trkpt lat="47.26629" lon="-2.31558">
        <ele>29.39999961853</ele>
        <time>2019-09-29T09:59:52.000Z</time>
      </trkpt>
      <trkpt lat="47.26615" lon="-2.31568">
        <ele>29.39999961853</ele>
        <time>2019-09-29T09:59:56.000Z</time>
      </trkpt>
      <trkpt lat="47.2661" lon="-2.31571">
        <ele>29.39999961853</ele>
        <time>2019-09-29T09:59:57.000Z</time>
      </trkpt>
      <trkpt lat="47.26602" lon="-2.31577">
        <ele>28.799999237061</ele>
        <time>2019-09-29T09:59:59.000Z</time>
      </trkpt>
      <trkpt lat="47.26598" lon="-2.3158">
        <ele>28.39999961853</ele>
        <time>2019-09-29T10:00:00.000Z</time>
      </trkpt>
      <trkpt lat="47.26594" lon="-2.31583">
        <ele>28</ele>
        <time>2019-09-29T10:00:01.000Z</time>
      </trkpt>
      <trkpt lat="47.26591" lon="-2.31586">
        <ele>27.39999961853</ele>
        <time>2019-09-29T10:00:02.000Z</time>
      </trkpt>
      <trkpt lat="47.26587" lon="-2.31588">
        <ele>27</ele>
        <time>2019-09-29T10:00:03.000Z</time>
      </trkpt>
      <trkpt lat="47.2658" lon="-2.31593">
        <ele>26.60000038147</ele>
        <time>2019-09-29T10:00:05.000Z</time>
      </trkpt>
      <trkpt lat="47.26576" lon="-2.31596">
        <ele>26</ele>
        <time>2019-09-29T10:00:06.000Z</time>
      </trkpt>
      <trkpt lat="47.26572" lon="-2.31599">
        <ele>25.200000762939</ele>
        <time>2019-09-29T10:00:07.000Z</time>
      </trkpt>
      <trkpt lat="47.26568" lon="-2.31602">
        <ele>24.799999237061</ele>
        <time>2019-09-29T10:00:08.000Z</time>
      </trkpt>
      <trkpt lat="47.26564" lon="-2.31605">
        <ele>24.799999237061</ele>
        <time>2019-09-29T10:00:09.000Z</time>
      </trkpt>
      <trkpt lat="47.26561" lon="-2.31607">
        <ele>24.39999961853</ele>
        <time>2019-09-29T10:00:10.000Z</time>
      </trkpt>
      <trkpt lat="47.26557" lon="-2.31609">
        <ele>23.799999237061</ele>
        <time>2019-09-29T10:00:11.000Z</time>
      </trkpt>
      <trkpt lat="47.26553" lon="-2.31611">
        <ele>23.39999961853</ele>
        <time>2019-09-29T10:00:12.000Z</time>
      </trkpt>
      <trkpt lat="47.26541" lon="-2.3162">
        <ele>22.39999961853</ele>
        <time>2019-09-29T10:00:13.000Z</time>
      </trkpt>
      <trkpt lat="47.26536" lon="-2.31622">
        <ele>22.39999961853</ele>
        <time>2019-09-29T10:00:16.000Z</time>
      </trkpt>
      <trkpt lat="47.26528" lon="-2.31627">
        <ele>22.39999961853</ele>
        <time>2019-09-29T10:00:18.000Z</time>
      </trkpt>
      <trkpt lat="47.26513" lon="-2.31635">
        <ele>22.39999961853</ele>
        <time>2019-09-29T10:00:21.000Z</time>
      </trkpt>
      <trkpt lat="47.26481" lon="-2.31645">
        <ele>22</ele>
        <time>2019-09-29T10:00:26.000Z</time>
      </trkpt>
      <trkpt lat="47.26475" lon="-2.31646">
        <ele>21.39999961853</ele>
        <time>2019-09-29T10:00:27.000Z</time>
      </trkpt>
      <trkpt lat="47.26467" lon="-2.31647">
        <ele>21</ele>
        <time>2019-09-29T10:00:28.000Z</time>
      </trkpt>
      <trkpt lat="47.2646" lon="-2.31648">
        <ele>20.60000038147</ele>
        <time>2019-09-29T10:00:29.000Z</time>
      </trkpt>
      <trkpt lat="47.26453" lon="-2.31648">
        <ele>20.200000762939</ele>
        <time>2019-09-29T10:00:30.000Z</time>
      </trkpt>
      <trkpt lat="47.26446" lon="-2.31649">
        <ele>19.200000762939</ele>
        <time>2019-09-29T10:00:31.000Z</time>
      </trkpt>
      <trkpt lat="47.26439" lon="-2.3165">
        <ele>18.799999237061</ele>
        <time>2019-09-29T10:00:32.000Z</time>
      </trkpt>
      <trkpt lat="47.26433" lon="-2.31651">
        <ele>18.39999961853</ele>
        <time>2019-09-29T10:00:33.000Z</time>
      </trkpt>
      <trkpt lat="47.26428" lon="-2.31652">
        <ele>18</ele>
        <time>2019-09-29T10:00:34.000Z</time>
      </trkpt>
      <trkpt lat="47.26423" lon="-2.31652">
        <ele>17.60000038147</ele>
        <time>2019-09-29T10:00:35.000Z</time>
      </trkpt>
      <trkpt lat="47.26419" lon="-2.31653">
        <ele>17</ele>
        <time>2019-09-29T10:00:36.000Z</time>
      </trkpt>
      <trkpt lat="47.2641" lon="-2.31654">
        <ele>15.800000190735</ele>
        <time>2019-09-29T10:00:37.000Z</time>
      </trkpt>
      <trkpt lat="47.26406" lon="-2.31653">
        <ele>15.800000190735</ele>
        <time>2019-09-29T10:00:41.000Z</time>
      </trkpt>
      <trkpt lat="47.26404" lon="-2.31652">
        <ele>15.800000190735</ele>
        <time>2019-09-29T10:00:45.000Z</time>
      </trkpt>
      <trkpt lat="47.26403" lon="-2.31645">
        <ele>15.800000190735</ele>
        <time>2019-09-29T10:01:56.000Z</time>
      </trkpt>
      <trkpt lat="47.26404" lon="-2.31622">
        <ele>15.800000190735</ele>
        <time>2019-09-29T10:02:02.000Z</time>
      </trkpt>
      <trkpt lat="47.26405" lon="-2.316">
        <ele>15.800000190735</ele>
        <time>2019-09-29T10:02:07.000Z</time>
      </trkpt>
      <trkpt lat="47.26405" lon="-2.31572">
        <ele>15.800000190735</ele>
        <time>2019-09-29T10:02:13.000Z</time>
      </trkpt>
      <trkpt lat="47.26406" lon="-2.31555">
        <ele>15.800000190735</ele>
        <time>2019-09-29T10:02:17.000Z</time>
      </trkpt>
      <trkpt lat="47.26408" lon="-2.31552">
        <ele>15.800000190735</ele>
        <time>2019-09-29T10:02:18.000Z</time>
      </trkpt>
      <trkpt lat="47.26416" lon="-2.31551">
        <ele>15.800000190735</ele>
        <time>2019-09-29T10:02:21.000Z</time>
      </trkpt>
      <trkpt lat="47.26418" lon="-2.31552">
        <ele>15.800000190735</ele>
        <time>2019-09-29T10:02:23.000Z</time>
      </trkpt>
    </trkseg>
  </trk>
</gpx>